<?xml version="1.0" encoding="UTF-8" standalone="no" ?><gpx xmlns="http://www.topografix.com/GPX/1/1" xmlns:gpxx="http://www.garmin.com/xmlschemas/GpxExtensions/v3" xmlns:wptx1="http://www.garmin.com/xmlschemas/WaypointExtension/v1" xmlns:gpxtpx="http://www.garmin.com/xmlschemas/TrackPointExtension/v1" creator="GuideVTT.com" version="1.1" xmlns:xsi="http://www.w3.org/2001/XMLSchema-instance" xsi:schemaLocation="http://www.topografix.com/GPX/1/1 http://www.topografix.com/GPX/1/1/gpx.xsd http://www.garmin.com/xmlschemas/GpxExtensions/v3 http://www8.garmin.com/xmlschemas/GpxExtensionsv3.xsd http://www.garmin.com/xmlschemas/WaypointExtension/v1 http://www8.garmin.com/xmlschemas/WaypointExtensionv1.xsd http://www.garmin.com/xmlschemas/TrackPointExtension/v1 http://www.garmin.com/xmlschemas/TrackPointExtensionv1.xsd">
<metadata><link href="http://www.garmin.com"><text>Garmin International</text></link><time>2013-06-22T15:13:50Z</time></metadata>
<trk><name>20_10_09_1.gpx</name><extensions><gpxx:TrackExtension><gpxx:DisplayColor>Cyan</gpxx:DisplayColor></gpxx:TrackExtension></extensions><trkseg>
<trkpt lat="46.14766007" lon="5.97018555"><ele>381.300049</ele><time>2009-10-20T11:45:47Z</time></trkpt>
<trkpt lat="46.14768857" lon="5.97023425"><ele>381.300049</ele><time>2009-10-20T11:45:48Z</time></trkpt>
<trkpt lat="46.14771640" lon="5.97028454"><ele>380.819458</ele><time>2009-10-20T11:45:49Z</time></trkpt>
<trkpt lat="46.14774548" lon="5.97033617"><ele>380.819458</ele><time>2009-10-20T11:45:50Z</time></trkpt>
<trkpt lat="46.14777692" lon="5.97039074"><ele>380.819458</ele><time>2009-10-20T11:45:51Z</time></trkpt>
<trkpt lat="46.14781162" lon="5.97044773"><ele>381.300049</ele><time>2009-10-20T11:45:52Z</time></trkpt>
<trkpt lat="46.14784607" lon="5.97051286"><ele>380.819458</ele><time>2009-10-20T11:45:53Z</time></trkpt>
<trkpt lat="46.14786945" lon="5.97060230"><ele>380.338745</ele><time>2009-10-20T11:45:54Z</time></trkpt>
<trkpt lat="46.14790373" lon="5.97069986"><ele>379.858032</ele><time>2009-10-20T11:45:55Z</time></trkpt>
<trkpt lat="46.14794925" lon="5.97076558"><ele>379.377441</ele><time>2009-10-20T11:45:56Z</time></trkpt>
<trkpt lat="46.14799250" lon="5.97083473"><ele>378.896851</ele><time>2009-10-20T11:45:57Z</time></trkpt>
<trkpt lat="46.14803776" lon="5.97090203"><ele>377.935425</ele><time>2009-10-20T11:45:58Z</time></trkpt>
<trkpt lat="46.14807707" lon="5.97097093"><ele>377.935425</ele><time>2009-10-20T11:45:59Z</time></trkpt>
<trkpt lat="46.14811672" lon="5.97103614"><ele>378.416138</ele><time>2009-10-20T11:46:00Z</time></trkpt>
<trkpt lat="46.14815880" lon="5.97109968"><ele>379.377441</ele><time>2009-10-20T11:46:01Z</time></trkpt>
<trkpt lat="46.14821630" lon="5.97114377"><ele>378.896851</ele><time>2009-10-20T11:46:02Z</time></trkpt>
<trkpt lat="46.14826122" lon="5.97120923"><ele>378.896851</ele><time>2009-10-20T11:46:03Z</time></trkpt>
<trkpt lat="46.14830255" lon="5.97127142"><ele>378.416138</ele><time>2009-10-20T11:46:04Z</time></trkpt>
<trkpt lat="46.14834764" lon="5.97134175"><ele>376.974243</ele><time>2009-10-20T11:46:05Z</time></trkpt>
<trkpt lat="46.14837689" lon="5.97141836"><ele>376.974243</ele><time>2009-10-20T11:46:06Z</time></trkpt>
<trkpt lat="46.14842325" lon="5.97149128"><ele>376.974243</ele><time>2009-10-20T11:46:07Z</time></trkpt>
<trkpt lat="46.14845702" lon="5.97156613"><ele>376.974243</ele><time>2009-10-20T11:46:08Z</time></trkpt>
<trkpt lat="46.14849776" lon="5.97162765"><ele>376.012817</ele><time>2009-10-20T11:46:09Z</time></trkpt>
<trkpt lat="46.14854034" lon="5.97168926"><ele>376.012817</ele><time>2009-10-20T11:46:10Z</time></trkpt>
<trkpt lat="46.14858225" lon="5.97175347"><ele>375.532104</ele><time>2009-10-20T11:46:11Z</time></trkpt>
<trkpt lat="46.14862558" lon="5.97181784"><ele>375.532104</ele><time>2009-10-20T11:46:12Z</time></trkpt>
<trkpt lat="46.14867202" lon="5.97187852"><ele>375.051514</ele><time>2009-10-20T11:46:13Z</time></trkpt>
<trkpt lat="46.14871887" lon="5.97193787"><ele>375.051514</ele><time>2009-10-20T11:46:14Z</time></trkpt>
<trkpt lat="46.14876607" lon="5.97198967"><ele>374.570801</ele><time>2009-10-20T11:46:15Z</time></trkpt>
<trkpt lat="46.14881099" lon="5.97203828"><ele>374.570801</ele><time>2009-10-20T11:46:16Z</time></trkpt>
<trkpt lat="46.14885315" lon="5.97208455"><ele>374.570801</ele><time>2009-10-20T11:46:17Z</time></trkpt>
<trkpt lat="46.14889054" lon="5.97213208"><ele>376.012817</ele><time>2009-10-20T11:46:18Z</time></trkpt>
<trkpt lat="46.14892666" lon="5.97218379"><ele>377.935425</ele><time>2009-10-20T11:46:19Z</time></trkpt>
<trkpt lat="46.14896799" lon="5.97223694"><ele>378.416138</ele><time>2009-10-20T11:46:20Z</time></trkpt>
<trkpt lat="46.14901207" lon="5.97228790"><ele>378.416138</ele><time>2009-10-20T11:46:21Z</time></trkpt>
<trkpt lat="46.14905692" lon="5.97233735"><ele>377.935425</ele><time>2009-10-20T11:46:22Z</time></trkpt>
<trkpt lat="46.14909950" lon="5.97238890"><ele>377.935425</ele><time>2009-10-20T11:46:23Z</time></trkpt>
<trkpt lat="46.14914669" lon="5.97244296"><ele>378.416138</ele><time>2009-10-20T11:46:24Z</time></trkpt>
<trkpt lat="46.14919237" lon="5.97249736"><ele>378.416138</ele><time>2009-10-20T11:46:25Z</time></trkpt>
<trkpt lat="46.14924090" lon="5.97254883"><ele>378.896851</ele><time>2009-10-20T11:46:26Z</time></trkpt>
<trkpt lat="46.14928583" lon="5.97260063"><ele>378.896851</ele><time>2009-10-20T11:46:27Z</time></trkpt>
<trkpt lat="46.14933855" lon="5.97264597"><ele>378.896851</ele><time>2009-10-20T11:46:28Z</time></trkpt>
<trkpt lat="46.14939974" lon="5.97268654"><ele>379.377441</ele><time>2009-10-20T11:46:29Z</time></trkpt>
<trkpt lat="46.14945455" lon="5.97272518"><ele>378.416138</ele><time>2009-10-20T11:46:30Z</time></trkpt>
<trkpt lat="46.14951516" lon="5.97276055"><ele>377.935425</ele><time>2009-10-20T11:46:31Z</time></trkpt>
<trkpt lat="46.14954273" lon="5.97281110"><ele>377.454834</ele><time>2009-10-20T11:46:32Z</time></trkpt>
<trkpt lat="46.14958079" lon="5.97286407"><ele>377.454834</ele><time>2009-10-20T11:46:33Z</time></trkpt>
<trkpt lat="46.14962253" lon="5.97292333"><ele>376.974243</ele><time>2009-10-20T11:46:34Z</time></trkpt>
<trkpt lat="46.14965036" lon="5.97298737"><ele>376.49353</ele><time>2009-10-20T11:46:35Z</time></trkpt>
<trkpt lat="46.14965849" lon="5.97307873"><ele>376.49353</ele><time>2009-10-20T11:46:36Z</time></trkpt>
<trkpt lat="46.14968925" lon="5.97315039"><ele>376.012817</ele><time>2009-10-20T11:46:37Z</time></trkpt>
<trkpt lat="46.14972839" lon="5.97324519"><ele>375.532104</ele><time>2009-10-20T11:46:38Z</time></trkpt>
<trkpt lat="46.14977240" lon="5.97331292"><ele>375.051514</ele><time>2009-10-20T11:46:39Z</time></trkpt>
<trkpt lat="46.14980198" lon="5.97338123"><ele>376.49353</ele><time>2009-10-20T11:46:40Z</time></trkpt>
<trkpt lat="46.14985823" lon="5.97342398"><ele>376.012817</ele><time>2009-10-20T11:46:41Z</time></trkpt>
<trkpt lat="46.14991019" lon="5.97346715"><ele>375.051514</ele><time>2009-10-20T11:46:42Z</time></trkpt>
<trkpt lat="46.14996334" lon="5.97351702"><ele>374.570801</ele><time>2009-10-20T11:46:43Z</time></trkpt>
<trkpt lat="46.15001472" lon="5.97355784"><ele>374.090088</ele><time>2009-10-20T11:46:44Z</time></trkpt>
<trkpt lat="46.15005009" lon="5.97361919"><ele>374.570801</ele><time>2009-10-20T11:46:45Z</time></trkpt>
<trkpt lat="46.15009720" lon="5.97368952"><ele>374.570801</ele><time>2009-10-20T11:46:46Z</time></trkpt>
<trkpt lat="46.15014648" lon="5.97375364"><ele>374.090088</ele><time>2009-10-20T11:46:47Z</time></trkpt>
<trkpt lat="46.15019308" lon="5.97382128"><ele>374.570801</ele><time>2009-10-20T11:46:48Z</time></trkpt>
<trkpt lat="46.15023952" lon="5.97388909"><ele>374.570801</ele><time>2009-10-20T11:46:49Z</time></trkpt>
<trkpt lat="46.15028914" lon="5.97395263"><ele>374.090088</ele><time>2009-10-20T11:46:50Z</time></trkpt>
<trkpt lat="46.15033608" lon="5.97401784"><ele>374.090088</ele><time>2009-10-20T11:46:51Z</time></trkpt>
<trkpt lat="46.15038176" lon="5.97408338"><ele>374.570801</ele><time>2009-10-20T11:46:52Z</time></trkpt>
<trkpt lat="46.15042300" lon="5.97415480"><ele>375.532104</ele><time>2009-10-20T11:46:53Z</time></trkpt>
<trkpt lat="46.15046684" lon="5.97421909"><ele>375.532104</ele><time>2009-10-20T11:46:54Z</time></trkpt>
<trkpt lat="46.15051076" lon="5.97428229"><ele>376.49353</ele><time>2009-10-20T11:46:55Z</time></trkpt>
<trkpt lat="46.15055552" lon="5.97434490"><ele>376.49353</ele><time>2009-10-20T11:46:56Z</time></trkpt>
<trkpt lat="46.15059852" lon="5.97441128"><ele>376.974243</ele><time>2009-10-20T11:46:57Z</time></trkpt>
<trkpt lat="46.15064252" lon="5.97447650"><ele>376.974243</ele><time>2009-10-20T11:46:58Z</time></trkpt>
<trkpt lat="46.15068527" lon="5.97453852"><ele>377.454834</ele><time>2009-10-20T11:46:59Z</time></trkpt>
<trkpt lat="46.15072559" lon="5.97459963"><ele>378.896851</ele><time>2009-10-20T11:47:00Z</time></trkpt>
<trkpt lat="46.15076817" lon="5.97466165"><ele>378.896851</ele><time>2009-10-20T11:47:01Z</time></trkpt>
<trkpt lat="46.15081100" lon="5.97472443"><ele>379.377441</ele><time>2009-10-20T11:47:02Z</time></trkpt>
<trkpt lat="46.15085693" lon="5.97478135"><ele>378.416138</ele><time>2009-10-20T11:47:03Z</time></trkpt>
<trkpt lat="46.15090018" lon="5.97484295"><ele>377.935425</ele><time>2009-10-20T11:47:04Z</time></trkpt>
<trkpt lat="46.15094217" lon="5.97490649"><ele>377.454834</ele><time>2009-10-20T11:47:05Z</time></trkpt>
<trkpt lat="46.15098434" lon="5.97497086"><ele>376.974243</ele><time>2009-10-20T11:47:06Z</time></trkpt>
<trkpt lat="46.15102616" lon="5.97503565"><ele>376.49353</ele><time>2009-10-20T11:47:07Z</time></trkpt>
<trkpt lat="46.15106765" lon="5.97510044"><ele>376.012817</ele><time>2009-10-20T11:47:08Z</time></trkpt>
<trkpt lat="46.15110939" lon="5.97516323"><ele>376.012817</ele><time>2009-10-20T11:47:09Z</time></trkpt>
<trkpt lat="46.15115214" lon="5.97522072"><ele>375.532104</ele><time>2009-10-20T11:47:10Z</time></trkpt>
<trkpt lat="46.15119464" lon="5.97527630"><ele>375.051514</ele><time>2009-10-20T11:47:11Z</time></trkpt>
<trkpt lat="46.15123789" lon="5.97533237"><ele>374.570801</ele><time>2009-10-20T11:47:12Z</time></trkpt>
<trkpt lat="46.15128206" lon="5.97539004"><ele>374.570801</ele><time>2009-10-20T11:47:13Z</time></trkpt>
<trkpt lat="46.15132959" lon="5.97544888"><ele>374.090088</ele><time>2009-10-20T11:47:14Z</time></trkpt>
<trkpt lat="46.15138063" lon="5.97550345"><ele>374.570801</ele><time>2009-10-20T11:47:15Z</time></trkpt>
<trkpt lat="46.15143386" lon="5.97555533"><ele>374.570801</ele><time>2009-10-20T11:47:16Z</time></trkpt>
<trkpt lat="46.15148867" lon="5.97560738"><ele>374.570801</ele><time>2009-10-20T11:47:17Z</time></trkpt>
<trkpt lat="46.15154274" lon="5.97566228"><ele>374.570801</ele><time>2009-10-20T11:47:18Z</time></trkpt>
<trkpt lat="46.15159404" lon="5.97572347"><ele>374.090088</ele><time>2009-10-20T11:47:19Z</time></trkpt>
<trkpt lat="46.15164257" lon="5.97578986"><ele>374.090088</ele><time>2009-10-20T11:47:20Z</time></trkpt>
<trkpt lat="46.15169018" lon="5.97585808"><ele>373.609497</ele><time>2009-10-20T11:47:21Z</time></trkpt>
<trkpt lat="46.15173778" lon="5.97592556"><ele>373.609497</ele><time>2009-10-20T11:47:22Z</time></trkpt>
<trkpt lat="46.15178506" lon="5.97599127"><ele>373.609497</ele><time>2009-10-20T11:47:23Z</time></trkpt>
<trkpt lat="46.15183208" lon="5.97605850"><ele>373.128906</ele><time>2009-10-20T11:47:24Z</time></trkpt>
<trkpt lat="46.15187843" lon="5.97612639"><ele>373.128906</ele><time>2009-10-20T11:47:25Z</time></trkpt>
<trkpt lat="46.15192386" lon="5.97619344"><ele>373.128906</ele><time>2009-10-20T11:47:26Z</time></trkpt>
<trkpt lat="46.15196946" lon="5.97625949"><ele>373.128906</ele><time>2009-10-20T11:47:27Z</time></trkpt>
<trkpt lat="46.15201590" lon="5.97632437"><ele>373.128906</ele><time>2009-10-20T11:47:28Z</time></trkpt>
<trkpt lat="46.15206275" lon="5.97638816"><ele>372.648193</ele><time>2009-10-20T11:47:29Z</time></trkpt>
<trkpt lat="46.15210944" lon="5.97645245"><ele>372.648193</ele><time>2009-10-20T11:47:30Z</time></trkpt>
<trkpt lat="46.15215579" lon="5.97651766"><ele>372.648193</ele><time>2009-10-20T11:47:31Z</time></trkpt>
<trkpt lat="46.15220223" lon="5.97658287"><ele>372.648193</ele><time>2009-10-20T11:47:32Z</time></trkpt>
<trkpt lat="46.15224925" lon="5.97664724"><ele>372.16748</ele><time>2009-10-20T11:47:33Z</time></trkpt>
<trkpt lat="46.15229652" lon="5.97671078"><ele>372.16748</ele><time>2009-10-20T11:47:34Z</time></trkpt>
<trkpt lat="46.15234396" lon="5.97677439"><ele>371.68689</ele><time>2009-10-20T11:47:35Z</time></trkpt>
<trkpt lat="46.15239124" lon="5.97683868"><ele>371.68689</ele><time>2009-10-20T11:47:36Z</time></trkpt>
<trkpt lat="46.15243893" lon="5.97690247"><ele>371.206299</ele><time>2009-10-20T11:47:37Z</time></trkpt>
<trkpt lat="46.15248763" lon="5.97696517"><ele>371.206299</ele><time>2009-10-20T11:47:38Z</time></trkpt>
<trkpt lat="46.15253700" lon="5.97702753"><ele>371.206299</ele><time>2009-10-20T11:47:39Z</time></trkpt>
<trkpt lat="46.15258637" lon="5.97708989"><ele>370.725586</ele><time>2009-10-20T11:47:40Z</time></trkpt>
<trkpt lat="46.15263616" lon="5.97715133"><ele>370.725586</ele><time>2009-10-20T11:47:41Z</time></trkpt>
<trkpt lat="46.15268712" lon="5.97721168"><ele>370.725586</ele><time>2009-10-20T11:47:42Z</time></trkpt>
<trkpt lat="46.15273875" lon="5.97727153"><ele>370.244873</ele><time>2009-10-20T11:47:43Z</time></trkpt>
<trkpt lat="46.15279064" lon="5.97733112"><ele>370.244873</ele><time>2009-10-20T11:47:44Z</time></trkpt>
<trkpt lat="46.15284336" lon="5.97738904"><ele>370.244873</ele><time>2009-10-20T11:47:45Z</time></trkpt>
<trkpt lat="46.15289675" lon="5.97744578"><ele>370.244873</ele><time>2009-10-20T11:47:46Z</time></trkpt>
<trkpt lat="46.15295006" lon="5.97750228"><ele>370.244873</ele><time>2009-10-20T11:47:47Z</time></trkpt>
<trkpt lat="46.15300362" lon="5.97755609"><ele>370.244873</ele><time>2009-10-20T11:47:48Z</time></trkpt>
<trkpt lat="46.15305760" lon="5.97760890"><ele>370.244873</ele><time>2009-10-20T11:47:49Z</time></trkpt>
<trkpt lat="46.15311233" lon="5.97766028"><ele>370.244873</ele><time>2009-10-20T11:47:50Z</time></trkpt>
<trkpt lat="46.15316757" lon="5.97771074"><ele>370.725586</ele><time>2009-10-20T11:47:51Z</time></trkpt>
<trkpt lat="46.15322188" lon="5.97776312"><ele>370.725586</ele><time>2009-10-20T11:47:52Z</time></trkpt>
<trkpt lat="46.15327645" lon="5.97781559"><ele>370.725586</ele><time>2009-10-20T11:47:53Z</time></trkpt>
<trkpt lat="46.15333144" lon="5.97786714"><ele>370.725586</ele><time>2009-10-20T11:47:54Z</time></trkpt>
<trkpt lat="46.15338609" lon="5.97791878"><ele>370.725586</ele><time>2009-10-20T11:47:55Z</time></trkpt>
<trkpt lat="46.15344057" lon="5.97796982"><ele>370.244873</ele><time>2009-10-20T11:47:56Z</time></trkpt>
<trkpt lat="46.15349513" lon="5.97802020"><ele>370.725586</ele><time>2009-10-20T11:47:57Z</time></trkpt>
<trkpt lat="46.15354895" lon="5.97807082"><ele>370.725586</ele><time>2009-10-20T11:47:58Z</time></trkpt>
<trkpt lat="46.15360192" lon="5.97812212"><ele>370.725586</ele><time>2009-10-20T11:47:59Z</time></trkpt>
<trkpt lat="46.15365473" lon="5.97817233"><ele>370.725586</ele><time>2009-10-20T11:48:00Z</time></trkpt>
<trkpt lat="46.15370736" lon="5.97822195"><ele>371.206299</ele><time>2009-10-20T11:48:01Z</time></trkpt>
<trkpt lat="46.15376009" lon="5.97827174"><ele>371.206299</ele><time>2009-10-20T11:48:02Z</time></trkpt>
<trkpt lat="46.15381298" lon="5.97832195"><ele>371.206299</ele><time>2009-10-20T11:48:03Z</time></trkpt>
<trkpt lat="46.15386603" lon="5.97837123"><ele>370.725586</ele><time>2009-10-20T11:48:04Z</time></trkpt>
<trkpt lat="46.15391993" lon="5.97842010"><ele>370.725586</ele><time>2009-10-20T11:48:05Z</time></trkpt>
<trkpt lat="46.15397332" lon="5.97847005"><ele>370.725586</ele><time>2009-10-20T11:48:06Z</time></trkpt>
<trkpt lat="46.15402546" lon="5.97852127"><ele>371.206299</ele><time>2009-10-20T11:48:07Z</time></trkpt>
<trkpt lat="46.15407709" lon="5.97857147"><ele>371.206299</ele><time>2009-10-20T11:48:08Z</time></trkpt>
<trkpt lat="46.15412839" lon="5.97862084"><ele>371.206299</ele><time>2009-10-20T11:48:09Z</time></trkpt>
<trkpt lat="46.15417910" lon="5.97867005"><ele>371.68689</ele><time>2009-10-20T11:48:10Z</time></trkpt>
<trkpt lat="46.15422922" lon="5.97871874"><ele>371.68689</ele><time>2009-10-20T11:48:11Z</time></trkpt>
<trkpt lat="46.15427893" lon="5.97876677"><ele>371.68689</ele><time>2009-10-20T11:48:12Z</time></trkpt>
<trkpt lat="46.15432796" lon="5.97881556"><ele>371.68689</ele><time>2009-10-20T11:48:13Z</time></trkpt>
<trkpt lat="46.15437658" lon="5.97886509"><ele>372.16748</ele><time>2009-10-20T11:48:14Z</time></trkpt>
<trkpt lat="46.15442427" lon="5.97891589"><ele>372.16748</ele><time>2009-10-20T11:48:15Z</time></trkpt>
<trkpt lat="46.15447054" lon="5.97896894"><ele>372.16748</ele><time>2009-10-20T11:48:16Z</time></trkpt>
<trkpt lat="46.15451454" lon="5.97902485"><ele>373.128906</ele><time>2009-10-20T11:48:17Z</time></trkpt>
<trkpt lat="46.15455897" lon="5.97907699"><ele>373.128906</ele><time>2009-10-20T11:48:18Z</time></trkpt>
<trkpt lat="46.15460255" lon="5.97912904"><ele>373.128906</ele><time>2009-10-20T11:48:19Z</time></trkpt>
<trkpt lat="46.15464488" lon="5.97918260"><ele>373.128906</ele><time>2009-10-20T11:48:20Z</time></trkpt>
<trkpt lat="46.15468604" lon="5.97923658"><ele>373.609497</ele><time>2009-10-20T11:48:21Z</time></trkpt>
<trkpt lat="46.15472535" lon="5.97929307"><ele>374.090088</ele><time>2009-10-20T11:48:22Z</time></trkpt>
<trkpt lat="46.15476332" lon="5.97935074"><ele>374.570801</ele><time>2009-10-20T11:48:23Z</time></trkpt>
<trkpt lat="46.15480095" lon="5.97940950"><ele>375.051514</ele><time>2009-10-20T11:48:24Z</time></trkpt>
<trkpt lat="46.15483842" lon="5.97946675"><ele>375.532104</ele><time>2009-10-20T11:48:25Z</time></trkpt>
<trkpt lat="46.15487555" lon="5.97952366"><ele>376.012817</ele><time>2009-10-20T11:48:26Z</time></trkpt>
<trkpt lat="46.15491168" lon="5.97958183"><ele>376.49353</ele><time>2009-10-20T11:48:27Z</time></trkpt>
<trkpt lat="46.15494738" lon="5.97964033"><ele>376.974243</ele><time>2009-10-20T11:48:28Z</time></trkpt>
<trkpt lat="46.15498368" lon="5.97969817"><ele>376.974243</ele><time>2009-10-20T11:48:29Z</time></trkpt>
<trkpt lat="46.15501922" lon="5.97975642"><ele>377.454834</ele><time>2009-10-20T11:48:30Z</time></trkpt>
<trkpt lat="46.15505367" lon="5.97981602"><ele>377.454834</ele><time>2009-10-20T11:48:31Z</time></trkpt>
<trkpt lat="46.15508728" lon="5.97987712"><ele>377.935425</ele><time>2009-10-20T11:48:32Z</time></trkpt>
<trkpt lat="46.15511988" lon="5.97993965"><ele>378.416138</ele><time>2009-10-20T11:48:33Z</time></trkpt>
<trkpt lat="46.15515249" lon="5.98000453"><ele>378.416138</ele><time>2009-10-20T11:48:34Z</time></trkpt>
<trkpt lat="46.15518685" lon="5.98007033"><ele>378.896851</ele><time>2009-10-20T11:48:35Z</time></trkpt>
<trkpt lat="46.15522265" lon="5.98013654"><ele>378.896851</ele><time>2009-10-20T11:48:36Z</time></trkpt>
<trkpt lat="46.15525777" lon="5.98020326"><ele>379.377441</ele><time>2009-10-20T11:48:37Z</time></trkpt>
<trkpt lat="46.15529146" lon="5.98027007"><ele>379.377441</ele><time>2009-10-20T11:48:38Z</time></trkpt>
<trkpt lat="46.15532423" lon="5.98033712"><ele>379.858032</ele><time>2009-10-20T11:48:39Z</time></trkpt>
<trkpt lat="46.15535617" lon="5.98040384"><ele>380.338745</ele><time>2009-10-20T11:48:40Z</time></trkpt>
<trkpt lat="46.15538735" lon="5.98046863"><ele>380.338745</ele><time>2009-10-20T11:48:41Z</time></trkpt>
<trkpt lat="46.15541945" lon="5.98053167"><ele>380.819458</ele><time>2009-10-20T11:48:42Z</time></trkpt>
<trkpt lat="46.15545097" lon="5.98059470"><ele>381.300049</ele><time>2009-10-20T11:48:43Z</time></trkpt>
<trkpt lat="46.15548173" lon="5.98065765"><ele>381.300049</ele><time>2009-10-20T11:48:44Z</time></trkpt>
<trkpt lat="46.15551199" lon="5.98072026"><ele>381.78064</ele><time>2009-10-20T11:48:45Z</time></trkpt>
<trkpt lat="46.15554208" lon="5.98078187"><ele>381.78064</ele><time>2009-10-20T11:48:46Z</time></trkpt>
<trkpt lat="46.15557175" lon="5.98083903"><ele>382.261353</ele><time>2009-10-20T11:48:47Z</time></trkpt>
<trkpt lat="46.15559899" lon="5.98089016"><ele>382.261353</ele><time>2009-10-20T11:48:48Z</time></trkpt>
<trkpt lat="46.15562405" lon="5.98093919"><ele>382.742065</ele><time>2009-10-20T11:48:49Z</time></trkpt>
<trkpt lat="46.15564828" lon="5.98098865"><ele>382.742065</ele><time>2009-10-20T11:48:50Z</time></trkpt>
<trkpt lat="46.15567242" lon="5.98103869"><ele>383.222656</ele><time>2009-10-20T11:48:51Z</time></trkpt>
<trkpt lat="46.15569765" lon="5.98109116"><ele>383.222656</ele><time>2009-10-20T11:48:52Z</time></trkpt>
<trkpt lat="46.15572346" lon="5.98114606"><ele>383.703247</ele><time>2009-10-20T11:48:53Z</time></trkpt>
<trkpt lat="46.15574987" lon="5.98120264"><ele>383.703247</ele><time>2009-10-20T11:48:54Z</time></trkpt>
<trkpt lat="46.15577669" lon="5.98125813"><ele>384.184082</ele><time>2009-10-20T11:48:55Z</time></trkpt>
<trkpt lat="46.15580452" lon="5.98131177"><ele>384.184082</ele><time>2009-10-20T11:48:56Z</time></trkpt>
<trkpt lat="46.15583318" lon="5.98136525"><ele>384.184082</ele><time>2009-10-20T11:48:57Z</time></trkpt>
<trkpt lat="46.15586059" lon="5.98141889"><ele>384.664795</ele><time>2009-10-20T11:48:58Z</time></trkpt>
<trkpt lat="46.15588725" lon="5.98147279"><ele>385.145386</ele><time>2009-10-20T11:48:59Z</time></trkpt>
<trkpt lat="46.15591289" lon="5.98152668"><ele>385.145386</ele><time>2009-10-20T11:49:00Z</time></trkpt>
<trkpt lat="46.15593863" lon="5.98157982"><ele>385.625977</ele><time>2009-10-20T11:49:01Z</time></trkpt>
<trkpt lat="46.15596453" lon="5.98163330"><ele>386.106689</ele><time>2009-10-20T11:49:02Z</time></trkpt>
<trkpt lat="46.15599110" lon="5.98168720"><ele>386.106689</ele><time>2009-10-20T11:49:03Z</time></trkpt>
<trkpt lat="46.15601809" lon="5.98174126"><ele>386.587402</ele><time>2009-10-20T11:49:04Z</time></trkpt>
<trkpt lat="46.15604499" lon="5.98179566"><ele>386.587402</ele><time>2009-10-20T11:49:05Z</time></trkpt>
<trkpt lat="46.15607148" lon="5.98184972"><ele>387.067993</ele><time>2009-10-20T11:49:06Z</time></trkpt>
<trkpt lat="46.15609713" lon="5.98190362"><ele>387.067993</ele><time>2009-10-20T11:49:07Z</time></trkpt>
<trkpt lat="46.15612286" lon="5.98195709"><ele>387.548584</ele><time>2009-10-20T11:49:08Z</time></trkpt>
<trkpt lat="46.15614918" lon="5.98200998"><ele>387.548584</ele><time>2009-10-20T11:49:09Z</time></trkpt>
<trkpt lat="46.15617584" lon="5.98206212"><ele>388.029297</ele><time>2009-10-20T11:49:10Z</time></trkpt>
<trkpt lat="46.15620224" lon="5.98211526"><ele>388.029297</ele><time>2009-10-20T11:49:11Z</time></trkpt>
<trkpt lat="46.15622814" lon="5.98216983"><ele>388.51001</ele><time>2009-10-20T11:49:12Z</time></trkpt>
<trkpt lat="46.15625496" lon="5.98222422"><ele>388.51001</ele><time>2009-10-20T11:49:13Z</time></trkpt>
<trkpt lat="46.15628229" lon="5.98227745"><ele>388.990601</ele><time>2009-10-20T11:49:14Z</time></trkpt>
<trkpt lat="46.15630802" lon="5.98233067"><ele>388.990601</ele><time>2009-10-20T11:49:15Z</time></trkpt>
<trkpt lat="46.15633015" lon="5.98238499"><ele>389.471191</ele><time>2009-10-20T11:49:16Z</time></trkpt>
<trkpt lat="46.15635236" lon="5.98244224"><ele>389.951904</ele><time>2009-10-20T11:49:17Z</time></trkpt>
<trkpt lat="46.15637507" lon="5.98249957"><ele>389.951904</ele><time>2009-10-20T11:49:18Z</time></trkpt>
<trkpt lat="46.15639812" lon="5.98255514"><ele>390.432617</ele><time>2009-10-20T11:49:19Z</time></trkpt>
<trkpt lat="46.15642159" lon="5.98260895"><ele>390.913208</ele><time>2009-10-20T11:49:20Z</time></trkpt>
<trkpt lat="46.15644397" lon="5.98266285"><ele>391.393799</ele><time>2009-10-20T11:49:21Z</time></trkpt>
<trkpt lat="46.15646174" lon="5.98271968"><ele>391.874512</ele><time>2009-10-20T11:49:22Z</time></trkpt>
<trkpt lat="46.15647297" lon="5.98278162"><ele>392.355347</ele><time>2009-10-20T11:49:23Z</time></trkpt>
<trkpt lat="46.15648177" lon="5.98284708"><ele>392.835938</ele><time>2009-10-20T11:49:24Z</time></trkpt>
<trkpt lat="46.15648999" lon="5.98291246"><ele>392.835938</ele><time>2009-10-20T11:49:25Z</time></trkpt>
<trkpt lat="46.15649812" lon="5.98297524"><ele>392.835938</ele><time>2009-10-20T11:49:26Z</time></trkpt>
<trkpt lat="46.15650600" lon="5.98303635"><ele>392.835938</ele><time>2009-10-20T11:49:27Z</time></trkpt>
<trkpt lat="46.15651379" lon="5.98309292"><ele>393.316528</ele><time>2009-10-20T11:49:28Z</time></trkpt>
<trkpt lat="46.15652016" lon="5.98315093"><ele>393.316528</ele><time>2009-10-20T11:49:29Z</time></trkpt>
<trkpt lat="46.15652503" lon="5.98320843"><ele>393.797241</ele><time>2009-10-20T11:49:30Z</time></trkpt>
<trkpt lat="46.15652989" lon="5.98326618"><ele>394.277954</ele><time>2009-10-20T11:49:31Z</time></trkpt>
<trkpt lat="46.15653525" lon="5.98332418"><ele>394.277954</ele><time>2009-10-20T11:49:32Z</time></trkpt>
<trkpt lat="46.15653760" lon="5.98338202"><ele>394.277954</ele><time>2009-10-20T11:49:33Z</time></trkpt>
<trkpt lat="46.15654112" lon="5.98344312"><ele>394.758545</ele><time>2009-10-20T11:49:34Z</time></trkpt>
<trkpt lat="46.15654506" lon="5.98350733"><ele>395.239136</ele><time>2009-10-20T11:49:35Z</time></trkpt>
<trkpt lat="46.15654673" lon="5.98356985"><ele>395.719849</ele><time>2009-10-20T11:49:36Z</time></trkpt>
<trkpt lat="46.15654816" lon="5.98363205"><ele>396.200562</ele><time>2009-10-20T11:49:37Z</time></trkpt>
<trkpt lat="46.15654925" lon="5.98369407"><ele>396.681152</ele><time>2009-10-20T11:49:38Z</time></trkpt>
<trkpt lat="46.15654992" lon="5.98375442"><ele>397.161743</ele><time>2009-10-20T11:49:39Z</time></trkpt>
<trkpt lat="46.15655067" lon="5.98381377"><ele>397.642456</ele><time>2009-10-20T11:49:40Z</time></trkpt>
<trkpt lat="46.15655126" lon="5.98387387"><ele>398.123169</ele><time>2009-10-20T11:49:41Z</time></trkpt>
<trkpt lat="46.15655134" lon="5.98393313"><ele>398.60376</ele><time>2009-10-20T11:49:42Z</time></trkpt>
<trkpt lat="46.15655176" lon="5.98399222"><ele>399.084351</ele><time>2009-10-20T11:49:43Z</time></trkpt>
<trkpt lat="46.15655277" lon="5.98405274"><ele>399.084351</ele><time>2009-10-20T11:49:44Z</time></trkpt>
<trkpt lat="46.15655352" lon="5.98411275"><ele>399.565063</ele><time>2009-10-20T11:49:45Z</time></trkpt>
<trkpt lat="46.15655470" lon="5.98417159"><ele>399.565063</ele><time>2009-10-20T11:49:46Z</time></trkpt>
<trkpt lat="46.15655595" lon="5.98422884"><ele>400.045898</ele><time>2009-10-20T11:49:47Z</time></trkpt>
<trkpt lat="46.15655730" lon="5.98428818"><ele>400.045898</ele><time>2009-10-20T11:49:48Z</time></trkpt>
<trkpt lat="46.15655889" lon="5.98435247"><ele>400.045898</ele><time>2009-10-20T11:49:49Z</time></trkpt>
<trkpt lat="46.15656132" lon="5.98441450"><ele>400.045898</ele><time>2009-10-20T11:49:50Z</time></trkpt>
<trkpt lat="46.15656274" lon="5.98447493"><ele>400.045898</ele><time>2009-10-20T11:49:51Z</time></trkpt>
<trkpt lat="46.15656350" lon="5.98453688"><ele>400.045898</ele><time>2009-10-20T11:49:52Z</time></trkpt>
<trkpt lat="46.15656383" lon="5.98459873"><ele>400.045898</ele><time>2009-10-20T11:49:53Z</time></trkpt>
<trkpt lat="46.15656492" lon="5.98466009"><ele>400.045898</ele><time>2009-10-20T11:49:54Z</time></trkpt>
<trkpt lat="46.15656660" lon="5.98472094"><ele>400.045898</ele><time>2009-10-20T11:49:55Z</time></trkpt>
<trkpt lat="46.15656802" lon="5.98478163"><ele>400.526489</ele><time>2009-10-20T11:49:56Z</time></trkpt>
<trkpt lat="46.15656937" lon="5.98484248"><ele>400.526489</ele><time>2009-10-20T11:49:57Z</time></trkpt>
<trkpt lat="46.15657230" lon="5.98490643"><ele>400.045898</ele><time>2009-10-20T11:49:58Z</time></trkpt>
<trkpt lat="46.15657423" lon="5.98497005"><ele>399.565063</ele><time>2009-10-20T11:49:59Z</time></trkpt>
<trkpt lat="46.15657414" lon="5.98503199"><ele>399.565063</ele><time>2009-10-20T11:50:00Z</time></trkpt>
<trkpt lat="46.15657456" lon="5.98509209"><ele>399.565063</ele><time>2009-10-20T11:50:01Z</time></trkpt>
<trkpt lat="46.15657607" lon="5.98515370"><ele>399.565063</ele><time>2009-10-20T11:50:02Z</time></trkpt>
<trkpt lat="46.15657683" lon="5.98521472"><ele>399.565063</ele><time>2009-10-20T11:50:03Z</time></trkpt>
<trkpt lat="46.15657817" lon="5.98527448"><ele>399.565063</ele><time>2009-10-20T11:50:04Z</time></trkpt>
<trkpt lat="46.15657993" lon="5.98533282"><ele>399.565063</ele><time>2009-10-20T11:50:05Z</time></trkpt>
<trkpt lat="46.15658093" lon="5.98539107"><ele>399.565063</ele><time>2009-10-20T11:50:06Z</time></trkpt>
<trkpt lat="46.15658194" lon="5.98544983"><ele>399.565063</ele><time>2009-10-20T11:50:07Z</time></trkpt>
<trkpt lat="46.15658303" lon="5.98550884"><ele>400.045898</ele><time>2009-10-20T11:50:08Z</time></trkpt>
<trkpt lat="46.15658462" lon="5.98557045"><ele>399.565063</ele><time>2009-10-20T11:50:09Z</time></trkpt>
<trkpt lat="46.15658605" lon="5.98563390"><ele>399.084351</ele><time>2009-10-20T11:50:10Z</time></trkpt>
<trkpt lat="46.15658755" lon="5.98569567"><ele>398.60376</ele><time>2009-10-20T11:50:11Z</time></trkpt>
<trkpt lat="46.15658965" lon="5.98575736"><ele>398.60376</ele><time>2009-10-20T11:50:12Z</time></trkpt>
<trkpt lat="46.15659116" lon="5.98581822"><ele>398.123169</ele><time>2009-10-20T11:50:13Z</time></trkpt>
<trkpt lat="46.15659208" lon="5.98587706"><ele>398.123169</ele><time>2009-10-20T11:50:14Z</time></trkpt>
<trkpt lat="46.15659283" lon="5.98593372"><ele>397.642456</ele><time>2009-10-20T11:50:15Z</time></trkpt>
<trkpt lat="46.15659443" lon="5.98598929"><ele>397.642456</ele><time>2009-10-20T11:50:16Z</time></trkpt>
<trkpt lat="46.15659644" lon="5.98604486"><ele>397.642456</ele><time>2009-10-20T11:50:17Z</time></trkpt>
<trkpt lat="46.15659719" lon="5.98610303"><ele>397.642456</ele><time>2009-10-20T11:50:18Z</time></trkpt>
<trkpt lat="46.15659778" lon="5.98616372"><ele>397.161743</ele><time>2009-10-20T11:50:19Z</time></trkpt>
<trkpt lat="46.15659904" lon="5.98622566"><ele>397.161743</ele><time>2009-10-20T11:50:20Z</time></trkpt>
<trkpt lat="46.15659996" lon="5.98628685"><ele>397.161743</ele><time>2009-10-20T11:50:21Z</time></trkpt>
<trkpt lat="46.15660080" lon="5.98635005"><ele>397.161743</ele><time>2009-10-20T11:50:22Z</time></trkpt>
<trkpt lat="46.15660189" lon="5.98641350"><ele>397.161743</ele><time>2009-10-20T11:50:23Z</time></trkpt>
<trkpt lat="46.15660306" lon="5.98647712"><ele>396.681152</ele><time>2009-10-20T11:50:24Z</time></trkpt>
<trkpt lat="46.15660423" lon="5.98654023"><ele>396.681152</ele><time>2009-10-20T11:50:25Z</time></trkpt>
<trkpt lat="46.15660499" lon="5.98660276"><ele>396.681152</ele><time>2009-10-20T11:50:26Z</time></trkpt>
<trkpt lat="46.15660608" lon="5.98666454"><ele>396.681152</ele><time>2009-10-20T11:50:27Z</time></trkpt>
<trkpt lat="46.15660767" lon="5.98672665"><ele>396.681152</ele><time>2009-10-20T11:50:28Z</time></trkpt>
<trkpt lat="46.15660910" lon="5.98679035"><ele>396.681152</ele><time>2009-10-20T11:50:29Z</time></trkpt>
<trkpt lat="46.15660977" lon="5.98685422"><ele>396.681152</ele><time>2009-10-20T11:50:30Z</time></trkpt>
<trkpt lat="46.15661086" lon="5.98691843"><ele>396.681152</ele><time>2009-10-20T11:50:31Z</time></trkpt>
<trkpt lat="46.15661253" lon="5.98698280"><ele>396.681152</ele><time>2009-10-20T11:50:32Z</time></trkpt>
<trkpt lat="46.15661379" lon="5.98704742"><ele>396.681152</ele><time>2009-10-20T11:50:33Z</time></trkpt>
<trkpt lat="46.15661438" lon="5.98711146"><ele>396.681152</ele><time>2009-10-20T11:50:34Z</time></trkpt>
<trkpt lat="46.15661513" lon="5.98717516"><ele>396.200562</ele><time>2009-10-20T11:50:35Z</time></trkpt>
<trkpt lat="46.15661597" lon="5.98723878"><ele>396.200562</ele><time>2009-10-20T11:50:36Z</time></trkpt>
<trkpt lat="46.15661664" lon="5.98730165"><ele>396.681152</ele><time>2009-10-20T11:50:37Z</time></trkpt>
<trkpt lat="46.15661748" lon="5.98736535"><ele>396.200562</ele><time>2009-10-20T11:50:38Z</time></trkpt>
<trkpt lat="46.15661857" lon="5.98742905"><ele>396.200562</ele><time>2009-10-20T11:50:39Z</time></trkpt>
<trkpt lat="46.15661966" lon="5.98749242"><ele>396.200562</ele><time>2009-10-20T11:50:40Z</time></trkpt>
<trkpt lat="46.15662016" lon="5.98755612"><ele>396.200562</ele><time>2009-10-20T11:50:41Z</time></trkpt>
<trkpt lat="46.15662075" lon="5.98761999"><ele>396.200562</ele><time>2009-10-20T11:50:42Z</time></trkpt>
<trkpt lat="46.15662209" lon="5.98768327"><ele>396.200562</ele><time>2009-10-20T11:50:43Z</time></trkpt>
<trkpt lat="46.15662368" lon="5.98774656"><ele>396.200562</ele><time>2009-10-20T11:50:44Z</time></trkpt>
<trkpt lat="46.15662502" lon="5.98781043"><ele>396.200562</ele><time>2009-10-20T11:50:45Z</time></trkpt>
<trkpt lat="46.15662636" lon="5.98787447"><ele>396.200562</ele><time>2009-10-20T11:50:46Z</time></trkpt>
<trkpt lat="46.15662779" lon="5.98793532"><ele>396.200562</ele><time>2009-10-20T11:50:47Z</time></trkpt>
<trkpt lat="46.15662863" lon="5.98799617"><ele>396.681152</ele><time>2009-10-20T11:50:48Z</time></trkpt>
<trkpt lat="46.15662829" lon="5.98805644"><ele>397.161743</ele><time>2009-10-20T11:50:49Z</time></trkpt>
<trkpt lat="46.15662712" lon="5.98811637"><ele>397.161743</ele><time>2009-10-20T11:50:50Z</time></trkpt>
<trkpt lat="46.15662578" lon="5.98817789"><ele>397.642456</ele><time>2009-10-20T11:50:51Z</time></trkpt>
<trkpt lat="46.15662435" lon="5.98823899"><ele>398.123169</ele><time>2009-10-20T11:50:52Z</time></trkpt>
<trkpt lat="46.15662418" lon="5.98830077"><ele>398.123169</ele><time>2009-10-20T11:50:53Z</time></trkpt>
<trkpt lat="46.15662594" lon="5.98836204"><ele>398.60376</ele><time>2009-10-20T11:50:54Z</time></trkpt>
<trkpt lat="46.15662804" lon="5.98842164"><ele>399.084351</ele><time>2009-10-20T11:50:55Z</time></trkpt>
<trkpt lat="46.15662888" lon="5.98848073"><ele>399.565063</ele><time>2009-10-20T11:50:56Z</time></trkpt>
<trkpt lat="46.15662913" lon="5.98853915"><ele>399.565063</ele><time>2009-10-20T11:50:57Z</time></trkpt>
<trkpt lat="46.15662988" lon="5.98859807"><ele>400.045898</ele><time>2009-10-20T11:50:58Z</time></trkpt>
<trkpt lat="46.15663072" lon="5.98865708"><ele>401.00708</ele><time>2009-10-20T11:50:59Z</time></trkpt>
<trkpt lat="46.15663122" lon="5.98871626"><ele>401.487793</ele><time>2009-10-20T11:51:00Z</time></trkpt>
<trkpt lat="46.15663189" lon="5.98877585"><ele>401.968506</ele><time>2009-10-20T11:51:01Z</time></trkpt>
<trkpt lat="46.15663215" lon="5.98883352"><ele>402.449097</ele><time>2009-10-20T11:51:02Z</time></trkpt>
<trkpt lat="46.15663282" lon="5.98889178"><ele>402.929688</ele><time>2009-10-20T11:51:03Z</time></trkpt>
<trkpt lat="46.15663349" lon="5.98894986"><ele>403.4104</ele><time>2009-10-20T11:51:04Z</time></trkpt>
<trkpt lat="46.15663399" lon="5.98900912"><ele>403.891113</ele><time>2009-10-20T11:51:05Z</time></trkpt>
<trkpt lat="46.15663407" lon="5.98906863"><ele>404.371704</ele><time>2009-10-20T11:51:06Z</time></trkpt>
<trkpt lat="46.15663315" lon="5.98912756"><ele>405.333008</ele><time>2009-10-20T11:51:07Z</time></trkpt>
<trkpt lat="46.15663365" lon="5.98918959"><ele>405.333008</ele><time>2009-10-20T11:51:08Z</time></trkpt>
<trkpt lat="46.15663466" lon="5.98925362"><ele>405.333008</ele><time>2009-10-20T11:51:09Z</time></trkpt>
<trkpt lat="46.15663625" lon="5.98931632"><ele>405.333008</ele><time>2009-10-20T11:51:10Z</time></trkpt>
<trkpt lat="46.15663826" lon="5.98937550"><ele>405.813721</ele><time>2009-10-20T11:51:11Z</time></trkpt>
<trkpt lat="46.15664120" lon="5.98943844"><ele>405.333008</ele><time>2009-10-20T11:51:12Z</time></trkpt>
<trkpt lat="46.15664254" lon="5.98950407"><ele>405.333008</ele><time>2009-10-20T11:51:13Z</time></trkpt>
<trkpt lat="46.15664380" lon="5.98956987"><ele>405.333008</ele><time>2009-10-20T11:51:14Z</time></trkpt>
<trkpt lat="46.15664514" lon="5.98963525"><ele>404.852295</ele><time>2009-10-20T11:51:15Z</time></trkpt>
<trkpt lat="46.15664572" lon="5.98970105"><ele>405.333008</ele><time>2009-10-20T11:51:16Z</time></trkpt>
<trkpt lat="46.15664187" lon="5.98975905"><ele>404.371704</ele><time>2009-10-20T11:51:17Z</time></trkpt>
<trkpt lat="46.15663843" lon="5.98981814"><ele>404.371704</ele><time>2009-10-20T11:51:18Z</time></trkpt>
<trkpt lat="46.15663525" lon="5.98987883"><ele>403.891113</ele><time>2009-10-20T11:51:19Z</time></trkpt>
<trkpt lat="46.15663265" lon="5.98994094"><ele>403.4104</ele><time>2009-10-20T11:51:20Z</time></trkpt>
<trkpt lat="46.15662963" lon="5.99000439"><ele>402.449097</ele><time>2009-10-20T11:51:21Z</time></trkpt>
<trkpt lat="46.15662645" lon="5.99006784"><ele>401.968506</ele><time>2009-10-20T11:51:22Z</time></trkpt>
<trkpt lat="46.15662158" lon="5.99013146"><ele>401.487793</ele><time>2009-10-20T11:51:23Z</time></trkpt>
<trkpt lat="46.15661547" lon="5.99019432"><ele>401.487793</ele><time>2009-10-20T11:51:24Z</time></trkpt>
<trkpt lat="46.15660826" lon="5.99025593"><ele>400.526489</ele><time>2009-10-20T11:51:25Z</time></trkpt>
<trkpt lat="46.15659912" lon="5.99031494"><ele>400.045898</ele><time>2009-10-20T11:51:26Z</time></trkpt>
<trkpt lat="46.15658998" lon="5.99037194"><ele>399.565063</ele><time>2009-10-20T11:51:27Z</time></trkpt>
<trkpt lat="46.15658185" lon="5.99042516"><ele>399.084351</ele><time>2009-10-20T11:51:28Z</time></trkpt>
<trkpt lat="46.15657414" lon="5.99048266"><ele>398.123169</ele><time>2009-10-20T11:51:29Z</time></trkpt>
<trkpt lat="46.15656375" lon="5.99054419"><ele>397.642456</ele><time>2009-10-20T11:51:30Z</time></trkpt>
<trkpt lat="46.15655294" lon="5.99060378"><ele>397.161743</ele><time>2009-10-20T11:51:31Z</time></trkpt>
<trkpt lat="46.15654204" lon="5.99066329"><ele>396.681152</ele><time>2009-10-20T11:51:32Z</time></trkpt>
<trkpt lat="46.15652964" lon="5.99073119"><ele>395.719849</ele><time>2009-10-20T11:51:33Z</time></trkpt>
<trkpt lat="46.15651572" lon="5.99079589"><ele>394.758545</ele><time>2009-10-20T11:51:34Z</time></trkpt>
<trkpt lat="46.15649896" lon="5.99084996"><ele>394.277954</ele><time>2009-10-20T11:51:35Z</time></trkpt>
<trkpt lat="46.15648655" lon="5.99091282"><ele>393.797241</ele><time>2009-10-20T11:51:36Z</time></trkpt>
<trkpt lat="46.15647406" lon="5.99097678"><ele>393.316528</ele><time>2009-10-20T11:51:37Z</time></trkpt>
<trkpt lat="46.15645898" lon="5.99104785"><ele>393.316528</ele><time>2009-10-20T11:51:38Z</time></trkpt>
<trkpt lat="46.15644196" lon="5.99110493"><ele>394.758545</ele><time>2009-10-20T11:51:39Z</time></trkpt>
<trkpt lat="46.15642319" lon="5.99115782"><ele>396.200562</ele><time>2009-10-20T11:51:40Z</time></trkpt>
<trkpt lat="46.15640424" lon="5.99121063"><ele>397.161743</ele><time>2009-10-20T11:51:41Z</time></trkpt>
<trkpt lat="46.15638077" lon="5.99125715"><ele>397.161743</ele><time>2009-10-20T11:51:42Z</time></trkpt>
<trkpt lat="46.15635487" lon="5.99130719"><ele>396.200562</ele><time>2009-10-20T11:51:43Z</time></trkpt>
<trkpt lat="46.15632663" lon="5.99134910"><ele>395.719849</ele><time>2009-10-20T11:51:44Z</time></trkpt>
<trkpt lat="46.15629997" lon="5.99138916"><ele>397.161743</ele><time>2009-10-20T11:51:45Z</time></trkpt>
<trkpt lat="46.15627449" lon="5.99144113"><ele>396.200562</ele><time>2009-10-20T11:51:46Z</time></trkpt>
<trkpt lat="46.15625035" lon="5.99148732"><ele>395.719849</ele><time>2009-10-20T11:51:47Z</time></trkpt>
<trkpt lat="46.15622168" lon="5.99153543"><ele>395.239136</ele><time>2009-10-20T11:51:48Z</time></trkpt>
<trkpt lat="46.15619117" lon="5.99158388"><ele>394.277954</ele><time>2009-10-20T11:51:49Z</time></trkpt>
<trkpt lat="46.15615966" lon="5.99162713"><ele>393.316528</ele><time>2009-10-20T11:51:50Z</time></trkpt>
<trkpt lat="46.15613024" lon="5.99166577"><ele>393.797241</ele><time>2009-10-20T11:51:51Z</time></trkpt>
<trkpt lat="46.15610107" lon="5.99170298"><ele>393.797241</ele><time>2009-10-20T11:51:52Z</time></trkpt>
<trkpt lat="46.15606989" lon="5.99174280"><ele>393.316528</ele><time>2009-10-20T11:51:53Z</time></trkpt>
<trkpt lat="46.15603988" lon="5.99178479"><ele>393.316528</ele><time>2009-10-20T11:51:54Z</time></trkpt>
<trkpt lat="46.15600686" lon="5.99182427"><ele>392.835938</ele><time>2009-10-20T11:51:55Z</time></trkpt>
<trkpt lat="46.15597735" lon="5.99186232"><ele>392.835938</ele><time>2009-10-20T11:51:56Z</time></trkpt>
<trkpt lat="46.15595019" lon="5.99189996"><ele>393.797241</ele><time>2009-10-20T11:51:57Z</time></trkpt>
<trkpt lat="46.15592103" lon="5.99194053"><ele>393.797241</ele><time>2009-10-20T11:51:58Z</time></trkpt>
<trkpt lat="46.15589228" lon="5.99197833"><ele>394.277954</ele><time>2009-10-20T11:51:59Z</time></trkpt>
<trkpt lat="46.15586252" lon="5.99201605"><ele>394.758545</ele><time>2009-10-20T11:52:00Z</time></trkpt>
<trkpt lat="46.15583436" lon="5.99205687"><ele>394.758545</ele><time>2009-10-20T11:52:01Z</time></trkpt>
<trkpt lat="46.15580535" lon="5.99209492"><ele>394.758545</ele><time>2009-10-20T11:52:02Z</time></trkpt>
<trkpt lat="46.15577652" lon="5.99213666"><ele>394.758545</ele><time>2009-10-20T11:52:03Z</time></trkpt>
<trkpt lat="46.15575104" lon="5.99218234"><ele>395.239136</ele><time>2009-10-20T11:52:04Z</time></trkpt>
<trkpt lat="46.15572682" lon="5.99222308"><ele>395.239136</ele><time>2009-10-20T11:52:05Z</time></trkpt>
<trkpt lat="46.15570108" lon="5.99226608"><ele>395.239136</ele><time>2009-10-20T11:52:06Z</time></trkpt>
<trkpt lat="46.15567585" lon="5.99230950"><ele>395.239136</ele><time>2009-10-20T11:52:07Z</time></trkpt>
<trkpt lat="46.15565004" lon="5.99235174"><ele>395.239136</ele><time>2009-10-20T11:52:08Z</time></trkpt>
<trkpt lat="46.15562464" lon="5.99239323"><ele>395.239136</ele><time>2009-10-20T11:52:09Z</time></trkpt>
<trkpt lat="46.15560167" lon="5.99243288"><ele>395.239136</ele><time>2009-10-20T11:52:10Z</time></trkpt>
<trkpt lat="46.15557385" lon="5.99247320"><ele>395.239136</ele><time>2009-10-20T11:52:11Z</time></trkpt>
<trkpt lat="46.15554367" lon="5.99251343"><ele>395.239136</ele><time>2009-10-20T11:52:12Z</time></trkpt>
<trkpt lat="46.15551375" lon="5.99255400"><ele>394.758545</ele><time>2009-10-20T11:52:13Z</time></trkpt>
<trkpt lat="46.15548659" lon="5.99259440"><ele>394.758545</ele><time>2009-10-20T11:52:14Z</time></trkpt>
<trkpt lat="46.15545910" lon="5.99263673"><ele>394.758545</ele><time>2009-10-20T11:52:15Z</time></trkpt>
<trkpt lat="46.15543035" lon="5.99268056"><ele>394.758545</ele><time>2009-10-20T11:52:16Z</time></trkpt>
<trkpt lat="46.15540093" lon="5.99272616"><ele>394.758545</ele><time>2009-10-20T11:52:17Z</time></trkpt>
<trkpt lat="46.15536849" lon="5.99278090"><ele>395.719849</ele><time>2009-10-20T11:52:18Z</time></trkpt>
<trkpt lat="46.15533739" lon="5.99282767"><ele>396.681152</ele><time>2009-10-20T11:52:19Z</time></trkpt>
<trkpt lat="46.15530680" lon="5.99287469"><ele>397.642456</ele><time>2009-10-20T11:52:20Z</time></trkpt>
<trkpt lat="46.15527797" lon="5.99292632"><ele>398.60376</ele><time>2009-10-20T11:52:21Z</time></trkpt>
<trkpt lat="46.15525089" lon="5.99297754"><ele>399.565063</ele><time>2009-10-20T11:52:22Z</time></trkpt>
<trkpt lat="46.15522457" lon="5.99302833"><ele>400.526489</ele><time>2009-10-20T11:52:23Z</time></trkpt>
<trkpt lat="46.15519892" lon="5.99307929"><ele>401.487793</ele><time>2009-10-20T11:52:24Z</time></trkpt>
<trkpt lat="46.15517487" lon="5.99312849"><ele>401.968506</ele><time>2009-10-20T11:52:25Z</time></trkpt>
<trkpt lat="46.15515199" lon="5.99317929"><ele>402.929688</ele><time>2009-10-20T11:52:26Z</time></trkpt>
<trkpt lat="46.15513095" lon="5.99323017"><ele>403.891113</ele><time>2009-10-20T11:52:27Z</time></trkpt>
<trkpt lat="46.15511066" lon="5.99328415"><ele>404.852295</ele><time>2009-10-20T11:52:28Z</time></trkpt>
<trkpt lat="46.15509055" lon="5.99333284"><ele>405.813721</ele><time>2009-10-20T11:52:29Z</time></trkpt>
<trkpt lat="46.15507194" lon="5.99338842"><ele>406.294312</ele><time>2009-10-20T11:52:30Z</time></trkpt>
<trkpt lat="46.15505534" lon="5.99345128"><ele>406.774902</ele><time>2009-10-20T11:52:31Z</time></trkpt>
<trkpt lat="46.15504017" lon="5.99351180"><ele>407.736328</ele><time>2009-10-20T11:52:32Z</time></trkpt>
<trkpt lat="46.15502458" lon="5.99356879"><ele>408.217041</ele><time>2009-10-20T11:52:33Z</time></trkpt>
<trkpt lat="46.15500664" lon="5.99362805"><ele>409.659058</ele><time>2009-10-20T11:52:34Z</time></trkpt>
<trkpt lat="46.15499139" lon="5.99368648"><ele>410.620239</ele><time>2009-10-20T11:52:35Z</time></trkpt>
<trkpt lat="46.15497655" lon="5.99374180"><ele>411.581665</ele><time>2009-10-20T11:52:36Z</time></trkpt>
<trkpt lat="46.15496239" lon="5.99379603"><ele>412.542847</ele><time>2009-10-20T11:52:37Z</time></trkpt>
<trkpt lat="46.15494789" lon="5.99384925"><ele>413.504272</ele><time>2009-10-20T11:52:38Z</time></trkpt>
<trkpt lat="46.15493355" lon="5.99390793"><ele>414.946167</ele><time>2009-10-20T11:52:39Z</time></trkpt>
<trkpt lat="46.15491939" lon="5.99396073"><ele>416.388184</ele><time>2009-10-20T11:52:40Z</time></trkpt>
<trkpt lat="46.15490589" lon="5.99401698"><ele>416.868896</ele><time>2009-10-20T11:52:41Z</time></trkpt>
<trkpt lat="46.15489122" lon="5.99408763"><ele>417.8302</ele><time>2009-10-20T11:52:42Z</time></trkpt>
<trkpt lat="46.15487739" lon="5.99415368"><ele>418.791504</ele><time>2009-10-20T11:52:43Z</time></trkpt>
<trkpt lat="46.15486432" lon="5.99421026"><ele>419.752808</ele><time>2009-10-20T11:52:44Z</time></trkpt>
<trkpt lat="46.15484973" lon="5.99427212"><ele>421.675415</ele><time>2009-10-20T11:52:45Z</time></trkpt>
<trkpt lat="46.15483574" lon="5.99433012"><ele>423.598022</ele><time>2009-10-20T11:52:46Z</time></trkpt>
<trkpt lat="46.15482266" lon="5.99437404"><ele>423.598022</ele><time>2009-10-20T11:52:47Z</time></trkpt>
<trkpt lat="46.15481453" lon="5.99442040"><ele>425.040161</ele><time>2009-10-20T11:52:48Z</time></trkpt>
<trkpt lat="46.15480330" lon="5.99447144"><ele>426.962769</ele><time>2009-10-20T11:52:49Z</time></trkpt>
<trkpt lat="46.15478905" lon="5.99453087"><ele>428.404663</ele><time>2009-10-20T11:52:50Z</time></trkpt>
<trkpt lat="46.15477514" lon="5.99459466"><ele>429.846558</ele><time>2009-10-20T11:52:51Z</time></trkpt>
<trkpt lat="46.15475954" lon="5.99466775"><ele>430.807983</ele><time>2009-10-20T11:52:52Z</time></trkpt>
<trkpt lat="46.15474463" lon="5.99474662"><ele>430.807983</ele><time>2009-10-20T11:52:53Z</time></trkpt>
<trkpt lat="46.15472769" lon="5.99481829"><ele>431.288574</ele><time>2009-10-20T11:52:54Z</time></trkpt>
<trkpt lat="46.15470875" lon="5.99487327"><ele>431.288574</ele><time>2009-10-20T11:52:55Z</time></trkpt>
<trkpt lat="46.15469484" lon="5.99494116"><ele>431.288574</ele><time>2009-10-20T11:52:56Z</time></trkpt>
<trkpt lat="46.15468344" lon="5.99500562"><ele>431.288574</ele><time>2009-10-20T11:52:57Z</time></trkpt>
<trkpt lat="46.15467212" lon="5.99506463"><ele>430.327271</ele><time>2009-10-20T11:52:58Z</time></trkpt>
<trkpt lat="46.15465762" lon="5.99511970"><ele>429.365967</ele><time>2009-10-20T11:52:59Z</time></trkpt>
<trkpt lat="46.15464488" lon="5.99518206"><ele>427.443359</ele><time>2009-10-20T11:53:00Z</time></trkpt>
<trkpt lat="46.15463323" lon="5.99524182"><ele>426.962769</ele><time>2009-10-20T11:53:01Z</time></trkpt>
<trkpt lat="46.15462594" lon="5.99530477"><ele>425.520752</ele><time>2009-10-20T11:53:02Z</time></trkpt>
<trkpt lat="46.15461839" lon="5.99537107"><ele>425.040161</ele><time>2009-10-20T11:53:03Z</time></trkpt>
<trkpt lat="46.15460917" lon="5.99543402"><ele>424.559448</ele><time>2009-10-20T11:53:04Z</time></trkpt>
<trkpt lat="46.15459375" lon="5.99549269"><ele>423.117432</ele><time>2009-10-20T11:53:05Z</time></trkpt>
<trkpt lat="46.15458068" lon="5.99555204"><ele>422.636719</ele><time>2009-10-20T11:53:06Z</time></trkpt>
<trkpt lat="46.15457037" lon="5.99561297"><ele>422.156006</ele><time>2009-10-20T11:53:07Z</time></trkpt>
<trkpt lat="46.15456207" lon="5.99566829"><ele>421.194824</ele><time>2009-10-20T11:53:08Z</time></trkpt>
<trkpt lat="46.15455260" lon="5.99572370"><ele>421.194824</ele><time>2009-10-20T11:53:09Z</time></trkpt>
<trkpt lat="46.15454237" lon="5.99578195"><ele>420.233398</ele><time>2009-10-20T11:53:10Z</time></trkpt>
<trkpt lat="46.15453575" lon="5.99584356"><ele>419.752808</ele><time>2009-10-20T11:53:11Z</time></trkpt>
<trkpt lat="46.15452846" lon="5.99589746"><ele>419.272217</ele><time>2009-10-20T11:53:12Z</time></trkpt>
<trkpt lat="46.15451865" lon="5.99595889"><ele>418.791504</ele><time>2009-10-20T11:53:13Z</time></trkpt>
<trkpt lat="46.15451052" lon="5.99601899"><ele>417.349609</ele><time>2009-10-20T11:53:14Z</time></trkpt>
<trkpt lat="46.15450214" lon="5.99607733"><ele>416.388184</ele><time>2009-10-20T11:53:15Z</time></trkpt>
<trkpt lat="46.15449216" lon="5.99613693"><ele>415.907471</ele><time>2009-10-20T11:53:16Z</time></trkpt>
<trkpt lat="46.15448194" lon="5.99620298"><ele>415.42688</ele><time>2009-10-20T11:53:17Z</time></trkpt>
<trkpt lat="46.15447280" lon="5.99626685"><ele>414.946167</ele><time>2009-10-20T11:53:18Z</time></trkpt>
<trkpt lat="46.15446677" lon="5.99632694"><ele>413.984863</ele><time>2009-10-20T11:53:19Z</time></trkpt>
<trkpt lat="46.15446215" lon="5.99638553"><ele>413.504272</ele><time>2009-10-20T11:53:20Z</time></trkpt>
<trkpt lat="46.15445713" lon="5.99644722"><ele>413.02356</ele><time>2009-10-20T11:53:21Z</time></trkpt>
<trkpt lat="46.15445268" lon="5.99651135"><ele>413.02356</ele><time>2009-10-20T11:53:22Z</time></trkpt>
<trkpt lat="46.15444983" lon="5.99657597"><ele>412.542847</ele><time>2009-10-20T11:53:23Z</time></trkpt>
<trkpt lat="46.15444883" lon="5.99663716"><ele>412.062256</ele><time>2009-10-20T11:53:24Z</time></trkpt>
<trkpt lat="46.15444916" lon="5.99669969"><ele>412.062256</ele><time>2009-10-20T11:53:25Z</time></trkpt>
<trkpt lat="46.15445168" lon="5.99676406"><ele>412.062256</ele><time>2009-10-20T11:53:26Z</time></trkpt>
<trkpt lat="46.15445578" lon="5.99682835"><ele>412.062256</ele><time>2009-10-20T11:53:27Z</time></trkpt>
<trkpt lat="46.15446199" lon="5.99689306"><ele>411.581665</ele><time>2009-10-20T11:53:28Z</time></trkpt>
<trkpt lat="46.15446978" lon="5.99695684"><ele>411.100952</ele><time>2009-10-20T11:53:29Z</time></trkpt>
<trkpt lat="46.15447850" lon="5.99701996"><ele>411.100952</ele><time>2009-10-20T11:53:30Z</time></trkpt>
<trkpt lat="46.15448797" lon="5.99708207"><ele>410.620239</ele><time>2009-10-20T11:53:31Z</time></trkpt>
<trkpt lat="46.15449937" lon="5.99714359"><ele>410.620239</ele><time>2009-10-20T11:53:32Z</time></trkpt>
<trkpt lat="46.15451169" lon="5.99720520"><ele>410.620239</ele><time>2009-10-20T11:53:33Z</time></trkpt>
<trkpt lat="46.15452485" lon="5.99726739"><ele>410.620239</ele><time>2009-10-20T11:53:34Z</time></trkpt>
<trkpt lat="46.15453843" lon="5.99732942"><ele>410.620239</ele><time>2009-10-20T11:53:35Z</time></trkpt>
<trkpt lat="46.15455352" lon="5.99739119"><ele>411.100952</ele><time>2009-10-20T11:53:36Z</time></trkpt>
<trkpt lat="46.15456827" lon="5.99745054"><ele>411.581665</ele><time>2009-10-20T11:53:37Z</time></trkpt>
<trkpt lat="46.15458705" lon="5.99751156"><ele>411.581665</ele><time>2009-10-20T11:53:38Z</time></trkpt>
<trkpt lat="46.15460624" lon="5.99757157"><ele>412.062256</ele><time>2009-10-20T11:53:39Z</time></trkpt>
<trkpt lat="46.15462418" lon="5.99762882"><ele>412.062256</ele><time>2009-10-20T11:53:40Z</time></trkpt>
<trkpt lat="46.15464027" lon="5.99768288"><ele>412.542847</ele><time>2009-10-20T11:53:41Z</time></trkpt>
<trkpt lat="46.15465477" lon="5.99773452"><ele>412.542847</ele><time>2009-10-20T11:53:42Z</time></trkpt>
<trkpt lat="46.15466743" lon="5.99778347"><ele>412.542847</ele><time>2009-10-20T11:53:43Z</time></trkpt>
<trkpt lat="46.15467933" lon="5.99782898"><ele>413.02356</ele><time>2009-10-20T11:53:44Z</time></trkpt>
<trkpt lat="46.15469039" lon="5.99787139"><ele>413.02356</ele><time>2009-10-20T11:53:45Z</time></trkpt>
<trkpt lat="46.15470112" lon="5.99791146"><ele>413.504272</ele><time>2009-10-20T11:53:46Z</time></trkpt>
<trkpt lat="46.15471453" lon="5.99795354"><ele>414.946167</ele><time>2009-10-20T11:53:47Z</time></trkpt>
<trkpt lat="46.15472987" lon="5.99800056"><ele>416.868896</ele><time>2009-10-20T11:53:48Z</time></trkpt>
<trkpt lat="46.15474186" lon="5.99804356"><ele>417.349609</ele><time>2009-10-20T11:53:49Z</time></trkpt>
<trkpt lat="46.15475670" lon="5.99809217"><ele>417.349609</ele><time>2009-10-20T11:53:50Z</time></trkpt>
<trkpt lat="46.15477606" lon="5.99814758"><ele>418.791504</ele><time>2009-10-20T11:53:51Z</time></trkpt>
<trkpt lat="46.15479198" lon="5.99820348"><ele>418.791504</ele><time>2009-10-20T11:53:52Z</time></trkpt>
<trkpt lat="46.15480967" lon="5.99826258"><ele>419.272217</ele><time>2009-10-20T11:53:53Z</time></trkpt>
<trkpt lat="46.15482786" lon="5.99832477"><ele>419.272217</ele><time>2009-10-20T11:53:54Z</time></trkpt>
<trkpt lat="46.15484739" lon="5.99838847"><ele>419.752808</ele><time>2009-10-20T11:53:55Z</time></trkpt>
<trkpt lat="46.15486717" lon="5.99845184"><ele>419.752808</ele><time>2009-10-20T11:53:56Z</time></trkpt>
<trkpt lat="46.15488636" lon="5.99851462"><ele>420.233398</ele><time>2009-10-20T11:53:57Z</time></trkpt>
<trkpt lat="46.15491126" lon="5.99857925"><ele>422.156006</ele><time>2009-10-20T11:53:58Z</time></trkpt>
<trkpt lat="46.15493406" lon="5.99864278"><ele>423.598022</ele><time>2009-10-20T11:53:59Z</time></trkpt>
<trkpt lat="46.15495568" lon="5.99870724"><ele>425.040161</ele><time>2009-10-20T11:54:00Z</time></trkpt>
<trkpt lat="46.15497622" lon="5.99877203"><ele>426.482056</ele><time>2009-10-20T11:54:01Z</time></trkpt>
<trkpt lat="46.15499927" lon="5.99883866"><ele>427.443359</ele><time>2009-10-20T11:54:02Z</time></trkpt>
<trkpt lat="46.15502282" lon="5.99890823"><ele>428.404663</ele><time>2009-10-20T11:54:03Z</time></trkpt>
<trkpt lat="46.15504495" lon="5.99897814"><ele>429.365967</ele><time>2009-10-20T11:54:04Z</time></trkpt>
<trkpt lat="46.15506733" lon="5.99904939"><ele>429.846558</ele><time>2009-10-20T11:54:05Z</time></trkpt>
<trkpt lat="46.15509105" lon="5.99912348"><ele>430.807983</ele><time>2009-10-20T11:54:06Z</time></trkpt>
<trkpt lat="46.15511335" lon="5.99919942"><ele>431.288574</ele><time>2009-10-20T11:54:07Z</time></trkpt>
<trkpt lat="46.15513464" lon="5.99927746"><ele>431.769165</ele><time>2009-10-20T11:54:08Z</time></trkpt>
<trkpt lat="46.15516196" lon="5.99935876"><ele>432.25</ele><time>2009-10-20T11:54:09Z</time></trkpt>
<trkpt lat="46.15519012" lon="5.99943864"><ele>433.211304</ele><time>2009-10-20T11:54:10Z</time></trkpt>
<trkpt lat="46.15522005" lon="5.99951827"><ele>434.172607</ele><time>2009-10-20T11:54:11Z</time></trkpt>
<trkpt lat="46.15524754" lon="5.99959329"><ele>434.65332</ele><time>2009-10-20T11:54:12Z</time></trkpt>
<trkpt lat="46.15527327" lon="5.99966797"><ele>435.133911</ele><time>2009-10-20T11:54:13Z</time></trkpt>
<trkpt lat="46.15529548" lon="5.99974374"><ele>435.614502</ele><time>2009-10-20T11:54:14Z</time></trkpt>
<trkpt lat="46.15531694" lon="5.99981876"><ele>435.614502</ele><time>2009-10-20T11:54:15Z</time></trkpt>
<trkpt lat="46.15533966" lon="5.99989344"><ele>436.095215</ele><time>2009-10-20T11:54:16Z</time></trkpt>
<trkpt lat="46.15535952" lon="5.99996595"><ele>436.095215</ele><time>2009-10-20T11:54:17Z</time></trkpt>
<trkpt lat="46.15538140" lon="6.00003904"><ele>436.575928</ele><time>2009-10-20T11:54:18Z</time></trkpt>
<trkpt lat="46.15540336" lon="6.00011297"><ele>436.575928</ele><time>2009-10-20T11:54:19Z</time></trkpt>
<trkpt lat="46.15542482" lon="6.00018723"><ele>437.056519</ele><time>2009-10-20T11:54:20Z</time></trkpt>
<trkpt lat="46.15544887" lon="6.00026275"><ele>437.056519</ele><time>2009-10-20T11:54:21Z</time></trkpt>
<trkpt lat="46.15547184" lon="6.00033693"><ele>437.056519</ele><time>2009-10-20T11:54:22Z</time></trkpt>
<trkpt lat="46.15549849" lon="6.00041438"><ele>437.537109</ele><time>2009-10-20T11:54:23Z</time></trkpt>
<trkpt lat="46.15552238" lon="6.00049132"><ele>438.017822</ele><time>2009-10-20T11:54:24Z</time></trkpt>
<trkpt lat="46.15555147" lon="6.00057087"><ele>438.498535</ele><time>2009-10-20T11:54:25Z</time></trkpt>
<trkpt lat="46.15557904" lon="6.00064916"><ele>438.979126</ele><time>2009-10-20T11:54:26Z</time></trkpt>
<trkpt lat="46.15560905" lon="6.00072828"><ele>440.421265</ele><time>2009-10-20T11:54:27Z</time></trkpt>
<trkpt lat="46.15563889" lon="6.00080682"><ele>441.863159</ele><time>2009-10-20T11:54:28Z</time></trkpt>
<trkpt lat="46.15566873" lon="6.00088502"><ele>442.824463</ele><time>2009-10-20T11:54:29Z</time></trkpt>
<trkpt lat="46.15569429" lon="6.00096163"><ele>443.305054</ele><time>2009-10-20T11:54:30Z</time></trkpt>
<trkpt lat="46.15571944" lon="6.00103808"><ele>443.305054</ele><time>2009-10-20T11:54:31Z</time></trkpt>
<trkpt lat="46.15574643" lon="6.00111519"><ele>443.305054</ele><time>2009-10-20T11:54:32Z</time></trkpt>
<trkpt lat="46.15577166" lon="6.00119130"><ele>443.305054</ele><time>2009-10-20T11:54:33Z</time></trkpt>
<trkpt lat="46.15579773" lon="6.00126640"><ele>443.785767</ele><time>2009-10-20T11:54:34Z</time></trkpt>
<trkpt lat="46.15582547" lon="6.00134226"><ele>443.785767</ele><time>2009-10-20T11:54:35Z</time></trkpt>
<trkpt lat="46.15585129" lon="6.00141736"><ele>443.305054</ele><time>2009-10-20T11:54:36Z</time></trkpt>
<trkpt lat="46.15587727" lon="6.00149154"><ele>443.305054</ele><time>2009-10-20T11:54:37Z</time></trkpt>
<trkpt lat="46.15590384" lon="6.00156588"><ele>443.305054</ele><time>2009-10-20T11:54:38Z</time></trkpt>
<trkpt lat="46.15593117" lon="6.00164065"><ele>442.824463</ele><time>2009-10-20T11:54:39Z</time></trkpt>
<trkpt lat="46.15595455" lon="6.00171299"><ele>442.824463</ele><time>2009-10-20T11:54:40Z</time></trkpt>
<trkpt lat="46.15597794" lon="6.00178465"><ele>442.343872</ele><time>2009-10-20T11:54:41Z</time></trkpt>
<trkpt lat="46.15600317" lon="6.00185808"><ele>441.863159</ele><time>2009-10-20T11:54:42Z</time></trkpt>
<trkpt lat="46.15602907" lon="6.00193268"><ele>441.863159</ele><time>2009-10-20T11:54:43Z</time></trkpt>
<trkpt lat="46.15605606" lon="6.00200769"><ele>441.863159</ele><time>2009-10-20T11:54:44Z</time></trkpt>
<trkpt lat="46.15608296" lon="6.00208204"><ele>441.382446</ele><time>2009-10-20T11:54:45Z</time></trkpt>
<trkpt lat="46.15610735" lon="6.00215379"><ele>441.382446</ele><time>2009-10-20T11:54:46Z</time></trkpt>
<trkpt lat="46.15613393" lon="6.00222537"><ele>440.901855</ele><time>2009-10-20T11:54:47Z</time></trkpt>
<trkpt lat="46.15616058" lon="6.00229662"><ele>440.901855</ele><time>2009-10-20T11:54:48Z</time></trkpt>
<trkpt lat="46.15618640" lon="6.00236719"><ele>440.901855</ele><time>2009-10-20T11:54:49Z</time></trkpt>
<trkpt lat="46.15620869" lon="6.00243408"><ele>440.901855</ele><time>2009-10-20T11:54:50Z</time></trkpt>
<trkpt lat="46.15623174" lon="6.00249862"><ele>440.901855</ele><time>2009-10-20T11:54:51Z</time></trkpt>
<trkpt lat="46.15625303" lon="6.00255948"><ele>440.901855</ele><time>2009-10-20T11:54:52Z</time></trkpt>
<trkpt lat="46.15627675" lon="6.00262083"><ele>441.382446</ele><time>2009-10-20T11:54:53Z</time></trkpt>
<trkpt lat="46.15630433" lon="6.00268319"><ele>441.382446</ele><time>2009-10-20T11:54:54Z</time></trkpt>
<trkpt lat="46.15633844" lon="6.00274086"><ele>442.343872</ele><time>2009-10-20T11:54:55Z</time></trkpt>
<trkpt lat="46.15637566" lon="6.00279987"><ele>442.824463</ele><time>2009-10-20T11:54:56Z</time></trkpt>
<trkpt lat="46.15640634" lon="6.00286785"><ele>443.305054</ele><time>2009-10-20T11:54:57Z</time></trkpt>
<trkpt lat="46.15643173" lon="6.00294203"><ele>443.785767</ele><time>2009-10-20T11:54:58Z</time></trkpt>
<trkpt lat="46.15645604" lon="6.00301939"><ele>443.785767</ele><time>2009-10-20T11:54:59Z</time></trkpt>
<trkpt lat="46.15648387" lon="6.00309868"><ele>444.266479</ele><time>2009-10-20T11:55:00Z</time></trkpt>
<trkpt lat="46.15651254" lon="6.00317462"><ele>444.266479</ele><time>2009-10-20T11:55:01Z</time></trkpt>
<trkpt lat="46.15654330" lon="6.00324838"><ele>444.74707</ele><time>2009-10-20T11:55:02Z</time></trkpt>
<trkpt lat="46.15657356" lon="6.00332164"><ele>444.74707</ele><time>2009-10-20T11:55:03Z</time></trkpt>
<trkpt lat="46.15659694" lon="6.00339272"><ele>443.305054</ele><time>2009-10-20T11:55:04Z</time></trkpt>
<trkpt lat="46.15662192" lon="6.00346455"><ele>442.343872</ele><time>2009-10-20T11:55:05Z</time></trkpt>
<trkpt lat="46.15664916" lon="6.00353706"><ele>441.382446</ele><time>2009-10-20T11:55:06Z</time></trkpt>
<trkpt lat="46.15667749" lon="6.00360998"><ele>440.421265</ele><time>2009-10-20T11:55:07Z</time></trkpt>
<trkpt lat="46.15670574" lon="6.00368299"><ele>439.459717</ele><time>2009-10-20T11:55:08Z</time></trkpt>
<trkpt lat="46.15673415" lon="6.00375566"><ele>438.979126</ele><time>2009-10-20T11:55:09Z</time></trkpt>
<trkpt lat="46.15676282" lon="6.00382833"><ele>438.017822</ele><time>2009-10-20T11:55:10Z</time></trkpt>
<trkpt lat="46.15679274" lon="6.00390100"><ele>438.017822</ele><time>2009-10-20T11:55:11Z</time></trkpt>
<trkpt lat="46.15682334" lon="6.00397283"><ele>437.537109</ele><time>2009-10-20T11:55:12Z</time></trkpt>
<trkpt lat="46.15685410" lon="6.00404559"><ele>437.056519</ele><time>2009-10-20T11:55:13Z</time></trkpt>
<trkpt lat="46.15688478" lon="6.00411935"><ele>436.575928</ele><time>2009-10-20T11:55:14Z</time></trkpt>
<trkpt lat="46.15691554" lon="6.00419386"><ele>436.095215</ele><time>2009-10-20T11:55:15Z</time></trkpt>
<trkpt lat="46.15694647" lon="6.00426838"><ele>436.095215</ele><time>2009-10-20T11:55:16Z</time></trkpt>
<trkpt lat="46.15697773" lon="6.00434273"><ele>435.614502</ele><time>2009-10-20T11:55:17Z</time></trkpt>
<trkpt lat="46.15700916" lon="6.00441682"><ele>435.614502</ele><time>2009-10-20T11:55:18Z</time></trkpt>
<trkpt lat="46.15704018" lon="6.00449117"><ele>435.133911</ele><time>2009-10-20T11:55:19Z</time></trkpt>
<trkpt lat="46.15707144" lon="6.00456518"><ele>435.133911</ele><time>2009-10-20T11:55:20Z</time></trkpt>
<trkpt lat="46.15710329" lon="6.00463944"><ele>434.65332</ele><time>2009-10-20T11:55:21Z</time></trkpt>
<trkpt lat="46.15713573" lon="6.00471438"><ele>434.65332</ele><time>2009-10-20T11:55:22Z</time></trkpt>
<trkpt lat="46.15716658" lon="6.00478965"><ele>434.65332</ele><time>2009-10-20T11:55:23Z</time></trkpt>
<trkpt lat="46.15719675" lon="6.00486483"><ele>434.65332</ele><time>2009-10-20T11:55:24Z</time></trkpt>
<trkpt lat="46.15722810" lon="6.00493952"><ele>434.65332</ele><time>2009-10-20T11:55:25Z</time></trkpt>
<trkpt lat="46.15725987" lon="6.00501345"><ele>434.172607</ele><time>2009-10-20T11:55:26Z</time></trkpt>
<trkpt lat="46.15729155" lon="6.00508695"><ele>434.172607</ele><time>2009-10-20T11:55:27Z</time></trkpt>
<trkpt lat="46.15732206" lon="6.00515946"><ele>434.172607</ele><time>2009-10-20T11:55:28Z</time></trkpt>
<trkpt lat="46.15735156" lon="6.00523255"><ele>434.172607</ele><time>2009-10-20T11:55:29Z</time></trkpt>
<trkpt lat="46.15738157" lon="6.00530606"><ele>434.172607</ele><time>2009-10-20T11:55:30Z</time></trkpt>
<trkpt lat="46.15741175" lon="6.00537957"><ele>434.172607</ele><time>2009-10-20T11:55:31Z</time></trkpt>
<trkpt lat="46.15744242" lon="6.00545282"><ele>434.172607</ele><time>2009-10-20T11:55:32Z</time></trkpt>
<trkpt lat="46.15747352" lon="6.00552717"><ele>434.172607</ele><time>2009-10-20T11:55:33Z</time></trkpt>
<trkpt lat="46.15750504" lon="6.00560060"><ele>434.172607</ele><time>2009-10-20T11:55:34Z</time></trkpt>
<trkpt lat="46.15753647" lon="6.00567402"><ele>434.172607</ele><time>2009-10-20T11:55:35Z</time></trkpt>
<trkpt lat="46.15756748" lon="6.00574695"><ele>434.172607</ele><time>2009-10-20T11:55:36Z</time></trkpt>
<trkpt lat="46.15759850" lon="6.00582004"><ele>434.172607</ele><time>2009-10-20T11:55:37Z</time></trkpt>
<trkpt lat="46.15763026" lon="6.00589338"><ele>434.172607</ele><time>2009-10-20T11:55:38Z</time></trkpt>
<trkpt lat="46.15766237" lon="6.00596697"><ele>434.172607</ele><time>2009-10-20T11:55:39Z</time></trkpt>
<trkpt lat="46.15769329" lon="6.00604123"><ele>434.172607</ele><time>2009-10-20T11:55:40Z</time></trkpt>
<trkpt lat="46.15772473" lon="6.00611684"><ele>434.172607</ele><time>2009-10-20T11:55:41Z</time></trkpt>
<trkpt lat="46.15775708" lon="6.00619303"><ele>434.65332</ele><time>2009-10-20T11:55:42Z</time></trkpt>
<trkpt lat="46.15778944" lon="6.00626897"><ele>434.65332</ele><time>2009-10-20T11:55:43Z</time></trkpt>
<trkpt lat="46.15782187" lon="6.00634575"><ele>434.65332</ele><time>2009-10-20T11:55:44Z</time></trkpt>
<trkpt lat="46.15785498" lon="6.00642303"><ele>434.65332</ele><time>2009-10-20T11:55:45Z</time></trkpt>
<trkpt lat="46.15788817" lon="6.00650090"><ele>434.65332</ele><time>2009-10-20T11:55:46Z</time></trkpt>
<trkpt lat="46.15792128" lon="6.00657868"><ele>434.65332</ele><time>2009-10-20T11:55:47Z</time></trkpt>
<trkpt lat="46.15795456" lon="6.00665630"><ele>434.65332</ele><time>2009-10-20T11:55:48Z</time></trkpt>
<trkpt lat="46.15798775" lon="6.00673383"><ele>434.65332</ele><time>2009-10-20T11:55:49Z</time></trkpt>
<trkpt lat="46.15802119" lon="6.00681187"><ele>434.65332</ele><time>2009-10-20T11:55:50Z</time></trkpt>
<trkpt lat="46.15805472" lon="6.00689024"><ele>434.65332</ele><time>2009-10-20T11:55:51Z</time></trkpt>
<trkpt lat="46.15808867" lon="6.00696936"><ele>435.133911</ele><time>2009-10-20T11:55:52Z</time></trkpt>
<trkpt lat="46.15812270" lon="6.00704857"><ele>435.133911</ele><time>2009-10-20T11:55:53Z</time></trkpt>
<trkpt lat="46.15815732" lon="6.00712753"><ele>435.133911</ele><time>2009-10-20T11:55:54Z</time></trkpt>
<trkpt lat="46.15819219" lon="6.00720724"><ele>435.133911</ele><time>2009-10-20T11:55:55Z</time></trkpt>
<trkpt lat="46.15822747" lon="6.00728804"><ele>435.133911</ele><time>2009-10-20T11:55:56Z</time></trkpt>
<trkpt lat="46.15826326" lon="6.00737035"><ele>435.133911</ele><time>2009-10-20T11:55:57Z</time></trkpt>
<trkpt lat="46.15829822" lon="6.00745266"><ele>435.133911</ele><time>2009-10-20T11:55:58Z</time></trkpt>
<trkpt lat="46.15833342" lon="6.00753472"><ele>435.614502</ele><time>2009-10-20T11:55:59Z</time></trkpt>
<trkpt lat="46.15836913" lon="6.00761745"><ele>435.614502</ele><time>2009-10-20T11:56:00Z</time></trkpt>
<trkpt lat="46.15840475" lon="6.00770018"><ele>435.614502</ele><time>2009-10-20T11:56:01Z</time></trkpt>
<trkpt lat="46.15844063" lon="6.00778274"><ele>435.614502</ele><time>2009-10-20T11:56:02Z</time></trkpt>
<trkpt lat="46.15847658" lon="6.00786547"><ele>435.614502</ele><time>2009-10-20T11:56:03Z</time></trkpt>
<trkpt lat="46.15851237" lon="6.00794828"><ele>435.614502</ele><time>2009-10-20T11:56:04Z</time></trkpt>
<trkpt lat="46.15854825" lon="6.00803127"><ele>435.614502</ele><time>2009-10-20T11:56:05Z</time></trkpt>
<trkpt lat="46.15858437" lon="6.00811358"><ele>436.095215</ele><time>2009-10-20T11:56:06Z</time></trkpt>
<trkpt lat="46.15862025" lon="6.00819589"><ele>436.095215</ele><time>2009-10-20T11:56:07Z</time></trkpt>
<trkpt lat="46.15865638" lon="6.00827895"><ele>436.095215</ele><time>2009-10-20T11:56:08Z</time></trkpt>
<trkpt lat="46.15869233" lon="6.00836185"><ele>436.095215</ele><time>2009-10-20T11:56:09Z</time></trkpt>
<trkpt lat="46.15872829" lon="6.00844416"><ele>436.095215</ele><time>2009-10-20T11:56:10Z</time></trkpt>
<trkpt lat="46.15876735" lon="6.00852798"><ele>436.095215</ele><time>2009-10-20T11:56:11Z</time></trkpt>
<trkpt lat="46.15880440" lon="6.00861087"><ele>436.575928</ele><time>2009-10-20T11:56:12Z</time></trkpt>
<trkpt lat="46.15883935" lon="6.00869427"><ele>436.575928</ele><time>2009-10-20T11:56:13Z</time></trkpt>
<trkpt lat="46.15887523" lon="6.00877893"><ele>436.575928</ele><time>2009-10-20T11:56:14Z</time></trkpt>
<trkpt lat="46.15891227" lon="6.00886409"><ele>436.575928</ele><time>2009-10-20T11:56:15Z</time></trkpt>
<trkpt lat="46.15894865" lon="6.00894934"><ele>437.056519</ele><time>2009-10-20T11:56:16Z</time></trkpt>
<trkpt lat="46.15898436" lon="6.00903399"><ele>437.056519</ele><time>2009-10-20T11:56:17Z</time></trkpt>
<trkpt lat="46.15902744" lon="6.00912175"><ele>438.498535</ele><time>2009-10-20T11:56:18Z</time></trkpt>
<trkpt lat="46.15906675" lon="6.00920683"><ele>439.459717</ele><time>2009-10-20T11:56:19Z</time></trkpt>
<trkpt lat="46.15910254" lon="6.00928964"><ele>439.459717</ele><time>2009-10-20T11:56:20Z</time></trkpt>
<trkpt lat="46.15914286" lon="6.00937472"><ele>440.901855</ele><time>2009-10-20T11:56:21Z</time></trkpt>
<trkpt lat="46.15917672" lon="6.00945812"><ele>440.421265</ele><time>2009-10-20T11:56:22Z</time></trkpt>
<trkpt lat="46.15921067" lon="6.00954043"><ele>439.94043</ele><time>2009-10-20T11:56:23Z</time></trkpt>
<trkpt lat="46.15924604" lon="6.00962307"><ele>439.94043</ele><time>2009-10-20T11:56:24Z</time></trkpt>
<trkpt lat="46.15928116" lon="6.00970605"><ele>439.94043</ele><time>2009-10-20T11:56:25Z</time></trkpt>
<trkpt lat="46.15931536" lon="6.00978853"><ele>439.459717</ele><time>2009-10-20T11:56:26Z</time></trkpt>
<trkpt lat="46.15935015" lon="6.00987026"><ele>438.979126</ele><time>2009-10-20T11:56:27Z</time></trkpt>
<trkpt lat="46.15938468" lon="6.00995055"><ele>438.979126</ele><time>2009-10-20T11:56:28Z</time></trkpt>
<trkpt lat="46.15941846" lon="6.01003077"><ele>438.979126</ele><time>2009-10-20T11:56:29Z</time></trkpt>
<trkpt lat="46.15945224" lon="6.01011090"><ele>438.979126</ele><time>2009-10-20T11:56:30Z</time></trkpt>
<trkpt lat="46.15948560" lon="6.01019086"><ele>438.979126</ele><time>2009-10-20T11:56:31Z</time></trkpt>
<trkpt lat="46.15951904" lon="6.01027175"><ele>438.979126</ele><time>2009-10-20T11:56:32Z</time></trkpt>
<trkpt lat="46.15955316" lon="6.01035255"><ele>438.979126</ele><time>2009-10-20T11:56:33Z</time></trkpt>
<trkpt lat="46.15958744" lon="6.01043318"><ele>438.979126</ele><time>2009-10-20T11:56:34Z</time></trkpt>
<trkpt lat="46.15962147" lon="6.01051399"><ele>438.979126</ele><time>2009-10-20T11:56:35Z</time></trkpt>
<trkpt lat="46.15965516" lon="6.01059445"><ele>438.979126</ele><time>2009-10-20T11:56:36Z</time></trkpt>
<trkpt lat="46.15968886" lon="6.01067450"><ele>438.979126</ele><time>2009-10-20T11:56:37Z</time></trkpt>
<trkpt lat="46.15972239" lon="6.01075429"><ele>438.979126</ele><time>2009-10-20T11:56:38Z</time></trkpt>
<trkpt lat="46.15975499" lon="6.01083367"><ele>438.498535</ele><time>2009-10-20T11:56:39Z</time></trkpt>
<trkpt lat="46.15978592" lon="6.01091204"><ele>438.017822</ele><time>2009-10-20T11:56:40Z</time></trkpt>
<trkpt lat="46.15982104" lon="6.01099175"><ele>438.498535</ele><time>2009-10-20T11:56:41Z</time></trkpt>
<trkpt lat="46.15985482" lon="6.01107038"><ele>438.498535</ele><time>2009-10-20T11:56:42Z</time></trkpt>
<trkpt lat="46.15988826" lon="6.01115067"><ele>438.017822</ele><time>2009-10-20T11:56:43Z</time></trkpt>
<trkpt lat="46.15992238" lon="6.01123097"><ele>437.537109</ele><time>2009-10-20T11:56:44Z</time></trkpt>
<trkpt lat="46.15995700" lon="6.01131043"><ele>437.537109</ele><time>2009-10-20T11:56:45Z</time></trkpt>
<trkpt lat="46.15999069" lon="6.01139065"><ele>437.056519</ele><time>2009-10-20T11:56:46Z</time></trkpt>
<trkpt lat="46.16002313" lon="6.01146994"><ele>436.575928</ele><time>2009-10-20T11:56:47Z</time></trkpt>
<trkpt lat="46.16005582" lon="6.01154848"><ele>436.575928</ele><time>2009-10-20T11:56:48Z</time></trkpt>
<trkpt lat="46.16008935" lon="6.01162702"><ele>436.575928</ele><time>2009-10-20T11:56:49Z</time></trkpt>
<trkpt lat="46.16012262" lon="6.01170572"><ele>436.575928</ele><time>2009-10-20T11:56:50Z</time></trkpt>
<trkpt lat="46.16015615" lon="6.01178410"><ele>436.575928</ele><time>2009-10-20T11:56:51Z</time></trkpt>
<trkpt lat="46.16018926" lon="6.01186247"><ele>437.056519</ele><time>2009-10-20T11:56:52Z</time></trkpt>
<trkpt lat="46.16022228" lon="6.01194126"><ele>437.056519</ele><time>2009-10-20T11:56:53Z</time></trkpt>
<trkpt lat="46.16025514" lon="6.01201988"><ele>437.056519</ele><time>2009-10-20T11:56:54Z</time></trkpt>
<trkpt lat="46.16028825" lon="6.01209942"><ele>436.575928</ele><time>2009-10-20T11:56:55Z</time></trkpt>
<trkpt lat="46.16032144" lon="6.01217846"><ele>436.575928</ele><time>2009-10-20T11:56:56Z</time></trkpt>
<trkpt lat="46.16035455" lon="6.01225692"><ele>436.095215</ele><time>2009-10-20T11:56:57Z</time></trkpt>
<trkpt lat="46.16038757" lon="6.01233479"><ele>436.095215</ele><time>2009-10-20T11:56:58Z</time></trkpt>
<trkpt lat="46.16041993" lon="6.01241282"><ele>435.614502</ele><time>2009-10-20T11:56:59Z</time></trkpt>
<trkpt lat="46.16045253" lon="6.01249119"><ele>435.614502</ele><time>2009-10-20T11:57:00Z</time></trkpt>
<trkpt lat="46.16048539" lon="6.01256998"><ele>435.133911</ele><time>2009-10-20T11:57:01Z</time></trkpt>
<trkpt lat="46.16051808" lon="6.01264969"><ele>434.65332</ele><time>2009-10-20T11:57:02Z</time></trkpt>
<trkpt lat="46.16055102" lon="6.01272966"><ele>434.172607</ele><time>2009-10-20T11:57:03Z</time></trkpt>
<trkpt lat="46.16058363" lon="6.01280945"><ele>434.172607</ele><time>2009-10-20T11:57:04Z</time></trkpt>
<trkpt lat="46.16061573" lon="6.01288958"><ele>433.691895</ele><time>2009-10-20T11:57:05Z</time></trkpt>
<trkpt lat="46.16065127" lon="6.01297215"><ele>434.65332</ele><time>2009-10-20T11:57:06Z</time></trkpt>
<trkpt lat="46.16068513" lon="6.01305127"><ele>434.65332</ele><time>2009-10-20T11:57:07Z</time></trkpt>
<trkpt lat="46.16071966" lon="6.01313048"><ele>434.65332</ele><time>2009-10-20T11:57:08Z</time></trkpt>
<trkpt lat="46.16075956" lon="6.01321489"><ele>436.095215</ele><time>2009-10-20T11:57:09Z</time></trkpt>
<trkpt lat="46.16079988" lon="6.01329996"><ele>437.537109</ele><time>2009-10-20T11:57:10Z</time></trkpt>
<trkpt lat="46.16083517" lon="6.01338236"><ele>438.017822</ele><time>2009-10-20T11:57:11Z</time></trkpt>
<trkpt lat="46.16086945" lon="6.01346534"><ele>437.537109</ele><time>2009-10-20T11:57:12Z</time></trkpt>
<trkpt lat="46.16090256" lon="6.01354723"><ele>437.537109</ele><time>2009-10-20T11:57:13Z</time></trkpt>
<trkpt lat="46.16093592" lon="6.01362803"><ele>437.537109</ele><time>2009-10-20T11:57:14Z</time></trkpt>
<trkpt lat="46.16097020" lon="6.01370908"><ele>437.537109</ele><time>2009-10-20T11:57:15Z</time></trkpt>
<trkpt lat="46.16100364" lon="6.01378988"><ele>437.537109</ele><time>2009-10-20T11:57:16Z</time></trkpt>
<trkpt lat="46.16103759" lon="6.01386993"><ele>437.537109</ele><time>2009-10-20T11:57:17Z</time></trkpt>
<trkpt lat="46.16107196" lon="6.01395006"><ele>438.017822</ele><time>2009-10-20T11:57:18Z</time></trkpt>
<trkpt lat="46.16110540" lon="6.01403120"><ele>437.056519</ele><time>2009-10-20T11:57:19Z</time></trkpt>
<trkpt lat="46.16113868" lon="6.01411175"><ele>436.575928</ele><time>2009-10-20T11:57:20Z</time></trkpt>
<trkpt lat="46.16117237" lon="6.01419305"><ele>436.095215</ele><time>2009-10-20T11:57:21Z</time></trkpt>
<trkpt lat="46.16120565" lon="6.01427495"><ele>435.614502</ele><time>2009-10-20T11:57:22Z</time></trkpt>
<trkpt lat="46.16123909" lon="6.01435667"><ele>435.133911</ele><time>2009-10-20T11:57:23Z</time></trkpt>
<trkpt lat="46.16127186" lon="6.01443588"><ele>435.133911</ele><time>2009-10-20T11:57:24Z</time></trkpt>
<trkpt lat="46.16130489" lon="6.01451425"><ele>434.65332</ele><time>2009-10-20T11:57:25Z</time></trkpt>
<trkpt lat="46.16133766" lon="6.01459287"><ele>434.65332</ele><time>2009-10-20T11:57:26Z</time></trkpt>
<trkpt lat="46.16137002" lon="6.01467107"><ele>434.65332</ele><time>2009-10-20T11:57:27Z</time></trkpt>
<trkpt lat="46.16140229" lon="6.01474852"><ele>434.65332</ele><time>2009-10-20T11:57:28Z</time></trkpt>
<trkpt lat="46.16143464" lon="6.01482622"><ele>434.65332</ele><time>2009-10-20T11:57:29Z</time></trkpt>
<trkpt lat="46.16146683" lon="6.01490342"><ele>434.172607</ele><time>2009-10-20T11:57:30Z</time></trkpt>
<trkpt lat="46.16149968" lon="6.01498028"><ele>434.65332</ele><time>2009-10-20T11:57:31Z</time></trkpt>
<trkpt lat="46.16153229" lon="6.01505656"><ele>434.65332</ele><time>2009-10-20T11:57:32Z</time></trkpt>
<trkpt lat="46.16156397" lon="6.01513258"><ele>434.65332</ele><time>2009-10-20T11:57:33Z</time></trkpt>
<trkpt lat="46.16159616" lon="6.01520877"><ele>434.65332</ele><time>2009-10-20T11:57:34Z</time></trkpt>
<trkpt lat="46.16162868" lon="6.01528496"><ele>434.65332</ele><time>2009-10-20T11:57:35Z</time></trkpt>
<trkpt lat="46.16166255" lon="6.01536233"><ele>435.133911</ele><time>2009-10-20T11:57:36Z</time></trkpt>
<trkpt lat="46.16169515" lon="6.01543852"><ele>435.133911</ele><time>2009-10-20T11:57:37Z</time></trkpt>
<trkpt lat="46.16172759" lon="6.01551396"><ele>434.65332</ele><time>2009-10-20T11:57:38Z</time></trkpt>
<trkpt lat="46.16175869" lon="6.01558923"><ele>434.65332</ele><time>2009-10-20T11:57:39Z</time></trkpt>
<trkpt lat="46.16178970" lon="6.01566408"><ele>434.65332</ele><time>2009-10-20T11:57:40Z</time></trkpt>
<trkpt lat="46.16182163" lon="6.01573868"><ele>434.65332</ele><time>2009-10-20T11:57:41Z</time></trkpt>
<trkpt lat="46.16185290" lon="6.01581235"><ele>434.65332</ele><time>2009-10-20T11:57:42Z</time></trkpt>
<trkpt lat="46.16188207" lon="6.01588528"><ele>434.65332</ele><time>2009-10-20T11:57:43Z</time></trkpt>
<trkpt lat="46.16191870" lon="6.01596122"><ele>436.095215</ele><time>2009-10-20T11:57:44Z</time></trkpt>
<trkpt lat="46.16195097" lon="6.01603355"><ele>435.614502</ele><time>2009-10-20T11:57:45Z</time></trkpt>
<trkpt lat="46.16198433" lon="6.01610513"><ele>436.095215</ele><time>2009-10-20T11:57:46Z</time></trkpt>
<trkpt lat="46.16201492" lon="6.01617638"><ele>436.095215</ele><time>2009-10-20T11:57:47Z</time></trkpt>
<trkpt lat="46.16204568" lon="6.01624796"><ele>436.095215</ele><time>2009-10-20T11:57:48Z</time></trkpt>
<trkpt lat="46.16208407" lon="6.01632482"><ele>438.017822</ele><time>2009-10-20T11:57:49Z</time></trkpt>
<trkpt lat="46.16212363" lon="6.01640286"><ele>439.94043</ele><time>2009-10-20T11:57:50Z</time></trkpt>
<trkpt lat="46.16215498" lon="6.01647712"><ele>439.459717</ele><time>2009-10-20T11:57:51Z</time></trkpt>
<trkpt lat="46.16218449" lon="6.01655097"><ele>438.979126</ele><time>2009-10-20T11:57:52Z</time></trkpt>
<trkpt lat="46.16221332" lon="6.01662615"><ele>438.498535</ele><time>2009-10-20T11:57:53Z</time></trkpt>
<trkpt lat="46.16224324" lon="6.01670142"><ele>438.017822</ele><time>2009-10-20T11:57:54Z</time></trkpt>
<trkpt lat="46.16227342" lon="6.01677652"><ele>437.537109</ele><time>2009-10-20T11:57:55Z</time></trkpt>
<trkpt lat="46.16230359" lon="6.01685137"><ele>436.575928</ele><time>2009-10-20T11:57:56Z</time></trkpt>
<trkpt lat="46.16234408" lon="6.01693025"><ele>438.498535</ele><time>2009-10-20T11:57:57Z</time></trkpt>
<trkpt lat="46.16237895" lon="6.01700652"><ele>438.979126</ele><time>2009-10-20T11:57:58Z</time></trkpt>
<trkpt lat="46.16241046" lon="6.01708163"><ele>439.459717</ele><time>2009-10-20T11:57:59Z</time></trkpt>
<trkpt lat="46.16244047" lon="6.01715413"><ele>439.459717</ele><time>2009-10-20T11:58:00Z</time></trkpt>
<trkpt lat="46.16247048" lon="6.01722529"><ele>439.94043</ele><time>2009-10-20T11:58:01Z</time></trkpt>
<trkpt lat="46.16250015" lon="6.01729587"><ele>439.94043</ele><time>2009-10-20T11:58:02Z</time></trkpt>
<trkpt lat="46.16252949" lon="6.01736502"><ele>439.94043</ele><time>2009-10-20T11:58:03Z</time></trkpt>
<trkpt lat="46.16255698" lon="6.01743132"><ele>439.94043</ele><time>2009-10-20T11:58:04Z</time></trkpt>
<trkpt lat="46.16258330" lon="6.01749536"><ele>439.94043</ele><time>2009-10-20T11:58:05Z</time></trkpt>
<trkpt lat="46.16260802" lon="6.01755755"><ele>439.94043</ele><time>2009-10-20T11:58:06Z</time></trkpt>
<trkpt lat="46.16263686" lon="6.01761882"><ele>440.421265</ele><time>2009-10-20T11:58:07Z</time></trkpt>
<trkpt lat="46.16266745" lon="6.01767523"><ele>440.901855</ele><time>2009-10-20T11:58:08Z</time></trkpt>
<trkpt lat="46.16270299" lon="6.01771974"><ele>440.901855</ele><time>2009-10-20T11:58:09Z</time></trkpt>
<trkpt lat="46.16274306" lon="6.01774656"><ele>440.901855</ele><time>2009-10-20T11:58:10Z</time></trkpt>
<trkpt lat="46.16278094" lon="6.01776165"><ele>441.382446</ele><time>2009-10-20T11:58:11Z</time></trkpt>
<trkpt lat="46.16281020" lon="6.01777506"><ele>441.382446</ele><time>2009-10-20T11:58:12Z</time></trkpt>
<trkpt lat="46.16283174" lon="6.01779358"><ele>441.863159</ele><time>2009-10-20T11:58:13Z</time></trkpt>
<trkpt lat="46.16284842" lon="6.01781169"><ele>442.343872</ele><time>2009-10-20T11:58:14Z</time></trkpt>
<trkpt lat="46.16286099" lon="6.01782644"><ele>442.343872</ele><time>2009-10-20T11:58:15Z</time></trkpt>
<trkpt lat="46.16287155" lon="6.01784396"><ele>441.863159</ele><time>2009-10-20T11:58:16Z</time></trkpt>
<trkpt lat="46.16288278" lon="6.01786735"><ele>441.863159</ele><time>2009-10-20T11:58:17Z</time></trkpt>
<trkpt lat="46.16289368" lon="6.01790138"><ele>441.382446</ele><time>2009-10-20T11:58:18Z</time></trkpt>
<trkpt lat="46.16290374" lon="6.01794614"><ele>441.382446</ele><time>2009-10-20T11:58:19Z</time></trkpt>
<trkpt lat="46.16290533" lon="6.01799768"><ele>440.421265</ele><time>2009-10-20T11:58:20Z</time></trkpt>
<trkpt lat="46.16290013" lon="6.01805376"><ele>438.979126</ele><time>2009-10-20T11:58:21Z</time></trkpt>
<trkpt lat="46.16289577" lon="6.01811495"><ele>438.017822</ele><time>2009-10-20T11:58:22Z</time></trkpt>
<trkpt lat="46.16290684" lon="6.01818024"><ele>438.017822</ele><time>2009-10-20T11:58:23Z</time></trkpt>
<trkpt lat="46.16292955" lon="6.01824554"><ele>438.017822</ele><time>2009-10-20T11:58:24Z</time></trkpt>
<trkpt lat="46.16295939" lon="6.01831066"><ele>438.017822</ele><time>2009-10-20T11:58:25Z</time></trkpt>
<trkpt lat="46.16298655" lon="6.01837110"><ele>438.017822</ele><time>2009-10-20T11:58:26Z</time></trkpt>
<trkpt lat="46.16301664" lon="6.01843438"><ele>438.498535</ele><time>2009-10-20T11:58:27Z</time></trkpt>
<trkpt lat="46.16304489" lon="6.01849934"><ele>438.979126</ele><time>2009-10-20T11:58:28Z</time></trkpt>
<trkpt lat="46.16307112" lon="6.01856556"><ele>438.979126</ele><time>2009-10-20T11:58:29Z</time></trkpt>
<trkpt lat="46.16310080" lon="6.01863462"><ele>438.979126</ele><time>2009-10-20T11:58:30Z</time></trkpt>
<trkpt lat="46.16312720" lon="6.01870277"><ele>438.979126</ele><time>2009-10-20T11:58:31Z</time></trkpt>
<trkpt lat="46.16315268" lon="6.01877167"><ele>438.498535</ele><time>2009-10-20T11:58:32Z</time></trkpt>
<trkpt lat="46.16318579" lon="6.01884560"><ele>438.979126</ele><time>2009-10-20T11:58:33Z</time></trkpt>
<trkpt lat="46.16321445" lon="6.01891793"><ele>438.979126</ele><time>2009-10-20T11:58:34Z</time></trkpt>
<trkpt lat="46.16324279" lon="6.01898977"><ele>438.979126</ele><time>2009-10-20T11:58:35Z</time></trkpt>
<trkpt lat="46.16326919" lon="6.01906202"><ele>438.498535</ele><time>2009-10-20T11:58:36Z</time></trkpt>
<trkpt lat="46.16329417" lon="6.01913477"><ele>438.498535</ele><time>2009-10-20T11:58:37Z</time></trkpt>
<trkpt lat="46.16332275" lon="6.01920837"><ele>438.498535</ele><time>2009-10-20T11:58:38Z</time></trkpt>
<trkpt lat="46.16335460" lon="6.01928062"><ele>439.459717</ele><time>2009-10-20T11:58:39Z</time></trkpt>
<trkpt lat="46.16338695" lon="6.01935555"><ele>440.421265</ele><time>2009-10-20T11:58:40Z</time></trkpt>
<trkpt lat="46.16342392" lon="6.01943426"><ele>441.863159</ele><time>2009-10-20T11:58:41Z</time></trkpt>
<trkpt lat="46.16345384" lon="6.01950978"><ele>441.382446</ele><time>2009-10-20T11:58:42Z</time></trkpt>
<trkpt lat="46.16348762" lon="6.01959058"><ele>441.382446</ele><time>2009-10-20T11:58:43Z</time></trkpt>
<trkpt lat="46.16351780" lon="6.01967205"><ele>440.421265</ele><time>2009-10-20T11:58:44Z</time></trkpt>
<trkpt lat="46.16355979" lon="6.01976249"><ele>441.863159</ele><time>2009-10-20T11:58:45Z</time></trkpt>
<trkpt lat="46.16360229" lon="6.01985495"><ele>443.305054</ele><time>2009-10-20T11:58:46Z</time></trkpt>
<trkpt lat="46.16365107" lon="6.01995260"><ele>444.74707</ele><time>2009-10-20T11:58:47Z</time></trkpt>
<trkpt lat="46.16370136" lon="6.02004957"><ele>446.189087</ele><time>2009-10-20T11:58:48Z</time></trkpt>
<trkpt lat="46.16375995" lon="6.02015426"><ele>449.072998</ele><time>2009-10-20T11:58:49Z</time></trkpt>
<trkpt lat="46.16380186" lon="6.02024538"><ele>448.592407</ele><time>2009-10-20T11:58:50Z</time></trkpt>
<trkpt lat="46.16383706" lon="6.02033389"><ele>448.111816</ele><time>2009-10-20T11:58:51Z</time></trkpt>
<trkpt lat="46.16387377" lon="6.02042165"><ele>447.630981</ele><time>2009-10-20T11:58:52Z</time></trkpt>
<trkpt lat="46.16391133" lon="6.02050882"><ele>447.150269</ele><time>2009-10-20T11:58:53Z</time></trkpt>
<trkpt lat="46.16394963" lon="6.02059457"><ele>447.150269</ele><time>2009-10-20T11:58:54Z</time></trkpt>
<trkpt lat="46.16398945" lon="6.02068073"><ele>447.150269</ele><time>2009-10-20T11:58:55Z</time></trkpt>
<trkpt lat="46.16402440" lon="6.02076354"><ele>446.669678</ele><time>2009-10-20T11:58:56Z</time></trkpt>
<trkpt lat="46.16406505" lon="6.02084887"><ele>447.150269</ele><time>2009-10-20T11:58:57Z</time></trkpt>
<trkpt lat="46.16410218" lon="6.02093328"><ele>447.630981</ele><time>2009-10-20T11:58:58Z</time></trkpt>
<trkpt lat="46.16413588" lon="6.02101659"><ele>447.630981</ele><time>2009-10-20T11:58:59Z</time></trkpt>
<trkpt lat="46.16417376" lon="6.02110427"><ele>448.111816</ele><time>2009-10-20T11:59:00Z</time></trkpt>
<trkpt lat="46.16420997" lon="6.02119236"><ele>448.111816</ele><time>2009-10-20T11:59:01Z</time></trkpt>
<trkpt lat="46.16424568" lon="6.02128046"><ele>448.592407</ele><time>2009-10-20T11:59:02Z</time></trkpt>
<trkpt lat="46.16428273" lon="6.02136838"><ele>448.592407</ele><time>2009-10-20T11:59:03Z</time></trkpt>
<trkpt lat="46.16431810" lon="6.02145522"><ele>448.592407</ele><time>2009-10-20T11:59:04Z</time></trkpt>
<trkpt lat="46.16435238" lon="6.02154189"><ele>448.592407</ele><time>2009-10-20T11:59:05Z</time></trkpt>
<trkpt lat="46.16438834" lon="6.02162923"><ele>448.592407</ele><time>2009-10-20T11:59:06Z</time></trkpt>
<trkpt lat="46.16442279" lon="6.02171808"><ele>448.111816</ele><time>2009-10-20T11:59:07Z</time></trkpt>
<trkpt lat="46.16445498" lon="6.02180575"><ele>447.150269</ele><time>2009-10-20T11:59:08Z</time></trkpt>
<trkpt lat="46.16448867" lon="6.02189099"><ele>446.669678</ele><time>2009-10-20T11:59:09Z</time></trkpt>
<trkpt lat="46.16452572" lon="6.02197733"><ele>446.669678</ele><time>2009-10-20T11:59:10Z</time></trkpt>
<trkpt lat="46.16456126" lon="6.02206282"><ele>446.669678</ele><time>2009-10-20T11:59:11Z</time></trkpt>
<trkpt lat="46.16459328" lon="6.02214614"><ele>446.189087</ele><time>2009-10-20T11:59:12Z</time></trkpt>
<trkpt lat="46.16462748" lon="6.02223013"><ele>446.189087</ele><time>2009-10-20T11:59:13Z</time></trkpt>
<trkpt lat="46.16466586" lon="6.02231554"><ele>446.189087</ele><time>2009-10-20T11:59:14Z</time></trkpt>
<trkpt lat="46.16470249" lon="6.02239852"><ele>446.189087</ele><time>2009-10-20T11:59:15Z</time></trkpt>
<trkpt lat="46.16474273" lon="6.02248242"><ele>447.630981</ele><time>2009-10-20T11:59:16Z</time></trkpt>
<trkpt lat="46.16478355" lon="6.02256632"><ele>450.034424</ele><time>2009-10-20T11:59:17Z</time></trkpt>
<trkpt lat="46.16481523" lon="6.02264704"><ele>449.072998</ele><time>2009-10-20T11:59:18Z</time></trkpt>
<trkpt lat="46.16484767" lon="6.02272566"><ele>449.553711</ele><time>2009-10-20T11:59:19Z</time></trkpt>
<trkpt lat="46.16488027" lon="6.02280353"><ele>449.553711</ele><time>2009-10-20T11:59:20Z</time></trkpt>
<trkpt lat="46.16491347" lon="6.02288148"><ele>450.034424</ele><time>2009-10-20T11:59:21Z</time></trkpt>
<trkpt lat="46.16495093" lon="6.02296128"><ele>450.515015</ele><time>2009-10-20T11:59:22Z</time></trkpt>
<trkpt lat="46.16498915" lon="6.02304082"><ele>450.995605</ele><time>2009-10-20T11:59:23Z</time></trkpt>
<trkpt lat="46.16502008" lon="6.02311668"><ele>450.034424</ele><time>2009-10-20T11:59:24Z</time></trkpt>
<trkpt lat="46.16505068" lon="6.02319027"><ele>449.553711</ele><time>2009-10-20T11:59:25Z</time></trkpt>
<trkpt lat="46.16508303" lon="6.02326479"><ele>450.034424</ele><time>2009-10-20T11:59:26Z</time></trkpt>
<trkpt lat="46.16511279" lon="6.02333847"><ele>449.072998</ele><time>2009-10-20T11:59:27Z</time></trkpt>
<trkpt lat="46.16513592" lon="6.02340946"><ele>447.630981</ele><time>2009-10-20T11:59:28Z</time></trkpt>
<trkpt lat="46.16516149" lon="6.02348196"><ele>446.189087</ele><time>2009-10-20T11:59:29Z</time></trkpt>
<trkpt lat="46.16519124" lon="6.02355639"><ele>445.708374</ele><time>2009-10-20T11:59:30Z</time></trkpt>
<trkpt lat="46.16521966" lon="6.02363066"><ele>445.708374</ele><time>2009-10-20T11:59:31Z</time></trkpt>
<trkpt lat="46.16524405" lon="6.02369989"><ele>445.227661</ele><time>2009-10-20T11:59:32Z</time></trkpt>
<trkpt lat="46.16526199" lon="6.02376544"><ele>443.305054</ele><time>2009-10-20T11:59:33Z</time></trkpt>
<trkpt lat="46.16528118" lon="6.02383384"><ele>441.382446</ele><time>2009-10-20T11:59:34Z</time></trkpt>
<trkpt lat="46.16531722" lon="6.02391338"><ele>443.305054</ele><time>2009-10-20T11:59:35Z</time></trkpt>
<trkpt lat="46.16535813" lon="6.02399653"><ele>444.74707</ele><time>2009-10-20T11:59:36Z</time></trkpt>
<trkpt lat="46.16539266" lon="6.02407666"><ele>444.74707</ele><time>2009-10-20T11:59:37Z</time></trkpt>
<trkpt lat="46.16542024" lon="6.02415034"><ele>444.74707</ele><time>2009-10-20T11:59:38Z</time></trkpt>
<trkpt lat="46.16544924" lon="6.02422745"><ele>444.266479</ele><time>2009-10-20T11:59:39Z</time></trkpt>
<trkpt lat="46.16548000" lon="6.02430507"><ele>443.785767</ele><time>2009-10-20T11:59:40Z</time></trkpt>
<trkpt lat="46.16551059" lon="6.02438193"><ele>443.785767</ele><time>2009-10-20T11:59:41Z</time></trkpt>
<trkpt lat="46.16553549" lon="6.02445443"><ele>443.305054</ele><time>2009-10-20T11:59:42Z</time></trkpt>
<trkpt lat="46.16556248" lon="6.02452870"><ele>442.824463</ele><time>2009-10-20T11:59:43Z</time></trkpt>
<trkpt lat="46.16559307" lon="6.02460464"><ele>442.824463</ele><time>2009-10-20T11:59:44Z</time></trkpt>
<trkpt lat="46.16562249" lon="6.02467890"><ele>442.824463</ele><time>2009-10-20T11:59:45Z</time></trkpt>
<trkpt lat="46.16565686" lon="6.02475434"><ele>442.824463</ele><time>2009-10-20T11:59:46Z</time></trkpt>
<trkpt lat="46.16568393" lon="6.02482558"><ele>443.305054</ele><time>2009-10-20T11:59:47Z</time></trkpt>
<trkpt lat="46.16570958" lon="6.02489515"><ele>443.305054</ele><time>2009-10-20T11:59:48Z</time></trkpt>
<trkpt lat="46.16573598" lon="6.02496447"><ele>442.824463</ele><time>2009-10-20T11:59:49Z</time></trkpt>
<trkpt lat="46.16576155" lon="6.02503069"><ele>442.343872</ele><time>2009-10-20T11:59:50Z</time></trkpt>
<trkpt lat="46.16579474" lon="6.02509615"><ele>442.824463</ele><time>2009-10-20T11:59:51Z</time></trkpt>
<trkpt lat="46.16583304" lon="6.02515273"><ele>444.266479</ele><time>2009-10-20T11:59:52Z</time></trkpt>
<trkpt lat="46.16587060" lon="6.02518198"><ele>444.74707</ele><time>2009-10-20T11:59:53Z</time></trkpt>
<trkpt lat="46.16591033" lon="6.02519866"><ele>446.189087</ele><time>2009-10-20T11:59:54Z</time></trkpt>
<trkpt lat="46.16594729" lon="6.02521492"><ele>447.150269</ele><time>2009-10-20T11:59:55Z</time></trkpt>
<trkpt lat="46.16597327" lon="6.02524065"><ele>448.111816</ele><time>2009-10-20T11:59:56Z</time></trkpt>
<trkpt lat="46.16599549" lon="6.02527569"><ele>448.592407</ele><time>2009-10-20T11:59:57Z</time></trkpt>
<trkpt lat="46.16601778" lon="6.02531710"><ele>449.072998</ele><time>2009-10-20T11:59:58Z</time></trkpt>
<trkpt lat="46.16603035" lon="6.02536496"><ele>448.592407</ele><time>2009-10-20T11:59:59Z</time></trkpt>
<trkpt lat="46.16602776" lon="6.02542195"><ele>447.630981</ele><time>2009-10-20T12:00:00Z</time></trkpt>
<trkpt lat="46.16601334" lon="6.02548004"><ele>446.669678</ele><time>2009-10-20T12:00:01Z</time></trkpt>
<trkpt lat="46.16600077" lon="6.02554047"><ele>445.708374</ele><time>2009-10-20T12:00:02Z</time></trkpt>
<trkpt lat="46.16600194" lon="6.02560518"><ele>445.227661</ele><time>2009-10-20T12:00:03Z</time></trkpt>
<trkpt lat="46.16602239" lon="6.02567534"><ele>445.708374</ele><time>2009-10-20T12:00:04Z</time></trkpt>
<trkpt lat="46.16604569" lon="6.02574147"><ele>445.708374</ele><time>2009-10-20T12:00:05Z</time></trkpt>
<trkpt lat="46.16607168" lon="6.02580878"><ele>445.708374</ele><time>2009-10-20T12:00:06Z</time></trkpt>
<trkpt lat="46.16609858" lon="6.02587927"><ele>445.227661</ele><time>2009-10-20T12:00:07Z</time></trkpt>
<trkpt lat="46.16612666" lon="6.02595194"><ele>445.227661</ele><time>2009-10-20T12:00:08Z</time></trkpt>
<trkpt lat="46.16615499" lon="6.02602470"><ele>445.227661</ele><time>2009-10-20T12:00:09Z</time></trkpt>
<trkpt lat="46.16618332" lon="6.02609904"><ele>445.227661</ele><time>2009-10-20T12:00:10Z</time></trkpt>
<trkpt lat="46.16620763" lon="6.02617188"><ele>445.227661</ele><time>2009-10-20T12:00:11Z</time></trkpt>
<trkpt lat="46.16623395" lon="6.02624657"><ele>445.227661</ele><time>2009-10-20T12:00:12Z</time></trkpt>
<trkpt lat="46.16626220" lon="6.02632376"><ele>445.227661</ele><time>2009-10-20T12:00:13Z</time></trkpt>
<trkpt lat="46.16629422" lon="6.02640440"><ele>445.227661</ele><time>2009-10-20T12:00:14Z</time></trkpt>
<trkpt lat="46.16632565" lon="6.02648428"><ele>445.227661</ele><time>2009-10-20T12:00:15Z</time></trkpt>
<trkpt lat="46.16635566" lon="6.02656357"><ele>445.227661</ele><time>2009-10-20T12:00:16Z</time></trkpt>
<trkpt lat="46.16638474" lon="6.02664244"><ele>445.227661</ele><time>2009-10-20T12:00:17Z</time></trkpt>
<trkpt lat="46.16641324" lon="6.02672257"><ele>445.227661</ele><time>2009-10-20T12:00:18Z</time></trkpt>
<trkpt lat="46.16644115" lon="6.02680312"><ele>445.227661</ele><time>2009-10-20T12:00:19Z</time></trkpt>
<trkpt lat="46.16646982" lon="6.02688409"><ele>445.227661</ele><time>2009-10-20T12:00:20Z</time></trkpt>
<trkpt lat="46.16649924" lon="6.02696548"><ele>445.227661</ele><time>2009-10-20T12:00:21Z</time></trkpt>
<trkpt lat="46.16652874" lon="6.02704695"><ele>445.227661</ele><time>2009-10-20T12:00:22Z</time></trkpt>
<trkpt lat="46.16655883" lon="6.02712994"><ele>445.227661</ele><time>2009-10-20T12:00:23Z</time></trkpt>
<trkpt lat="46.16658817" lon="6.02721325"><ele>445.227661</ele><time>2009-10-20T12:00:24Z</time></trkpt>
<trkpt lat="46.16661726" lon="6.02729648"><ele>445.227661</ele><time>2009-10-20T12:00:25Z</time></trkpt>
<trkpt lat="46.16664693" lon="6.02738013"><ele>445.227661</ele><time>2009-10-20T12:00:26Z</time></trkpt>
<trkpt lat="46.16667693" lon="6.02746404"><ele>445.227661</ele><time>2009-10-20T12:00:27Z</time></trkpt>
<trkpt lat="46.16670744" lon="6.02754844"><ele>445.227661</ele><time>2009-10-20T12:00:28Z</time></trkpt>
<trkpt lat="46.16673762" lon="6.02763335"><ele>445.227661</ele><time>2009-10-20T12:00:29Z</time></trkpt>
<trkpt lat="46.16676779" lon="6.02771876"><ele>445.227661</ele><time>2009-10-20T12:00:30Z</time></trkpt>
<trkpt lat="46.16679789" lon="6.02780459"><ele>445.227661</ele><time>2009-10-20T12:00:31Z</time></trkpt>
<trkpt lat="46.16682773" lon="6.02789118"><ele>445.227661</ele><time>2009-10-20T12:00:32Z</time></trkpt>
<trkpt lat="46.16685782" lon="6.02797818"><ele>445.227661</ele><time>2009-10-20T12:00:33Z</time></trkpt>
<trkpt lat="46.16688807" lon="6.02806569"><ele>445.227661</ele><time>2009-10-20T12:00:34Z</time></trkpt>
<trkpt lat="46.16691825" lon="6.02815395"><ele>445.227661</ele><time>2009-10-20T12:00:35Z</time></trkpt>
<trkpt lat="46.16694834" lon="6.02824288"><ele>445.227661</ele><time>2009-10-20T12:00:36Z</time></trkpt>
<trkpt lat="46.16697785" lon="6.02833115"><ele>445.227661</ele><time>2009-10-20T12:00:37Z</time></trkpt>
<trkpt lat="46.16700735" lon="6.02841899"><ele>445.227661</ele><time>2009-10-20T12:00:38Z</time></trkpt>
<trkpt lat="46.16703694" lon="6.02850708"><ele>445.708374</ele><time>2009-10-20T12:00:39Z</time></trkpt>
<trkpt lat="46.16706594" lon="6.02859526"><ele>445.708374</ele><time>2009-10-20T12:00:40Z</time></trkpt>
<trkpt lat="46.16709494" lon="6.02868319"><ele>445.227661</ele><time>2009-10-20T12:00:41Z</time></trkpt>
<trkpt lat="46.16712579" lon="6.02877145"><ele>445.227661</ele><time>2009-10-20T12:00:42Z</time></trkpt>
<trkpt lat="46.16715604" lon="6.02885912"><ele>445.227661</ele><time>2009-10-20T12:00:43Z</time></trkpt>
<trkpt lat="46.16718572" lon="6.02894680"><ele>445.227661</ele><time>2009-10-20T12:00:44Z</time></trkpt>
<trkpt lat="46.16721396" lon="6.02903414"><ele>445.227661</ele><time>2009-10-20T12:00:45Z</time></trkpt>
<trkpt lat="46.16724162" lon="6.02912148"><ele>445.227661</ele><time>2009-10-20T12:00:46Z</time></trkpt>
<trkpt lat="46.16726987" lon="6.02920848"><ele>445.227661</ele><time>2009-10-20T12:00:47Z</time></trkpt>
<trkpt lat="46.16729845" lon="6.02929506"><ele>445.227661</ele><time>2009-10-20T12:00:48Z</time></trkpt>
<trkpt lat="46.16732745" lon="6.02938090"><ele>445.227661</ele><time>2009-10-20T12:00:49Z</time></trkpt>
<trkpt lat="46.16735595" lon="6.02946664"><ele>445.227661</ele><time>2009-10-20T12:00:50Z</time></trkpt>
<trkpt lat="46.16738479" lon="6.02955247"><ele>445.227661</ele><time>2009-10-20T12:00:51Z</time></trkpt>
<trkpt lat="46.16741362" lon="6.02963847"><ele>445.227661</ele><time>2009-10-20T12:00:52Z</time></trkpt>
<trkpt lat="46.16743105" lon="6.02971776"><ele>442.824463</ele><time>2009-10-20T12:00:53Z</time></trkpt>
<trkpt lat="46.16745972" lon="6.02980452"><ele>442.824463</ele><time>2009-10-20T12:00:54Z</time></trkpt>
<trkpt lat="46.16748956" lon="6.02989253"><ele>442.824463</ele><time>2009-10-20T12:00:55Z</time></trkpt>
<trkpt lat="46.16751898" lon="6.02998087"><ele>442.824463</ele><time>2009-10-20T12:00:56Z</time></trkpt>
<trkpt lat="46.16754874" lon="6.03006913"><ele>442.824463</ele><time>2009-10-20T12:00:57Z</time></trkpt>
<trkpt lat="46.16757858" lon="6.03015689"><ele>443.305054</ele><time>2009-10-20T12:00:58Z</time></trkpt>
<trkpt lat="46.16760783" lon="6.03024465"><ele>443.305054</ele><time>2009-10-20T12:00:59Z</time></trkpt>
<trkpt lat="46.16763675" lon="6.03033300"><ele>443.305054</ele><time>2009-10-20T12:01:00Z</time></trkpt>
<trkpt lat="46.16766608" lon="6.03042126"><ele>443.305054</ele><time>2009-10-20T12:01:01Z</time></trkpt>
<trkpt lat="46.16769475" lon="6.03050868"><ele>443.305054</ele><time>2009-10-20T12:01:02Z</time></trkpt>
<trkpt lat="46.16772409" lon="6.03059677"><ele>443.305054</ele><time>2009-10-20T12:01:03Z</time></trkpt>
<trkpt lat="46.16775317" lon="6.03068554"><ele>443.785767</ele><time>2009-10-20T12:01:04Z</time></trkpt>
<trkpt lat="46.16779525" lon="6.03078235"><ele>447.150269</ele><time>2009-10-20T12:01:05Z</time></trkpt>
<trkpt lat="46.16783263" lon="6.03087589"><ele>449.072998</ele><time>2009-10-20T12:01:06Z</time></trkpt>
<trkpt lat="46.16786717" lon="6.03096709"><ele>450.515015</ele><time>2009-10-20T12:01:07Z</time></trkpt>
<trkpt lat="46.16789985" lon="6.03105694"><ele>451.476318</ele><time>2009-10-20T12:01:08Z</time></trkpt>
<trkpt lat="46.16793615" lon="6.03114897"><ele>453.398926</ele><time>2009-10-20T12:01:09Z</time></trkpt>
<trkpt lat="46.16796649" lon="6.03123724"><ele>453.398926</ele><time>2009-10-20T12:01:10Z</time></trkpt>
<trkpt lat="46.16799516" lon="6.03132516"><ele>453.398926</ele><time>2009-10-20T12:01:11Z</time></trkpt>
<trkpt lat="46.16802399" lon="6.03141384"><ele>453.398926</ele><time>2009-10-20T12:01:12Z</time></trkpt>
<trkpt lat="46.16805215" lon="6.03150319"><ele>453.398926</ele><time>2009-10-20T12:01:13Z</time></trkpt>
<trkpt lat="46.16808032" lon="6.03159288"><ele>452.918213</ele><time>2009-10-20T12:01:14Z</time></trkpt>
<trkpt lat="46.16810923" lon="6.03168273"><ele>452.918213</ele><time>2009-10-20T12:01:15Z</time></trkpt>
<trkpt lat="46.16813757" lon="6.03177267"><ele>452.918213</ele><time>2009-10-20T12:01:16Z</time></trkpt>
<trkpt lat="46.16817445" lon="6.03186789"><ele>454.360229</ele><time>2009-10-20T12:01:17Z</time></trkpt>
<trkpt lat="46.16821158" lon="6.03196336"><ele>456.282959</ele><time>2009-10-20T12:01:18Z</time></trkpt>
<trkpt lat="46.16824695" lon="6.03205849"><ele>457.244263</ele><time>2009-10-20T12:01:19Z</time></trkpt>
<trkpt lat="46.16827754" lon="6.03215204"><ele>457.244263</ele><time>2009-10-20T12:01:20Z</time></trkpt>
<trkpt lat="46.16830663" lon="6.03224482"><ele>456.76355</ele><time>2009-10-20T12:01:21Z</time></trkpt>
<trkpt lat="46.16833622" lon="6.03233736"><ele>456.76355</ele><time>2009-10-20T12:01:22Z</time></trkpt>
<trkpt lat="46.16836539" lon="6.03242964"><ele>456.76355</ele><time>2009-10-20T12:01:23Z</time></trkpt>
<trkpt lat="46.16839414" lon="6.03252126"><ele>456.76355</ele><time>2009-10-20T12:01:24Z</time></trkpt>
<trkpt lat="46.16842314" lon="6.03261195"><ele>456.76355</ele><time>2009-10-20T12:01:25Z</time></trkpt>
<trkpt lat="46.16845256" lon="6.03270256"><ele>456.76355</ele><time>2009-10-20T12:01:26Z</time></trkpt>
<trkpt lat="46.16848223" lon="6.03279334"><ele>456.76355</ele><time>2009-10-20T12:01:27Z</time></trkpt>
<trkpt lat="46.16851198" lon="6.03288352"><ele>456.76355</ele><time>2009-10-20T12:01:28Z</time></trkpt>
<trkpt lat="46.16854174" lon="6.03297363"><ele>456.76355</ele><time>2009-10-20T12:01:29Z</time></trkpt>
<trkpt lat="46.16857108" lon="6.03306399"><ele>456.282959</ele><time>2009-10-20T12:01:30Z</time></trkpt>
<trkpt lat="46.16860754" lon="6.03315778"><ele>457.724976</ele><time>2009-10-20T12:01:31Z</time></trkpt>
<trkpt lat="46.16863637" lon="6.03324713"><ele>457.244263</ele><time>2009-10-20T12:01:32Z</time></trkpt>
<trkpt lat="46.16866579" lon="6.03333606"><ele>457.244263</ele><time>2009-10-20T12:01:33Z</time></trkpt>
<trkpt lat="46.16870326" lon="6.03342969"><ele>458.686157</ele><time>2009-10-20T12:01:34Z</time></trkpt>
<trkpt lat="46.16873478" lon="6.03352088"><ele>458.205566</ele><time>2009-10-20T12:01:35Z</time></trkpt>
<trkpt lat="46.16876579" lon="6.03361225"><ele>457.724976</ele><time>2009-10-20T12:01:36Z</time></trkpt>
<trkpt lat="46.16879647" lon="6.03370344"><ele>457.244263</ele><time>2009-10-20T12:01:37Z</time></trkpt>
<trkpt lat="46.16882865" lon="6.03379548"><ele>456.76355</ele><time>2009-10-20T12:01:38Z</time></trkpt>
<trkpt lat="46.16885967" lon="6.03388675"><ele>456.282959</ele><time>2009-10-20T12:01:39Z</time></trkpt>
<trkpt lat="46.16889143" lon="6.03397669"><ele>456.282959</ele><time>2009-10-20T12:01:40Z</time></trkpt>
<trkpt lat="46.16892270" lon="6.03406663"><ele>456.282959</ele><time>2009-10-20T12:01:41Z</time></trkpt>
<trkpt lat="46.16895187" lon="6.03415615"><ele>455.321533</ele><time>2009-10-20T12:01:42Z</time></trkpt>
<trkpt lat="46.16898146" lon="6.03424517"><ele>454.84082</ele><time>2009-10-20T12:01:43Z</time></trkpt>
<trkpt lat="46.16901197" lon="6.03433393"><ele>454.360229</ele><time>2009-10-20T12:01:44Z</time></trkpt>
<trkpt lat="46.16904340" lon="6.03442320"><ele>453.879639</ele><time>2009-10-20T12:01:45Z</time></trkpt>
<trkpt lat="46.16907584" lon="6.03451255"><ele>453.879639</ele><time>2009-10-20T12:01:46Z</time></trkpt>
<trkpt lat="46.16910802" lon="6.03460207"><ele>453.879639</ele><time>2009-10-20T12:01:47Z</time></trkpt>
<trkpt lat="46.16914138" lon="6.03469226"><ele>453.398926</ele><time>2009-10-20T12:01:48Z</time></trkpt>
<trkpt lat="46.16917550" lon="6.03478236"><ele>453.398926</ele><time>2009-10-20T12:01:49Z</time></trkpt>
<trkpt lat="46.16920777" lon="6.03487205"><ele>452.918213</ele><time>2009-10-20T12:01:50Z</time></trkpt>
<trkpt lat="46.16922688" lon="6.03495344"><ele>449.553711</ele><time>2009-10-20T12:01:51Z</time></trkpt>
<trkpt lat="46.16925772" lon="6.03504027"><ele>449.072998</ele><time>2009-10-20T12:01:52Z</time></trkpt>
<trkpt lat="46.16928957" lon="6.03512635"><ele>448.592407</ele><time>2009-10-20T12:01:53Z</time></trkpt>
<trkpt lat="46.16932034" lon="6.03521185"><ele>448.111816</ele><time>2009-10-20T12:01:54Z</time></trkpt>
<trkpt lat="46.16935093" lon="6.03529642"><ele>447.630981</ele><time>2009-10-20T12:01:55Z</time></trkpt>
<trkpt lat="46.16938069" lon="6.03537982"><ele>446.669678</ele><time>2009-10-20T12:01:56Z</time></trkpt>
<trkpt lat="46.16941120" lon="6.03546314"><ele>446.189087</ele><time>2009-10-20T12:01:57Z</time></trkpt>
<trkpt lat="46.16944137" lon="6.03554646"><ele>445.227661</ele><time>2009-10-20T12:01:58Z</time></trkpt>
<trkpt lat="46.16947138" lon="6.03562994"><ele>444.74707</ele><time>2009-10-20T12:01:59Z</time></trkpt>
<trkpt lat="46.16950172" lon="6.03571384"><ele>443.785767</ele><time>2009-10-20T12:02:00Z</time></trkpt>
<trkpt lat="46.16953189" lon="6.03579749"><ele>442.824463</ele><time>2009-10-20T12:02:01Z</time></trkpt>
<trkpt lat="46.16956316" lon="6.03588098"><ele>442.343872</ele><time>2009-10-20T12:02:02Z</time></trkpt>
<trkpt lat="46.16959535" lon="6.03596480"><ele>441.863159</ele><time>2009-10-20T12:02:03Z</time></trkpt>
<trkpt lat="46.16963147" lon="6.03605147"><ele>441.863159</ele><time>2009-10-20T12:02:04Z</time></trkpt>
<trkpt lat="46.16966760" lon="6.03613839"><ele>442.343872</ele><time>2009-10-20T12:02:05Z</time></trkpt>
<trkpt lat="46.16970045" lon="6.03622288"><ele>441.863159</ele><time>2009-10-20T12:02:06Z</time></trkpt>
<trkpt lat="46.16973373" lon="6.03630703"><ele>441.382446</ele><time>2009-10-20T12:02:07Z</time></trkpt>
<trkpt lat="46.16976835" lon="6.03639127"><ele>440.901855</ele><time>2009-10-20T12:02:08Z</time></trkpt>
<trkpt lat="46.16980230" lon="6.03647484"><ele>440.421265</ele><time>2009-10-20T12:02:09Z</time></trkpt>
<trkpt lat="46.16983624" lon="6.03655849"><ele>439.94043</ele><time>2009-10-20T12:02:10Z</time></trkpt>
<trkpt lat="46.16987027" lon="6.03664155"><ele>439.459717</ele><time>2009-10-20T12:02:11Z</time></trkpt>
<trkpt lat="46.16990346" lon="6.03672403"><ele>438.498535</ele><time>2009-10-20T12:02:12Z</time></trkpt>
<trkpt lat="46.16993724" lon="6.03680559"><ele>438.017822</ele><time>2009-10-20T12:02:13Z</time></trkpt>
<trkpt lat="46.16997379" lon="6.03688806"><ele>438.017822</ele><time>2009-10-20T12:02:14Z</time></trkpt>
<trkpt lat="46.17001209" lon="6.03697197"><ele>438.498535</ele><time>2009-10-20T12:02:15Z</time></trkpt>
<trkpt lat="46.17004939" lon="6.03705562"><ele>438.979126</ele><time>2009-10-20T12:02:16Z</time></trkpt>
<trkpt lat="46.17008653" lon="6.03713877"><ele>439.459717</ele><time>2009-10-20T12:02:17Z</time></trkpt>
<trkpt lat="46.17012382" lon="6.03722124"><ele>439.459717</ele><time>2009-10-20T12:02:18Z</time></trkpt>
<trkpt lat="46.17016054" lon="6.03730205"><ele>439.94043</ele><time>2009-10-20T12:02:19Z</time></trkpt>
<trkpt lat="46.17019566" lon="6.03738142"><ele>439.459717</ele><time>2009-10-20T12:02:20Z</time></trkpt>
<trkpt lat="46.17023204" lon="6.03746222"><ele>439.459717</ele><time>2009-10-20T12:02:21Z</time></trkpt>
<trkpt lat="46.17026917" lon="6.03754378"><ele>439.459717</ele><time>2009-10-20T12:02:22Z</time></trkpt>
<trkpt lat="46.17030588" lon="6.03762483"><ele>439.459717</ele><time>2009-10-20T12:02:23Z</time></trkpt>
<trkpt lat="46.17034167" lon="6.03770488"><ele>439.459717</ele><time>2009-10-20T12:02:24Z</time></trkpt>
<trkpt lat="46.17037738" lon="6.03778417"><ele>439.459717</ele><time>2009-10-20T12:02:25Z</time></trkpt>
<trkpt lat="46.17041267" lon="6.03786162"><ele>438.979126</ele><time>2009-10-20T12:02:26Z</time></trkpt>
<trkpt lat="46.17044695" lon="6.03793672"><ele>438.979126</ele><time>2009-10-20T12:02:27Z</time></trkpt>
<trkpt lat="46.17048106" lon="6.03801048"><ele>438.979126</ele><time>2009-10-20T12:02:28Z</time></trkpt>
<trkpt lat="46.17051492" lon="6.03808165"><ele>438.979126</ele><time>2009-10-20T12:02:29Z</time></trkpt>
<trkpt lat="46.17056262" lon="6.03815415"><ele>441.863159</ele><time>2009-10-20T12:02:30Z</time></trkpt>
<trkpt lat="46.17060319" lon="6.03821115"><ele>441.382446</ele><time>2009-10-20T12:02:31Z</time></trkpt>
<trkpt lat="46.17064652" lon="6.03825574"><ele>440.901855</ele><time>2009-10-20T12:02:32Z</time></trkpt>
<trkpt lat="46.17069388" lon="6.03828482"><ele>440.421265</ele><time>2009-10-20T12:02:33Z</time></trkpt>
<trkpt lat="46.17074534" lon="6.03831215"><ele>441.863159</ele><time>2009-10-20T12:02:34Z</time></trkpt>
<trkpt lat="46.17078600" lon="6.03835087"><ele>441.863159</ele><time>2009-10-20T12:02:35Z</time></trkpt>
<trkpt lat="46.17081868" lon="6.03840703"><ele>441.863159</ele><time>2009-10-20T12:02:36Z</time></trkpt>
<trkpt lat="46.17083419" lon="6.03846948"><ele>440.421265</ele><time>2009-10-20T12:02:37Z</time></trkpt>
<trkpt lat="46.17083469" lon="6.03853527"><ele>439.459717</ele><time>2009-10-20T12:02:38Z</time></trkpt>
<trkpt lat="46.17083092" lon="6.03860719"><ele>438.498535</ele><time>2009-10-20T12:02:39Z</time></trkpt>
<trkpt lat="46.17083486" lon="6.03868162"><ele>438.498535</ele><time>2009-10-20T12:02:40Z</time></trkpt>
<trkpt lat="46.17085146" lon="6.03875597"><ele>438.979126</ele><time>2009-10-20T12:02:41Z</time></trkpt>
<trkpt lat="46.17087820" lon="6.03883426"><ele>438.498535</ele><time>2009-10-20T12:02:42Z</time></trkpt>
<trkpt lat="46.17091583" lon="6.03891422"><ele>439.94043</ele><time>2009-10-20T12:02:43Z</time></trkpt>
<trkpt lat="46.17095045" lon="6.03899242"><ele>439.94043</ele><time>2009-10-20T12:02:44Z</time></trkpt>
<trkpt lat="46.17099169" lon="6.03907297"><ele>440.901855</ele><time>2009-10-20T12:02:45Z</time></trkpt>
<trkpt lat="46.17102723" lon="6.03915126"><ele>440.901855</ele><time>2009-10-20T12:02:46Z</time></trkpt>
<trkpt lat="46.17106612" lon="6.03923097"><ele>441.863159</ele><time>2009-10-20T12:02:47Z</time></trkpt>
<trkpt lat="46.17110384" lon="6.03931052"><ele>441.382446</ele><time>2009-10-20T12:02:48Z</time></trkpt>
<trkpt lat="46.17114172" lon="6.03939040"><ele>441.382446</ele><time>2009-10-20T12:02:49Z</time></trkpt>
<trkpt lat="46.17117793" lon="6.03946877"><ele>440.901855</ele><time>2009-10-20T12:02:50Z</time></trkpt>
<trkpt lat="46.17121423" lon="6.03954814"><ele>440.901855</ele><time>2009-10-20T12:02:51Z</time></trkpt>
<trkpt lat="46.17125018" lon="6.03962844"><ele>440.421265</ele><time>2009-10-20T12:02:52Z</time></trkpt>
<trkpt lat="46.17128413" lon="6.03970807"><ele>439.94043</ele><time>2009-10-20T12:02:53Z</time></trkpt>
<trkpt lat="46.17132378" lon="6.03978887"><ele>441.382446</ele><time>2009-10-20T12:02:54Z</time></trkpt>
<trkpt lat="46.17135932" lon="6.03986892"><ele>441.382446</ele><time>2009-10-20T12:02:55Z</time></trkpt>
<trkpt lat="46.17139444" lon="6.03994888"><ele>440.421265</ele><time>2009-10-20T12:02:56Z</time></trkpt>
<trkpt lat="46.17143123" lon="6.04003094"><ele>440.901855</ele><time>2009-10-20T12:02:57Z</time></trkpt>
<trkpt lat="46.17146728" lon="6.04011409"><ele>440.421265</ele><time>2009-10-20T12:02:58Z</time></trkpt>
<trkpt lat="46.17150592" lon="6.04019967"><ele>440.901855</ele><time>2009-10-20T12:02:59Z</time></trkpt>
<trkpt lat="46.17154389" lon="6.04028584"><ele>441.382446</ele><time>2009-10-20T12:03:00Z</time></trkpt>
<trkpt lat="46.17158026" lon="6.04037108"><ele>441.382446</ele><time>2009-10-20T12:03:01Z</time></trkpt>
<trkpt lat="46.17161765" lon="6.04045825"><ele>441.382446</ele><time>2009-10-20T12:03:02Z</time></trkpt>
<trkpt lat="46.17165143" lon="6.04054643"><ele>441.382446</ele><time>2009-10-20T12:03:03Z</time></trkpt>
<trkpt lat="46.17168479" lon="6.04063653"><ele>440.901855</ele><time>2009-10-20T12:03:04Z</time></trkpt>
<trkpt lat="46.17171655" lon="6.04072354"><ele>440.421265</ele><time>2009-10-20T12:03:05Z</time></trkpt>
<trkpt lat="46.17174505" lon="6.04080987"><ele>439.459717</ele><time>2009-10-20T12:03:06Z</time></trkpt>
<trkpt lat="46.17178185" lon="6.04090040"><ele>439.459717</ele><time>2009-10-20T12:03:07Z</time></trkpt>
<trkpt lat="46.17182175" lon="6.04099394"><ele>439.459717</ele><time>2009-10-20T12:03:08Z</time></trkpt>
<trkpt lat="46.17186307" lon="6.04108798"><ele>440.901855</ele><time>2009-10-20T12:03:09Z</time></trkpt>
<trkpt lat="46.17190498" lon="6.04118345"><ele>441.863159</ele><time>2009-10-20T12:03:10Z</time></trkpt>
<trkpt lat="46.17193742" lon="6.04127716"><ele>441.863159</ele><time>2009-10-20T12:03:11Z</time></trkpt>
<trkpt lat="46.17197153" lon="6.04137314"><ele>441.863159</ele><time>2009-10-20T12:03:12Z</time></trkpt>
<trkpt lat="46.17201084" lon="6.04147037"><ele>443.305054</ele><time>2009-10-20T12:03:13Z</time></trkpt>
<trkpt lat="46.17204672" lon="6.04156609"><ele>443.785767</ele><time>2009-10-20T12:03:14Z</time></trkpt>
<trkpt lat="46.17208050" lon="6.04166139"><ele>444.266479</ele><time>2009-10-20T12:03:15Z</time></trkpt>
<trkpt lat="46.17211386" lon="6.04175845"><ele>444.74707</ele><time>2009-10-20T12:03:16Z</time></trkpt>
<trkpt lat="46.17214479" lon="6.04185618"><ele>445.227661</ele><time>2009-10-20T12:03:17Z</time></trkpt>
<trkpt lat="46.17217337" lon="6.04195333"><ele>445.227661</ele><time>2009-10-20T12:03:18Z</time></trkpt>
<trkpt lat="46.17220178" lon="6.04205123"><ele>445.708374</ele><time>2009-10-20T12:03:19Z</time></trkpt>
<trkpt lat="46.17223053" lon="6.04215039"><ele>445.708374</ele><time>2009-10-20T12:03:20Z</time></trkpt>
<trkpt lat="46.17225886" lon="6.04225013"><ele>446.189087</ele><time>2009-10-20T12:03:21Z</time></trkpt>
<trkpt lat="46.17228518" lon="6.04234963"><ele>446.189087</ele><time>2009-10-20T12:03:22Z</time></trkpt>
<trkpt lat="46.17230857" lon="6.04244644"><ele>446.189087</ele><time>2009-10-20T12:03:23Z</time></trkpt>
<trkpt lat="46.17233229" lon="6.04254082"><ele>446.669678</ele><time>2009-10-20T12:03:24Z</time></trkpt>
<trkpt lat="46.17233992" lon="6.04262045"><ele>443.785767</ele><time>2009-10-20T12:03:25Z</time></trkpt>
<trkpt lat="46.17235324" lon="6.04270854"><ele>442.343872</ele><time>2009-10-20T12:03:26Z</time></trkpt>
<trkpt lat="46.17237059" lon="6.04279923"><ele>442.343872</ele><time>2009-10-20T12:03:27Z</time></trkpt>
<trkpt lat="46.17239859" lon="6.04289806"><ele>444.74707</ele><time>2009-10-20T12:03:28Z</time></trkpt>
<trkpt lat="46.17241334" lon="6.04299059"><ele>443.785767</ele><time>2009-10-20T12:03:29Z</time></trkpt>
<trkpt lat="46.17243052" lon="6.04308899"><ele>444.266479</ele><time>2009-10-20T12:03:30Z</time></trkpt>
<trkpt lat="46.17244503" lon="6.04318648"><ele>444.266479</ele><time>2009-10-20T12:03:31Z</time></trkpt>
<trkpt lat="46.17245919" lon="6.04328689"><ele>443.785767</ele><time>2009-10-20T12:03:32Z</time></trkpt>
<trkpt lat="46.17248308" lon="6.04340172"><ele>445.708374</ele><time>2009-10-20T12:03:33Z</time></trkpt>
<trkpt lat="46.17249657" lon="6.04351186"><ele>445.227661</ele><time>2009-10-20T12:03:34Z</time></trkpt>
<trkpt lat="46.17250772" lon="6.04362166"><ele>444.74707</ele><time>2009-10-20T12:03:35Z</time></trkpt>
<trkpt lat="46.17251803" lon="6.04373105"><ele>444.266479</ele><time>2009-10-20T12:03:36Z</time></trkpt>
<trkpt lat="46.17252859" lon="6.04384152"><ele>444.266479</ele><time>2009-10-20T12:03:37Z</time></trkpt>
<trkpt lat="46.17253748" lon="6.04395384"><ele>444.266479</ele><time>2009-10-20T12:03:38Z</time></trkpt>
<trkpt lat="46.17255659" lon="6.04407529"><ele>447.150269</ele><time>2009-10-20T12:03:39Z</time></trkpt>
<trkpt lat="46.17256614" lon="6.04418677"><ele>446.669678</ele><time>2009-10-20T12:03:40Z</time></trkpt>
<trkpt lat="46.17256547" lon="6.04429322"><ele>444.74707</ele><time>2009-10-20T12:03:41Z</time></trkpt>
<trkpt lat="46.17257235" lon="6.04440973"><ele>444.74707</ele><time>2009-10-20T12:03:42Z</time></trkpt>
<trkpt lat="46.17258492" lon="6.04453253"><ele>445.708374</ele><time>2009-10-20T12:03:43Z</time></trkpt>
<trkpt lat="46.17259515" lon="6.04465406"><ele>446.189087</ele><time>2009-10-20T12:03:44Z</time></trkpt>
<trkpt lat="46.17260294" lon="6.04477409"><ele>447.150269</ele><time>2009-10-20T12:03:45Z</time></trkpt>
<trkpt lat="46.17261124" lon="6.04489706"><ele>447.150269</ele><time>2009-10-20T12:03:46Z</time></trkpt>
<trkpt lat="46.17261929" lon="6.04502186"><ele>448.592407</ele><time>2009-10-20T12:03:47Z</time></trkpt>
<trkpt lat="46.17263278" lon="6.04515597"><ele>449.553711</ele><time>2009-10-20T12:03:48Z</time></trkpt>
<trkpt lat="46.17264108" lon="6.04528463"><ele>449.553711</ele><time>2009-10-20T12:03:49Z</time></trkpt>
<trkpt lat="46.17264292" lon="6.04540232"><ele>448.111816</ele><time>2009-10-20T12:03:50Z</time></trkpt>
<trkpt lat="46.17264887" lon="6.04553182"><ele>447.630981</ele><time>2009-10-20T12:03:51Z</time></trkpt>
<trkpt lat="46.17264778" lon="6.04565813"><ele>444.74707</ele><time>2009-10-20T12:03:52Z</time></trkpt>
<trkpt lat="46.17264644" lon="6.04578227"><ele>442.343872</ele><time>2009-10-20T12:03:53Z</time></trkpt>
<trkpt lat="46.17264410" lon="6.04594152"><ele>441.863159</ele><time>2009-10-20T12:03:54Z</time></trkpt>
<trkpt lat="46.17265306" lon="6.04610028"><ele>441.863159</ele><time>2009-10-20T12:03:55Z</time></trkpt>
<trkpt lat="46.17266203" lon="6.04623858"><ele>441.863159</ele><time>2009-10-20T12:03:56Z</time></trkpt>
<trkpt lat="46.17267075" lon="6.04636498"><ele>441.863159</ele><time>2009-10-20T12:03:57Z</time></trkpt>
<trkpt lat="46.17267938" lon="6.04648945"><ele>441.863159</ele><time>2009-10-20T12:03:58Z</time></trkpt>
<trkpt lat="46.17268500" lon="6.04661057"><ele>441.382446</ele><time>2009-10-20T12:03:59Z</time></trkpt>
<trkpt lat="46.17269254" lon="6.04673579"><ele>440.421265</ele><time>2009-10-20T12:04:00Z</time></trkpt>
<trkpt lat="46.17270227" lon="6.04686504"><ele>440.421265</ele><time>2009-10-20T12:04:01Z</time></trkpt>
<trkpt lat="46.17271459" lon="6.04699446"><ele>439.94043</ele><time>2009-10-20T12:04:02Z</time></trkpt>
<trkpt lat="46.17272649" lon="6.04711910"><ele>439.459717</ele><time>2009-10-20T12:04:03Z</time></trkpt>
<trkpt lat="46.17274200" lon="6.04724265"><ele>439.459717</ele><time>2009-10-20T12:04:04Z</time></trkpt>
<trkpt lat="46.17275700" lon="6.04736343"><ele>438.979126</ele><time>2009-10-20T12:04:05Z</time></trkpt>
<trkpt lat="46.17277318" lon="6.04748338"><ele>438.498535</ele><time>2009-10-20T12:04:06Z</time></trkpt>
<trkpt lat="46.17278994" lon="6.04760190"><ele>438.498535</ele><time>2009-10-20T12:04:07Z</time></trkpt>
<trkpt lat="46.17280813" lon="6.04772033"><ele>438.017822</ele><time>2009-10-20T12:04:08Z</time></trkpt>
<trkpt lat="46.17282707" lon="6.04783827"><ele>438.017822</ele><time>2009-10-20T12:04:09Z</time></trkpt>
<trkpt lat="46.17284694" lon="6.04795502"><ele>438.017822</ele><time>2009-10-20T12:04:10Z</time></trkpt>
<trkpt lat="46.17286739" lon="6.04807002"><ele>437.537109</ele><time>2009-10-20T12:04:11Z</time></trkpt>
<trkpt lat="46.17288876" lon="6.04818368"><ele>437.537109</ele><time>2009-10-20T12:04:12Z</time></trkpt>
<trkpt lat="46.17291165" lon="6.04829625"><ele>437.537109</ele><time>2009-10-20T12:04:13Z</time></trkpt>
<trkpt lat="46.17293528" lon="6.04840790"><ele>437.537109</ele><time>2009-10-20T12:04:14Z</time></trkpt>
<trkpt lat="46.17295984" lon="6.04851946"><ele>437.537109</ele><time>2009-10-20T12:04:15Z</time></trkpt>
<trkpt lat="46.17298516" lon="6.04863086"><ele>437.537109</ele><time>2009-10-20T12:04:16Z</time></trkpt>
<trkpt lat="46.17301089" lon="6.04874100"><ele>438.017822</ele><time>2009-10-20T12:04:17Z</time></trkpt>
<trkpt lat="46.17303696" lon="6.04885030"><ele>438.017822</ele><time>2009-10-20T12:04:18Z</time></trkpt>
<trkpt lat="46.17306286" lon="6.04895792"><ele>438.498535</ele><time>2009-10-20T12:04:19Z</time></trkpt>
<trkpt lat="46.17308909" lon="6.04906353"><ele>438.498535</ele><time>2009-10-20T12:04:20Z</time></trkpt>
<trkpt lat="46.17311499" lon="6.04916797"><ele>438.498535</ele><time>2009-10-20T12:04:21Z</time></trkpt>
<trkpt lat="46.17314039" lon="6.04927149"><ele>438.498535</ele><time>2009-10-20T12:04:22Z</time></trkpt>
<trkpt lat="46.17316629" lon="6.04937417"><ele>438.979126</ele><time>2009-10-20T12:04:23Z</time></trkpt>
<trkpt lat="46.17319252" lon="6.04947642"><ele>439.459717</ele><time>2009-10-20T12:04:24Z</time></trkpt>
<trkpt lat="46.17322236" lon="6.04958137"><ele>440.421265</ele><time>2009-10-20T12:04:25Z</time></trkpt>
<trkpt lat="46.17325153" lon="6.04968572"><ele>441.382446</ele><time>2009-10-20T12:04:26Z</time></trkpt>
<trkpt lat="46.17327995" lon="6.04978957"><ele>441.863159</ele><time>2009-10-20T12:04:27Z</time></trkpt>
<trkpt lat="46.17330803" lon="6.04989292"><ele>442.824463</ele><time>2009-10-20T12:04:28Z</time></trkpt>
<trkpt lat="46.17333535" lon="6.04999593"><ele>443.305054</ele><time>2009-10-20T12:04:29Z</time></trkpt>
<trkpt lat="46.17336066" lon="6.05009736"><ele>443.305054</ele><time>2009-10-20T12:04:30Z</time></trkpt>
<trkpt lat="46.17338556" lon="6.05019869"><ele>443.305054</ele><time>2009-10-20T12:04:31Z</time></trkpt>
<trkpt lat="46.17341054" lon="6.05029944"><ele>443.785767</ele><time>2009-10-20T12:04:32Z</time></trkpt>
<trkpt lat="46.17343484" lon="6.05039927"><ele>443.785767</ele><time>2009-10-20T12:04:33Z</time></trkpt>
<trkpt lat="46.17345882" lon="6.05049843"><ele>444.266479</ele><time>2009-10-20T12:04:34Z</time></trkpt>
<trkpt lat="46.17348287" lon="6.05059675"><ele>444.266479</ele><time>2009-10-20T12:04:35Z</time></trkpt>
<trkpt lat="46.17350626" lon="6.05069306"><ele>444.74707</ele><time>2009-10-20T12:04:36Z</time></trkpt>
<trkpt lat="46.17352964" lon="6.05078945"><ele>444.74707</ele><time>2009-10-20T12:04:37Z</time></trkpt>
<trkpt lat="46.17355353" lon="6.05088593"><ele>445.227661</ele><time>2009-10-20T12:04:38Z</time></trkpt>
<trkpt lat="46.17357759" lon="6.05098257"><ele>445.227661</ele><time>2009-10-20T12:04:39Z</time></trkpt>
<trkpt lat="46.17360240" lon="6.05107888"><ele>445.708374</ele><time>2009-10-20T12:04:40Z</time></trkpt>
<trkpt lat="46.17362687" lon="6.05117636"><ele>446.189087</ele><time>2009-10-20T12:04:41Z</time></trkpt>
<trkpt lat="46.17365043" lon="6.05127409"><ele>446.189087</ele><time>2009-10-20T12:04:42Z</time></trkpt>
<trkpt lat="46.17367356" lon="6.05137082"><ele>446.669678</ele><time>2009-10-20T12:04:43Z</time></trkpt>
<trkpt lat="46.17369678" lon="6.05146704"><ele>446.669678</ele><time>2009-10-20T12:04:44Z</time></trkpt>
<trkpt lat="46.17371924" lon="6.05156327"><ele>446.669678</ele><time>2009-10-20T12:04:45Z</time></trkpt>
<trkpt lat="46.17374145" lon="6.05165849"><ele>446.189087</ele><time>2009-10-20T12:04:46Z</time></trkpt>
<trkpt lat="46.17376367" lon="6.05175287"><ele>446.189087</ele><time>2009-10-20T12:04:47Z</time></trkpt>
<trkpt lat="46.17378529" lon="6.05184708"><ele>446.189087</ele><time>2009-10-20T12:04:48Z</time></trkpt>
<trkpt lat="46.17380633" lon="6.05194087"><ele>446.189087</ele><time>2009-10-20T12:04:49Z</time></trkpt>
<trkpt lat="46.17382762" lon="6.05203483"><ele>446.189087</ele><time>2009-10-20T12:04:50Z</time></trkpt>
<trkpt lat="46.17384832" lon="6.05212846"><ele>446.189087</ele><time>2009-10-20T12:04:51Z</time></trkpt>
<trkpt lat="46.17386869" lon="6.05222150"><ele>446.189087</ele><time>2009-10-20T12:04:52Z</time></trkpt>
<trkpt lat="46.17388923" lon="6.05231437"><ele>446.189087</ele><time>2009-10-20T12:04:53Z</time></trkpt>
<trkpt lat="46.17391027" lon="6.05240799"><ele>446.189087</ele><time>2009-10-20T12:04:54Z</time></trkpt>
<trkpt lat="46.17393139" lon="6.05250179"><ele>446.189087</ele><time>2009-10-20T12:04:55Z</time></trkpt>
<trkpt lat="46.17395117" lon="6.05259474"><ele>446.189087</ele><time>2009-10-20T12:04:56Z</time></trkpt>
<trkpt lat="46.17397087" lon="6.05268829"><ele>446.189087</ele><time>2009-10-20T12:04:57Z</time></trkpt>
<trkpt lat="46.17398964" lon="6.05278158"><ele>446.189087</ele><time>2009-10-20T12:04:58Z</time></trkpt>
<trkpt lat="46.17400833" lon="6.05287512"><ele>445.708374</ele><time>2009-10-20T12:04:59Z</time></trkpt>
<trkpt lat="46.17402644" lon="6.05296833"><ele>445.708374</ele><time>2009-10-20T12:05:00Z</time></trkpt>
<trkpt lat="46.17404446" lon="6.05306027"><ele>446.189087</ele><time>2009-10-20T12:05:01Z</time></trkpt>
<trkpt lat="46.17406349" lon="6.05315206"><ele>446.189087</ele><time>2009-10-20T12:05:02Z</time></trkpt>
<trkpt lat="46.17408117" lon="6.05324308"><ele>446.189087</ele><time>2009-10-20T12:05:03Z</time></trkpt>
<trkpt lat="46.17409903" lon="6.05333503"><ele>446.189087</ele><time>2009-10-20T12:05:04Z</time></trkpt>
<trkpt lat="46.17411738" lon="6.05342665"><ele>446.189087</ele><time>2009-10-20T12:05:05Z</time></trkpt>
<trkpt lat="46.17413482" lon="6.05351809"><ele>446.189087</ele><time>2009-10-20T12:05:06Z</time></trkpt>
<trkpt lat="46.17415108" lon="6.05360996"><ele>445.708374</ele><time>2009-10-20T12:05:07Z</time></trkpt>
<trkpt lat="46.17416868" lon="6.05370317"><ele>445.708374</ele><time>2009-10-20T12:05:08Z</time></trkpt>
<trkpt lat="46.17418637" lon="6.05379679"><ele>445.708374</ele><time>2009-10-20T12:05:09Z</time></trkpt>
<trkpt lat="46.17420346" lon="6.05389033"><ele>445.708374</ele><time>2009-10-20T12:05:10Z</time></trkpt>
<trkpt lat="46.17422056" lon="6.05398354"><ele>445.708374</ele><time>2009-10-20T12:05:11Z</time></trkpt>
<trkpt lat="46.17423750" lon="6.05407666"><ele>446.189087</ele><time>2009-10-20T12:05:12Z</time></trkpt>
<trkpt lat="46.17425392" lon="6.05417004"><ele>446.189087</ele><time>2009-10-20T12:05:13Z</time></trkpt>
<trkpt lat="46.17426968" lon="6.05426316"><ele>446.189087</ele><time>2009-10-20T12:05:14Z</time></trkpt>
<trkpt lat="46.17428485" lon="6.05435494"><ele>446.189087</ele><time>2009-10-20T12:05:15Z</time></trkpt>
<trkpt lat="46.17430019" lon="6.05444647"><ele>446.189087</ele><time>2009-10-20T12:05:16Z</time></trkpt>
<trkpt lat="46.17431528" lon="6.05453775"><ele>446.189087</ele><time>2009-10-20T12:05:17Z</time></trkpt>
<trkpt lat="46.17432919" lon="6.05462903"><ele>445.708374</ele><time>2009-10-20T12:05:18Z</time></trkpt>
<trkpt lat="46.17434378" lon="6.05472014"><ele>445.708374</ele><time>2009-10-20T12:05:19Z</time></trkpt>
<trkpt lat="46.17435878" lon="6.05481109"><ele>445.227661</ele><time>2009-10-20T12:05:20Z</time></trkpt>
<trkpt lat="46.17437412" lon="6.05490220"><ele>445.227661</ele><time>2009-10-20T12:05:21Z</time></trkpt>
<trkpt lat="46.17438896" lon="6.05499247"><ele>445.227661</ele><time>2009-10-20T12:05:22Z</time></trkpt>
<trkpt lat="46.17440379" lon="6.05508409"><ele>445.227661</ele><time>2009-10-20T12:05:23Z</time></trkpt>
<trkpt lat="46.17441796" lon="6.05517612"><ele>444.74707</ele><time>2009-10-20T12:05:24Z</time></trkpt>
<trkpt lat="46.17443179" lon="6.05526765"><ele>445.227661</ele><time>2009-10-20T12:05:25Z</time></trkpt>
<trkpt lat="46.17444377" lon="6.05535826"><ele>444.74707</ele><time>2009-10-20T12:05:26Z</time></trkpt>
<trkpt lat="46.17445777" lon="6.05544962"><ele>445.227661</ele><time>2009-10-20T12:05:27Z</time></trkpt>
<trkpt lat="46.17447043" lon="6.05554048"><ele>445.227661</ele><time>2009-10-20T12:05:28Z</time></trkpt>
<trkpt lat="46.17448392" lon="6.05563142"><ele>445.708374</ele><time>2009-10-20T12:05:29Z</time></trkpt>
<trkpt lat="46.17450002" lon="6.05572404"><ele>446.669678</ele><time>2009-10-20T12:05:30Z</time></trkpt>
<trkpt lat="46.17451552" lon="6.05581524"><ele>447.150269</ele><time>2009-10-20T12:05:31Z</time></trkpt>
<trkpt lat="46.17453044" lon="6.05590610"><ele>448.111816</ele><time>2009-10-20T12:05:32Z</time></trkpt>
<trkpt lat="46.17454519" lon="6.05599662"><ele>448.592407</ele><time>2009-10-20T12:05:33Z</time></trkpt>
<trkpt lat="46.17456229" lon="6.05608799"><ele>450.034424</ele><time>2009-10-20T12:05:34Z</time></trkpt>
<trkpt lat="46.17457537" lon="6.05617533"><ele>450.034424</ele><time>2009-10-20T12:05:35Z</time></trkpt>
<trkpt lat="46.17458467" lon="6.05626023"><ele>449.553711</ele><time>2009-10-20T12:05:36Z</time></trkpt>
<trkpt lat="46.17459599" lon="6.05634657"><ele>449.553711</ele><time>2009-10-20T12:05:37Z</time></trkpt>
<trkpt lat="46.17460412" lon="6.05643097"><ele>449.553711</ele><time>2009-10-20T12:05:38Z</time></trkpt>
<trkpt lat="46.17461627" lon="6.05651580"><ele>450.034424</ele><time>2009-10-20T12:05:39Z</time></trkpt>
<trkpt lat="46.17462264" lon="6.05659568"><ele>448.592407</ele><time>2009-10-20T12:05:40Z</time></trkpt>
<trkpt lat="46.17463480" lon="6.05667857"><ele>448.592407</ele><time>2009-10-20T12:05:41Z</time></trkpt>
<trkpt lat="46.17464712" lon="6.05676172"><ele>449.072998</ele><time>2009-10-20T12:05:42Z</time></trkpt>
<trkpt lat="46.17466137" lon="6.05684445"><ele>449.072998</ele><time>2009-10-20T12:05:43Z</time></trkpt>
<trkpt lat="46.17467268" lon="6.05692349"><ele>448.111816</ele><time>2009-10-20T12:05:44Z</time></trkpt>
<trkpt lat="46.17469406" lon="6.05700195"><ele>447.630981</ele><time>2009-10-20T12:05:45Z</time></trkpt>
<trkpt lat="46.17472130" lon="6.05707236"><ele>447.630981</ele><time>2009-10-20T12:05:46Z</time></trkpt>
<trkpt lat="46.17475516" lon="6.05713497"><ele>448.111816</ele><time>2009-10-20T12:05:47Z</time></trkpt>
<trkpt lat="46.17478869" lon="6.05719834"><ele>447.630981</ele><time>2009-10-20T12:05:48Z</time></trkpt>
<trkpt lat="46.17480587" lon="6.05726522"><ele>446.669678</ele><time>2009-10-20T12:05:49Z</time></trkpt>
<trkpt lat="46.17481015" lon="6.05734267"><ele>446.189087</ele><time>2009-10-20T12:05:50Z</time></trkpt>
<trkpt lat="46.17479908" lon="6.05742113"><ele>445.708374</ele><time>2009-10-20T12:05:51Z</time></trkpt>
<trkpt lat="46.17476606" lon="6.05748969"><ele>443.785767</ele><time>2009-10-20T12:05:52Z</time></trkpt>
<trkpt lat="46.17473773" lon="6.05755658"><ele>442.824463</ele><time>2009-10-20T12:05:53Z</time></trkpt>
<trkpt lat="46.17472189" lon="6.05762707"><ele>442.343872</ele><time>2009-10-20T12:05:54Z</time></trkpt>
<trkpt lat="46.17472390" lon="6.05770326"><ele>442.343872</ele><time>2009-10-20T12:05:55Z</time></trkpt>
<trkpt lat="46.17473505" lon="6.05777845"><ele>442.824463</ele><time>2009-10-20T12:05:56Z</time></trkpt>
<trkpt lat="46.17474183" lon="6.05785363"><ele>441.863159</ele><time>2009-10-20T12:05:57Z</time></trkpt>
<trkpt lat="46.17475147" lon="6.05793016"><ele>442.343872</ele><time>2009-10-20T12:05:58Z</time></trkpt>
<trkpt lat="46.17476044" lon="6.05800794"><ele>442.824463</ele><time>2009-10-20T12:05:59Z</time></trkpt>
<trkpt lat="46.17477058" lon="6.05808699"><ele>443.785767</ele><time>2009-10-20T12:06:00Z</time></trkpt>
<trkpt lat="46.17478198" lon="6.05816946"><ele>443.785767</ele><time>2009-10-20T12:06:01Z</time></trkpt>
<trkpt lat="46.17479196" lon="6.05825010"><ele>443.785767</ele><time>2009-10-20T12:06:02Z</time></trkpt>
<trkpt lat="46.17480093" lon="6.05832805"><ele>443.785767</ele><time>2009-10-20T12:06:03Z</time></trkpt>
<trkpt lat="46.17481099" lon="6.05840533"><ele>443.785767</ele><time>2009-10-20T12:06:04Z</time></trkpt>
<trkpt lat="46.17480998" lon="6.05847884"><ele>440.901855</ele><time>2009-10-20T12:06:05Z</time></trkpt>
<trkpt lat="46.17481920" lon="6.05855989"><ele>440.901855</ele><time>2009-10-20T12:06:06Z</time></trkpt>
<trkpt lat="46.17482808" lon="6.05863994"><ele>440.901855</ele><time>2009-10-20T12:06:07Z</time></trkpt>
<trkpt lat="46.17483747" lon="6.05871957"><ele>440.901855</ele><time>2009-10-20T12:06:08Z</time></trkpt>
<trkpt lat="46.17484728" lon="6.05879945"><ele>440.901855</ele><time>2009-10-20T12:06:09Z</time></trkpt>
<trkpt lat="46.17485885" lon="6.05887908"><ele>440.901855</ele><time>2009-10-20T12:06:10Z</time></trkpt>
<trkpt lat="46.17486932" lon="6.05895837"><ele>441.382446</ele><time>2009-10-20T12:06:11Z</time></trkpt>
<trkpt lat="46.17487930" lon="6.05903833"><ele>441.382446</ele><time>2009-10-20T12:06:12Z</time></trkpt>
<trkpt lat="46.17488994" lon="6.05911905"><ele>441.863159</ele><time>2009-10-20T12:06:13Z</time></trkpt>
<trkpt lat="46.17489992" lon="6.05920044"><ele>441.863159</ele><time>2009-10-20T12:06:14Z</time></trkpt>
<trkpt lat="46.17491056" lon="6.05928099"><ele>441.863159</ele><time>2009-10-20T12:06:15Z</time></trkpt>
<trkpt lat="46.17492255" lon="6.05936280"><ele>442.824463</ele><time>2009-10-20T12:06:16Z</time></trkpt>
<trkpt lat="46.17493286" lon="6.05944552"><ele>442.824463</ele><time>2009-10-20T12:06:17Z</time></trkpt>
<trkpt lat="46.17494317" lon="6.05952867"><ele>443.305054</ele><time>2009-10-20T12:06:18Z</time></trkpt>
<trkpt lat="46.17495289" lon="6.05961249"><ele>442.824463</ele><time>2009-10-20T12:06:19Z</time></trkpt>
<trkpt lat="46.17496354" lon="6.05969665"><ele>442.824463</ele><time>2009-10-20T12:06:20Z</time></trkpt>
<trkpt lat="46.17497359" lon="6.05978223"><ele>442.343872</ele><time>2009-10-20T12:06:21Z</time></trkpt>
<trkpt lat="46.17498265" lon="6.05986806"><ele>442.343872</ele><time>2009-10-20T12:06:22Z</time></trkpt>
<trkpt lat="46.17499329" lon="6.05995514"><ele>442.343872</ele><time>2009-10-20T12:06:23Z</time></trkpt>
<trkpt lat="46.17500402" lon="6.06004106"><ele>442.343872</ele><time>2009-10-20T12:06:24Z</time></trkpt>
<trkpt lat="46.17501408" lon="6.06012706"><ele>442.343872</ele><time>2009-10-20T12:06:25Z</time></trkpt>
<trkpt lat="46.17502389" lon="6.06021423"><ele>441.863159</ele><time>2009-10-20T12:06:26Z</time></trkpt>
<trkpt lat="46.17503378" lon="6.06030232"><ele>441.863159</ele><time>2009-10-20T12:06:27Z</time></trkpt>
<trkpt lat="46.17504534" lon="6.06039125"><ele>441.863159</ele><time>2009-10-20T12:06:28Z</time></trkpt>
<trkpt lat="46.17505750" lon="6.06048069"><ele>441.863159</ele><time>2009-10-20T12:06:29Z</time></trkpt>
<trkpt lat="46.17507032" lon="6.06057063"><ele>442.343872</ele><time>2009-10-20T12:06:30Z</time></trkpt>
<trkpt lat="46.17508289" lon="6.06066082"><ele>442.343872</ele><time>2009-10-20T12:06:31Z</time></trkpt>
<trkpt lat="46.17509379" lon="6.06075126"><ele>442.343872</ele><time>2009-10-20T12:06:32Z</time></trkpt>
<trkpt lat="46.17510477" lon="6.06084203"><ele>442.343872</ele><time>2009-10-20T12:06:33Z</time></trkpt>
<trkpt lat="46.17511558" lon="6.06093264"><ele>442.824463</ele><time>2009-10-20T12:06:34Z</time></trkpt>
<trkpt lat="46.17512514" lon="6.06102300"><ele>442.343872</ele><time>2009-10-20T12:06:35Z</time></trkpt>
<trkpt lat="46.17513654" lon="6.06111386"><ele>442.343872</ele><time>2009-10-20T12:06:36Z</time></trkpt>
<trkpt lat="46.17514844" lon="6.06120539"><ele>442.824463</ele><time>2009-10-20T12:06:37Z</time></trkpt>
<trkpt lat="46.17516126" lon="6.06129675"><ele>442.824463</ele><time>2009-10-20T12:06:38Z</time></trkpt>
<trkpt lat="46.17517333" lon="6.06138828"><ele>443.305054</ele><time>2009-10-20T12:06:39Z</time></trkpt>
<trkpt lat="46.17518406" lon="6.06147923"><ele>443.305054</ele><time>2009-10-20T12:06:40Z</time></trkpt>
<trkpt lat="46.17519479" lon="6.06156992"><ele>443.305054</ele><time>2009-10-20T12:06:41Z</time></trkpt>
<trkpt lat="46.17520678" lon="6.06166136"><ele>443.305054</ele><time>2009-10-20T12:06:42Z</time></trkpt>
<trkpt lat="46.17521876" lon="6.06175315"><ele>443.305054</ele><time>2009-10-20T12:06:43Z</time></trkpt>
<trkpt lat="46.17523067" lon="6.06184476"><ele>443.785767</ele><time>2009-10-20T12:06:44Z</time></trkpt>
<trkpt lat="46.17524123" lon="6.06193512"><ele>443.785767</ele><time>2009-10-20T12:06:45Z</time></trkpt>
<trkpt lat="46.17525154" lon="6.06202539"><ele>443.785767</ele><time>2009-10-20T12:06:46Z</time></trkpt>
<trkpt lat="46.17526327" lon="6.06211608"><ele>443.785767</ele><time>2009-10-20T12:06:47Z</time></trkpt>
<trkpt lat="46.17527517" lon="6.06220644"><ele>444.266479</ele><time>2009-10-20T12:06:48Z</time></trkpt>
<trkpt lat="46.17528708" lon="6.06229680"><ele>444.266479</ele><time>2009-10-20T12:06:49Z</time></trkpt>
<trkpt lat="46.17529957" lon="6.06238707"><ele>444.74707</ele><time>2009-10-20T12:06:50Z</time></trkpt>
<trkpt lat="46.17531222" lon="6.06247810"><ele>445.227661</ele><time>2009-10-20T12:06:51Z</time></trkpt>
<trkpt lat="46.17533192" lon="6.06257424"><ele>447.150269</ele><time>2009-10-20T12:06:52Z</time></trkpt>
<trkpt lat="46.17535078" lon="6.06267088"><ele>448.592407</ele><time>2009-10-20T12:06:53Z</time></trkpt>
<trkpt lat="46.17536813" lon="6.06276769"><ele>450.034424</ele><time>2009-10-20T12:06:54Z</time></trkpt>
<trkpt lat="46.17537919" lon="6.06286123"><ele>450.034424</ele><time>2009-10-20T12:06:55Z</time></trkpt>
<trkpt lat="46.17539546" lon="6.06295662"><ele>450.995605</ele><time>2009-10-20T12:06:56Z</time></trkpt>
<trkpt lat="46.17540945" lon="6.06305050"><ele>451.476318</ele><time>2009-10-20T12:06:57Z</time></trkpt>
<trkpt lat="46.17542379" lon="6.06314454"><ele>451.957031</ele><time>2009-10-20T12:06:58Z</time></trkpt>
<trkpt lat="46.17543762" lon="6.06323792"><ele>452.437622</ele><time>2009-10-20T12:06:59Z</time></trkpt>
<trkpt lat="46.17545195" lon="6.06333196"><ele>452.437622</ele><time>2009-10-20T12:07:00Z</time></trkpt>
<trkpt lat="46.17546662" lon="6.06342626"><ele>452.918213</ele><time>2009-10-20T12:07:01Z</time></trkpt>
<trkpt lat="46.17548808" lon="6.06352575"><ele>455.321533</ele><time>2009-10-20T12:07:02Z</time></trkpt>
<trkpt lat="46.17550895" lon="6.06362533"><ele>457.244263</ele><time>2009-10-20T12:07:03Z</time></trkpt>
<trkpt lat="46.17552345" lon="6.06372038"><ele>457.244263</ele><time>2009-10-20T12:07:04Z</time></trkpt>
<trkpt lat="46.17553853" lon="6.06381568"><ele>457.244263</ele><time>2009-10-20T12:07:05Z</time></trkpt>
<trkpt lat="46.17555404" lon="6.06390855"><ele>457.724976</ele><time>2009-10-20T12:07:06Z</time></trkpt>
<trkpt lat="46.17557072" lon="6.06399908"><ele>457.724976</ele><time>2009-10-20T12:07:07Z</time></trkpt>
<trkpt lat="46.17558816" lon="6.06408927"><ele>458.205566</ele><time>2009-10-20T12:07:08Z</time></trkpt>
<trkpt lat="46.17560525" lon="6.06418147"><ele>458.686157</ele><time>2009-10-20T12:07:09Z</time></trkpt>
<trkpt lat="46.17562177" lon="6.06427325"><ele>458.686157</ele><time>2009-10-20T12:07:10Z</time></trkpt>
<trkpt lat="46.17564004" lon="6.06436579"><ele>459.16687</ele><time>2009-10-20T12:07:11Z</time></trkpt>
<trkpt lat="46.17565890" lon="6.06445950"><ele>459.647583</ele><time>2009-10-20T12:07:12Z</time></trkpt>
<trkpt lat="46.17567826" lon="6.06455446"><ele>459.647583</ele><time>2009-10-20T12:07:13Z</time></trkpt>
<trkpt lat="46.17569754" lon="6.06465010"><ele>460.128174</ele><time>2009-10-20T12:07:14Z</time></trkpt>
<trkpt lat="46.17571648" lon="6.06474414"><ele>459.16687</ele><time>2009-10-20T12:07:15Z</time></trkpt>
<trkpt lat="46.17573660" lon="6.06483777"><ele>459.16687</ele><time>2009-10-20T12:07:16Z</time></trkpt>
<trkpt lat="46.17575546" lon="6.06493064"><ele>458.205566</ele><time>2009-10-20T12:07:17Z</time></trkpt>
<trkpt lat="46.17577599" lon="6.06502326"><ele>458.205566</ele><time>2009-10-20T12:07:18Z</time></trkpt>
<trkpt lat="46.17578882" lon="6.06510926"><ele>455.802246</ele><time>2009-10-20T12:07:19Z</time></trkpt>
<trkpt lat="46.17581069" lon="6.06520012"><ele>455.802246</ele><time>2009-10-20T12:07:20Z</time></trkpt>
<trkpt lat="46.17583157" lon="6.06529056"><ele>455.802246</ele><time>2009-10-20T12:07:21Z</time></trkpt>
<trkpt lat="46.17585252" lon="6.06538092"><ele>455.802246</ele><time>2009-10-20T12:07:22Z</time></trkpt>
<trkpt lat="46.17587356" lon="6.06547086"><ele>455.321533</ele><time>2009-10-20T12:07:23Z</time></trkpt>
<trkpt lat="46.17589502" lon="6.06555996"><ele>455.321533</ele><time>2009-10-20T12:07:24Z</time></trkpt>
<trkpt lat="46.17591673" lon="6.06564813"><ele>455.321533</ele><time>2009-10-20T12:07:25Z</time></trkpt>
<trkpt lat="46.17593944" lon="6.06573405"><ele>455.802246</ele><time>2009-10-20T12:07:26Z</time></trkpt>
<trkpt lat="46.17596249" lon="6.06581845"><ele>455.802246</ele><time>2009-10-20T12:07:27Z</time></trkpt>
<trkpt lat="46.17598504" lon="6.06590252"><ele>456.282959</ele><time>2009-10-20T12:07:28Z</time></trkpt>
<trkpt lat="46.17600784" lon="6.06598576"><ele>456.76355</ele><time>2009-10-20T12:07:29Z</time></trkpt>
<trkpt lat="46.17602955" lon="6.06606798"><ele>457.244263</ele><time>2009-10-20T12:07:30Z</time></trkpt>
<trkpt lat="46.17605176" lon="6.06614845"><ele>457.724976</ele><time>2009-10-20T12:07:31Z</time></trkpt>
<trkpt lat="46.17607439" lon="6.06622816"><ele>458.205566</ele><time>2009-10-20T12:07:32Z</time></trkpt>
<trkpt lat="46.17609702" lon="6.06630745"><ele>458.205566</ele><time>2009-10-20T12:07:33Z</time></trkpt>
<trkpt lat="46.17611865" lon="6.06638658"><ele>458.205566</ele><time>2009-10-20T12:07:34Z</time></trkpt>
<trkpt lat="46.17614086" lon="6.06646453"><ele>458.686157</ele><time>2009-10-20T12:07:35Z</time></trkpt>
<trkpt lat="46.17616273" lon="6.06653963"><ele>458.686157</ele><time>2009-10-20T12:07:36Z</time></trkpt>
<trkpt lat="46.17618419" lon="6.06661482"><ele>458.686157</ele><time>2009-10-20T12:07:37Z</time></trkpt>
<trkpt lat="46.17620557" lon="6.06669143"><ele>458.686157</ele><time>2009-10-20T12:07:38Z</time></trkpt>
<trkpt lat="46.17622828" lon="6.06676879"><ele>458.205566</ele><time>2009-10-20T12:07:39Z</time></trkpt>
<trkpt lat="46.17625133" lon="6.06684675"><ele>458.205566</ele><time>2009-10-20T12:07:40Z</time></trkpt>
<trkpt lat="46.17627539" lon="6.06692528"><ele>458.205566</ele><time>2009-10-20T12:07:41Z</time></trkpt>
<trkpt lat="46.17629978" lon="6.06700458"><ele>457.724976</ele><time>2009-10-20T12:07:42Z</time></trkpt>
<trkpt lat="46.17632375" lon="6.06708496"><ele>457.724976</ele><time>2009-10-20T12:07:43Z</time></trkpt>
<trkpt lat="46.17634747" lon="6.06716509"><ele>457.724976</ele><time>2009-10-20T12:07:44Z</time></trkpt>
<trkpt lat="46.17637136" lon="6.06724589"><ele>457.724976</ele><time>2009-10-20T12:07:45Z</time></trkpt>
<trkpt lat="46.17639584" lon="6.06732585"><ele>457.724976</ele><time>2009-10-20T12:07:46Z</time></trkpt>
<trkpt lat="46.17642023" lon="6.06740582"><ele>457.724976</ele><time>2009-10-20T12:07:47Z</time></trkpt>
<trkpt lat="46.17644378" lon="6.06748528"><ele>457.724976</ele><time>2009-10-20T12:07:48Z</time></trkpt>
<trkpt lat="46.17646758" lon="6.06756449"><ele>457.724976</ele><time>2009-10-20T12:07:49Z</time></trkpt>
<trkpt lat="46.17649063" lon="6.06764428"><ele>457.724976</ele><time>2009-10-20T12:07:50Z</time></trkpt>
<trkpt lat="46.17651528" lon="6.06772374"><ele>457.244263</ele><time>2009-10-20T12:07:51Z</time></trkpt>
<trkpt lat="46.17654026" lon="6.06780304"><ele>457.244263</ele><time>2009-10-20T12:07:52Z</time></trkpt>
<trkpt lat="46.17656490" lon="6.06788157"><ele>456.76355</ele><time>2009-10-20T12:07:53Z</time></trkpt>
<trkpt lat="46.17658912" lon="6.06796062"><ele>456.76355</ele><time>2009-10-20T12:07:54Z</time></trkpt>
<trkpt lat="46.17661360" lon="6.06804100"><ele>456.282959</ele><time>2009-10-20T12:07:55Z</time></trkpt>
<trkpt lat="46.17663749" lon="6.06812214"><ele>456.282959</ele><time>2009-10-20T12:07:56Z</time></trkpt>
<trkpt lat="46.17666062" lon="6.06820436"><ele>455.802246</ele><time>2009-10-20T12:07:57Z</time></trkpt>
<trkpt lat="46.17668384" lon="6.06828642"><ele>454.84082</ele><time>2009-10-20T12:07:58Z</time></trkpt>
<trkpt lat="46.17671066" lon="6.06837024"><ele>454.84082</ele><time>2009-10-20T12:07:59Z</time></trkpt>
<trkpt lat="46.17673815" lon="6.06845414"><ele>455.321533</ele><time>2009-10-20T12:08:00Z</time></trkpt>
<trkpt lat="46.17676363" lon="6.06853964"><ele>454.84082</ele><time>2009-10-20T12:08:01Z</time></trkpt>
<trkpt lat="46.17679004" lon="6.06862748"><ele>454.360229</ele><time>2009-10-20T12:08:02Z</time></trkpt>
<trkpt lat="46.17683262" lon="6.06872697"><ele>457.244263</ele><time>2009-10-20T12:08:03Z</time></trkpt>
<trkpt lat="46.17686153" lon="6.06881775"><ele>457.244263</ele><time>2009-10-20T12:08:04Z</time></trkpt>
<trkpt lat="46.17689104" lon="6.06891037"><ele>457.244263</ele><time>2009-10-20T12:08:05Z</time></trkpt>
<trkpt lat="46.17692146" lon="6.06900483"><ele>456.76355</ele><time>2009-10-20T12:08:06Z</time></trkpt>
<trkpt lat="46.17693873" lon="6.06909192"><ele>453.398926</ele><time>2009-10-20T12:08:07Z</time></trkpt>
<trkpt lat="46.17696228" lon="6.06918597"><ele>450.995605</ele><time>2009-10-20T12:08:08Z</time></trkpt>
<trkpt lat="46.17698936" lon="6.06928429"><ele>449.553711</ele><time>2009-10-20T12:08:09Z</time></trkpt>
<trkpt lat="46.17702959" lon="6.06939216"><ele>450.995605</ele><time>2009-10-20T12:08:10Z</time></trkpt>
<trkpt lat="46.17706396" lon="6.06949610"><ele>450.995605</ele><time>2009-10-20T12:08:11Z</time></trkpt>
<trkpt lat="46.17710243" lon="6.06960372"><ele>451.476318</ele><time>2009-10-20T12:08:12Z</time></trkpt>
<trkpt lat="46.17713562" lon="6.06970975"><ele>450.995605</ele><time>2009-10-20T12:08:13Z</time></trkpt>
<trkpt lat="46.17716697" lon="6.06981243"><ele>450.034424</ele><time>2009-10-20T12:08:14Z</time></trkpt>
<trkpt lat="46.17720176" lon="6.06991494"><ele>449.072998</ele><time>2009-10-20T12:08:15Z</time></trkpt>
<trkpt lat="46.17723905" lon="6.07001896"><ele>449.072998</ele><time>2009-10-20T12:08:16Z</time></trkpt>
<trkpt lat="46.17727518" lon="6.07012038"><ele>449.072998</ele><time>2009-10-20T12:08:17Z</time></trkpt>
<trkpt lat="46.17731013" lon="6.07022096"><ele>449.072998</ele><time>2009-10-20T12:08:18Z</time></trkpt>
<trkpt lat="46.17734416" lon="6.07032440"><ele>449.072998</ele><time>2009-10-20T12:08:19Z</time></trkpt>
<trkpt lat="46.17737727" lon="6.07042925"><ele>448.592407</ele><time>2009-10-20T12:08:20Z</time></trkpt>
<trkpt lat="46.17741298" lon="6.07053403"><ele>448.592407</ele><time>2009-10-20T12:08:21Z</time></trkpt>
<trkpt lat="46.17744994" lon="6.07063813"><ele>448.592407</ele><time>2009-10-20T12:08:22Z</time></trkpt>
<trkpt lat="46.17748733" lon="6.07074223"><ele>448.592407</ele><time>2009-10-20T12:08:23Z</time></trkpt>
<trkpt lat="46.17752446" lon="6.07084525"><ele>448.592407</ele><time>2009-10-20T12:08:24Z</time></trkpt>
<trkpt lat="46.17756084" lon="6.07094675"><ele>448.592407</ele><time>2009-10-20T12:08:25Z</time></trkpt>
<trkpt lat="46.17759579" lon="6.07104574"><ele>449.072998</ele><time>2009-10-20T12:08:26Z</time></trkpt>
<trkpt lat="46.17762999" lon="6.07114205"><ele>449.072998</ele><time>2009-10-20T12:08:27Z</time></trkpt>
<trkpt lat="46.17766343" lon="6.07123643"><ele>449.072998</ele><time>2009-10-20T12:08:28Z</time></trkpt>
<trkpt lat="46.17769796" lon="6.07133165"><ele>449.072998</ele><time>2009-10-20T12:08:29Z</time></trkpt>
<trkpt lat="46.17773258" lon="6.07142880"><ele>449.553711</ele><time>2009-10-20T12:08:30Z</time></trkpt>
<trkpt lat="46.17776737" lon="6.07152636"><ele>449.553711</ele><time>2009-10-20T12:08:31Z</time></trkpt>
<trkpt lat="46.17780307" lon="6.07162376"><ele>450.034424</ele><time>2009-10-20T12:08:32Z</time></trkpt>
<trkpt lat="46.17783803" lon="6.07171898"><ele>450.034424</ele><time>2009-10-20T12:08:33Z</time></trkpt>
<trkpt lat="46.17787340" lon="6.07181118"><ele>450.034424</ele><time>2009-10-20T12:08:34Z</time></trkpt>
<trkpt lat="46.17790659" lon="6.07190439"><ele>450.515015</ele><time>2009-10-20T12:08:35Z</time></trkpt>
<trkpt lat="46.17793819" lon="6.07199307"><ele>450.034424</ele><time>2009-10-20T12:08:36Z</time></trkpt>
<trkpt lat="46.17797188" lon="6.07207387"><ele>450.995605</ele><time>2009-10-20T12:08:37Z</time></trkpt>
<trkpt lat="46.17800415" lon="6.07214335"><ele>451.476318</ele><time>2009-10-20T12:08:38Z</time></trkpt>
<trkpt lat="46.17803106" lon="6.07219599"><ele>451.476318</ele><time>2009-10-20T12:08:39Z</time></trkpt>
<trkpt lat="46.17805093" lon="6.07223036"><ele>450.995605</ele><time>2009-10-20T12:08:40Z</time></trkpt>
<trkpt lat="46.17807205" lon="6.07225073"><ele>450.515015</ele><time>2009-10-20T12:08:41Z</time></trkpt>
<trkpt lat="46.17809275" lon="6.07227168"><ele>450.995605</ele><time>2009-10-20T12:08:42Z</time></trkpt>
<trkpt lat="46.17810432" lon="6.07230437"><ele>450.995605</ele><time>2009-10-20T12:08:43Z</time></trkpt>
<trkpt lat="46.17811102" lon="6.07234008"><ele>450.995605</ele><time>2009-10-20T12:08:44Z</time></trkpt>
<trkpt lat="46.17811698" lon="6.07236774"><ele>450.995605</ele><time>2009-10-20T12:08:45Z</time></trkpt>
<trkpt lat="46.17812837" lon="6.07239095"><ele>450.515015</ele><time>2009-10-20T12:08:46Z</time></trkpt>
<trkpt lat="46.17814807" lon="6.07241426"><ele>450.515015</ele><time>2009-10-20T12:08:47Z</time></trkpt>
<trkpt lat="46.17817473" lon="6.07243873"><ele>449.553711</ele><time>2009-10-20T12:08:48Z</time></trkpt>
<trkpt lat="46.17821027" lon="6.07246706"><ele>449.553711</ele><time>2009-10-20T12:08:49Z</time></trkpt>
<trkpt lat="46.17823533" lon="6.07250118"><ele>448.111816</ele><time>2009-10-20T12:08:50Z</time></trkpt>
<trkpt lat="46.17823675" lon="6.07254912"><ele>446.189087</ele><time>2009-10-20T12:08:51Z</time></trkpt>
<trkpt lat="46.17822334" lon="6.07261115"><ele>445.708374</ele><time>2009-10-20T12:08:52Z</time></trkpt>
<trkpt lat="46.17821714" lon="6.07267988"><ele>444.74707</ele><time>2009-10-20T12:08:53Z</time></trkpt>
<trkpt lat="46.17822435" lon="6.07275423"><ele>444.266479</ele><time>2009-10-20T12:08:54Z</time></trkpt>
<trkpt lat="46.17823985" lon="6.07283109"><ele>443.785767</ele><time>2009-10-20T12:08:55Z</time></trkpt>
<trkpt lat="46.17825989" lon="6.07290879"><ele>443.305054</ele><time>2009-10-20T12:08:56Z</time></trkpt>
<trkpt lat="46.17828436" lon="6.07298632"><ele>442.824463</ele><time>2009-10-20T12:08:57Z</time></trkpt>
<trkpt lat="46.17831286" lon="6.07306293"><ele>442.824463</ele><time>2009-10-20T12:08:58Z</time></trkpt>
<trkpt lat="46.17834446" lon="6.07313938"><ele>443.305054</ele><time>2009-10-20T12:08:59Z</time></trkpt>
<trkpt lat="46.17837723" lon="6.07321708"><ele>443.305054</ele><time>2009-10-20T12:09:00Z</time></trkpt>
<trkpt lat="46.17840942" lon="6.07329763"><ele>443.785767</ele><time>2009-10-20T12:09:01Z</time></trkpt>
<trkpt lat="46.17844085" lon="6.07338077"><ele>443.785767</ele><time>2009-10-20T12:09:02Z</time></trkpt>
<trkpt lat="46.17847203" lon="6.07346585"><ele>444.266479</ele><time>2009-10-20T12:09:03Z</time></trkpt>
<trkpt lat="46.17850388" lon="6.07355017"><ele>444.74707</ele><time>2009-10-20T12:09:04Z</time></trkpt>
<trkpt lat="46.17853607" lon="6.07363449"><ele>445.227661</ele><time>2009-10-20T12:09:05Z</time></trkpt>
<trkpt lat="46.17856993" lon="6.07372225"><ele>446.669678</ele><time>2009-10-20T12:09:06Z</time></trkpt>
<trkpt lat="46.17860287" lon="6.07381018"><ele>447.150269</ele><time>2009-10-20T12:09:07Z</time></trkpt>
<trkpt lat="46.17863590" lon="6.07389785"><ele>447.630981</ele><time>2009-10-20T12:09:08Z</time></trkpt>
<trkpt lat="46.17866792" lon="6.07398662"><ele>448.592407</ele><time>2009-10-20T12:09:09Z</time></trkpt>
<trkpt lat="46.17869910" lon="6.07407647"><ele>448.592407</ele><time>2009-10-20T12:09:10Z</time></trkpt>
<trkpt lat="46.17873095" lon="6.07416498"><ele>448.592407</ele><time>2009-10-20T12:09:11Z</time></trkpt>
<trkpt lat="46.17876255" lon="6.07425258"><ele>449.072998</ele><time>2009-10-20T12:09:12Z</time></trkpt>
<trkpt lat="46.17879423" lon="6.07434092"><ele>449.553711</ele><time>2009-10-20T12:09:13Z</time></trkpt>
<trkpt lat="46.17882416" lon="6.07442759"><ele>449.553711</ele><time>2009-10-20T12:09:14Z</time></trkpt>
<trkpt lat="46.17885425" lon="6.07451434"><ele>449.553711</ele><time>2009-10-20T12:09:15Z</time></trkpt>
<trkpt lat="46.17888459" lon="6.07460009"><ele>449.553711</ele><time>2009-10-20T12:09:16Z</time></trkpt>
<trkpt lat="46.17891502" lon="6.07468500"><ele>450.034424</ele><time>2009-10-20T12:09:17Z</time></trkpt>
<trkpt lat="46.17894528" lon="6.07477033"><ele>450.034424</ele><time>2009-10-20T12:09:18Z</time></trkpt>
<trkpt lat="46.17897503" lon="6.07485473"><ele>450.034424</ele><time>2009-10-20T12:09:19Z</time></trkpt>
<trkpt lat="46.17900562" lon="6.07493830"><ele>450.515015</ele><time>2009-10-20T12:09:20Z</time></trkpt>
<trkpt lat="46.17903689" lon="6.07502094"><ele>450.515015</ele><time>2009-10-20T12:09:21Z</time></trkpt>
<trkpt lat="46.17906748" lon="6.07510342"><ele>450.515015</ele><time>2009-10-20T12:09:22Z</time></trkpt>
<trkpt lat="46.17909707" lon="6.07518557"><ele>450.995605</ele><time>2009-10-20T12:09:23Z</time></trkpt>
<trkpt lat="46.17912649" lon="6.07526737"><ele>450.995605</ele><time>2009-10-20T12:09:24Z</time></trkpt>
<trkpt lat="46.17915600" lon="6.07534993"><ele>450.995605</ele><time>2009-10-20T12:09:25Z</time></trkpt>
<trkpt lat="46.17918609" lon="6.07543149"><ele>451.476318</ele><time>2009-10-20T12:09:26Z</time></trkpt>
<trkpt lat="46.17921626" lon="6.07551204"><ele>451.476318</ele><time>2009-10-20T12:09:27Z</time></trkpt>
<trkpt lat="46.17924434" lon="6.07559242"><ele>451.476318</ele><time>2009-10-20T12:09:28Z</time></trkpt>
<trkpt lat="46.17927276" lon="6.07567389"><ele>451.476318</ele><time>2009-10-20T12:09:29Z</time></trkpt>
<trkpt lat="46.17930075" lon="6.07575352"><ele>451.476318</ele><time>2009-10-20T12:09:30Z</time></trkpt>
<trkpt lat="46.17932615" lon="6.07583147"><ele>451.476318</ele><time>2009-10-20T12:09:31Z</time></trkpt>
<trkpt lat="46.17934727" lon="6.07590683"><ele>451.476318</ele><time>2009-10-20T12:09:32Z</time></trkpt>
<trkpt lat="46.17936823" lon="6.07598235"><ele>451.476318</ele><time>2009-10-20T12:09:33Z</time></trkpt>
<trkpt lat="46.17939195" lon="6.07606164"><ele>451.957031</ele><time>2009-10-20T12:09:34Z</time></trkpt>
<trkpt lat="46.17941768" lon="6.07614605"><ele>452.437622</ele><time>2009-10-20T12:09:35Z</time></trkpt>
<trkpt lat="46.17944224" lon="6.07623565"><ele>451.957031</ele><time>2009-10-20T12:09:36Z</time></trkpt>
<trkpt lat="46.17946462" lon="6.07632735"><ele>451.476318</ele><time>2009-10-20T12:09:37Z</time></trkpt>
<trkpt lat="46.17948532" lon="6.07642039"><ele>450.515015</ele><time>2009-10-20T12:09:38Z</time></trkpt>
<trkpt lat="46.17950804" lon="6.07651686"><ele>450.515015</ele><time>2009-10-20T12:09:39Z</time></trkpt>
<trkpt lat="46.17952824" lon="6.07661359"><ele>450.515015</ele><time>2009-10-20T12:09:40Z</time></trkpt>
<trkpt lat="46.17954542" lon="6.07671250"><ele>449.553711</ele><time>2009-10-20T12:09:41Z</time></trkpt>
<trkpt lat="46.17956386" lon="6.07681660"><ele>449.553711</ele><time>2009-10-20T12:09:42Z</time></trkpt>
<trkpt lat="46.17958180" lon="6.07692129"><ele>449.553711</ele><time>2009-10-20T12:09:43Z</time></trkpt>
<trkpt lat="46.17959722" lon="6.07702539"><ele>448.592407</ele><time>2009-10-20T12:09:44Z</time></trkpt>
<trkpt lat="46.17961247" lon="6.07713092"><ele>448.592407</ele><time>2009-10-20T12:09:45Z</time></trkpt>
<trkpt lat="46.17962689" lon="6.07723930"><ele>448.111816</ele><time>2009-10-20T12:09:46Z</time></trkpt>
<trkpt lat="46.17963963" lon="6.07734919"><ele>448.111816</ele><time>2009-10-20T12:09:47Z</time></trkpt>
<trkpt lat="46.17965187" lon="6.07745807"><ele>447.630981</ele><time>2009-10-20T12:09:48Z</time></trkpt>
<trkpt lat="46.17966008" lon="6.07756175"><ele>446.189087</ele><time>2009-10-20T12:09:49Z</time></trkpt>
<trkpt lat="46.17967224" lon="6.07766703"><ele>446.669678</ele><time>2009-10-20T12:09:50Z</time></trkpt>
<trkpt lat="46.17968179" lon="6.07777256"><ele>446.669678</ele><time>2009-10-20T12:09:51Z</time></trkpt>
<trkpt lat="46.17968992" lon="6.07787347"><ele>446.669678</ele><time>2009-10-20T12:09:52Z</time></trkpt>
<trkpt lat="46.17969730" lon="6.07797079"><ele>446.669678</ele><time>2009-10-20T12:09:53Z</time></trkpt>
<trkpt lat="46.17970468" lon="6.07806969"><ele>447.150269</ele><time>2009-10-20T12:09:54Z</time></trkpt>
<trkpt lat="46.17971255" lon="6.07816039"><ele>446.669678</ele><time>2009-10-20T12:09:55Z</time></trkpt>
<trkpt lat="46.17971314" lon="6.07824479"><ele>444.266479</ele><time>2009-10-20T12:09:56Z</time></trkpt>
<trkpt lat="46.17971582" lon="6.07832056"><ele>443.785767</ele><time>2009-10-20T12:09:57Z</time></trkpt>
<trkpt lat="46.17972094" lon="6.07838854"><ele>443.305054</ele><time>2009-10-20T12:09:58Z</time></trkpt>
<trkpt lat="46.17972488" lon="6.07844956"><ele>443.305054</ele><time>2009-10-20T12:09:59Z</time></trkpt>
<trkpt lat="46.17972982" lon="6.07850153"><ele>443.785767</ele><time>2009-10-20T12:10:00Z</time></trkpt>
<trkpt lat="46.17973954" lon="6.07854864"><ele>443.785767</ele><time>2009-10-20T12:10:01Z</time></trkpt>
<trkpt lat="46.17975396" lon="6.07858359"><ele>444.266479</ele><time>2009-10-20T12:10:02Z</time></trkpt>
<trkpt lat="46.17976595" lon="6.07860555"><ele>443.785767</ele><time>2009-10-20T12:10:03Z</time></trkpt>
<trkpt lat="46.17978028" lon="6.07862935"><ele>444.74707</ele><time>2009-10-20T12:10:04Z</time></trkpt>
<trkpt lat="46.17979302" lon="6.07865048"><ele>446.669678</ele><time>2009-10-20T12:10:05Z</time></trkpt>
<trkpt lat="46.17980165" lon="6.07866724"><ele>447.630981</ele><time>2009-10-20T12:10:06Z</time></trkpt>
<trkpt lat="46.17979864" lon="6.07867839"><ele>446.669678</ele><time>2009-10-20T12:10:07Z</time></trkpt>
<trkpt lat="46.17979277" lon="6.07867143"><ele>443.305054</ele><time>2009-10-20T12:10:08Z</time></trkpt>
<trkpt lat="46.17978564" lon="6.07866406"><ele>440.901855</ele><time>2009-10-20T12:10:09Z</time></trkpt>
<trkpt lat="46.17977986" lon="6.07865852"><ele>438.498535</ele><time>2009-10-20T12:10:10Z</time></trkpt>
<trkpt lat="46.17977533" lon="6.07865903"><ele>437.537109</ele><time>2009-10-20T12:10:11Z</time></trkpt>
<trkpt lat="46.17977047" lon="6.07865643"><ele>436.575928</ele><time>2009-10-20T12:10:12Z</time></trkpt>
<trkpt lat="46.17976695" lon="6.07865559"><ele>436.095215</ele><time>2009-10-20T12:10:13Z</time></trkpt>
<trkpt lat="46.17976326" lon="6.07865752"><ele>436.575928</ele><time>2009-10-20T12:10:14Z</time></trkpt>
<trkpt lat="46.17975824" lon="6.07867026"><ele>437.056519</ele><time>2009-10-20T12:10:15Z</time></trkpt>
<trkpt lat="46.17975446" lon="6.07868560"><ele>438.017822</ele><time>2009-10-20T12:10:16Z</time></trkpt>
<trkpt lat="46.17974516" lon="6.07869289"><ele>436.575928</ele><time>2009-10-20T12:10:17Z</time></trkpt>
<trkpt lat="46.17973678" lon="6.07868937"><ele>435.133911</ele><time>2009-10-20T12:10:18Z</time></trkpt>
<trkpt lat="46.17973016" lon="6.07869364"><ele>433.691895</ele><time>2009-10-20T12:10:19Z</time></trkpt>
<trkpt lat="46.17972555" lon="6.07869792"><ele>432.25</ele><time>2009-10-20T12:10:20Z</time></trkpt>
<trkpt lat="46.17972286" lon="6.07869448"><ele>431.288574</ele><time>2009-10-20T12:10:21Z</time></trkpt>
<trkpt lat="46.17971884" lon="6.07870588"><ele>432.25</ele><time>2009-10-20T12:10:22Z</time></trkpt>
<trkpt lat="46.17971859" lon="6.07870756"><ele>432.25</ele><time>2009-10-20T12:10:23Z</time></trkpt>
<trkpt lat="46.17971775" lon="6.07871342"><ele>432.25</ele><time>2009-10-20T12:10:24Z</time></trkpt>
<trkpt lat="46.17971582" lon="6.07872189"><ele>432.730713</ele><time>2009-10-20T12:10:25Z</time></trkpt>
<trkpt lat="46.17971473" lon="6.07871912"><ele>432.25</ele><time>2009-10-20T12:10:26Z</time></trkpt>
<trkpt lat="46.17971607" lon="6.07871996"><ele>431.769165</ele><time>2009-10-20T12:10:27Z</time></trkpt>
<trkpt lat="46.17971960" lon="6.07871795"><ele>431.288574</ele><time>2009-10-20T12:10:28Z</time></trkpt>
<trkpt lat="46.17972094" lon="6.07872063"><ele>430.327271</ele><time>2009-10-20T12:10:29Z</time></trkpt>
<trkpt lat="46.17972462" lon="6.07871518"><ele>430.327271</ele><time>2009-10-20T12:10:30Z</time></trkpt>
<trkpt lat="46.17973024" lon="6.07870605"><ele>429.846558</ele><time>2009-10-20T12:10:31Z</time></trkpt>
<trkpt lat="46.17973753" lon="6.07869574"><ele>429.846558</ele><time>2009-10-20T12:10:32Z</time></trkpt>
<trkpt lat="46.17974340" lon="6.07868099"><ele>428.885376</ele><time>2009-10-20T12:10:33Z</time></trkpt>
<trkpt lat="46.17974658" lon="6.07867403"><ele>427.92395</ele><time>2009-10-20T12:10:34Z</time></trkpt>
<trkpt lat="46.17974835" lon="6.07868015"><ele>428.404663</ele><time>2009-10-20T12:10:35Z</time></trkpt>
<trkpt lat="46.17975279" lon="6.07866556"><ele>427.443359</ele><time>2009-10-20T12:10:36Z</time></trkpt>
<trkpt lat="46.17975555" lon="6.07865484"><ele>426.962769</ele><time>2009-10-20T12:10:37Z</time></trkpt>
<trkpt lat="46.17975388" lon="6.07865266"><ele>427.443359</ele><time>2009-10-20T12:10:38Z</time></trkpt>
<trkpt lat="46.17975723" lon="6.07864553"><ele>427.443359</ele><time>2009-10-20T12:10:39Z</time></trkpt>
<trkpt lat="46.17976159" lon="6.07863665"><ele>426.962769</ele><time>2009-10-20T12:10:40Z</time></trkpt>
<trkpt lat="46.17976427" lon="6.07862592"><ele>426.482056</ele><time>2009-10-20T12:10:41Z</time></trkpt>
<trkpt lat="46.17976469" lon="6.07863204"><ele>426.962769</ele><time>2009-10-20T12:10:42Z</time></trkpt>
<trkpt lat="46.17976553" lon="6.07862944"><ele>427.443359</ele><time>2009-10-20T12:10:43Z</time></trkpt>
<trkpt lat="46.17976972" lon="6.07862374"><ele>427.92395</ele><time>2009-10-20T12:10:44Z</time></trkpt>
<trkpt lat="46.17976846" lon="6.07863153"><ele>428.404663</ele><time>2009-10-20T12:10:45Z</time></trkpt>
<trkpt lat="46.17977039" lon="6.07862609"><ele>428.404663</ele><time>2009-10-20T12:10:46Z</time></trkpt>
<trkpt lat="46.17977098" lon="6.07863279"><ele>428.404663</ele><time>2009-10-20T12:10:47Z</time></trkpt>
<trkpt lat="46.17977064" lon="6.07863874"><ele>428.404663</ele><time>2009-10-20T12:10:48Z</time></trkpt>
<trkpt lat="46.17976863" lon="6.07864134"><ele>428.404663</ele><time>2009-10-20T12:10:49Z</time></trkpt>
<trkpt lat="46.17976704" lon="6.07864813"><ele>428.404663</ele><time>2009-10-20T12:10:50Z</time></trkpt>
<trkpt lat="46.17976419" lon="6.07865408"><ele>429.365967</ele><time>2009-10-20T12:10:51Z</time></trkpt>
<trkpt lat="46.17976368" lon="6.07864067"><ele>428.885376</ele><time>2009-10-20T12:10:52Z</time></trkpt>
<trkpt lat="46.17975966" lon="6.07864226"><ele>429.365967</ele><time>2009-10-20T12:10:53Z</time></trkpt>
<trkpt lat="46.17975824" lon="6.07863539"><ele>429.365967</ele><time>2009-10-20T12:10:54Z</time></trkpt>
<trkpt lat="46.17975899" lon="6.07862407"><ele>428.885376</ele><time>2009-10-20T12:10:55Z</time></trkpt>
<trkpt lat="46.17975547" lon="6.07861896"><ele>429.365967</ele><time>2009-10-20T12:10:56Z</time></trkpt>
<trkpt lat="46.17975287" lon="6.07862005"><ele>429.846558</ele><time>2009-10-20T12:10:57Z</time></trkpt>
<trkpt lat="46.17974985" lon="6.07862290"><ele>429.846558</ele><time>2009-10-20T12:10:58Z</time></trkpt>
<trkpt lat="46.17974566" lon="6.07862935"><ele>429.846558</ele><time>2009-10-20T12:10:59Z</time></trkpt>
<trkpt lat="46.17974298" lon="6.07863489"><ele>429.846558</ele><time>2009-10-20T12:11:00Z</time></trkpt>
<trkpt lat="46.17974122" lon="6.07863824"><ele>429.846558</ele><time>2009-10-20T12:11:01Z</time></trkpt>
<trkpt lat="46.17973980" lon="6.07864243"><ele>430.327271</ele><time>2009-10-20T12:11:02Z</time></trkpt>
<trkpt lat="46.17973284" lon="6.07866028"><ele>430.327271</ele><time>2009-10-20T12:11:03Z</time></trkpt>
<trkpt lat="46.17972454" lon="6.07867613"><ele>429.846558</ele><time>2009-10-20T12:11:04Z</time></trkpt>
<trkpt lat="46.17971926" lon="6.07869222"><ele>429.365967</ele><time>2009-10-20T12:11:05Z</time></trkpt>
<trkpt lat="46.17971146" lon="6.07870379"><ele>428.404663</ele><time>2009-10-20T12:11:06Z</time></trkpt>
<trkpt lat="46.17970694" lon="6.07871359"><ele>427.443359</ele><time>2009-10-20T12:11:07Z</time></trkpt>
<trkpt lat="46.17970526" lon="6.07872273"><ele>426.962769</ele><time>2009-10-20T12:11:08Z</time></trkpt>
<trkpt lat="46.17971130" lon="6.07873279"><ele>429.365967</ele><time>2009-10-20T12:11:09Z</time></trkpt>
<trkpt lat="46.17971306" lon="6.07873539"><ele>429.365967</ele><time>2009-10-20T12:11:10Z</time></trkpt>
<trkpt lat="46.17972672" lon="6.07875039"><ele>433.211304</ele><time>2009-10-20T12:11:11Z</time></trkpt>
<trkpt lat="46.17973577" lon="6.07875978"><ele>435.133911</ele><time>2009-10-20T12:11:12Z</time></trkpt>
<trkpt lat="46.17973762" lon="6.07876774"><ele>436.575928</ele><time>2009-10-20T12:11:13Z</time></trkpt>
<trkpt lat="46.17974223" lon="6.07877679"><ele>437.537109</ele><time>2009-10-20T12:11:14Z</time></trkpt>
<trkpt lat="46.17974214" lon="6.07878098"><ele>437.056519</ele><time>2009-10-20T12:11:15Z</time></trkpt>
<trkpt lat="46.17973535" lon="6.07878299"><ele>436.575928</ele><time>2009-10-20T12:11:16Z</time></trkpt>
<trkpt lat="46.17972898" lon="6.07879339"><ele>437.537109</ele><time>2009-10-20T12:11:17Z</time></trkpt>
<trkpt lat="46.17972756" lon="6.07879674"><ele>436.575928</ele><time>2009-10-20T12:11:18Z</time></trkpt>
<trkpt lat="46.17972295" lon="6.07881258"><ele>437.537109</ele><time>2009-10-20T12:11:19Z</time></trkpt>
<trkpt lat="46.17972320" lon="6.07881602"><ele>438.017822</ele><time>2009-10-20T12:11:20Z</time></trkpt>
<trkpt lat="46.17972337" lon="6.07881820"><ele>438.017822</ele><time>2009-10-20T12:11:21Z</time></trkpt>
<trkpt lat="46.17972379" lon="6.07881786"><ele>438.498535</ele><time>2009-10-20T12:11:22Z</time></trkpt>
<trkpt lat="46.17972479" lon="6.07881946"><ele>438.979126</ele><time>2009-10-20T12:11:23Z</time></trkpt>
<trkpt lat="46.17972387" lon="6.07882013"><ele>439.459717</ele><time>2009-10-20T12:11:24Z</time></trkpt>
<trkpt lat="46.17972328" lon="6.07882666"><ele>440.421265</ele><time>2009-10-20T12:11:25Z</time></trkpt>
<trkpt lat="46.17972353" lon="6.07883194"><ele>441.382446</ele><time>2009-10-20T12:11:26Z</time></trkpt>
<trkpt lat="46.17972429" lon="6.07883773"><ele>442.343872</ele><time>2009-10-20T12:11:27Z</time></trkpt>
<trkpt lat="46.17972672" lon="6.07884318"><ele>442.824463</ele><time>2009-10-20T12:11:28Z</time></trkpt>
<trkpt lat="46.17972823" lon="6.07885248"><ele>443.305054</ele><time>2009-10-20T12:11:29Z</time></trkpt>
<trkpt lat="46.17973267" lon="6.07886832"><ele>444.74707</ele><time>2009-10-20T12:11:30Z</time></trkpt>
<trkpt lat="46.17973443" lon="6.07888014"><ele>446.189087</ele><time>2009-10-20T12:11:31Z</time></trkpt>
<trkpt lat="46.17974214" lon="6.07890244"><ele>447.630981</ele><time>2009-10-20T12:11:32Z</time></trkpt>
<trkpt lat="46.17975958" lon="6.07891912"><ele>449.072998</ele><time>2009-10-20T12:11:33Z</time></trkpt>
<trkpt lat="46.17978137" lon="6.07893303"><ele>450.034424</ele><time>2009-10-20T12:11:34Z</time></trkpt>
<trkpt lat="46.17981129" lon="6.07894166"><ele>449.553711</ele><time>2009-10-20T12:11:35Z</time></trkpt>
<trkpt lat="46.17984306" lon="6.07894200"><ele>448.592407</ele><time>2009-10-20T12:11:36Z</time></trkpt>
<trkpt lat="46.17987969" lon="6.07894133"><ele>448.111816</ele><time>2009-10-20T12:11:37Z</time></trkpt>
<trkpt lat="46.17992185" lon="6.07893907"><ele>447.150269</ele><time>2009-10-20T12:11:38Z</time></trkpt>
<trkpt lat="46.17997172" lon="6.07894074"><ele>446.669678</ele><time>2009-10-20T12:11:39Z</time></trkpt>
<trkpt lat="46.18002419" lon="6.07893915"><ele>446.669678</ele><time>2009-10-20T12:11:40Z</time></trkpt>
<trkpt lat="46.18008463" lon="6.07893789"><ele>446.189087</ele><time>2009-10-20T12:11:41Z</time></trkpt>
<trkpt lat="46.18015193" lon="6.07894083"><ele>445.708374</ele><time>2009-10-20T12:11:42Z</time></trkpt>
<trkpt lat="46.18022502" lon="6.07894518"><ele>445.708374</ele><time>2009-10-20T12:11:43Z</time></trkpt>
<trkpt lat="46.18030172" lon="6.07894845"><ele>445.708374</ele><time>2009-10-20T12:11:44Z</time></trkpt>
<trkpt lat="46.18037942" lon="6.07894493"><ele>444.74707</ele><time>2009-10-20T12:11:45Z</time></trkpt>
<trkpt lat="46.18046240" lon="6.07894024"><ele>444.266479</ele><time>2009-10-20T12:11:46Z</time></trkpt>
<trkpt lat="46.18054396" lon="6.07893102"><ele>443.785767</ele><time>2009-10-20T12:11:47Z</time></trkpt>
<trkpt lat="46.18062275" lon="6.07892289"><ele>443.305054</ele><time>2009-10-20T12:11:48Z</time></trkpt>
<trkpt lat="46.18070078" lon="6.07891467"><ele>442.824463</ele><time>2009-10-20T12:11:49Z</time></trkpt>
<trkpt lat="46.18077236" lon="6.07892037"><ele>442.343872</ele><time>2009-10-20T12:11:50Z</time></trkpt>
<trkpt lat="46.18083498" lon="6.07895088"><ele>441.863159</ele><time>2009-10-20T12:11:51Z</time></trkpt>
<trkpt lat="46.18089088" lon="6.07900285"><ele>441.863159</ele><time>2009-10-20T12:11:52Z</time></trkpt>
<trkpt lat="46.18094939" lon="6.07906379"><ele>441.382446</ele><time>2009-10-20T12:11:53Z</time></trkpt>
<trkpt lat="46.18100228" lon="6.07913302"><ele>440.901855</ele><time>2009-10-20T12:11:54Z</time></trkpt>
<trkpt lat="46.18104016" lon="6.07921776"><ele>440.421265</ele><time>2009-10-20T12:11:55Z</time></trkpt>
<trkpt lat="46.18106053" lon="6.07931969"><ele>440.901855</ele><time>2009-10-20T12:11:56Z</time></trkpt>
<trkpt lat="46.18107562" lon="6.07942647"><ele>440.421265</ele><time>2009-10-20T12:11:57Z</time></trkpt>
<trkpt lat="46.18109205" lon="6.07953569"><ele>440.421265</ele><time>2009-10-20T12:11:58Z</time></trkpt>
<trkpt lat="46.18110923" lon="6.07964558"><ele>439.94043</ele><time>2009-10-20T12:11:59Z</time></trkpt>
<trkpt lat="46.18112792" lon="6.07975538"><ele>439.459717</ele><time>2009-10-20T12:12:00Z</time></trkpt>
<trkpt lat="46.18114938" lon="6.07986309"><ele>439.459717</ele><time>2009-10-20T12:12:01Z</time></trkpt>
<trkpt lat="46.18117603" lon="6.07996644"><ele>439.459717</ele><time>2009-10-20T12:12:02Z</time></trkpt>
<trkpt lat="46.18120847" lon="6.08006224"><ele>439.459717</ele><time>2009-10-20T12:12:03Z</time></trkpt>
<trkpt lat="46.18124384" lon="6.08014815"><ele>439.459717</ele><time>2009-10-20T12:12:04Z</time></trkpt>
<trkpt lat="46.18127695" lon="6.08022175"><ele>438.979126</ele><time>2009-10-20T12:12:05Z</time></trkpt>
<trkpt lat="46.18130679" lon="6.08028218"><ele>438.498535</ele><time>2009-10-20T12:12:06Z</time></trkpt>
<trkpt lat="46.18133278" lon="6.08032937"><ele>438.498535</ele><time>2009-10-20T12:12:07Z</time></trkpt>
<trkpt lat="46.18135356" lon="6.08036533"><ele>439.459717</ele><time>2009-10-20T12:12:08Z</time></trkpt>
<trkpt lat="46.18136588" lon="6.08038486"><ele>439.459717</ele><time>2009-10-20T12:12:09Z</time></trkpt>
<trkpt lat="46.18136974" lon="6.08039224"><ele>438.979126</ele><time>2009-10-20T12:12:10Z</time></trkpt>
<trkpt lat="46.18136806" lon="6.08039039"><ele>438.017822</ele><time>2009-10-20T12:12:11Z</time></trkpt>
<trkpt lat="46.18136220" lon="6.08038394"><ele>436.575928</ele><time>2009-10-20T12:12:12Z</time></trkpt>
<trkpt lat="46.18135574" lon="6.08037706"><ele>434.65332</ele><time>2009-10-20T12:12:13Z</time></trkpt>
<trkpt lat="46.18135273" lon="6.08037489"><ele>434.65332</ele><time>2009-10-20T12:12:14Z</time></trkpt>
<trkpt lat="46.18135340" lon="6.08037329"><ele>434.172607</ele><time>2009-10-20T12:12:15Z</time></trkpt>
<trkpt lat="46.18135365" lon="6.08037296"><ele>434.65332</ele><time>2009-10-20T12:12:16Z</time></trkpt>
<trkpt lat="46.18135524" lon="6.08037237"><ele>434.65332</ele><time>2009-10-20T12:12:17Z</time></trkpt>
<trkpt lat="46.18135113" lon="6.08036617"><ele>432.730713</ele><time>2009-10-20T12:12:18Z</time></trkpt>
<trkpt lat="46.18134292" lon="6.08035896"><ele>430.327271</ele><time>2009-10-20T12:12:19Z</time></trkpt>
<trkpt lat="46.18133353" lon="6.08035184"><ele>428.404663</ele><time>2009-10-20T12:12:20Z</time></trkpt>
<trkpt lat="46.18132314" lon="6.08034513"><ele>426.482056</ele><time>2009-10-20T12:12:21Z</time></trkpt>
<trkpt lat="46.18131216" lon="6.08033834"><ele>424.078735</ele><time>2009-10-20T12:12:22Z</time></trkpt>
<trkpt lat="46.18130084" lon="6.08033155"><ele>422.156006</ele><time>2009-10-20T12:12:23Z</time></trkpt>
<trkpt lat="46.18128986" lon="6.08032493"><ele>420.233398</ele><time>2009-10-20T12:12:24Z</time></trkpt>
<trkpt lat="46.18128517" lon="6.08032334"><ele>419.752808</ele><time>2009-10-20T12:12:25Z</time></trkpt>
<trkpt lat="46.18128098" lon="6.08032200"><ele>419.272217</ele><time>2009-10-20T12:12:26Z</time></trkpt>
<trkpt lat="46.18127762" lon="6.08032082"><ele>419.272217</ele><time>2009-10-20T12:12:27Z</time></trkpt>
<trkpt lat="46.18127486" lon="6.08031973"><ele>419.272217</ele><time>2009-10-20T12:12:28Z</time></trkpt>
<trkpt lat="46.18126815" lon="6.08031370"><ele>416.868896</ele><time>2009-10-20T12:12:29Z</time></trkpt>
<trkpt lat="46.18126614" lon="6.08031110"><ele>416.388184</ele><time>2009-10-20T12:12:30Z</time></trkpt>
<trkpt lat="46.18126254" lon="6.08030682"><ele>414.946167</ele><time>2009-10-20T12:12:31Z</time></trkpt>
<trkpt lat="46.18125994" lon="6.08030414"><ele>413.984863</ele><time>2009-10-20T12:12:32Z</time></trkpt>
<trkpt lat="46.18125759" lon="6.08030180"><ele>413.02356</ele><time>2009-10-20T12:12:33Z</time></trkpt>
<trkpt lat="46.18125633" lon="6.08029895"><ele>412.062256</ele><time>2009-10-20T12:12:34Z</time></trkpt>
<trkpt lat="46.18125826" lon="6.08029744"><ele>412.062256</ele><time>2009-10-20T12:12:35Z</time></trkpt>
<trkpt lat="46.18125952" lon="6.08029626"><ele>411.581665</ele><time>2009-10-20T12:12:36Z</time></trkpt>
<trkpt lat="46.18125793" lon="6.08029467"><ele>411.100952</ele><time>2009-10-20T12:12:37Z</time></trkpt>
<trkpt lat="46.18125508" lon="6.08029249"><ele>410.620239</ele><time>2009-10-20T12:12:38Z</time></trkpt>
<trkpt lat="46.18125273" lon="6.08028989"><ele>410.139648</ele><time>2009-10-20T12:12:39Z</time></trkpt>
<trkpt lat="46.18125156" lon="6.08028746"><ele>409.659058</ele><time>2009-10-20T12:12:40Z</time></trkpt>
<trkpt lat="46.18125055" lon="6.08028562"><ele>409.178345</ele><time>2009-10-20T12:12:41Z</time></trkpt>
<trkpt lat="46.18124980" lon="6.08028444"><ele>408.697632</ele><time>2009-10-20T12:12:42Z</time></trkpt>
<trkpt lat="46.18125239" lon="6.08028788"><ele>408.217041</ele><time>2009-10-20T12:12:43Z</time></trkpt>
<trkpt lat="46.18126078" lon="6.08029853"><ele>408.217041</ele><time>2009-10-20T12:12:44Z</time></trkpt>
<trkpt lat="46.18127142" lon="6.08031370"><ele>408.217041</ele><time>2009-10-20T12:12:45Z</time></trkpt>
<trkpt lat="46.18128399" lon="6.08033147"><ele>408.217041</ele><time>2009-10-20T12:12:46Z</time></trkpt>
<trkpt lat="46.18129933" lon="6.08035276"><ele>408.217041</ele><time>2009-10-20T12:12:47Z</time></trkpt>
<trkpt lat="46.18131794" lon="6.08037673"><ele>408.697632</ele><time>2009-10-20T12:12:48Z</time></trkpt>
<trkpt lat="46.18133898" lon="6.08040179"><ele>409.178345</ele><time>2009-10-20T12:12:49Z</time></trkpt>
<trkpt lat="46.18136513" lon="6.08042886"><ele>409.659058</ele><time>2009-10-20T12:12:50Z</time></trkpt>
<trkpt lat="46.18139874" lon="6.08046214"><ele>410.620239</ele><time>2009-10-20T12:12:51Z</time></trkpt>
<trkpt lat="46.18143822" lon="6.08050455"><ele>411.100952</ele><time>2009-10-20T12:12:52Z</time></trkpt>
<trkpt lat="46.18148290" lon="6.08055392"><ele>411.581665</ele><time>2009-10-20T12:12:53Z</time></trkpt>
<trkpt lat="46.18153386" lon="6.08060740"><ele>412.542847</ele><time>2009-10-20T12:12:54Z</time></trkpt>
<trkpt lat="46.18158977" lon="6.08066037"><ele>413.02356</ele><time>2009-10-20T12:12:55Z</time></trkpt>
<trkpt lat="46.18164903" lon="6.08071385"><ele>413.504272</ele><time>2009-10-20T12:12:56Z</time></trkpt>
<trkpt lat="46.18171114" lon="6.08076883"><ele>414.465454</ele><time>2009-10-20T12:12:57Z</time></trkpt>
<trkpt lat="46.18177526" lon="6.08082474"><ele>414.946167</ele><time>2009-10-20T12:12:58Z</time></trkpt>
<trkpt lat="46.18184005" lon="6.08088652"><ele>414.946167</ele><time>2009-10-20T12:12:59Z</time></trkpt>
<trkpt lat="46.18190593" lon="6.08095106"><ele>415.42688</ele><time>2009-10-20T12:13:00Z</time></trkpt>
<trkpt lat="46.18197357" lon="6.08101627"><ele>415.907471</ele><time>2009-10-20T12:13:01Z</time></trkpt>
<trkpt lat="46.18204272" lon="6.08108014"><ele>415.907471</ele><time>2009-10-20T12:13:02Z</time></trkpt>
<trkpt lat="46.18211405" lon="6.08114225"><ele>416.388184</ele><time>2009-10-20T12:13:03Z</time></trkpt>
<trkpt lat="46.18218555" lon="6.08120654"><ele>416.388184</ele><time>2009-10-20T12:13:04Z</time></trkpt>
<trkpt lat="46.18225680" lon="6.08127359"><ele>416.868896</ele><time>2009-10-20T12:13:05Z</time></trkpt>
<trkpt lat="46.18232746" lon="6.08134417"><ele>417.349609</ele><time>2009-10-20T12:13:06Z</time></trkpt>
<trkpt lat="46.18239552" lon="6.08142019"><ele>417.349609</ele><time>2009-10-20T12:13:07Z</time></trkpt>
<trkpt lat="46.18246199" lon="6.08150326"><ele>417.8302</ele><time>2009-10-20T12:13:08Z</time></trkpt>
<trkpt lat="46.18252879" lon="6.08158607"><ele>418.310791</ele><time>2009-10-20T12:13:09Z</time></trkpt>
<trkpt lat="46.18259735" lon="6.08166696"><ele>418.310791</ele><time>2009-10-20T12:13:10Z</time></trkpt>
<trkpt lat="46.18266692" lon="6.08174424"><ele>418.791504</ele><time>2009-10-20T12:13:11Z</time></trkpt>
<trkpt lat="46.18273666" lon="6.08182294"><ele>419.752808</ele><time>2009-10-20T12:13:12Z</time></trkpt>
<trkpt lat="46.18280883" lon="6.08190232"><ele>420.714111</ele><time>2009-10-20T12:13:13Z</time></trkpt>
<trkpt lat="46.18288117" lon="6.08198069"><ele>421.194824</ele><time>2009-10-20T12:13:14Z</time></trkpt>
<trkpt lat="46.18295208" lon="6.08205722"><ele>421.675415</ele><time>2009-10-20T12:13:15Z</time></trkpt>
<trkpt lat="46.18302315" lon="6.08213140"><ele>421.675415</ele><time>2009-10-20T12:13:16Z</time></trkpt>
<trkpt lat="46.18309272" lon="6.08220843"><ele>421.675415</ele><time>2009-10-20T12:13:17Z</time></trkpt>
<trkpt lat="46.18316146" lon="6.08228504"><ele>421.675415</ele><time>2009-10-20T12:13:18Z</time></trkpt>
<trkpt lat="46.18322776" lon="6.08235997"><ele>421.194824</ele><time>2009-10-20T12:13:19Z</time></trkpt>
<trkpt lat="46.18328576" lon="6.08244077"><ele>421.675415</ele><time>2009-10-20T12:13:20Z</time></trkpt>
<trkpt lat="46.18333999" lon="6.08253214"><ele>423.117432</ele><time>2009-10-20T12:13:21Z</time></trkpt>
<trkpt lat="46.18338970" lon="6.08263196"><ele>424.559448</ele><time>2009-10-20T12:13:22Z</time></trkpt>
<trkpt lat="46.18343529" lon="6.08273867"><ele>425.520752</ele><time>2009-10-20T12:13:23Z</time></trkpt>
<trkpt lat="46.18347913" lon="6.08284730"><ele>426.962769</ele><time>2009-10-20T12:13:24Z</time></trkpt>
<trkpt lat="46.18352339" lon="6.08295408"><ele>428.404663</ele><time>2009-10-20T12:13:25Z</time></trkpt>
<trkpt lat="46.18356798" lon="6.08306070"><ele>429.846558</ele><time>2009-10-20T12:13:26Z</time></trkpt>
<trkpt lat="46.18361156" lon="6.08316815"><ele>431.288574</ele><time>2009-10-20T12:13:27Z</time></trkpt>
<trkpt lat="46.18365574" lon="6.08327645"><ele>432.730713</ele><time>2009-10-20T12:13:28Z</time></trkpt>
<trkpt lat="46.18370184" lon="6.08338458"><ele>434.172607</ele><time>2009-10-20T12:13:29Z</time></trkpt>
<trkpt lat="46.18375079" lon="6.08348675"><ele>435.614502</ele><time>2009-10-20T12:13:30Z</time></trkpt>
<trkpt lat="46.18380410" lon="6.08357384"><ele>436.575928</ele><time>2009-10-20T12:13:31Z</time></trkpt>
<trkpt lat="46.18385917" lon="6.08364224"><ele>437.537109</ele><time>2009-10-20T12:13:32Z</time></trkpt>
<trkpt lat="46.18390786" lon="6.08369437"><ele>438.017822</ele><time>2009-10-20T12:13:33Z</time></trkpt>
<trkpt lat="46.18394835" lon="6.08373184"><ele>438.498535</ele><time>2009-10-20T12:13:34Z</time></trkpt>
<trkpt lat="46.18397517" lon="6.08376813"><ele>437.056519</ele><time>2009-10-20T12:13:35Z</time></trkpt>
<trkpt lat="46.18398037" lon="6.08381457"><ele>435.614502</ele><time>2009-10-20T12:13:36Z</time></trkpt>
<trkpt lat="46.18397609" lon="6.08387073"><ele>435.133911</ele><time>2009-10-20T12:13:37Z</time></trkpt>
<trkpt lat="46.18397056" lon="6.08392756"><ele>435.133911</ele><time>2009-10-20T12:13:38Z</time></trkpt>
<trkpt lat="46.18397349" lon="6.08398707"><ele>435.133911</ele><time>2009-10-20T12:13:39Z</time></trkpt>
<trkpt lat="46.18398448" lon="6.08404993"><ele>435.133911</ele><time>2009-10-20T12:13:40Z</time></trkpt>
<trkpt lat="46.18400685" lon="6.08411497"><ele>434.65332</ele><time>2009-10-20T12:13:41Z</time></trkpt>
<trkpt lat="46.18403234" lon="6.08418128"><ele>434.65332</ele><time>2009-10-20T12:13:42Z</time></trkpt>
<trkpt lat="46.18405614" lon="6.08425185"><ele>434.172607</ele><time>2009-10-20T12:13:43Z</time></trkpt>
<trkpt lat="46.18408154" lon="6.08432595"><ele>434.172607</ele><time>2009-10-20T12:13:44Z</time></trkpt>
<trkpt lat="46.18410828" lon="6.08440088"><ele>433.691895</ele><time>2009-10-20T12:13:45Z</time></trkpt>
<trkpt lat="46.18413468" lon="6.08447598"><ele>433.691895</ele><time>2009-10-20T12:13:46Z</time></trkpt>
<trkpt lat="46.18416184" lon="6.08455067"><ele>433.211304</ele><time>2009-10-20T12:13:47Z</time></trkpt>
<trkpt lat="46.18418883" lon="6.08461856"><ele>432.730713</ele><time>2009-10-20T12:13:48Z</time></trkpt>
<trkpt lat="46.18422017" lon="6.08468377"><ele>432.25</ele><time>2009-10-20T12:13:49Z</time></trkpt>
<trkpt lat="46.18425177" lon="6.08474932"><ele>431.769165</ele><time>2009-10-20T12:13:50Z</time></trkpt>
<trkpt lat="46.18428237" lon="6.08481478"><ele>431.288574</ele><time>2009-10-20T12:13:51Z</time></trkpt>
<trkpt lat="46.18431313" lon="6.08487999"><ele>430.327271</ele><time>2009-10-20T12:13:52Z</time></trkpt>
<trkpt lat="46.18434657" lon="6.08494805"><ele>430.327271</ele><time>2009-10-20T12:13:53Z</time></trkpt>
<trkpt lat="46.18438236" lon="6.08501812"><ele>430.807983</ele><time>2009-10-20T12:13:54Z</time></trkpt>
<trkpt lat="46.18442176" lon="6.08509130"><ele>431.288574</ele><time>2009-10-20T12:13:55Z</time></trkpt>
<trkpt lat="46.18445856" lon="6.08516439"><ele>431.769165</ele><time>2009-10-20T12:13:56Z</time></trkpt>
<trkpt lat="46.18449569" lon="6.08523748"><ele>432.25</ele><time>2009-10-20T12:13:57Z</time></trkpt>
<trkpt lat="46.18453450" lon="6.08530990"><ele>432.730713</ele><time>2009-10-20T12:13:58Z</time></trkpt>
<trkpt lat="46.18457037" lon="6.08538383"><ele>432.730713</ele><time>2009-10-20T12:13:59Z</time></trkpt>
<trkpt lat="46.18460197" lon="6.08545826"><ele>432.730713</ele><time>2009-10-20T12:14:00Z</time></trkpt>
<trkpt lat="46.18463709" lon="6.08553219"><ele>432.25</ele><time>2009-10-20T12:14:01Z</time></trkpt>
<trkpt lat="46.18467196" lon="6.08560276"><ele>431.769165</ele><time>2009-10-20T12:14:02Z</time></trkpt>
<trkpt lat="46.18470783" lon="6.08567736"><ele>431.769165</ele><time>2009-10-20T12:14:03Z</time></trkpt>
<trkpt lat="46.18473784" lon="6.08575515"><ele>432.25</ele><time>2009-10-20T12:14:04Z</time></trkpt>
<trkpt lat="46.18476885" lon="6.08583192"><ele>432.25</ele><time>2009-10-20T12:14:05Z</time></trkpt>
<trkpt lat="46.18479526" lon="6.08590510"><ele>432.25</ele><time>2009-10-20T12:14:06Z</time></trkpt>
<trkpt lat="46.18482669" lon="6.08598188"><ele>432.25</ele><time>2009-10-20T12:14:07Z</time></trkpt>
<trkpt lat="46.18485904" lon="6.08605832"><ele>431.769165</ele><time>2009-10-20T12:14:08Z</time></trkpt>
<trkpt lat="46.18489089" lon="6.08613317"><ele>432.25</ele><time>2009-10-20T12:14:09Z</time></trkpt>
<trkpt lat="46.18492166" lon="6.08620835"><ele>432.25</ele><time>2009-10-20T12:14:10Z</time></trkpt>
<trkpt lat="46.18495166" lon="6.08628446"><ele>432.25</ele><time>2009-10-20T12:14:11Z</time></trkpt>
<trkpt lat="46.18498192" lon="6.08636099"><ele>432.25</ele><time>2009-10-20T12:14:12Z</time></trkpt>
<trkpt lat="46.18501285" lon="6.08643718"><ele>431.769165</ele><time>2009-10-20T12:14:13Z</time></trkpt>
<trkpt lat="46.18504277" lon="6.08651379"><ele>431.769165</ele><time>2009-10-20T12:14:14Z</time></trkpt>
<trkpt lat="46.18507178" lon="6.08659023"><ele>431.769165</ele><time>2009-10-20T12:14:15Z</time></trkpt>
<trkpt lat="46.18510019" lon="6.08666567"><ele>431.769165</ele><time>2009-10-20T12:14:16Z</time></trkpt>
<trkpt lat="46.18512986" lon="6.08674136"><ele>432.25</ele><time>2009-10-20T12:14:17Z</time></trkpt>
<trkpt lat="46.18515979" lon="6.08681755"><ele>432.730713</ele><time>2009-10-20T12:14:18Z</time></trkpt>
<trkpt lat="46.18518946" lon="6.08688989"><ele>433.211304</ele><time>2009-10-20T12:14:19Z</time></trkpt>
<trkpt lat="46.18521930" lon="6.08695569"><ele>434.65332</ele><time>2009-10-20T12:14:20Z</time></trkpt>
<trkpt lat="46.18523992" lon="6.08700698"><ele>435.614502</ele><time>2009-10-20T12:14:21Z</time></trkpt>
<trkpt lat="46.18525458" lon="6.08704252"><ele>436.575928</ele><time>2009-10-20T12:14:22Z</time></trkpt>
<trkpt lat="46.18526313" lon="6.08706876"><ele>437.056519</ele><time>2009-10-20T12:14:23Z</time></trkpt>
<trkpt lat="46.18526733" lon="6.08709357"><ele>436.575928</ele><time>2009-10-20T12:14:24Z</time></trkpt>
<trkpt lat="46.18527998" lon="6.08712802"><ele>437.056519</ele><time>2009-10-20T12:14:25Z</time></trkpt>
<trkpt lat="46.18529909" lon="6.08717127"><ele>437.537109</ele><time>2009-10-20T12:14:26Z</time></trkpt>
<trkpt lat="46.18531636" lon="6.08721980"><ele>437.056519</ele><time>2009-10-20T12:14:27Z</time></trkpt>
<trkpt lat="46.18533086" lon="6.08727302"><ele>435.133911</ele><time>2009-10-20T12:14:28Z</time></trkpt>
<trkpt lat="46.18534863" lon="6.08733404"><ele>434.172607</ele><time>2009-10-20T12:14:29Z</time></trkpt>
<trkpt lat="46.18536967" lon="6.08739909"><ele>432.730713</ele><time>2009-10-20T12:14:30Z</time></trkpt>
<trkpt lat="46.18539758" lon="6.08746933"><ele>432.730713</ele><time>2009-10-20T12:14:31Z</time></trkpt>
<trkpt lat="46.18542759" lon="6.08754485"><ele>432.730713</ele><time>2009-10-20T12:14:32Z</time></trkpt>
<trkpt lat="46.18545483" lon="6.08762490"><ele>432.730713</ele><time>2009-10-20T12:14:33Z</time></trkpt>
<trkpt lat="46.18548274" lon="6.08770687"><ele>432.730713</ele><time>2009-10-20T12:14:34Z</time></trkpt>
<trkpt lat="46.18551300" lon="6.08778977"><ele>433.211304</ele><time>2009-10-20T12:14:35Z</time></trkpt>
<trkpt lat="46.18554292" lon="6.08787484"><ele>433.691895</ele><time>2009-10-20T12:14:36Z</time></trkpt>
<trkpt lat="46.18557469" lon="6.08795715"><ele>433.691895</ele><time>2009-10-20T12:14:37Z</time></trkpt>
<trkpt lat="46.18560587" lon="6.08803653"><ele>433.691895</ele><time>2009-10-20T12:14:38Z</time></trkpt>
<trkpt lat="46.18564149" lon="6.08811499"><ele>434.65332</ele><time>2009-10-20T12:14:39Z</time></trkpt>
<trkpt lat="46.18567829" lon="6.08819528"><ele>435.133911</ele><time>2009-10-20T12:14:40Z</time></trkpt>
<trkpt lat="46.18571643" lon="6.08827843"><ele>436.575928</ele><time>2009-10-20T12:14:41Z</time></trkpt>
<trkpt lat="46.18575180" lon="6.08835764"><ele>437.537109</ele><time>2009-10-20T12:14:42Z</time></trkpt>
<trkpt lat="46.18578348" lon="6.08843409"><ele>438.017822</ele><time>2009-10-20T12:14:43Z</time></trkpt>
<trkpt lat="46.18581408" lon="6.08851422"><ele>438.498535</ele><time>2009-10-20T12:14:44Z</time></trkpt>
<trkpt lat="46.18583998" lon="6.08859628"><ele>438.979126</ele><time>2009-10-20T12:14:45Z</time></trkpt>
<trkpt lat="46.18585984" lon="6.08867942"><ele>438.498535</ele><time>2009-10-20T12:14:46Z</time></trkpt>
<trkpt lat="46.18588088" lon="6.08876475"><ele>437.537109</ele><time>2009-10-20T12:14:47Z</time></trkpt>
<trkpt lat="46.18590586" lon="6.08885259"><ele>436.575928</ele><time>2009-10-20T12:14:48Z</time></trkpt>
<trkpt lat="46.18592782" lon="6.08893809"><ele>435.133911</ele><time>2009-10-20T12:14:49Z</time></trkpt>
<trkpt lat="46.18594794" lon="6.08903163"><ele>434.172607</ele><time>2009-10-20T12:14:50Z</time></trkpt>
<trkpt lat="46.18596814" lon="6.08912693"><ele>433.211304</ele><time>2009-10-20T12:14:51Z</time></trkpt>
<trkpt lat="46.18598607" lon="6.08922450"><ele>432.25</ele><time>2009-10-20T12:14:52Z</time></trkpt>
<trkpt lat="46.18599957" lon="6.08932433"><ele>431.288574</ele><time>2009-10-20T12:14:53Z</time></trkpt>
<trkpt lat="46.18600468" lon="6.08942323"><ele>429.846558</ele><time>2009-10-20T12:14:54Z</time></trkpt>
<trkpt lat="46.18599479" lon="6.08952214"><ele>428.885376</ele><time>2009-10-20T12:14:55Z</time></trkpt>
<trkpt lat="46.18596973" lon="6.08961007"><ele>427.443359</ele><time>2009-10-20T12:14:56Z</time></trkpt>
<trkpt lat="46.18592732" lon="6.08968198"><ele>426.962769</ele><time>2009-10-20T12:14:57Z</time></trkpt>
<trkpt lat="46.18586797" lon="6.08973756"><ele>426.482056</ele><time>2009-10-20T12:14:58Z</time></trkpt>
<trkpt lat="46.18580318" lon="6.08978014"><ele>425.520752</ele><time>2009-10-20T12:14:59Z</time></trkpt>
<trkpt lat="46.18573763" lon="6.08981785"><ele>425.040161</ele><time>2009-10-20T12:15:00Z</time></trkpt>
<trkpt lat="46.18567192" lon="6.08985566"><ele>424.559448</ele><time>2009-10-20T12:15:01Z</time></trkpt>
<trkpt lat="46.18560478" lon="6.08989455"><ele>424.078735</ele><time>2009-10-20T12:15:02Z</time></trkpt>
<trkpt lat="46.18553823" lon="6.08993419"><ele>423.598022</ele><time>2009-10-20T12:15:03Z</time></trkpt>
<trkpt lat="46.18547335" lon="6.08997409"><ele>423.598022</ele><time>2009-10-20T12:15:04Z</time></trkpt>
<trkpt lat="46.18540940" lon="6.09001500"><ele>423.598022</ele><time>2009-10-20T12:15:05Z</time></trkpt>
<trkpt lat="46.18534662" lon="6.09005506"><ele>423.598022</ele><time>2009-10-20T12:15:06Z</time></trkpt>
<trkpt lat="46.18528468" lon="6.09009437"><ele>424.078735</ele><time>2009-10-20T12:15:07Z</time></trkpt>
<trkpt lat="46.18522307" lon="6.09013394"><ele>424.078735</ele><time>2009-10-20T12:15:08Z</time></trkpt>
<trkpt lat="46.18516356" lon="6.09017283"><ele>424.078735</ele><time>2009-10-20T12:15:09Z</time></trkpt>
<trkpt lat="46.18510815" lon="6.09020208"><ele>425.040161</ele><time>2009-10-20T12:15:10Z</time></trkpt>
<trkpt lat="46.18505342" lon="6.09021809"><ele>425.520752</ele><time>2009-10-20T12:15:11Z</time></trkpt>
<trkpt lat="46.18500036" lon="6.09022748"><ele>426.001343</ele><time>2009-10-20T12:15:12Z</time></trkpt>
<trkpt lat="46.18495225" lon="6.09025497"><ele>426.482056</ele><time>2009-10-20T12:15:13Z</time></trkpt>
<trkpt lat="46.18491646" lon="6.09030484"><ele>426.962769</ele><time>2009-10-20T12:15:14Z</time></trkpt>
<trkpt lat="46.18490213" lon="6.09037357"><ele>427.443359</ele><time>2009-10-20T12:15:15Z</time></trkpt>
<trkpt lat="46.18490405" lon="6.09045362"><ele>427.443359</ele><time>2009-10-20T12:15:16Z</time></trkpt>
<trkpt lat="46.18491738" lon="6.09053836"><ele>427.92395</ele><time>2009-10-20T12:15:17Z</time></trkpt>
<trkpt lat="46.18492534" lon="6.09062646"><ele>427.92395</ele><time>2009-10-20T12:15:18Z</time></trkpt>
<trkpt lat="46.18493163" lon="6.09072084"><ele>427.92395</ele><time>2009-10-20T12:15:19Z</time></trkpt>
<trkpt lat="46.18493515" lon="6.09081874"><ele>427.443359</ele><time>2009-10-20T12:15:20Z</time></trkpt>
<trkpt lat="46.18493783" lon="6.09091823"><ele>427.443359</ele><time>2009-10-20T12:15:21Z</time></trkpt>
<trkpt lat="46.18493733" lon="6.09101890"><ele>427.443359</ele><time>2009-10-20T12:15:22Z</time></trkpt>
<trkpt lat="46.18493440" lon="6.09111847"><ele>427.443359</ele><time>2009-10-20T12:15:23Z</time></trkpt>
<trkpt lat="46.18492953" lon="6.09121679"><ele>427.92395</ele><time>2009-10-20T12:15:24Z</time></trkpt>
<trkpt lat="46.18492249" lon="6.09131645"><ele>427.92395</ele><time>2009-10-20T12:15:25Z</time></trkpt>
<trkpt lat="46.18491797" lon="6.09141092"><ele>428.404663</ele><time>2009-10-20T12:15:26Z</time></trkpt>
<trkpt lat="46.18491369" lon="6.09150530"><ele>428.404663</ele><time>2009-10-20T12:15:27Z</time></trkpt>
<trkpt lat="46.18490623" lon="6.09160152"><ele>427.92395</ele><time>2009-10-20T12:15:28Z</time></trkpt>
<trkpt lat="46.18489869" lon="6.09169884"><ele>427.92395</ele><time>2009-10-20T12:15:29Z</time></trkpt>
<trkpt lat="46.18489048" lon="6.09179883"><ele>427.443359</ele><time>2009-10-20T12:15:30Z</time></trkpt>
<trkpt lat="46.18488226" lon="6.09189237"><ele>427.443359</ele><time>2009-10-20T12:15:31Z</time></trkpt>
<trkpt lat="46.18487539" lon="6.09198248"><ele>427.443359</ele><time>2009-10-20T12:15:32Z</time></trkpt>
<trkpt lat="46.18486868" lon="6.09207979"><ele>426.962769</ele><time>2009-10-20T12:15:33Z</time></trkpt>
<trkpt lat="46.18485946" lon="6.09217619"><ele>427.443359</ele><time>2009-10-20T12:15:34Z</time></trkpt>
<trkpt lat="46.18484773" lon="6.09227275"><ele>427.443359</ele><time>2009-10-20T12:15:35Z</time></trkpt>
<trkpt lat="46.18483406" lon="6.09236872"><ele>426.962769</ele><time>2009-10-20T12:15:36Z</time></trkpt>
<trkpt lat="46.18481806" lon="6.09247047"><ele>426.001343</ele><time>2009-10-20T12:15:37Z</time></trkpt>
<trkpt lat="46.18479953" lon="6.09256636"><ele>425.520752</ele><time>2009-10-20T12:15:38Z</time></trkpt>
<trkpt lat="46.18478545" lon="6.09265840"><ele>425.040161</ele><time>2009-10-20T12:15:39Z</time></trkpt>
<trkpt lat="46.18477053" lon="6.09275294"><ele>424.559448</ele><time>2009-10-20T12:15:40Z</time></trkpt>
<trkpt lat="46.18475377" lon="6.09289854"><ele>423.598022</ele><time>2009-10-20T12:15:41Z</time></trkpt>
<trkpt lat="46.18473088" lon="6.09300273"><ele>423.598022</ele><time>2009-10-20T12:15:42Z</time></trkpt>
<trkpt lat="46.18470867" lon="6.09311965"><ele>423.117432</ele><time>2009-10-20T12:15:43Z</time></trkpt>
<trkpt lat="46.18468713" lon="6.09321336"><ele>422.636719</ele><time>2009-10-20T12:15:44Z</time></trkpt>
<trkpt lat="46.18466542" lon="6.09332157"><ele>422.636719</ele><time>2009-10-20T12:15:45Z</time></trkpt>
<trkpt lat="46.18464254" lon="6.09342626"><ele>422.156006</ele><time>2009-10-20T12:15:46Z</time></trkpt>
<trkpt lat="46.18461840" lon="6.09351704"><ele>421.675415</ele><time>2009-10-20T12:15:47Z</time></trkpt>
<trkpt lat="46.18459032" lon="6.09361586"><ele>421.675415</ele><time>2009-10-20T12:15:48Z</time></trkpt>
<trkpt lat="46.18455813" lon="6.09371720"><ele>421.675415</ele><time>2009-10-20T12:15:49Z</time></trkpt>
<trkpt lat="46.18452620" lon="6.09381929"><ele>420.714111</ele><time>2009-10-20T12:15:50Z</time></trkpt>
<trkpt lat="46.18449409" lon="6.09391769"><ele>420.714111</ele><time>2009-10-20T12:15:51Z</time></trkpt>
<trkpt lat="46.18446166" lon="6.09401308"><ele>420.714111</ele><time>2009-10-20T12:15:52Z</time></trkpt>
<trkpt lat="46.18442805" lon="6.09410939"><ele>420.233398</ele><time>2009-10-20T12:15:53Z</time></trkpt>
<trkpt lat="46.18439410" lon="6.09420553"><ele>420.233398</ele><time>2009-10-20T12:15:54Z</time></trkpt>
<trkpt lat="46.18436082" lon="6.09429966"><ele>419.752808</ele><time>2009-10-20T12:15:55Z</time></trkpt>
<trkpt lat="46.18431154" lon="6.09438348"><ele>421.194824</ele><time>2009-10-20T12:15:56Z</time></trkpt>
<trkpt lat="46.18427508" lon="6.09448708"><ele>421.194824</ele><time>2009-10-20T12:15:57Z</time></trkpt>
<trkpt lat="46.18424213" lon="6.09458808"><ele>421.675415</ele><time>2009-10-20T12:15:58Z</time></trkpt>
<trkpt lat="46.18421489" lon="6.09468355"><ele>421.675415</ele><time>2009-10-20T12:15:59Z</time></trkpt>
<trkpt lat="46.18418346" lon="6.09477575"><ele>421.675415</ele><time>2009-10-20T12:16:00Z</time></trkpt>
<trkpt lat="46.18415027" lon="6.09486309"><ele>421.675415</ele><time>2009-10-20T12:16:01Z</time></trkpt>
<trkpt lat="46.18411942" lon="6.09495185"><ele>421.675415</ele><time>2009-10-20T12:16:02Z</time></trkpt>
<trkpt lat="46.18409009" lon="6.09504615"><ele>421.675415</ele><time>2009-10-20T12:16:03Z</time></trkpt>
<trkpt lat="46.18405924" lon="6.09514455"><ele>421.675415</ele><time>2009-10-20T12:16:04Z</time></trkpt>
<trkpt lat="46.18402806" lon="6.09524069"><ele>421.194824</ele><time>2009-10-20T12:16:05Z</time></trkpt>
<trkpt lat="46.18399688" lon="6.09533172"><ele>421.194824</ele><time>2009-10-20T12:16:06Z</time></trkpt>
<trkpt lat="46.18396595" lon="6.09541998"><ele>420.714111</ele><time>2009-10-20T12:16:07Z</time></trkpt>
<trkpt lat="46.18393578" lon="6.09550699"><ele>420.714111</ele><time>2009-10-20T12:16:08Z</time></trkpt>
<trkpt lat="46.18390518" lon="6.09559533"><ele>420.714111</ele><time>2009-10-20T12:16:09Z</time></trkpt>
<trkpt lat="46.18387409" lon="6.09568443"><ele>421.194824</ele><time>2009-10-20T12:16:10Z</time></trkpt>
<trkpt lat="46.18384349" lon="6.09577445"><ele>421.194824</ele><time>2009-10-20T12:16:11Z</time></trkpt>
<trkpt lat="46.18381307" lon="6.09586372"><ele>421.194824</ele><time>2009-10-20T12:16:12Z</time></trkpt>
<trkpt lat="46.18378348" lon="6.09595450"><ele>421.194824</ele><time>2009-10-20T12:16:13Z</time></trkpt>
<trkpt lat="46.18375339" lon="6.09604527"><ele>421.194824</ele><time>2009-10-20T12:16:14Z</time></trkpt>
<trkpt lat="46.18372355" lon="6.09613504"><ele>421.675415</ele><time>2009-10-20T12:16:15Z</time></trkpt>
<trkpt lat="46.18369195" lon="6.09622272"><ele>421.675415</ele><time>2009-10-20T12:16:16Z</time></trkpt>
<trkpt lat="46.18366328" lon="6.09630184"><ele>421.194824</ele><time>2009-10-20T12:16:17Z</time></trkpt>
<trkpt lat="46.18363529" lon="6.09638323"><ele>421.194824</ele><time>2009-10-20T12:16:18Z</time></trkpt>
<trkpt lat="46.18360519" lon="6.09647468"><ele>421.194824</ele><time>2009-10-20T12:16:19Z</time></trkpt>
<trkpt lat="46.18357519" lon="6.09656503"><ele>420.714111</ele><time>2009-10-20T12:16:20Z</time></trkpt>
<trkpt lat="46.18354568" lon="6.09665313"><ele>420.714111</ele><time>2009-10-20T12:16:21Z</time></trkpt>
<trkpt lat="46.18351593" lon="6.09674114"><ele>420.714111</ele><time>2009-10-20T12:16:22Z</time></trkpt>
<trkpt lat="46.18348625" lon="6.09682906"><ele>420.714111</ele><time>2009-10-20T12:16:23Z</time></trkpt>
<trkpt lat="46.18345767" lon="6.09691557"><ele>420.714111</ele><time>2009-10-20T12:16:24Z</time></trkpt>
<trkpt lat="46.18342867" lon="6.09700098"><ele>420.714111</ele><time>2009-10-20T12:16:25Z</time></trkpt>
<trkpt lat="46.18339464" lon="6.09708413"><ele>421.194824</ele><time>2009-10-20T12:16:26Z</time></trkpt>
<trkpt lat="46.18335206" lon="6.09714674"><ele>421.194824</ele><time>2009-10-20T12:16:27Z</time></trkpt>
<trkpt lat="46.18329875" lon="6.09719435"><ele>421.194824</ele><time>2009-10-20T12:16:28Z</time></trkpt>
<trkpt lat="46.18324117" lon="6.09724984"><ele>421.675415</ele><time>2009-10-20T12:16:29Z</time></trkpt>
<trkpt lat="46.18319239" lon="6.09729988"><ele>422.156006</ele><time>2009-10-20T12:16:30Z</time></trkpt>
<trkpt lat="46.18315148" lon="6.09735109"><ele>423.117432</ele><time>2009-10-20T12:16:31Z</time></trkpt>
<trkpt lat="46.18311343" lon="6.09740138"><ele>424.559448</ele><time>2009-10-20T12:16:32Z</time></trkpt>
<trkpt lat="46.18308912" lon="6.09743499"><ele>425.040161</ele><time>2009-10-20T12:16:33Z</time></trkpt>
<trkpt lat="46.18307336" lon="6.09745905"><ele>426.001343</ele><time>2009-10-20T12:16:34Z</time></trkpt>
<trkpt lat="46.18306356" lon="6.09747715"><ele>426.482056</ele><time>2009-10-20T12:16:35Z</time></trkpt>
<trkpt lat="46.18305559" lon="6.09749132"><ele>427.92395</ele><time>2009-10-20T12:16:36Z</time></trkpt>
<trkpt lat="46.18305014" lon="6.09750423"><ele>428.885376</ele><time>2009-10-20T12:16:37Z</time></trkpt>
<trkpt lat="46.18304294" lon="6.09752032"><ele>429.846558</ele><time>2009-10-20T12:16:38Z</time></trkpt>
<trkpt lat="46.18303724" lon="6.09753725"><ele>431.288574</ele><time>2009-10-20T12:16:39Z</time></trkpt>
<trkpt lat="46.18303799" lon="6.09754723"><ele>431.288574</ele><time>2009-10-20T12:16:40Z</time></trkpt>
<trkpt lat="46.18304009" lon="6.09755184"><ele>431.769165</ele><time>2009-10-20T12:16:41Z</time></trkpt>
<trkpt lat="46.18303807" lon="6.09756307"><ele>432.25</ele><time>2009-10-20T12:16:42Z</time></trkpt>
<trkpt lat="46.18303380" lon="6.09758578"><ele>432.730713</ele><time>2009-10-20T12:16:43Z</time></trkpt>
<trkpt lat="46.18303640" lon="6.09760674"><ele>432.730713</ele><time>2009-10-20T12:16:44Z</time></trkpt>
<trkpt lat="46.18304595" lon="6.09763063"><ele>432.730713</ele><time>2009-10-20T12:16:45Z</time></trkpt>
<trkpt lat="46.18305995" lon="6.09765996"><ele>432.730713</ele><time>2009-10-20T12:16:46Z</time></trkpt>
<trkpt lat="46.18307395" lon="6.09769039"><ele>432.730713</ele><time>2009-10-20T12:16:47Z</time></trkpt>
<trkpt lat="46.18308895" lon="6.09772006"><ele>433.211304</ele><time>2009-10-20T12:16:48Z</time></trkpt>
<trkpt lat="46.18310530" lon="6.09775208"><ele>433.211304</ele><time>2009-10-20T12:16:49Z</time></trkpt>
<trkpt lat="46.18312164" lon="6.09779055"><ele>433.691895</ele><time>2009-10-20T12:16:50Z</time></trkpt>
<trkpt lat="46.18314025" lon="6.09782919"><ele>434.172607</ele><time>2009-10-20T12:16:51Z</time></trkpt>
<trkpt lat="46.18315877" lon="6.09787026"><ele>434.172607</ele><time>2009-10-20T12:16:52Z</time></trkpt>
<trkpt lat="46.18317755" lon="6.09791083"><ele>434.172607</ele><time>2009-10-20T12:16:53Z</time></trkpt>
<trkpt lat="46.18319599" lon="6.09796892"><ele>435.133911</ele><time>2009-10-20T12:16:54Z</time></trkpt>
<trkpt lat="46.18321686" lon="6.09802810"><ele>436.095215</ele><time>2009-10-20T12:16:55Z</time></trkpt>
<trkpt lat="46.18324033" lon="6.09809096"><ele>437.056519</ele><time>2009-10-20T12:16:56Z</time></trkpt>
<trkpt lat="46.18326237" lon="6.09815449"><ele>437.537109</ele><time>2009-10-20T12:16:57Z</time></trkpt>
<trkpt lat="46.18328459" lon="6.09822054"><ele>438.498535</ele><time>2009-10-20T12:16:58Z</time></trkpt>
<trkpt lat="46.18330646" lon="6.09828777"><ele>439.459717</ele><time>2009-10-20T12:16:59Z</time></trkpt>
<trkpt lat="46.18333002" lon="6.09835600"><ele>440.421265</ele><time>2009-10-20T12:17:00Z</time></trkpt>
<trkpt lat="46.18335122" lon="6.09842515"><ele>440.421265</ele><time>2009-10-20T12:17:01Z</time></trkpt>
<trkpt lat="46.18337159" lon="6.09849153"><ele>439.94043</ele><time>2009-10-20T12:17:02Z</time></trkpt>
<trkpt lat="46.18339405" lon="6.09855750"><ele>440.421265</ele><time>2009-10-20T12:17:03Z</time></trkpt>
<trkpt lat="46.18341794" lon="6.09862053"><ele>440.421265</ele><time>2009-10-20T12:17:04Z</time></trkpt>
<trkpt lat="46.18344049" lon="6.09868448"><ele>440.901855</ele><time>2009-10-20T12:17:05Z</time></trkpt>
<trkpt lat="46.18346664" lon="6.09874919"><ele>440.901855</ele><time>2009-10-20T12:17:06Z</time></trkpt>
<trkpt lat="46.18349589" lon="6.09881566"><ele>441.863159</ele><time>2009-10-20T12:17:07Z</time></trkpt>
<trkpt lat="46.18352724" lon="6.09888162"><ele>442.343872</ele><time>2009-10-20T12:17:08Z</time></trkpt>
<trkpt lat="46.18355683" lon="6.09895438"><ele>442.343872</ele><time>2009-10-20T12:17:09Z</time></trkpt>
<trkpt lat="46.18358432" lon="6.09902345"><ele>441.863159</ele><time>2009-10-20T12:17:10Z</time></trkpt>
<trkpt lat="46.18361282" lon="6.09909603"><ele>440.901855</ele><time>2009-10-20T12:17:11Z</time></trkpt>
<trkpt lat="46.18364375" lon="6.09917063"><ele>439.94043</ele><time>2009-10-20T12:17:12Z</time></trkpt>
<trkpt lat="46.18367175" lon="6.09924724"><ele>438.979126</ele><time>2009-10-20T12:17:13Z</time></trkpt>
<trkpt lat="46.18370083" lon="6.09932452"><ele>438.017822</ele><time>2009-10-20T12:17:14Z</time></trkpt>
<trkpt lat="46.18372925" lon="6.09939862"><ele>436.575928</ele><time>2009-10-20T12:17:15Z</time></trkpt>
<trkpt lat="46.18376034" lon="6.09947414"><ele>436.575928</ele><time>2009-10-20T12:17:16Z</time></trkpt>
<trkpt lat="46.18378675" lon="6.09954757"><ele>436.095215</ele><time>2009-10-20T12:17:17Z</time></trkpt>
<trkpt lat="46.18381793" lon="6.09962150"><ele>438.017822</ele><time>2009-10-20T12:17:18Z</time></trkpt>
<trkpt lat="46.18385112" lon="6.09971629"><ele>438.979126</ele><time>2009-10-20T12:17:19Z</time></trkpt>
<trkpt lat="46.18386419" lon="6.09976893"><ele>438.498535</ele><time>2009-10-20T12:17:20Z</time></trkpt>
<trkpt lat="46.18387082" lon="6.09980858"><ele>438.979126</ele><time>2009-10-20T12:17:21Z</time></trkpt>
<trkpt lat="46.18387023" lon="6.09985200"><ele>438.498535</ele><time>2009-10-20T12:17:22Z</time></trkpt>
<trkpt lat="46.18388255" lon="6.09990254"><ele>438.498535</ele><time>2009-10-20T12:17:23Z</time></trkpt>
<trkpt lat="46.18390158" lon="6.09994085"><ele>436.575928</ele><time>2009-10-20T12:17:24Z</time></trkpt>
<trkpt lat="46.18393418" lon="6.09996893"><ele>435.133911</ele><time>2009-10-20T12:17:25Z</time></trkpt>
<trkpt lat="46.18397458" lon="6.09999684"><ele>433.211304</ele><time>2009-10-20T12:17:26Z</time></trkpt>
<trkpt lat="46.18402169" lon="6.10002492"><ele>432.730713</ele><time>2009-10-20T12:17:27Z</time></trkpt>
<trkpt lat="46.18406855" lon="6.10005132"><ele>432.25</ele><time>2009-10-20T12:17:28Z</time></trkpt>
<trkpt lat="46.18412227" lon="6.10008694"><ele>431.769165</ele><time>2009-10-20T12:17:29Z</time></trkpt>
<trkpt lat="46.18417759" lon="6.10012625"><ele>431.288574</ele><time>2009-10-20T12:17:30Z</time></trkpt>
<trkpt lat="46.18423258" lon="6.10016925"><ele>430.807983</ele><time>2009-10-20T12:17:31Z</time></trkpt>
<trkpt lat="46.18428648" lon="6.10021695"><ele>430.327271</ele><time>2009-10-20T12:17:32Z</time></trkpt>
<trkpt lat="46.18433492" lon="6.10027193"><ele>429.846558</ele><time>2009-10-20T12:17:33Z</time></trkpt>
<trkpt lat="46.18437893" lon="6.10030873"><ele>430.807983</ele><time>2009-10-20T12:17:34Z</time></trkpt>
<trkpt lat="46.18442369" lon="6.10036807"><ele>430.807983</ele><time>2009-10-20T12:17:35Z</time></trkpt>
<trkpt lat="46.18447079" lon="6.10042842"><ele>430.807983</ele><time>2009-10-20T12:17:36Z</time></trkpt>
<trkpt lat="46.18451656" lon="6.10048969"><ele>430.807983</ele><time>2009-10-20T12:17:37Z</time></trkpt>
<trkpt lat="46.18456878" lon="6.10053982"><ele>430.807983</ele><time>2009-10-20T12:17:38Z</time></trkpt>
<trkpt lat="46.18462242" lon="6.10059757"><ele>430.807983</ele><time>2009-10-20T12:17:39Z</time></trkpt>
<trkpt lat="46.18465134" lon="6.10061257"><ele>433.691895</ele><time>2009-10-20T12:17:40Z</time></trkpt>
<trkpt lat="46.18466509" lon="6.10061525"><ele>437.537109</ele><time>2009-10-20T12:17:41Z</time></trkpt>
<trkpt lat="46.18472208" lon="6.10071265"><ele>437.537109</ele><time>2009-10-20T12:17:42Z</time></trkpt>
<trkpt lat="46.18476248" lon="6.10078239"><ele>438.017822</ele><time>2009-10-20T12:17:43Z</time></trkpt>
<trkpt lat="46.18482208" lon="6.10086218"><ele>437.537109</ele><time>2009-10-20T12:17:44Z</time></trkpt>
<trkpt lat="46.18486156" lon="6.10094500"><ele>438.498535</ele><time>2009-10-20T12:17:45Z</time></trkpt>
<trkpt lat="46.18486994" lon="6.10101113"><ele>438.017822</ele><time>2009-10-20T12:17:46Z</time></trkpt>
<trkpt lat="46.18489089" lon="6.10101742"><ele>435.133911</ele><time>2009-10-20T12:17:47Z</time></trkpt>
<trkpt lat="46.18490565" lon="6.10103309"><ele>433.691895</ele><time>2009-10-20T12:17:48Z</time></trkpt>
<trkpt lat="46.18492526" lon="6.10104709"><ele>432.25</ele><time>2009-10-20T12:17:49Z</time></trkpt>
<trkpt lat="46.18495552" lon="6.10105120"><ele>431.288574</ele><time>2009-10-20T12:17:50Z</time></trkpt>
<trkpt lat="46.18498670" lon="6.10103443"><ele>431.288574</ele><time>2009-10-20T12:17:51Z</time></trkpt>
<trkpt lat="46.18502643" lon="6.10099856"><ele>431.769165</ele><time>2009-10-20T12:17:52Z</time></trkpt>
<trkpt lat="46.18507404" lon="6.10097920"><ele>431.769165</ele><time>2009-10-20T12:17:53Z</time></trkpt>
<trkpt lat="46.18512617" lon="6.10096654"><ele>431.288574</ele><time>2009-10-20T12:17:54Z</time></trkpt>
<trkpt lat="46.18518326" lon="6.10095095"><ele>431.769165</ele><time>2009-10-20T12:17:55Z</time></trkpt>
<trkpt lat="46.18524545" lon="6.10092647"><ele>432.25</ele><time>2009-10-20T12:17:56Z</time></trkpt>
<trkpt lat="46.18531267" lon="6.10090083"><ele>432.730713</ele><time>2009-10-20T12:17:57Z</time></trkpt>
<trkpt lat="46.18538543" lon="6.10088163"><ele>432.730713</ele><time>2009-10-20T12:17:58Z</time></trkpt>
<trkpt lat="46.18545307" lon="6.10085389"><ele>432.730713</ele><time>2009-10-20T12:17:59Z</time></trkpt>
<trkpt lat="46.18552155" lon="6.10082396"><ele>433.211304</ele><time>2009-10-20T12:18:00Z</time></trkpt>
<trkpt lat="46.18559548" lon="6.10079664"><ele>433.211304</ele><time>2009-10-20T12:18:01Z</time></trkpt>
<trkpt lat="46.18566790" lon="6.10076252"><ele>433.211304</ele><time>2009-10-20T12:18:02Z</time></trkpt>
<trkpt lat="46.18574434" lon="6.10072975"><ele>433.211304</ele><time>2009-10-20T12:18:03Z</time></trkpt>
<trkpt lat="46.18582229" lon="6.10069857"><ele>433.211304</ele><time>2009-10-20T12:18:04Z</time></trkpt>
<trkpt lat="46.18589597" lon="6.10066672"><ele>433.211304</ele><time>2009-10-20T12:18:05Z</time></trkpt>
<trkpt lat="46.18597342" lon="6.10063185"><ele>434.172607</ele><time>2009-10-20T12:18:06Z</time></trkpt>
<trkpt lat="46.18605279" lon="6.10059883"><ele>433.691895</ele><time>2009-10-20T12:18:07Z</time></trkpt>
<trkpt lat="46.18613645" lon="6.10056454"><ele>434.65332</ele><time>2009-10-20T12:18:08Z</time></trkpt>
<trkpt lat="46.18622135" lon="6.10053244"><ele>435.614502</ele><time>2009-10-20T12:18:09Z</time></trkpt>
<trkpt lat="46.18630568" lon="6.10050034"><ele>437.056519</ele><time>2009-10-20T12:18:10Z</time></trkpt>
<trkpt lat="46.18638748" lon="6.10047108"><ele>438.498535</ele><time>2009-10-20T12:18:11Z</time></trkpt>
<trkpt lat="46.18646426" lon="6.10044426"><ele>440.421265</ele><time>2009-10-20T12:18:12Z</time></trkpt>
<trkpt lat="46.18654045" lon="6.10042322"><ele>441.863159</ele><time>2009-10-20T12:18:13Z</time></trkpt>
<trkpt lat="46.18661874" lon="6.10040386"><ele>443.305054</ele><time>2009-10-20T12:18:14Z</time></trkpt>
<trkpt lat="46.18669795" lon="6.10038492"><ele>444.74707</ele><time>2009-10-20T12:18:15Z</time></trkpt>
<trkpt lat="46.18677699" lon="6.10036748"><ele>446.189087</ele><time>2009-10-20T12:18:16Z</time></trkpt>
<trkpt lat="46.18686399" lon="6.10034863"><ele>449.072998</ele><time>2009-10-20T12:18:17Z</time></trkpt>
<trkpt lat="46.18694899" lon="6.10033647"><ele>450.995605</ele><time>2009-10-20T12:18:18Z</time></trkpt>
<trkpt lat="46.18703566" lon="6.10032784"><ele>452.437622</ele><time>2009-10-20T12:18:19Z</time></trkpt>
<trkpt lat="46.18711964" lon="6.10033773"><ele>449.553711</ele><time>2009-10-20T12:18:20Z</time></trkpt>
<trkpt lat="46.18720665" lon="6.10034502"><ele>449.072998</ele><time>2009-10-20T12:18:21Z</time></trkpt>
<trkpt lat="46.18729248" lon="6.10036103"><ele>447.150269</ele><time>2009-10-20T12:18:22Z</time></trkpt>
<trkpt lat="46.18737563" lon="6.10035994"><ele>445.708374</ele><time>2009-10-20T12:18:23Z</time></trkpt>
<trkpt lat="46.18743388" lon="6.10039003"><ele>444.266479</ele><time>2009-10-20T12:18:24Z</time></trkpt>
<trkpt lat="46.18751275" lon="6.10039657"><ele>443.785767</ele><time>2009-10-20T12:18:25Z</time></trkpt>
<trkpt lat="46.18759196" lon="6.10039473"><ele>442.343872</ele><time>2009-10-20T12:18:26Z</time></trkpt>
<trkpt lat="46.18768048" lon="6.10038509"><ele>440.901855</ele><time>2009-10-20T12:18:27Z</time></trkpt>
<trkpt lat="46.18776882" lon="6.10035583"><ele>440.421265</ele><time>2009-10-20T12:18:28Z</time></trkpt>
<trkpt lat="46.18783697" lon="6.10025626"><ele>442.824463</ele><time>2009-10-20T12:18:29Z</time></trkpt>
<trkpt lat="46.18791743" lon="6.10019817"><ele>442.824463</ele><time>2009-10-20T12:18:30Z</time></trkpt>
<trkpt lat="46.18804207" lon="6.10012684"><ele>442.343872</ele><time>2009-10-20T12:18:31Z</time></trkpt>
<trkpt lat="46.18815036" lon="6.10006046"><ele>442.824463</ele><time>2009-10-20T12:18:32Z</time></trkpt>
<trkpt lat="46.18825732" lon="6.09999415"><ele>443.305054</ele><time>2009-10-20T12:18:33Z</time></trkpt>
<trkpt lat="46.18835555" lon="6.09993054"><ele>443.785767</ele><time>2009-10-20T12:18:34Z</time></trkpt>
<trkpt lat="46.18845329" lon="6.09988276"><ele>440.901855</ele><time>2009-10-20T12:18:35Z</time></trkpt>
<trkpt lat="46.18855504" lon="6.09982677"><ele>439.459717</ele><time>2009-10-20T12:18:36Z</time></trkpt>
<trkpt lat="46.18864783" lon="6.09977589"><ele>437.537109</ele><time>2009-10-20T12:18:37Z</time></trkpt>
<trkpt lat="46.18874137" lon="6.09972778"><ele>435.133911</ele><time>2009-10-20T12:18:38Z</time></trkpt>
<trkpt lat="46.18883265" lon="6.09967355"><ele>435.614502</ele><time>2009-10-20T12:18:39Z</time></trkpt>
<trkpt lat="46.18892427" lon="6.09961462"><ele>436.095215</ele><time>2009-10-20T12:18:40Z</time></trkpt>
<trkpt lat="46.18901898" lon="6.09955528"><ele>435.133911</ele><time>2009-10-20T12:18:41Z</time></trkpt>
<trkpt lat="46.18911998" lon="6.09949267"><ele>435.133911</ele><time>2009-10-20T12:18:42Z</time></trkpt>
<trkpt lat="46.18921696" lon="6.09942670"><ele>435.614502</ele><time>2009-10-20T12:18:43Z</time></trkpt>
<trkpt lat="46.18931344" lon="6.09936082"><ele>436.575928</ele><time>2009-10-20T12:18:44Z</time></trkpt>
<trkpt lat="46.18941058" lon="6.09929393"><ele>438.498535</ele><time>2009-10-20T12:18:45Z</time></trkpt>
<trkpt lat="46.18950689" lon="6.09922956"><ele>439.94043</ele><time>2009-10-20T12:18:46Z</time></trkpt>
<trkpt lat="46.18960672" lon="6.09915672"><ele>440.901855</ele><time>2009-10-20T12:18:47Z</time></trkpt>
<trkpt lat="46.18970328" lon="6.09908606"><ele>441.863159</ele><time>2009-10-20T12:18:48Z</time></trkpt>
<trkpt lat="46.18979598" lon="6.09898699"><ele>446.189087</ele><time>2009-10-20T12:18:49Z</time></trkpt>
<trkpt lat="46.18988567" lon="6.09891859"><ele>448.592407</ele><time>2009-10-20T12:18:50Z</time></trkpt>
<trkpt lat="46.18995985" lon="6.09886528"><ele>451.476318</ele><time>2009-10-20T12:18:51Z</time></trkpt>
<trkpt lat="46.19006219" lon="6.09880292"><ele>451.476318</ele><time>2009-10-20T12:18:52Z</time></trkpt>
<trkpt lat="46.19015716" lon="6.09873293"><ele>452.437622</ele><time>2009-10-20T12:18:53Z</time></trkpt>
<trkpt lat="46.19023578" lon="6.09868255"><ele>453.879639</ele><time>2009-10-20T12:18:54Z</time></trkpt>
<trkpt lat="46.19033637" lon="6.09863260"><ele>455.321533</ele><time>2009-10-20T12:18:55Z</time></trkpt>
<trkpt lat="46.19047827" lon="6.09861759"><ele>454.84082</ele><time>2009-10-20T12:18:56Z</time></trkpt>
<trkpt lat="46.19055664" lon="6.09870845"><ele>456.282959</ele><time>2009-10-20T12:18:57Z</time></trkpt>
<trkpt lat="46.19068413" lon="6.09886025"><ele>456.76355</ele><time>2009-10-20T12:18:58Z</time></trkpt>
<trkpt lat="46.19067122" lon="6.09893460"><ele>454.84082</ele><time>2009-10-20T12:18:59Z</time></trkpt>
<trkpt lat="46.19066879" lon="6.09905287"><ele>449.072998</ele><time>2009-10-20T12:19:00Z</time></trkpt>
<trkpt lat="46.19066762" lon="6.09916108"><ele>444.74707</ele><time>2009-10-20T12:19:01Z</time></trkpt>
<trkpt lat="46.19068086" lon="6.09926535"><ele>441.382446</ele><time>2009-10-20T12:19:02Z</time></trkpt>
<trkpt lat="46.19070777" lon="6.09937297"><ele>438.498535</ele><time>2009-10-20T12:19:03Z</time></trkpt>
<trkpt lat="46.19075412" lon="6.09949996"><ele>436.095215</ele><time>2009-10-20T12:19:04Z</time></trkpt>
<trkpt lat="46.19080139" lon="6.09962602"><ele>435.133911</ele><time>2009-10-20T12:19:05Z</time></trkpt>
<trkpt lat="46.19082939" lon="6.09972216"><ele>431.769165</ele><time>2009-10-20T12:19:06Z</time></trkpt>
<trkpt lat="46.19087675" lon="6.09984303"><ele>429.365967</ele><time>2009-10-20T12:19:07Z</time></trkpt>
<trkpt lat="46.19090005" lon="6.09994168"><ele>425.520752</ele><time>2009-10-20T12:19:08Z</time></trkpt>
<trkpt lat="46.19092343" lon="6.10003975"><ele>422.156006</ele><time>2009-10-20T12:19:09Z</time></trkpt>
<trkpt lat="46.19094824" lon="6.10013723"><ele>419.272217</ele><time>2009-10-20T12:19:10Z</time></trkpt>
<trkpt lat="46.19097129" lon="6.10023296"><ele>416.388184</ele><time>2009-10-20T12:19:11Z</time></trkpt>
<trkpt lat="46.19099552" lon="6.10032977"><ele>415.42688</ele><time>2009-10-20T12:19:12Z</time></trkpt>
<trkpt lat="46.19102100" lon="6.10042532"><ele>415.907471</ele><time>2009-10-20T12:19:13Z</time></trkpt>
<trkpt lat="46.19104799" lon="6.10052934"><ele>415.42688</ele><time>2009-10-20T12:19:14Z</time></trkpt>
<trkpt lat="46.19107649" lon="6.10063788"><ele>414.946167</ele><time>2009-10-20T12:19:15Z</time></trkpt>
<trkpt lat="46.19110247" lon="6.10074056"><ele>412.542847</ele><time>2009-10-20T12:19:16Z</time></trkpt>
<trkpt lat="46.19114229" lon="6.10083939"><ele>411.581665</ele><time>2009-10-20T12:19:17Z</time></trkpt>
<trkpt lat="46.19118118" lon="6.10094885"><ele>410.620239</ele><time>2009-10-20T12:19:18Z</time></trkpt>
<trkpt lat="46.19121378" lon="6.10104969"><ele>408.217041</ele><time>2009-10-20T12:19:19Z</time></trkpt>
<trkpt lat="46.19124186" lon="6.10114558"><ele>405.813721</ele><time>2009-10-20T12:19:20Z</time></trkpt>
<trkpt lat="46.19127246" lon="6.10124063"><ele>404.371704</ele><time>2009-10-20T12:19:21Z</time></trkpt>
<trkpt lat="46.19130280" lon="6.10131456"><ele>403.4104</ele><time>2009-10-20T12:19:22Z</time></trkpt>
<trkpt lat="46.19133130" lon="6.10139695"><ele>401.968506</ele><time>2009-10-20T12:19:23Z</time></trkpt>
<trkpt lat="46.19136214" lon="6.10149276"><ele>400.526489</ele><time>2009-10-20T12:19:24Z</time></trkpt>
<trkpt lat="46.19139425" lon="6.10159904"><ele>400.045898</ele><time>2009-10-20T12:19:25Z</time></trkpt>
<trkpt lat="46.19143842" lon="6.10171144"><ele>398.60376</ele><time>2009-10-20T12:19:26Z</time></trkpt>
<trkpt lat="46.19153556" lon="6.10182216"><ele>398.60376</ele><time>2009-10-20T12:19:27Z</time></trkpt>
<trkpt lat="46.19161310" lon="6.10189199"><ele>398.60376</ele><time>2009-10-20T12:19:28Z</time></trkpt>
<trkpt lat="46.19161452" lon="6.10199324"><ele>396.681152</ele><time>2009-10-20T12:19:29Z</time></trkpt>
<trkpt lat="46.19163036" lon="6.10210287"><ele>395.239136</ele><time>2009-10-20T12:19:30Z</time></trkpt>
<trkpt lat="46.19164160" lon="6.10220480"><ele>394.758545</ele><time>2009-10-20T12:19:31Z</time></trkpt>
<trkpt lat="46.19166104" lon="6.10229172"><ele>393.797241</ele><time>2009-10-20T12:19:32Z</time></trkpt>
<trkpt lat="46.19168342" lon="6.10236397"><ele>391.393799</ele><time>2009-10-20T12:19:33Z</time></trkpt>
<trkpt lat="46.19170957" lon="6.10244905"><ele>390.913208</ele><time>2009-10-20T12:19:34Z</time></trkpt>
<trkpt lat="46.19173916" lon="6.10254519"><ele>391.393799</ele><time>2009-10-20T12:19:35Z</time></trkpt>
<trkpt lat="46.19176707" lon="6.10263823"><ele>391.393799</ele><time>2009-10-20T12:19:36Z</time></trkpt>
<trkpt lat="46.19179314" lon="6.10273076"><ele>390.913208</ele><time>2009-10-20T12:19:37Z</time></trkpt>
<trkpt lat="46.19181988" lon="6.10282414"><ele>390.432617</ele><time>2009-10-20T12:19:38Z</time></trkpt>
<trkpt lat="46.19184528" lon="6.10291684"><ele>389.471191</ele><time>2009-10-20T12:19:39Z</time></trkpt>
<trkpt lat="46.19187294" lon="6.10301399"><ele>389.471191</ele><time>2009-10-20T12:19:40Z</time></trkpt>
<trkpt lat="46.19189347" lon="6.10310594"><ele>388.990601</ele><time>2009-10-20T12:19:41Z</time></trkpt>
<trkpt lat="46.19191702" lon="6.10319638"><ele>387.548584</ele><time>2009-10-20T12:19:42Z</time></trkpt>
<trkpt lat="46.19194494" lon="6.10328992"><ele>386.587402</ele><time>2009-10-20T12:19:43Z</time></trkpt>
<trkpt lat="46.19197385" lon="6.10338514"><ele>386.587402</ele><time>2009-10-20T12:19:44Z</time></trkpt>
<trkpt lat="46.19200730" lon="6.10348564"><ele>387.067993</ele><time>2009-10-20T12:19:45Z</time></trkpt>
<trkpt lat="46.19203898" lon="6.10358513"><ele>387.067993</ele><time>2009-10-20T12:19:46Z</time></trkpt>
<trkpt lat="46.19207108" lon="6.10367339"><ele>386.587402</ele><time>2009-10-20T12:19:47Z</time></trkpt>
<trkpt lat="46.19211056" lon="6.10377976"><ele>384.664795</ele><time>2009-10-20T12:19:48Z</time></trkpt>
<trkpt lat="46.19213328" lon="6.10387548"><ele>384.184082</ele><time>2009-10-20T12:19:49Z</time></trkpt>
<trkpt lat="46.19215507" lon="6.10397933"><ele>384.664795</ele><time>2009-10-20T12:19:50Z</time></trkpt>
<trkpt lat="46.19221056" lon="6.10401403"><ele>385.625977</ele><time>2009-10-20T12:19:51Z</time></trkpt>
<trkpt lat="46.19224157" lon="6.10412777"><ele>386.106689</ele><time>2009-10-20T12:19:52Z</time></trkpt>
<trkpt lat="46.19226169" lon="6.10423322"><ele>386.106689</ele><time>2009-10-20T12:19:53Z</time></trkpt>
<trkpt lat="46.19229329" lon="6.10433179"><ele>386.106689</ele><time>2009-10-20T12:19:54Z</time></trkpt>
<trkpt lat="46.19231894" lon="6.10441879"><ele>385.625977</ele><time>2009-10-20T12:19:55Z</time></trkpt>
<trkpt lat="46.19235305" lon="6.10451929"><ele>386.106689</ele><time>2009-10-20T12:19:56Z</time></trkpt>
<trkpt lat="46.19238155" lon="6.10462884"><ele>386.106689</ele><time>2009-10-20T12:19:57Z</time></trkpt>
<trkpt lat="46.19240896" lon="6.10474217"><ele>386.587402</ele><time>2009-10-20T12:19:58Z</time></trkpt>
<trkpt lat="46.19246285" lon="6.10483454"><ele>389.471191</ele><time>2009-10-20T12:19:59Z</time></trkpt>
<trkpt lat="46.19250208" lon="6.10494174"><ele>389.471191</ele><time>2009-10-20T12:20:00Z</time></trkpt>
<trkpt lat="46.19253762" lon="6.10505993"><ele>389.471191</ele><time>2009-10-20T12:20:01Z</time></trkpt>
<trkpt lat="46.19256687" lon="6.10516705"><ele>388.029297</ele><time>2009-10-20T12:20:02Z</time></trkpt>
<trkpt lat="46.19259009" lon="6.10528699"><ele>389.471191</ele><time>2009-10-20T12:20:03Z</time></trkpt>
<trkpt lat="46.19262345" lon="6.10538850"><ele>389.471191</ele><time>2009-10-20T12:20:04Z</time></trkpt>
<trkpt lat="46.19268984" lon="6.10545597"><ele>389.951904</ele><time>2009-10-20T12:20:05Z</time></trkpt>
<trkpt lat="46.19271934" lon="6.10553216"><ele>388.51001</ele><time>2009-10-20T12:20:06Z</time></trkpt>
<trkpt lat="46.19274608" lon="6.10561422"><ele>387.067993</ele><time>2009-10-20T12:20:07Z</time></trkpt>
<trkpt lat="46.19277055" lon="6.10570156"><ele>386.106689</ele><time>2009-10-20T12:20:08Z</time></trkpt>
<trkpt lat="46.19280090" lon="6.10579418"><ele>385.145386</ele><time>2009-10-20T12:20:09Z</time></trkpt>
<trkpt lat="46.19283359" lon="6.10588705"><ele>385.145386</ele><time>2009-10-20T12:20:10Z</time></trkpt>
<trkpt lat="46.19286577" lon="6.10597892"><ele>384.664795</ele><time>2009-10-20T12:20:11Z</time></trkpt>
<trkpt lat="46.19289762" lon="6.10606986"><ele>383.703247</ele><time>2009-10-20T12:20:12Z</time></trkpt>
<trkpt lat="46.19292755" lon="6.10615695"><ele>383.222656</ele><time>2009-10-20T12:20:13Z</time></trkpt>
<trkpt lat="46.19295713" lon="6.10624320"><ele>382.261353</ele><time>2009-10-20T12:20:14Z</time></trkpt>
<trkpt lat="46.19298865" lon="6.10633079"><ele>381.78064</ele><time>2009-10-20T12:20:15Z</time></trkpt>
<trkpt lat="46.19302084" lon="6.10641805"><ele>381.78064</ele><time>2009-10-20T12:20:16Z</time></trkpt>
<trkpt lat="46.19305168" lon="6.10650396"><ele>381.300049</ele><time>2009-10-20T12:20:17Z</time></trkpt>
<trkpt lat="46.19308353" lon="6.10658828"><ele>380.819458</ele><time>2009-10-20T12:20:18Z</time></trkpt>
<trkpt lat="46.19311346" lon="6.10666984"><ele>379.858032</ele><time>2009-10-20T12:20:19Z</time></trkpt>
<trkpt lat="46.19314464" lon="6.10675617"><ele>379.858032</ele><time>2009-10-20T12:20:20Z</time></trkpt>
<trkpt lat="46.19317448" lon="6.10683873"><ele>379.377441</ele><time>2009-10-20T12:20:21Z</time></trkpt>
<trkpt lat="46.19320926" lon="6.10692373"><ele>380.338745</ele><time>2009-10-20T12:20:22Z</time></trkpt>
<trkpt lat="46.19323944" lon="6.10700268"><ele>379.858032</ele><time>2009-10-20T12:20:23Z</time></trkpt>
<trkpt lat="46.19326727" lon="6.10708038"><ele>378.896851</ele><time>2009-10-20T12:20:24Z</time></trkpt>
<trkpt lat="46.19329593" lon="6.10716085"><ele>378.896851</ele><time>2009-10-20T12:20:25Z</time></trkpt>
<trkpt lat="46.19332334" lon="6.10723788"><ele>378.416138</ele><time>2009-10-20T12:20:26Z</time></trkpt>
<trkpt lat="46.19335083" lon="6.10731256"><ele>377.935425</ele><time>2009-10-20T12:20:27Z</time></trkpt>
<trkpt lat="46.19337874" lon="6.10738733"><ele>377.935425</ele><time>2009-10-20T12:20:28Z</time></trkpt>
<trkpt lat="46.19340439" lon="6.10745857"><ele>377.935425</ele><time>2009-10-20T12:20:29Z</time></trkpt>
<trkpt lat="46.19342895" lon="6.10752705"><ele>378.416138</ele><time>2009-10-20T12:20:30Z</time></trkpt>
<trkpt lat="46.19344798" lon="6.10759679"><ele>379.377441</ele><time>2009-10-20T12:20:31Z</time></trkpt>
<trkpt lat="46.19345753" lon="6.10766536"><ele>379.858032</ele><time>2009-10-20T12:20:32Z</time></trkpt>
<trkpt lat="46.19346566" lon="6.10773333"><ele>380.819458</ele><time>2009-10-20T12:20:33Z</time></trkpt>
<trkpt lat="46.19348234" lon="6.10779528"><ele>383.703247</ele><time>2009-10-20T12:20:34Z</time></trkpt>
<trkpt lat="46.19349576" lon="6.10784540"><ele>385.145386</ele><time>2009-10-20T12:20:35Z</time></trkpt>
<trkpt lat="46.19351235" lon="6.10788924"><ele>386.587402</ele><time>2009-10-20T12:20:36Z</time></trkpt>
<trkpt lat="46.19352786" lon="6.10793358"><ele>387.548584</ele><time>2009-10-20T12:20:37Z</time></trkpt>
<trkpt lat="46.19354714" lon="6.10798362"><ele>388.51001</ele><time>2009-10-20T12:20:38Z</time></trkpt>
<trkpt lat="46.19356977" lon="6.10803584"><ele>389.951904</ele><time>2009-10-20T12:20:39Z</time></trkpt>
<trkpt lat="46.19358913" lon="6.10808579"><ele>390.913208</ele><time>2009-10-20T12:20:40Z</time></trkpt>
<trkpt lat="46.19360925" lon="6.10813986"><ele>391.393799</ele><time>2009-10-20T12:20:41Z</time></trkpt>
<trkpt lat="46.19363406" lon="6.10819979"><ele>393.316528</ele><time>2009-10-20T12:20:42Z</time></trkpt>
<trkpt lat="46.19364562" lon="6.10825234"><ele>394.277954</ele><time>2009-10-20T12:20:43Z</time></trkpt>
<trkpt lat="46.19365317" lon="6.10829903"><ele>393.797241</ele><time>2009-10-20T12:20:44Z</time></trkpt>
<trkpt lat="46.19367412" lon="6.10834010"><ele>396.681152</ele><time>2009-10-20T12:20:45Z</time></trkpt>
<trkpt lat="46.19369374" lon="6.10836868"><ele>397.161743</ele><time>2009-10-20T12:20:46Z</time></trkpt>
<trkpt lat="46.19371679" lon="6.10838813"><ele>399.084351</ele><time>2009-10-20T12:20:47Z</time></trkpt>
<trkpt lat="46.19373548" lon="6.10839324"><ele>400.045898</ele><time>2009-10-20T12:20:48Z</time></trkpt>
<trkpt lat="46.19375543" lon="6.10839542"><ele>402.449097</ele><time>2009-10-20T12:20:49Z</time></trkpt>
<trkpt lat="46.19377169" lon="6.10839777"><ele>403.891113</ele><time>2009-10-20T12:20:50Z</time></trkpt>
<trkpt lat="46.19378678" lon="6.10840238"><ele>403.891113</ele><time>2009-10-20T12:20:51Z</time></trkpt>
<trkpt lat="46.19380128" lon="6.10841637"><ele>404.852295</ele><time>2009-10-20T12:20:52Z</time></trkpt>
<trkpt lat="46.19381192" lon="6.10843649"><ele>404.852295</ele><time>2009-10-20T12:20:53Z</time></trkpt>
<trkpt lat="46.19381879" lon="6.10845770"><ele>404.371704</ele><time>2009-10-20T12:20:54Z</time></trkpt>
<trkpt lat="46.19382508" lon="6.10847488"><ele>403.891113</ele><time>2009-10-20T12:20:55Z</time></trkpt>
<trkpt lat="46.19383380" lon="6.10849567"><ele>403.4104</ele><time>2009-10-20T12:20:56Z</time></trkpt>
<trkpt lat="46.19384017" lon="6.10851914"><ele>401.968506</ele><time>2009-10-20T12:20:57Z</time></trkpt>
<trkpt lat="46.19384956" lon="6.10854688"><ele>401.00708</ele><time>2009-10-20T12:20:58Z</time></trkpt>
<trkpt lat="46.19386372" lon="6.10858393"><ele>400.526489</ele><time>2009-10-20T12:20:59Z</time></trkpt>
<trkpt lat="46.19387864" lon="6.10862710"><ele>399.084351</ele><time>2009-10-20T12:21:00Z</time></trkpt>
<trkpt lat="46.19389809" lon="6.10867823"><ele>399.084351</ele><time>2009-10-20T12:21:01Z</time></trkpt>
<trkpt lat="46.19391795" lon="6.10873246"><ele>399.084351</ele><time>2009-10-20T12:21:02Z</time></trkpt>
<trkpt lat="46.19393723" lon="6.10878878"><ele>399.084351</ele><time>2009-10-20T12:21:03Z</time></trkpt>
<trkpt lat="46.19395584" lon="6.10884964"><ele>398.60376</ele><time>2009-10-20T12:21:04Z</time></trkpt>
<trkpt lat="46.19397562" lon="6.10891619"><ele>398.123169</ele><time>2009-10-20T12:21:05Z</time></trkpt>
<trkpt lat="46.19399825" lon="6.10898685"><ele>398.123169</ele><time>2009-10-20T12:21:06Z</time></trkpt>
<trkpt lat="46.19402323" lon="6.10905675"><ele>398.123169</ele><time>2009-10-20T12:21:07Z</time></trkpt>
<trkpt lat="46.19405282" lon="6.10912984"><ele>398.60376</ele><time>2009-10-20T12:21:08Z</time></trkpt>
<trkpt lat="46.19408073" lon="6.10920126"><ele>398.123169</ele><time>2009-10-20T12:21:09Z</time></trkpt>
<trkpt lat="46.19411107" lon="6.10927887"><ele>397.642456</ele><time>2009-10-20T12:21:10Z</time></trkpt>
<trkpt lat="46.19414368" lon="6.10936319"><ele>397.642456</ele><time>2009-10-20T12:21:11Z</time></trkpt>
<trkpt lat="46.19417695" lon="6.10945087"><ele>398.123169</ele><time>2009-10-20T12:21:12Z</time></trkpt>
<trkpt lat="46.19420629" lon="6.10953519"><ele>398.123169</ele><time>2009-10-20T12:21:13Z</time></trkpt>
<trkpt lat="46.19423722" lon="6.10962454"><ele>397.161743</ele><time>2009-10-20T12:21:14Z</time></trkpt>
<trkpt lat="46.19426899" lon="6.10971356"><ele>397.642456</ele><time>2009-10-20T12:21:15Z</time></trkpt>
<trkpt lat="46.19429438" lon="6.10980014"><ele>397.161743</ele><time>2009-10-20T12:21:16Z</time></trkpt>
<trkpt lat="46.19431727" lon="6.10988807"><ele>396.681152</ele><time>2009-10-20T12:21:17Z</time></trkpt>
<trkpt lat="46.19433864" lon="6.10997725"><ele>395.719849</ele><time>2009-10-20T12:21:18Z</time></trkpt>
<trkpt lat="46.19435909" lon="6.11006736"><ele>395.719849</ele><time>2009-10-20T12:21:19Z</time></trkpt>
<trkpt lat="46.19437845" lon="6.11015914"><ele>395.239136</ele><time>2009-10-20T12:21:20Z</time></trkpt>
<trkpt lat="46.19439413" lon="6.11025059"><ele>395.239136</ele><time>2009-10-20T12:21:21Z</time></trkpt>
<trkpt lat="46.19440695" lon="6.11034086"><ele>394.758545</ele><time>2009-10-20T12:21:22Z</time></trkpt>
<trkpt lat="46.19442053" lon="6.11043407"><ele>394.758545</ele><time>2009-10-20T12:21:23Z</time></trkpt>
<trkpt lat="46.19443553" lon="6.11053180"><ele>395.719849</ele><time>2009-10-20T12:21:24Z</time></trkpt>
<trkpt lat="46.19445029" lon="6.11063129"><ele>397.161743</ele><time>2009-10-20T12:21:25Z</time></trkpt>
<trkpt lat="46.19446294" lon="6.11072903"><ele>398.123169</ele><time>2009-10-20T12:21:26Z</time></trkpt>
<trkpt lat="46.19447267" lon="6.11082466"><ele>398.60376</ele><time>2009-10-20T12:21:27Z</time></trkpt>
<trkpt lat="46.19448088" lon="6.11091980"><ele>398.60376</ele><time>2009-10-20T12:21:28Z</time></trkpt>
<trkpt lat="46.19448759" lon="6.11101359"><ele>398.60376</ele><time>2009-10-20T12:21:29Z</time></trkpt>
<trkpt lat="46.19449438" lon="6.11110663"><ele>399.084351</ele><time>2009-10-20T12:21:30Z</time></trkpt>
<trkpt lat="46.19450049" lon="6.11119992"><ele>399.084351</ele><time>2009-10-20T12:21:31Z</time></trkpt>
<trkpt lat="46.19450586" lon="6.11129229"><ele>399.565063</ele><time>2009-10-20T12:21:32Z</time></trkpt>
<trkpt lat="46.19451072" lon="6.11138365"><ele>400.045898</ele><time>2009-10-20T12:21:33Z</time></trkpt>
<trkpt lat="46.19451667" lon="6.11147510"><ele>400.526489</ele><time>2009-10-20T12:21:34Z</time></trkpt>
<trkpt lat="46.19452296" lon="6.11156613"><ele>401.00708</ele><time>2009-10-20T12:21:35Z</time></trkpt>
<trkpt lat="46.19452924" lon="6.11165774"><ele>401.487793</ele><time>2009-10-20T12:21:36Z</time></trkpt>
<trkpt lat="46.19453587" lon="6.11175028"><ele>401.968506</ele><time>2009-10-20T12:21:37Z</time></trkpt>
<trkpt lat="46.19454207" lon="6.11184239"><ele>402.449097</ele><time>2009-10-20T12:21:38Z</time></trkpt>
<trkpt lat="46.19454827" lon="6.11193443"><ele>402.929688</ele><time>2009-10-20T12:21:39Z</time></trkpt>
<trkpt lat="46.19455489" lon="6.11202696"><ele>403.4104</ele><time>2009-10-20T12:21:40Z</time></trkpt>
<trkpt lat="46.19456219" lon="6.11212034"><ele>403.891113</ele><time>2009-10-20T12:21:41Z</time></trkpt>
<trkpt lat="46.19456956" lon="6.11221539"><ele>403.891113</ele><time>2009-10-20T12:21:42Z</time></trkpt>
<trkpt lat="46.19457618" lon="6.11231103"><ele>404.371704</ele><time>2009-10-20T12:21:43Z</time></trkpt>
<trkpt lat="46.19458255" lon="6.11240683"><ele>404.371704</ele><time>2009-10-20T12:21:44Z</time></trkpt>
<trkpt lat="46.19458892" lon="6.11250188"><ele>404.371704</ele><time>2009-10-20T12:21:45Z</time></trkpt>
<trkpt lat="46.19459538" lon="6.11259685"><ele>404.371704</ele><time>2009-10-20T12:21:46Z</time></trkpt>
<trkpt lat="46.19460175" lon="6.11269115"><ele>404.371704</ele><time>2009-10-20T12:21:47Z</time></trkpt>
<trkpt lat="46.19460996" lon="6.11278729"><ele>404.852295</ele><time>2009-10-20T12:21:48Z</time></trkpt>
<trkpt lat="46.19462002" lon="6.11288468"><ele>404.852295</ele><time>2009-10-20T12:21:49Z</time></trkpt>
<trkpt lat="46.19463083" lon="6.11298393"><ele>405.333008</ele><time>2009-10-20T12:21:50Z</time></trkpt>
<trkpt lat="46.19464089" lon="6.11308602"><ele>405.333008</ele><time>2009-10-20T12:21:51Z</time></trkpt>
<trkpt lat="46.19465045" lon="6.11319096"><ele>405.333008</ele><time>2009-10-20T12:21:52Z</time></trkpt>
<trkpt lat="46.19466159" lon="6.11329858"><ele>405.333008</ele><time>2009-10-20T12:21:53Z</time></trkpt>
<trkpt lat="46.19467643" lon="6.11340822"><ele>406.294312</ele><time>2009-10-20T12:21:54Z</time></trkpt>
<trkpt lat="46.19470015" lon="6.11351735"><ele>406.294312</ele><time>2009-10-20T12:21:55Z</time></trkpt>
<trkpt lat="46.19473494" lon="6.11361869"><ele>406.294312</ele><time>2009-10-20T12:21:56Z</time></trkpt>
<trkpt lat="46.19477718" lon="6.11371122"><ele>406.774902</ele><time>2009-10-20T12:21:57Z</time></trkpt>
<trkpt lat="46.19483032" lon="6.11378163"><ele>407.255615</ele><time>2009-10-20T12:21:58Z</time></trkpt>
<trkpt lat="46.19492185" lon="6.11377006"><ele>407.736328</ele><time>2009-10-20T12:21:59Z</time></trkpt>
<trkpt lat="46.19500265" lon="6.11376093"><ele>408.217041</ele><time>2009-10-20T12:22:00Z</time></trkpt>
<trkpt lat="46.19506619" lon="6.11374852"><ele>409.178345</ele><time>2009-10-20T12:22:01Z</time></trkpt>
<trkpt lat="46.19512754" lon="6.11372715"><ele>410.620239</ele><time>2009-10-20T12:22:02Z</time></trkpt>
<trkpt lat="46.19519703" lon="6.11369823"><ele>412.062256</ele><time>2009-10-20T12:22:03Z</time></trkpt>
<trkpt lat="46.19527222" lon="6.11366345"><ele>413.504272</ele><time>2009-10-20T12:22:04Z</time></trkpt>
<trkpt lat="46.19536777" lon="6.11367702"><ele>415.42688</ele><time>2009-10-20T12:22:05Z</time></trkpt>
<trkpt lat="46.19544673" lon="6.11363679"><ele>416.868896</ele><time>2009-10-20T12:22:06Z</time></trkpt>
<trkpt lat="46.19553298" lon="6.11359036"><ele>419.752808</ele><time>2009-10-20T12:22:07Z</time></trkpt>
<trkpt lat="46.19561814" lon="6.11355716"><ele>421.675415</ele><time>2009-10-20T12:22:08Z</time></trkpt>
<trkpt lat="46.19570548" lon="6.11352464"><ele>423.598022</ele><time>2009-10-20T12:22:09Z</time></trkpt>
<trkpt lat="46.19578293" lon="6.11349623"><ele>425.520752</ele><time>2009-10-20T12:22:10Z</time></trkpt>
<trkpt lat="46.19585208" lon="6.11347686"><ele>427.443359</ele><time>2009-10-20T12:22:11Z</time></trkpt>
<trkpt lat="46.19592844" lon="6.11345574"><ele>428.885376</ele><time>2009-10-20T12:22:12Z</time></trkpt>
<trkpt lat="46.19601192" lon="6.11343789"><ele>430.327271</ele><time>2009-10-20T12:22:13Z</time></trkpt>
<trkpt lat="46.19610429" lon="6.11342909"><ele>431.288574</ele><time>2009-10-20T12:22:14Z</time></trkpt>
<trkpt lat="46.19619456" lon="6.11339196"><ele>433.691895</ele><time>2009-10-20T12:22:15Z</time></trkpt>
<trkpt lat="46.19632297" lon="6.11340797"><ele>434.172607</ele><time>2009-10-20T12:22:16Z</time></trkpt>
<trkpt lat="46.19637653" lon="6.11336287"><ele>435.133911</ele><time>2009-10-20T12:22:17Z</time></trkpt>
<trkpt lat="46.19643277" lon="6.11333865"><ele>436.575928</ele><time>2009-10-20T12:22:18Z</time></trkpt>
<trkpt lat="46.19647175" lon="6.11332859"><ele>437.537109</ele><time>2009-10-20T12:22:19Z</time></trkpt>
<trkpt lat="46.19649388" lon="6.11332406"><ele>438.498535</ele><time>2009-10-20T12:22:20Z</time></trkpt>
<trkpt lat="46.19654073" lon="6.11332943"><ele>437.537109</ele><time>2009-10-20T12:22:21Z</time></trkpt>
<trkpt lat="46.19657217" lon="6.11333353"><ele>437.056519</ele><time>2009-10-20T12:22:22Z</time></trkpt>
<trkpt lat="46.19658818" lon="6.11334435"><ele>438.017822</ele><time>2009-10-20T12:22:23Z</time></trkpt>
<trkpt lat="46.19660578" lon="6.11335533"><ele>437.056519</ele><time>2009-10-20T12:22:24Z</time></trkpt>
<trkpt lat="46.19660905" lon="6.11335583"><ele>437.537109</ele><time>2009-10-20T12:22:25Z</time></trkpt>
<trkpt lat="46.19661114" lon="6.11335340"><ele>438.498535</ele><time>2009-10-20T12:22:26Z</time></trkpt>
<trkpt lat="46.19661357" lon="6.11335373"><ele>438.498535</ele><time>2009-10-20T12:22:27Z</time></trkpt>
<trkpt lat="46.19661475" lon="6.11335692"><ele>438.017822</ele><time>2009-10-20T12:22:28Z</time></trkpt>
<trkpt lat="46.19661592" lon="6.11335885"><ele>437.537109</ele><time>2009-10-20T12:22:29Z</time></trkpt>
<trkpt lat="46.19661508" lon="6.11335927"><ele>437.537109</ele><time>2009-10-20T12:22:30Z</time></trkpt>
<trkpt lat="46.19662338" lon="6.11335583"><ele>437.537109</ele><time>2009-10-20T12:22:31Z</time></trkpt>
<trkpt lat="46.19663042" lon="6.11335265"><ele>437.537109</ele><time>2009-10-20T12:22:32Z</time></trkpt>
<trkpt lat="46.19663595" lon="6.11334996"><ele>438.017822</ele><time>2009-10-20T12:22:33Z</time></trkpt>
<trkpt lat="46.19663419" lon="6.11335055"><ele>438.017822</ele><time>2009-10-20T12:22:34Z</time></trkpt>
<trkpt lat="46.19663612" lon="6.11334929"><ele>438.498535</ele><time>2009-10-20T12:22:35Z</time></trkpt>
<trkpt lat="46.19663805" lon="6.11334745"><ele>438.498535</ele><time>2009-10-20T12:22:36Z</time></trkpt>
<trkpt lat="46.19663956" lon="6.11334519"><ele>438.979126</ele><time>2009-10-20T12:22:37Z</time></trkpt>
<trkpt lat="46.19664006" lon="6.11334242"><ele>438.979126</ele><time>2009-10-20T12:22:38Z</time></trkpt>
<trkpt lat="46.19664107" lon="6.11333923"><ele>439.459717</ele><time>2009-10-20T12:22:39Z</time></trkpt>
<trkpt lat="46.19664232" lon="6.11333664"><ele>439.94043</ele><time>2009-10-20T12:22:40Z</time></trkpt>
<trkpt lat="46.19664425" lon="6.11333488"><ele>439.94043</ele><time>2009-10-20T12:22:41Z</time></trkpt>
<trkpt lat="46.19664643" lon="6.11333244"><ele>440.421265</ele><time>2009-10-20T12:22:42Z</time></trkpt>
<trkpt lat="46.19664744" lon="6.11332968"><ele>440.421265</ele><time>2009-10-20T12:22:43Z</time></trkpt>
<trkpt lat="46.19664350" lon="6.11332783"><ele>440.901855</ele><time>2009-10-20T12:22:44Z</time></trkpt>
<trkpt lat="46.19663897" lon="6.11332658"><ele>440.901855</ele><time>2009-10-20T12:22:45Z</time></trkpt>
<trkpt lat="46.19663520" lon="6.11332683"><ele>440.421265</ele><time>2009-10-20T12:22:46Z</time></trkpt>
<trkpt lat="46.19663277" lon="6.11332708"><ele>439.94043</ele><time>2009-10-20T12:22:47Z</time></trkpt>
<trkpt lat="46.19663218" lon="6.11332658"><ele>439.459717</ele><time>2009-10-20T12:22:48Z</time></trkpt>
<trkpt lat="46.19663034" lon="6.11332658"><ele>438.979126</ele><time>2009-10-20T12:22:49Z</time></trkpt>
<trkpt lat="46.19662690" lon="6.11332767"><ele>438.498535</ele><time>2009-10-20T12:22:50Z</time></trkpt>
<trkpt lat="46.19662388" lon="6.11332859"><ele>438.017822</ele><time>2009-10-20T12:22:51Z</time></trkpt>
<trkpt lat="46.19662078" lon="6.11332959"><ele>437.537109</ele><time>2009-10-20T12:22:52Z</time></trkpt>
<trkpt lat="46.19662439" lon="6.11332775"><ele>437.537109</ele><time>2009-10-20T12:22:53Z</time></trkpt>
<trkpt lat="46.19662824" lon="6.11332809"><ele>437.056519</ele><time>2009-10-20T12:22:54Z</time></trkpt>
<trkpt lat="46.19663042" lon="6.11332758"><ele>436.095215</ele><time>2009-10-20T12:22:55Z</time></trkpt>
<trkpt lat="46.19663662" lon="6.11332976"><ele>437.056519</ele><time>2009-10-20T12:22:56Z</time></trkpt>
<trkpt lat="46.19664107" lon="6.11333119"><ele>437.537109</ele><time>2009-10-20T12:22:57Z</time></trkpt>
<trkpt lat="46.19664467" lon="6.11333320"><ele>438.017822</ele><time>2009-10-20T12:22:58Z</time></trkpt>
<trkpt lat="46.19664744" lon="6.11333479"><ele>438.017822</ele><time>2009-10-20T12:22:59Z</time></trkpt>
<trkpt lat="46.19664970" lon="6.11333605"><ele>438.017822</ele><time>2009-10-20T12:23:00Z</time></trkpt>
<trkpt lat="46.19665137" lon="6.11333697"><ele>438.017822</ele><time>2009-10-20T12:23:01Z</time></trkpt>
<trkpt lat="46.19665263" lon="6.11333789"><ele>438.017822</ele><time>2009-10-20T12:23:02Z</time></trkpt>
<trkpt lat="46.19665339" lon="6.11333856"><ele>438.017822</ele><time>2009-10-20T12:23:03Z</time></trkpt>
<trkpt lat="46.19665414" lon="6.11333932"><ele>438.017822</ele><time>2009-10-20T12:23:04Z</time></trkpt>
<trkpt lat="46.19665205" lon="6.11334083"><ele>437.537109</ele><time>2009-10-20T12:23:05Z</time></trkpt>
<trkpt lat="46.19665515" lon="6.11334334"><ele>437.537109</ele><time>2009-10-20T12:23:06Z</time></trkpt>
<trkpt lat="46.19665766" lon="6.11334602"><ele>437.056519</ele><time>2009-10-20T12:23:07Z</time></trkpt>
<trkpt lat="46.19665934" lon="6.11334879"><ele>437.056519</ele><time>2009-10-20T12:23:08Z</time></trkpt>
<trkpt lat="46.19666194" lon="6.11335147"><ele>436.575928</ele><time>2009-10-20T12:23:09Z</time></trkpt>
<trkpt lat="46.19666110" lon="6.11335373"><ele>436.575928</ele><time>2009-10-20T12:23:10Z</time></trkpt>
<trkpt lat="46.19666395" lon="6.11335642"><ele>436.095215</ele><time>2009-10-20T12:23:11Z</time></trkpt>
<trkpt lat="46.19666889" lon="6.11335893"><ele>435.614502</ele><time>2009-10-20T12:23:12Z</time></trkpt>
<trkpt lat="46.19667334" lon="6.11336195"><ele>435.133911</ele><time>2009-10-20T12:23:13Z</time></trkpt>
<trkpt lat="46.19667744" lon="6.11336337"><ele>434.65332</ele><time>2009-10-20T12:23:14Z</time></trkpt>
<trkpt lat="46.19668557" lon="6.11336522"><ele>434.172607</ele><time>2009-10-20T12:23:15Z</time></trkpt>
<trkpt lat="46.19670502" lon="6.11336513"><ele>433.691895</ele><time>2009-10-20T12:23:16Z</time></trkpt>
<trkpt lat="46.19672539" lon="6.11336547"><ele>433.691895</ele><time>2009-10-20T12:23:17Z</time></trkpt>
<trkpt lat="46.19674877" lon="6.11336346"><ele>433.211304</ele><time>2009-10-20T12:23:18Z</time></trkpt>
<trkpt lat="46.19677685" lon="6.11335885"><ele>433.691895</ele><time>2009-10-20T12:23:19Z</time></trkpt>
<trkpt lat="46.19680485" lon="6.11333328"><ele>433.691895</ele><time>2009-10-20T12:23:20Z</time></trkpt>
<trkpt lat="46.19682153" lon="6.11328919"><ele>433.691895</ele><time>2009-10-20T12:23:21Z</time></trkpt>
<trkpt lat="46.19685145" lon="6.11319247"><ele>433.211304</ele><time>2009-10-20T12:23:22Z</time></trkpt>
<trkpt lat="46.19686595" lon="6.11311032"><ele>432.25</ele><time>2009-10-20T12:23:23Z</time></trkpt>
<trkpt lat="46.19687157" lon="6.11302734"><ele>431.288574</ele><time>2009-10-20T12:23:24Z</time></trkpt>
<trkpt lat="46.19687693" lon="6.11295358"><ele>430.327271</ele><time>2009-10-20T12:23:25Z</time></trkpt>
<trkpt lat="46.19687769" lon="6.11287555"><ele>429.846558</ele><time>2009-10-20T12:23:26Z</time></trkpt>
<trkpt lat="46.19687215" lon="6.11279617"><ele>427.92395</ele><time>2009-10-20T12:23:27Z</time></trkpt>
<trkpt lat="46.19687475" lon="6.11271193"><ele>426.482056</ele><time>2009-10-20T12:23:28Z</time></trkpt>
<trkpt lat="46.19687735" lon="6.11263717"><ele>425.040161</ele><time>2009-10-20T12:23:29Z</time></trkpt>
<trkpt lat="46.19687509" lon="6.11256349"><ele>422.156006</ele><time>2009-10-20T12:23:30Z</time></trkpt>
<trkpt lat="46.19686805" lon="6.11248847"><ele>420.233398</ele><time>2009-10-20T12:23:31Z</time></trkpt>
<trkpt lat="46.19686629" lon="6.11241555"><ele>419.752808</ele><time>2009-10-20T12:23:32Z</time></trkpt>
<trkpt lat="46.19687215" lon="6.11235143"><ele>418.310791</ele><time>2009-10-20T12:23:33Z</time></trkpt>
<trkpt lat="46.19688146" lon="6.11229359"><ele>417.8302</ele><time>2009-10-20T12:23:34Z</time></trkpt>
<trkpt lat="46.19689319" lon="6.11224649"><ele>416.868896</ele><time>2009-10-20T12:23:35Z</time></trkpt>
<trkpt lat="46.19690468" lon="6.11220592"><ele>415.42688</ele><time>2009-10-20T12:23:36Z</time></trkpt>
<trkpt lat="46.19690895" lon="6.11216149"><ele>413.504272</ele><time>2009-10-20T12:23:37Z</time></trkpt>
<trkpt lat="46.19691968" lon="6.11212218"><ele>413.02356</ele><time>2009-10-20T12:23:38Z</time></trkpt>
<trkpt lat="46.19692907" lon="6.11208723"><ele>414.465454</ele><time>2009-10-20T12:23:39Z</time></trkpt>
<trkpt lat="46.19694332" lon="6.11205127"><ele>414.946167</ele><time>2009-10-20T12:23:40Z</time></trkpt>
<trkpt lat="46.19696117" lon="6.11201338"><ele>414.946167</ele><time>2009-10-20T12:23:41Z</time></trkpt>
<trkpt lat="46.19698095" lon="6.11197609"><ele>416.388184</ele><time>2009-10-20T12:23:42Z</time></trkpt>
<trkpt lat="46.19700660" lon="6.11193652"><ele>416.868896</ele><time>2009-10-20T12:23:43Z</time></trkpt>
<trkpt lat="46.19704256" lon="6.11189386"><ele>416.868896</ele><time>2009-10-20T12:23:44Z</time></trkpt>
<trkpt lat="46.19708908" lon="6.11185572"><ele>417.349609</ele><time>2009-10-20T12:23:45Z</time></trkpt>
<trkpt lat="46.19713870" lon="6.11182655"><ele>417.8302</ele><time>2009-10-20T12:23:46Z</time></trkpt>
<trkpt lat="46.19719570" lon="6.11179898"><ele>417.8302</ele><time>2009-10-20T12:23:47Z</time></trkpt>
<trkpt lat="46.19725864" lon="6.11177232"><ele>418.310791</ele><time>2009-10-20T12:23:48Z</time></trkpt>
<trkpt lat="46.19732184" lon="6.11175229"><ele>419.272217</ele><time>2009-10-20T12:23:49Z</time></trkpt>
<trkpt lat="46.19739644" lon="6.11172932"><ele>419.272217</ele><time>2009-10-20T12:23:50Z</time></trkpt>
<trkpt lat="46.19747096" lon="6.11170569"><ele>419.272217</ele><time>2009-10-20T12:23:51Z</time></trkpt>
<trkpt lat="46.19754673" lon="6.11168163"><ele>419.272217</ele><time>2009-10-20T12:23:52Z</time></trkpt>
<trkpt lat="46.19762032" lon="6.11166210"><ele>419.272217</ele><time>2009-10-20T12:23:53Z</time></trkpt>
<trkpt lat="46.19768905" lon="6.11164743"><ele>420.233398</ele><time>2009-10-20T12:23:54Z</time></trkpt>
<trkpt lat="46.19776575" lon="6.11162765"><ele>419.752808</ele><time>2009-10-20T12:23:55Z</time></trkpt>
<trkpt lat="46.19784395" lon="6.11161600"><ele>419.752808</ele><time>2009-10-20T12:23:56Z</time></trkpt>
<trkpt lat="46.19791193" lon="6.11161382"><ele>421.194824</ele><time>2009-10-20T12:23:57Z</time></trkpt>
<trkpt lat="46.19798058" lon="6.11161005"><ele>423.117432</ele><time>2009-10-20T12:23:58Z</time></trkpt>
<trkpt lat="46.19804805" lon="6.11160686"><ele>424.559448</ele><time>2009-10-20T12:23:59Z</time></trkpt>
<trkpt lat="46.19811863" lon="6.11159856"><ele>426.001343</ele><time>2009-10-20T12:24:00Z</time></trkpt>
<trkpt lat="46.19818510" lon="6.11158742"><ele>427.443359</ele><time>2009-10-20T12:24:01Z</time></trkpt>
<trkpt lat="46.19825249" lon="6.11157853"><ele>429.365967</ele><time>2009-10-20T12:24:02Z</time></trkpt>
<trkpt lat="46.19832390" lon="6.11156663"><ele>431.769165</ele><time>2009-10-20T12:24:03Z</time></trkpt>
<trkpt lat="46.19839825" lon="6.11154794"><ele>432.730713</ele><time>2009-10-20T12:24:04Z</time></trkpt>
<trkpt lat="46.19847159" lon="6.11153143"><ele>433.691895</ele><time>2009-10-20T12:24:05Z</time></trkpt>
<trkpt lat="46.19854677" lon="6.11151282"><ele>434.65332</ele><time>2009-10-20T12:24:06Z</time></trkpt>
<trkpt lat="46.19860997" lon="6.11146957"><ele>435.614502</ele><time>2009-10-20T12:24:07Z</time></trkpt>
<trkpt lat="46.19868843" lon="6.11142766"><ele>435.133911</ele><time>2009-10-20T12:24:08Z</time></trkpt>
<trkpt lat="46.19876445" lon="6.11140519"><ele>435.614502</ele><time>2009-10-20T12:24:09Z</time></trkpt>
<trkpt lat="46.19884048" lon="6.11137955"><ele>436.575928</ele><time>2009-10-20T12:24:10Z</time></trkpt>
<trkpt lat="46.19892186" lon="6.11136588"><ele>436.575928</ele><time>2009-10-20T12:24:11Z</time></trkpt>
<trkpt lat="46.19900535" lon="6.11135784"><ele>436.095215</ele><time>2009-10-20T12:24:12Z</time></trkpt>
<trkpt lat="46.19908892" lon="6.11134535"><ele>435.133911</ele><time>2009-10-20T12:24:13Z</time></trkpt>
<trkpt lat="46.19916947" lon="6.11133093"><ele>434.65332</ele><time>2009-10-20T12:24:14Z</time></trkpt>
<trkpt lat="46.19924599" lon="6.11131492"><ele>434.172607</ele><time>2009-10-20T12:24:15Z</time></trkpt>
<trkpt lat="46.19932126" lon="6.11129933"><ele>434.65332</ele><time>2009-10-20T12:24:16Z</time></trkpt>
<trkpt lat="46.19939603" lon="6.11128466"><ele>434.65332</ele><time>2009-10-20T12:24:17Z</time></trkpt>
<trkpt lat="46.19947189" lon="6.11127242"><ele>434.65332</ele><time>2009-10-20T12:24:18Z</time></trkpt>
<trkpt lat="46.19954472" lon="6.11125994"><ele>434.65332</ele><time>2009-10-20T12:24:19Z</time></trkpt>
<trkpt lat="46.19961664" lon="6.11125004"><ele>434.65332</ele><time>2009-10-20T12:24:20Z</time></trkpt>
<trkpt lat="46.19969233" lon="6.11124879"><ele>433.691895</ele><time>2009-10-20T12:24:21Z</time></trkpt>
<trkpt lat="46.19976659" lon="6.11124569"><ele>433.211304</ele><time>2009-10-20T12:24:22Z</time></trkpt>
<trkpt lat="46.19983868" lon="6.11123797"><ele>432.730713</ele><time>2009-10-20T12:24:23Z</time></trkpt>
<trkpt lat="46.19991118" lon="6.11122708"><ele>432.25</ele><time>2009-10-20T12:24:24Z</time></trkpt>
<trkpt lat="46.19998192" lon="6.11121325"><ele>431.769165</ele><time>2009-10-20T12:24:25Z</time></trkpt>
<trkpt lat="46.20005133" lon="6.11120394"><ele>431.769165</ele><time>2009-10-20T12:24:26Z</time></trkpt>
<trkpt lat="46.20012534" lon="6.11119506"><ele>430.807983</ele><time>2009-10-20T12:24:27Z</time></trkpt>
<trkpt lat="46.20019809" lon="6.11118525"><ele>430.807983</ele><time>2009-10-20T12:24:28Z</time></trkpt>
<trkpt lat="46.20026582" lon="6.11117586"><ele>431.288574</ele><time>2009-10-20T12:24:29Z</time></trkpt>
<trkpt lat="46.20033246" lon="6.11116815"><ele>431.288574</ele><time>2009-10-20T12:24:30Z</time></trkpt>
<trkpt lat="46.20039909" lon="6.11115944"><ele>431.769165</ele><time>2009-10-20T12:24:31Z</time></trkpt>
<trkpt lat="46.20046522" lon="6.11115307"><ele>431.769165</ele><time>2009-10-20T12:24:32Z</time></trkpt>
<trkpt lat="46.20053429" lon="6.11114024"><ele>431.769165</ele><time>2009-10-20T12:24:33Z</time></trkpt>
<trkpt lat="46.20060319" lon="6.11112842"><ele>431.769165</ele><time>2009-10-20T12:24:34Z</time></trkpt>
<trkpt lat="46.20067435" lon="6.11111912"><ele>432.25</ele><time>2009-10-20T12:24:35Z</time></trkpt>
<trkpt lat="46.20074677" lon="6.11110688"><ele>431.769165</ele><time>2009-10-20T12:24:36Z</time></trkpt>
<trkpt lat="46.20081475" lon="6.11109305"><ele>432.25</ele><time>2009-10-20T12:24:37Z</time></trkpt>
<trkpt lat="46.20088189" lon="6.11108400"><ele>432.25</ele><time>2009-10-20T12:24:38Z</time></trkpt>
<trkpt lat="46.20094383" lon="6.11107595"><ele>433.211304</ele><time>2009-10-20T12:24:39Z</time></trkpt>
<trkpt lat="46.20104165" lon="6.11108819"><ele>432.730713</ele><time>2009-10-20T12:24:40Z</time></trkpt>
<trkpt lat="46.20111306" lon="6.11109582"><ele>432.730713</ele><time>2009-10-20T12:24:41Z</time></trkpt>
<trkpt lat="46.20117995" lon="6.11107889"><ele>432.730713</ele><time>2009-10-20T12:24:42Z</time></trkpt>
<trkpt lat="46.20124608" lon="6.11103958"><ele>431.769165</ele><time>2009-10-20T12:24:43Z</time></trkpt>
<trkpt lat="46.20131037" lon="6.11101376"><ele>431.769165</ele><time>2009-10-20T12:24:44Z</time></trkpt>
<trkpt lat="46.20137944" lon="6.11100295"><ele>431.288574</ele><time>2009-10-20T12:24:45Z</time></trkpt>
<trkpt lat="46.20145186" lon="6.11099465"><ele>431.288574</ele><time>2009-10-20T12:24:46Z</time></trkpt>
<trkpt lat="46.20152294" lon="6.11098585"><ele>430.327271</ele><time>2009-10-20T12:24:47Z</time></trkpt>
<trkpt lat="46.20159837" lon="6.11097629"><ele>429.846558</ele><time>2009-10-20T12:24:48Z</time></trkpt>
<trkpt lat="46.20167373" lon="6.11096866"><ele>429.846558</ele><time>2009-10-20T12:24:49Z</time></trkpt>
<trkpt lat="46.20174866" lon="6.11095936"><ele>429.365967</ele><time>2009-10-20T12:24:50Z</time></trkpt>
<trkpt lat="46.20182376" lon="6.11094905"><ele>428.885376</ele><time>2009-10-20T12:24:51Z</time></trkpt>
<trkpt lat="46.20189954" lon="6.11093740"><ele>428.885376</ele><time>2009-10-20T12:24:52Z</time></trkpt>
<trkpt lat="46.20197489" lon="6.11092583"><ele>428.404663</ele><time>2009-10-20T12:24:53Z</time></trkpt>
<trkpt lat="46.20204748" lon="6.11091443"><ele>428.885376</ele><time>2009-10-20T12:24:54Z</time></trkpt>
<trkpt lat="46.20212166" lon="6.11090278"><ele>428.404663</ele><time>2009-10-20T12:24:55Z</time></trkpt>
<trkpt lat="46.20219634" lon="6.11089096"><ele>428.404663</ele><time>2009-10-20T12:24:56Z</time></trkpt>
<trkpt lat="46.20226993" lon="6.11088057"><ele>427.92395</ele><time>2009-10-20T12:24:57Z</time></trkpt>
<trkpt lat="46.20234294" lon="6.11086942"><ele>427.92395</ele><time>2009-10-20T12:24:58Z</time></trkpt>
<trkpt lat="46.20241586" lon="6.11085752"><ele>427.92395</ele><time>2009-10-20T12:24:59Z</time></trkpt>
<trkpt lat="46.20248895" lon="6.11084595"><ele>427.443359</ele><time>2009-10-20T12:25:00Z</time></trkpt>
<trkpt lat="46.20256078" lon="6.11083137"><ele>427.92395</ele><time>2009-10-20T12:25:01Z</time></trkpt>
<trkpt lat="46.20263647" lon="6.11082064"><ele>427.443359</ele><time>2009-10-20T12:25:02Z</time></trkpt>
<trkpt lat="46.20271049" lon="6.11080706"><ele>427.443359</ele><time>2009-10-20T12:25:03Z</time></trkpt>
<trkpt lat="46.20278249" lon="6.11079449"><ele>427.443359</ele><time>2009-10-20T12:25:04Z</time></trkpt>
<trkpt lat="46.20285415" lon="6.11078309"><ele>427.443359</ele><time>2009-10-20T12:25:05Z</time></trkpt>
<trkpt lat="46.20292624" lon="6.11077186"><ele>427.443359</ele><time>2009-10-20T12:25:06Z</time></trkpt>
<trkpt lat="46.20299824" lon="6.11075987"><ele>427.443359</ele><time>2009-10-20T12:25:07Z</time></trkpt>
<trkpt lat="46.20306998" lon="6.11074805"><ele>427.443359</ele><time>2009-10-20T12:25:08Z</time></trkpt>
<trkpt lat="46.20314165" lon="6.11073682"><ele>427.443359</ele><time>2009-10-20T12:25:09Z</time></trkpt>
<trkpt lat="46.20321323" lon="6.11072458"><ele>427.443359</ele><time>2009-10-20T12:25:10Z</time></trkpt>
<trkpt lat="46.20328540" lon="6.11071193"><ele>427.92395</ele><time>2009-10-20T12:25:11Z</time></trkpt>
<trkpt lat="46.20335799" lon="6.11070028"><ele>427.92395</ele><time>2009-10-20T12:25:12Z</time></trkpt>
<trkpt lat="46.20343024" lon="6.11068812"><ele>427.92395</ele><time>2009-10-20T12:25:13Z</time></trkpt>
<trkpt lat="46.20350249" lon="6.11067664"><ele>427.92395</ele><time>2009-10-20T12:25:14Z</time></trkpt>
<trkpt lat="46.20357382" lon="6.11066516"><ele>427.92395</ele><time>2009-10-20T12:25:15Z</time></trkpt>
<trkpt lat="46.20364440" lon="6.11065225"><ele>427.92395</ele><time>2009-10-20T12:25:16Z</time></trkpt>
<trkpt lat="46.20371413" lon="6.11063867"><ele>428.404663</ele><time>2009-10-20T12:25:17Z</time></trkpt>
<trkpt lat="46.20378404" lon="6.11062702"><ele>428.404663</ele><time>2009-10-20T12:25:18Z</time></trkpt>
<trkpt lat="46.20385302" lon="6.11061696"><ele>428.404663</ele><time>2009-10-20T12:25:19Z</time></trkpt>
<trkpt lat="46.20391899" lon="6.11060162"><ele>428.885376</ele><time>2009-10-20T12:25:20Z</time></trkpt>
<trkpt lat="46.20398386" lon="6.11058477"><ele>429.365967</ele><time>2009-10-20T12:25:21Z</time></trkpt>
<trkpt lat="46.20404899" lon="6.11057094"><ele>429.846558</ele><time>2009-10-20T12:25:22Z</time></trkpt>
<trkpt lat="46.20411412" lon="6.11055837"><ele>430.327271</ele><time>2009-10-20T12:25:23Z</time></trkpt>
<trkpt lat="46.20418268" lon="6.11054379"><ele>430.807983</ele><time>2009-10-20T12:25:24Z</time></trkpt>
<trkpt lat="46.20424773" lon="6.11051755"><ele>433.691895</ele><time>2009-10-20T12:25:25Z</time></trkpt>
<trkpt lat="46.20434269" lon="6.11048914"><ele>434.172607</ele><time>2009-10-20T12:25:26Z</time></trkpt>
<trkpt lat="46.20441696" lon="6.11048595"><ele>434.65332</ele><time>2009-10-20T12:25:27Z</time></trkpt>
<trkpt lat="46.20448854" lon="6.11048746"><ele>435.133911</ele><time>2009-10-20T12:25:28Z</time></trkpt>
<trkpt lat="46.20455425" lon="6.11046072"><ele>435.614502</ele><time>2009-10-20T12:25:29Z</time></trkpt>
<trkpt lat="46.20462558" lon="6.11046173"><ele>436.095215</ele><time>2009-10-20T12:25:30Z</time></trkpt>
<trkpt lat="46.20469792" lon="6.11045259"><ele>436.095215</ele><time>2009-10-20T12:25:31Z</time></trkpt>
<trkpt lat="46.20477185" lon="6.11044429"><ele>436.095215</ele><time>2009-10-20T12:25:32Z</time></trkpt>
<trkpt lat="46.20483697" lon="6.11043205"><ele>435.614502</ele><time>2009-10-20T12:25:33Z</time></trkpt>
<trkpt lat="46.20491358" lon="6.11041630"><ele>435.133911</ele><time>2009-10-20T12:25:34Z</time></trkpt>
<trkpt lat="46.20496807" lon="6.11040104"><ele>436.095215</ele><time>2009-10-20T12:25:35Z</time></trkpt>
<trkpt lat="46.20503018" lon="6.11039107"><ele>437.056519</ele><time>2009-10-20T12:25:36Z</time></trkpt>
<trkpt lat="46.20510092" lon="6.11038973"><ele>437.056519</ele><time>2009-10-20T12:25:37Z</time></trkpt>
<trkpt lat="46.20517242" lon="6.11038352"><ele>436.575928</ele><time>2009-10-20T12:25:38Z</time></trkpt>
<trkpt lat="46.20525205" lon="6.11039769"><ele>437.056519</ele><time>2009-10-20T12:25:39Z</time></trkpt>
<trkpt lat="46.20535296" lon="6.11037422"><ele>436.575928</ele><time>2009-10-20T12:25:40Z</time></trkpt>
<trkpt lat="46.20542119" lon="6.11034430"><ele>437.537109</ele><time>2009-10-20T12:25:41Z</time></trkpt>
<trkpt lat="46.20550132" lon="6.11032904"><ele>438.979126</ele><time>2009-10-20T12:25:42Z</time></trkpt>
<trkpt lat="46.20554994" lon="6.11028797"><ele>439.94043</ele><time>2009-10-20T12:25:43Z</time></trkpt>
<trkpt lat="46.20559805" lon="6.11026442"><ele>440.421265</ele><time>2009-10-20T12:25:44Z</time></trkpt>
<trkpt lat="46.20565572" lon="6.11024447"><ele>440.901855</ele><time>2009-10-20T12:25:45Z</time></trkpt>
<trkpt lat="46.20571682" lon="6.11022695"><ele>440.901855</ele><time>2009-10-20T12:25:46Z</time></trkpt>
<trkpt lat="46.20577365" lon="6.11021077"><ele>441.863159</ele><time>2009-10-20T12:25:47Z</time></trkpt>
<trkpt lat="46.20583643" lon="6.11020759"><ele>441.382446</ele><time>2009-10-20T12:25:48Z</time></trkpt>
<trkpt lat="46.20589209" lon="6.11023877"><ele>440.421265</ele><time>2009-10-20T12:25:49Z</time></trkpt>
<trkpt lat="46.20594439" lon="6.11023039"><ele>439.94043</ele><time>2009-10-20T12:25:50Z</time></trkpt>
<trkpt lat="46.20597515" lon="6.11020189"><ele>440.421265</ele><time>2009-10-20T12:25:51Z</time></trkpt>
<trkpt lat="46.20601882" lon="6.11019015"><ele>440.901855</ele><time>2009-10-20T12:25:52Z</time></trkpt>
<trkpt lat="46.20606367" lon="6.11018797"><ele>440.901855</ele><time>2009-10-20T12:25:53Z</time></trkpt>
<trkpt lat="46.20609988" lon="6.11018009"><ele>441.863159</ele><time>2009-10-20T12:25:54Z</time></trkpt>
<trkpt lat="46.20615277" lon="6.11016744"><ele>441.382446</ele><time>2009-10-20T12:25:55Z</time></trkpt>
<trkpt lat="46.20618847" lon="6.11015394"><ele>442.343872</ele><time>2009-10-20T12:25:56Z</time></trkpt>
<trkpt lat="46.20621806" lon="6.11015067"><ele>443.785767</ele><time>2009-10-20T12:25:57Z</time></trkpt>
<trkpt lat="46.20624254" lon="6.11015939"><ele>443.785767</ele><time>2009-10-20T12:25:58Z</time></trkpt>
<trkpt lat="46.20628696" lon="6.11016392"><ele>441.863159</ele><time>2009-10-20T12:25:59Z</time></trkpt>
<trkpt lat="46.20633817" lon="6.11014749"><ele>439.459717</ele><time>2009-10-20T12:26:00Z</time></trkpt>
<trkpt lat="46.20637639" lon="6.11011832"><ele>438.979126</ele><time>2009-10-20T12:26:01Z</time></trkpt>
<trkpt lat="46.20641193" lon="6.11009032"><ele>439.459717</ele><time>2009-10-20T12:26:02Z</time></trkpt>
<trkpt lat="46.20645988" lon="6.11007079"><ele>440.901855</ele><time>2009-10-20T12:26:03Z</time></trkpt>
<trkpt lat="46.20651595" lon="6.11006132"><ele>441.382446</ele><time>2009-10-20T12:26:04Z</time></trkpt>
<trkpt lat="46.20657396" lon="6.11005386"><ele>441.863159</ele><time>2009-10-20T12:26:05Z</time></trkpt>
<trkpt lat="46.20664822" lon="6.11003936"><ele>439.94043</ele><time>2009-10-20T12:26:06Z</time></trkpt>
<trkpt lat="46.20671695" lon="6.11002344"><ele>440.901855</ele><time>2009-10-20T12:26:07Z</time></trkpt>
<trkpt lat="46.20678518" lon="6.11000433"><ele>442.343872</ele><time>2009-10-20T12:26:08Z</time></trkpt>
<trkpt lat="46.20685584" lon="6.10998756"><ele>443.305054</ele><time>2009-10-20T12:26:09Z</time></trkpt>
<trkpt lat="46.20693052" lon="6.10997298"><ele>443.785767</ele><time>2009-10-20T12:26:10Z</time></trkpt>
<trkpt lat="46.20700906" lon="6.10995663"><ele>443.305054</ele><time>2009-10-20T12:26:11Z</time></trkpt>
<trkpt lat="46.20708173" lon="6.10993895"><ele>444.266479</ele><time>2009-10-20T12:26:12Z</time></trkpt>
<trkpt lat="46.20716195" lon="6.10992185"><ele>444.266479</ele><time>2009-10-20T12:26:13Z</time></trkpt>
<trkpt lat="46.20724074" lon="6.10990785"><ele>443.785767</ele><time>2009-10-20T12:26:14Z</time></trkpt>
<trkpt lat="46.20732279" lon="6.10988924"><ele>444.74707</ele><time>2009-10-20T12:26:15Z</time></trkpt>
<trkpt lat="46.20739823" lon="6.10986787"><ele>445.708374</ele><time>2009-10-20T12:26:16Z</time></trkpt>
<trkpt lat="46.20748767" lon="6.10984566"><ele>448.111816</ele><time>2009-10-20T12:26:17Z</time></trkpt>
<trkpt lat="46.20757995" lon="6.10981883"><ele>453.879639</ele><time>2009-10-20T12:26:18Z</time></trkpt>
<trkpt lat="46.20768045" lon="6.10978958"><ele>459.16687</ele><time>2009-10-20T12:26:19Z</time></trkpt>
<trkpt lat="46.20776360" lon="6.10976963"><ele>463.492798</ele><time>2009-10-20T12:26:20Z</time></trkpt>
<trkpt lat="46.20782403" lon="6.10978824"><ele>464.454102</ele><time>2009-10-20T12:26:21Z</time></trkpt>
<trkpt lat="46.20790794" lon="6.10977558"><ele>464.454102</ele><time>2009-10-20T12:26:22Z</time></trkpt>
<trkpt lat="46.20798170" lon="6.10977475"><ele>464.934814</ele><time>2009-10-20T12:26:23Z</time></trkpt>
<trkpt lat="46.20804322" lon="6.10977517"><ele>466.376709</ele><time>2009-10-20T12:26:24Z</time></trkpt>
<trkpt lat="46.20810466" lon="6.10976653"><ele>467.818726</ele><time>2009-10-20T12:26:25Z</time></trkpt>
<trkpt lat="46.20817532" lon="6.10976536"><ele>469.260742</ele><time>2009-10-20T12:26:26Z</time></trkpt>
<trkpt lat="46.20825059" lon="6.10976159"><ele>470.221924</ele><time>2009-10-20T12:26:27Z</time></trkpt>
<trkpt lat="46.20832519" lon="6.10975614"><ele>471.18335</ele><time>2009-10-20T12:26:28Z</time></trkpt>
<trkpt lat="46.20841018" lon="6.10974373"><ele>471.18335</ele><time>2009-10-20T12:26:29Z</time></trkpt>
<trkpt lat="46.20848662" lon="6.10973636"><ele>472.144653</ele><time>2009-10-20T12:26:30Z</time></trkpt>
<trkpt lat="46.20855762" lon="6.10973133"><ele>473.58667</ele><time>2009-10-20T12:26:31Z</time></trkpt>
<trkpt lat="46.20863289" lon="6.10972328"><ele>474.067261</ele><time>2009-10-20T12:26:32Z</time></trkpt>
<trkpt lat="46.20872308" lon="6.10968699"><ele>475.028687</ele><time>2009-10-20T12:26:33Z</time></trkpt>
<trkpt lat="46.20883045" lon="6.10965405"><ele>474.067261</ele><time>2009-10-20T12:26:34Z</time></trkpt>
<trkpt lat="46.20891645" lon="6.10962228"><ele>473.106079</ele><time>2009-10-20T12:26:35Z</time></trkpt>
<trkpt lat="46.20899389" lon="6.10960862"><ele>472.144653</ele><time>2009-10-20T12:26:36Z</time></trkpt>
<trkpt lat="46.20906020" lon="6.10960199"><ele>473.106079</ele><time>2009-10-20T12:26:37Z</time></trkpt>
<trkpt lat="46.20914259" lon="6.10958749"><ele>471.66394</ele><time>2009-10-20T12:26:38Z</time></trkpt>
<trkpt lat="46.20922197" lon="6.10956713"><ele>470.221924</ele><time>2009-10-20T12:26:39Z</time></trkpt>
<trkpt lat="46.20928408" lon="6.10956118"><ele>470.702637</ele><time>2009-10-20T12:26:40Z</time></trkpt>
<trkpt lat="46.20937779" lon="6.10953025"><ele>469.260742</ele><time>2009-10-20T12:26:41Z</time></trkpt>
<trkpt lat="46.20946219" lon="6.10950627"><ele>467.818726</ele><time>2009-10-20T12:26:42Z</time></trkpt>
<trkpt lat="46.20954542" lon="6.10947392"><ele>465.415527</ele><time>2009-10-20T12:26:43Z</time></trkpt>
<trkpt lat="46.20962514" lon="6.10945296"><ele>463.492798</ele><time>2009-10-20T12:26:44Z</time></trkpt>
<trkpt lat="46.20969580" lon="6.10943335"><ele>462.531372</ele><time>2009-10-20T12:26:45Z</time></trkpt>
<trkpt lat="46.20976285" lon="6.10941709"><ele>461.57019</ele><time>2009-10-20T12:26:46Z</time></trkpt>
<trkpt lat="46.20982798" lon="6.10940007"><ele>461.089478</ele><time>2009-10-20T12:26:47Z</time></trkpt>
<trkpt lat="46.20988456" lon="6.10938583"><ele>461.57019</ele><time>2009-10-20T12:26:48Z</time></trkpt>
<trkpt lat="46.20995438" lon="6.10936705"><ele>459.647583</ele><time>2009-10-20T12:26:49Z</time></trkpt>
<trkpt lat="46.21001883" lon="6.10935012"><ele>458.686157</ele><time>2009-10-20T12:26:50Z</time></trkpt>
<trkpt lat="46.21008145" lon="6.10933252"><ele>457.244263</ele><time>2009-10-20T12:26:51Z</time></trkpt>
<trkpt lat="46.21014205" lon="6.10931458"><ele>456.282959</ele><time>2009-10-20T12:26:52Z</time></trkpt>
<trkpt lat="46.21019645" lon="6.10929932"><ele>455.802246</ele><time>2009-10-20T12:26:53Z</time></trkpt>
<trkpt lat="46.21024414" lon="6.10928943"><ele>455.802246</ele><time>2009-10-20T12:26:54Z</time></trkpt>
<trkpt lat="46.21029929" lon="6.10927166"><ele>452.918213</ele><time>2009-10-20T12:26:55Z</time></trkpt>
<trkpt lat="46.21033802" lon="6.10926219"><ele>451.957031</ele><time>2009-10-20T12:26:56Z</time></trkpt>
<trkpt lat="46.21037716" lon="6.10924979"><ele>451.957031</ele><time>2009-10-20T12:26:57Z</time></trkpt>
<trkpt lat="46.21041605" lon="6.10923797"><ele>451.957031</ele><time>2009-10-20T12:26:58Z</time></trkpt>
<trkpt lat="46.21045478" lon="6.10922707"><ele>452.437622</ele><time>2009-10-20T12:26:59Z</time></trkpt>
<trkpt lat="46.21049325" lon="6.10921609"><ele>452.918213</ele><time>2009-10-20T12:27:00Z</time></trkpt>
<trkpt lat="46.21053097" lon="6.10920629"><ele>453.879639</ele><time>2009-10-20T12:27:01Z</time></trkpt>
<trkpt lat="46.21057414" lon="6.10919413"><ele>453.398926</ele><time>2009-10-20T12:27:02Z</time></trkpt>
<trkpt lat="46.21061152" lon="6.10918324"><ele>454.360229</ele><time>2009-10-20T12:27:03Z</time></trkpt>
<trkpt lat="46.21065225" lon="6.10917008"><ele>454.84082</ele><time>2009-10-20T12:27:04Z</time></trkpt>
<trkpt lat="46.21069953" lon="6.10915884"><ele>453.879639</ele><time>2009-10-20T12:27:05Z</time></trkpt>
<trkpt lat="46.21075669" lon="6.10914728"><ele>452.437622</ele><time>2009-10-20T12:27:06Z</time></trkpt>
<trkpt lat="46.21080422" lon="6.10913822"><ele>450.995605</ele><time>2009-10-20T12:27:07Z</time></trkpt>
<trkpt lat="46.21084864" lon="6.10911559"><ele>448.592407</ele><time>2009-10-20T12:27:08Z</time></trkpt>
<trkpt lat="46.21090346" lon="6.10908726"><ele>449.553711</ele><time>2009-10-20T12:27:09Z</time></trkpt>
<trkpt lat="46.21094897" lon="6.10907008"><ele>450.034424</ele><time>2009-10-20T12:27:10Z</time></trkpt>
<trkpt lat="46.21098602" lon="6.10905642"><ele>449.553711</ele><time>2009-10-20T12:27:11Z</time></trkpt>
<trkpt lat="46.21101519" lon="6.10903353"><ele>447.150269</ele><time>2009-10-20T12:27:12Z</time></trkpt>
<trkpt lat="46.21105400" lon="6.10901987"><ele>447.150269</ele><time>2009-10-20T12:27:13Z</time></trkpt>
<trkpt lat="46.21108929" lon="6.10901149"><ele>446.669678</ele><time>2009-10-20T12:27:14Z</time></trkpt>
<trkpt lat="46.21112659" lon="6.10900747"><ele>446.189087</ele><time>2009-10-20T12:27:15Z</time></trkpt>
<trkpt lat="46.21116003" lon="6.10899800"><ele>446.669678</ele><time>2009-10-20T12:27:16Z</time></trkpt>
<trkpt lat="46.21119146" lon="6.10899213"><ele>447.630981</ele><time>2009-10-20T12:27:17Z</time></trkpt>
<trkpt lat="46.21120286" lon="6.10899188"><ele>448.111816</ele><time>2009-10-20T12:27:18Z</time></trkpt>
<trkpt lat="46.21120320" lon="6.10899129"><ele>449.553711</ele><time>2009-10-20T12:27:19Z</time></trkpt>
<trkpt lat="46.21120630" lon="6.10898416"><ele>450.995605</ele><time>2009-10-20T12:27:20Z</time></trkpt>
<trkpt lat="46.21120613" lon="6.10897042"><ele>453.879639</ele><time>2009-10-20T12:27:21Z</time></trkpt>
<trkpt lat="46.21120898" lon="6.10896665"><ele>456.76355</ele><time>2009-10-20T12:27:22Z</time></trkpt>
<trkpt lat="46.21121057" lon="6.10896355"><ele>459.16687</ele><time>2009-10-20T12:27:23Z</time></trkpt>
<trkpt lat="46.21121443" lon="6.10896346"><ele>461.089478</ele><time>2009-10-20T12:27:24Z</time></trkpt>
<trkpt lat="46.21121979" lon="6.10895776"><ele>462.531372</ele><time>2009-10-20T12:27:25Z</time></trkpt>
<trkpt lat="46.21122407" lon="6.10895349"><ele>464.454102</ele><time>2009-10-20T12:27:26Z</time></trkpt>
<trkpt lat="46.21122742" lon="6.10895047"><ele>465.415527</ele><time>2009-10-20T12:27:27Z</time></trkpt>
<trkpt lat="46.21123404" lon="6.10894502"><ele>467.818726</ele><time>2009-10-20T12:27:28Z</time></trkpt>
<trkpt lat="46.21124075" lon="6.10894033"><ele>469.741333</ele><time>2009-10-20T12:27:29Z</time></trkpt>
<trkpt lat="46.21124712" lon="6.10893605"><ele>471.66394</ele><time>2009-10-20T12:27:30Z</time></trkpt>
<trkpt lat="46.21125366" lon="6.10893169"><ele>473.58667</ele><time>2009-10-20T12:27:31Z</time></trkpt>
<trkpt lat="46.21125936" lon="6.10892759"><ele>475.509277</ele><time>2009-10-20T12:27:32Z</time></trkpt>
<trkpt lat="46.21126346" lon="6.10892507"><ele>475.989868</ele><time>2009-10-20T12:27:33Z</time></trkpt>
<trkpt lat="46.21126715" lon="6.10892365"><ele>475.989868</ele><time>2009-10-20T12:27:34Z</time></trkpt>
<trkpt lat="46.21126380" lon="6.10892574"><ele>474.547974</ele><time>2009-10-20T12:27:35Z</time></trkpt>
<trkpt lat="46.21126782" lon="6.10892088"><ele>474.067261</ele><time>2009-10-20T12:27:36Z</time></trkpt>
<trkpt lat="46.21127319" lon="6.10891493"><ele>473.58667</ele><time>2009-10-20T12:27:37Z</time></trkpt>
<trkpt lat="46.21127754" lon="6.10891015"><ele>473.106079</ele><time>2009-10-20T12:27:38Z</time></trkpt>
<trkpt lat="46.21128224" lon="6.10890429"><ele>472.625366</ele><time>2009-10-20T12:27:39Z</time></trkpt>
<trkpt lat="46.21128744" lon="6.10889833"><ele>472.144653</ele><time>2009-10-20T12:27:40Z</time></trkpt>
<trkpt lat="46.21129255" lon="6.10889196"><ele>471.66394</ele><time>2009-10-20T12:27:41Z</time></trkpt>
<trkpt lat="46.21129766" lon="6.10888585"><ele>470.702637</ele><time>2009-10-20T12:27:42Z</time></trkpt>
<trkpt lat="46.21130244" lon="6.10887964"><ele>470.702637</ele><time>2009-10-20T12:27:43Z</time></trkpt>
<trkpt lat="46.21130696" lon="6.10887470"><ele>469.741333</ele><time>2009-10-20T12:27:44Z</time></trkpt>
<trkpt lat="46.21130529" lon="6.10887512"><ele>468.299316</ele><time>2009-10-20T12:27:45Z</time></trkpt>
<trkpt lat="46.21130235" lon="6.10887713"><ele>466.857422</ele><time>2009-10-20T12:27:46Z</time></trkpt>
<trkpt lat="46.21129867" lon="6.10888098"><ele>465.896118</ele><time>2009-10-20T12:27:47Z</time></trkpt>
<trkpt lat="46.21129850" lon="6.10888048"><ele>465.896118</ele><time>2009-10-20T12:27:48Z</time></trkpt>
<trkpt lat="46.21129464" lon="6.10888392"><ele>466.857422</ele><time>2009-10-20T12:27:49Z</time></trkpt>
<trkpt lat="46.21129523" lon="6.10888283"><ele>467.338135</ele><time>2009-10-20T12:27:50Z</time></trkpt>
<trkpt lat="46.21129498" lon="6.10888224"><ele>467.338135</ele><time>2009-10-20T12:27:51Z</time></trkpt>
<trkpt lat="46.21130294" lon="6.10887294"><ele>467.818726</ele><time>2009-10-20T12:27:52Z</time></trkpt>
<trkpt lat="46.21130303" lon="6.10887243"><ele>466.857422</ele><time>2009-10-20T12:27:53Z</time></trkpt>
<trkpt lat="46.21130445" lon="6.10887059"><ele>466.857422</ele><time>2009-10-20T12:27:54Z</time></trkpt>
<trkpt lat="46.21130319" lon="6.10887126"><ele>466.376709</ele><time>2009-10-20T12:27:55Z</time></trkpt>
<trkpt lat="46.21130487" lon="6.10886917"><ele>466.376709</ele><time>2009-10-20T12:27:56Z</time></trkpt>
<trkpt lat="46.21130370" lon="6.10887059"><ele>465.896118</ele><time>2009-10-20T12:27:57Z</time></trkpt>
<trkpt lat="46.21131065" lon="6.10886338"><ele>466.376709</ele><time>2009-10-20T12:27:58Z</time></trkpt>
<trkpt lat="46.21130705" lon="6.10886757"><ele>464.454102</ele><time>2009-10-20T12:27:59Z</time></trkpt>
<trkpt lat="46.21131434" lon="6.10885995"><ele>464.934814</ele><time>2009-10-20T12:28:00Z</time></trkpt>
<trkpt lat="46.21130948" lon="6.10886640"><ele>462.531372</ele><time>2009-10-20T12:28:01Z</time></trkpt>
<trkpt lat="46.21130579" lon="6.10887143"><ele>461.089478</ele><time>2009-10-20T12:28:02Z</time></trkpt>
<trkpt lat="46.21130319" lon="6.10887562"><ele>459.16687</ele><time>2009-10-20T12:28:03Z</time></trkpt>
<trkpt lat="46.21130663" lon="6.10887344"><ele>457.724976</ele><time>2009-10-20T12:28:04Z</time></trkpt>
<trkpt lat="46.21130529" lon="6.10887654"><ele>456.76355</ele><time>2009-10-20T12:28:05Z</time></trkpt>
<trkpt lat="46.21130395" lon="6.10887964"><ele>455.321533</ele><time>2009-10-20T12:28:06Z</time></trkpt>
<trkpt lat="46.21130638" lon="6.10887839"><ele>454.360229</ele><time>2009-10-20T12:28:07Z</time></trkpt>
<trkpt lat="46.21130998" lon="6.10887470"><ele>453.879639</ele><time>2009-10-20T12:28:08Z</time></trkpt>
<trkpt lat="46.21131116" lon="6.10887378"><ele>452.918213</ele><time>2009-10-20T12:28:09Z</time></trkpt>
<trkpt lat="46.21130797" lon="6.10888232"><ele>452.918213</ele><time>2009-10-20T12:28:10Z</time></trkpt>
<trkpt lat="46.21130956" lon="6.10888987"><ele>451.957031</ele><time>2009-10-20T12:28:11Z</time></trkpt>
<trkpt lat="46.21131568" lon="6.10889230"><ele>451.957031</ele><time>2009-10-20T12:28:12Z</time></trkpt>
<trkpt lat="46.21132834" lon="6.10889263"><ele>451.957031</ele><time>2009-10-20T12:28:13Z</time></trkpt>
<trkpt lat="46.21134887" lon="6.10888585"><ele>451.476318</ele><time>2009-10-20T12:28:14Z</time></trkpt>
<trkpt lat="46.21137419" lon="6.10886615"><ele>450.515015</ele><time>2009-10-20T12:28:15Z</time></trkpt>
<trkpt lat="46.21140344" lon="6.10883237"><ele>449.553711</ele><time>2009-10-20T12:28:16Z</time></trkpt>
<trkpt lat="46.21142758" lon="6.10877839"><ele>448.592407</ele><time>2009-10-20T12:28:17Z</time></trkpt>
<trkpt lat="46.21144426" lon="6.10870983"><ele>447.630981</ele><time>2009-10-20T12:28:18Z</time></trkpt>
<trkpt lat="46.21146932" lon="6.10861796"><ele>447.150269</ele><time>2009-10-20T12:28:19Z</time></trkpt>
<trkpt lat="46.21148550" lon="6.10850824"><ele>446.189087</ele><time>2009-10-20T12:28:20Z</time></trkpt>
<trkpt lat="46.21149966" lon="6.10840179"><ele>444.266479</ele><time>2009-10-20T12:28:21Z</time></trkpt>
<trkpt lat="46.21151878" lon="6.10828637"><ele>443.305054</ele><time>2009-10-20T12:28:22Z</time></trkpt>
<trkpt lat="46.21153085" lon="6.10815184"><ele>441.863159</ele><time>2009-10-20T12:28:23Z</time></trkpt>
<trkpt lat="46.21154308" lon="6.10800876"><ele>441.863159</ele><time>2009-10-20T12:28:24Z</time></trkpt>
<trkpt lat="46.21155482" lon="6.10784934"><ele>443.305054</ele><time>2009-10-20T12:28:25Z</time></trkpt>
<trkpt lat="46.21157368" lon="6.10769427"><ele>444.266479</ele><time>2009-10-20T12:28:26Z</time></trkpt>
<trkpt lat="46.21160536" lon="6.10755497"><ele>445.227661</ele><time>2009-10-20T12:28:27Z</time></trkpt>
<trkpt lat="46.21164409" lon="6.10740845"><ele>447.150269</ele><time>2009-10-20T12:28:28Z</time></trkpt>
<trkpt lat="46.21169438" lon="6.10727124"><ele>449.072998</ele><time>2009-10-20T12:28:29Z</time></trkpt>
<trkpt lat="46.21174039" lon="6.10713889"><ele>449.072998</ele><time>2009-10-20T12:28:30Z</time></trkpt>
<trkpt lat="46.21178549" lon="6.10700277"><ele>448.592407</ele><time>2009-10-20T12:28:31Z</time></trkpt>
<trkpt lat="46.21182648" lon="6.10687419"><ele>446.669678</ele><time>2009-10-20T12:28:32Z</time></trkpt>
<trkpt lat="46.21186914" lon="6.10674854"><ele>446.669678</ele><time>2009-10-20T12:28:33Z</time></trkpt>
<trkpt lat="46.21190158" lon="6.10662223"><ele>444.74707</ele><time>2009-10-20T12:28:34Z</time></trkpt>
<trkpt lat="46.21193502" lon="6.10649843"><ele>441.382446</ele><time>2009-10-20T12:28:35Z</time></trkpt>
<trkpt lat="46.21196813" lon="6.10637748"><ele>438.017822</ele><time>2009-10-20T12:28:36Z</time></trkpt>
<trkpt lat="46.21200509" lon="6.10625636"><ele>435.614502</ele><time>2009-10-20T12:28:37Z</time></trkpt>
<trkpt lat="46.21203988" lon="6.10614019"><ele>433.691895</ele><time>2009-10-20T12:28:38Z</time></trkpt>
<trkpt lat="46.21207584" lon="6.10602736"><ele>432.730713</ele><time>2009-10-20T12:28:39Z</time></trkpt>
<trkpt lat="46.21211129" lon="6.10590306"><ele>431.288574</ele><time>2009-10-20T12:28:40Z</time></trkpt>
<trkpt lat="46.21214700" lon="6.10577172"><ele>431.288574</ele><time>2009-10-20T12:28:41Z</time></trkpt>
<trkpt lat="46.21219000" lon="6.10563425"><ele>431.288574</ele><time>2009-10-20T12:28:42Z</time></trkpt>
<trkpt lat="46.21222864" lon="6.10550827"><ele>431.288574</ele><time>2009-10-20T12:28:43Z</time></trkpt>
<trkpt lat="46.21227340" lon="6.10537198"><ele>429.365967</ele><time>2009-10-20T12:28:44Z</time></trkpt>
<trkpt lat="46.21231556" lon="6.10524299"><ele>427.443359</ele><time>2009-10-20T12:28:45Z</time></trkpt>
<trkpt lat="46.21234867" lon="6.10512363"><ele>424.078735</ele><time>2009-10-20T12:28:46Z</time></trkpt>
<trkpt lat="46.21239904" lon="6.10501332"><ele>425.520752</ele><time>2009-10-20T12:28:47Z</time></trkpt>
<trkpt lat="46.21244045" lon="6.10489430"><ele>425.040161</ele><time>2009-10-20T12:28:48Z</time></trkpt>
<trkpt lat="46.21248856" lon="6.10478869"><ele>424.078735</ele><time>2009-10-20T12:28:49Z</time></trkpt>
<trkpt lat="46.21255025" lon="6.10469590"><ele>424.559448</ele><time>2009-10-20T12:28:50Z</time></trkpt>
<trkpt lat="46.21262267" lon="6.10461443"><ele>425.520752</ele><time>2009-10-20T12:28:51Z</time></trkpt>
<trkpt lat="46.21269098" lon="6.10454008"><ele>425.520752</ele><time>2009-10-20T12:28:52Z</time></trkpt>
<trkpt lat="46.21275854" lon="6.10446464"><ele>425.520752</ele><time>2009-10-20T12:28:53Z</time></trkpt>
<trkpt lat="46.21282275" lon="6.10438602"><ele>426.001343</ele><time>2009-10-20T12:28:54Z</time></trkpt>
<trkpt lat="46.21288243" lon="6.10430698"><ele>426.001343</ele><time>2009-10-20T12:28:55Z</time></trkpt>
<trkpt lat="46.21293725" lon="6.10423003"><ele>426.001343</ele><time>2009-10-20T12:28:56Z</time></trkpt>
<trkpt lat="46.21299248" lon="6.10415359"><ele>425.520752</ele><time>2009-10-20T12:28:57Z</time></trkpt>
<trkpt lat="46.21304789" lon="6.10407572"><ele>425.040161</ele><time>2009-10-20T12:28:58Z</time></trkpt>
<trkpt lat="46.21310237" lon="6.10399936"><ele>425.040161</ele><time>2009-10-20T12:28:59Z</time></trkpt>
<trkpt lat="46.21316087" lon="6.10392217"><ele>425.040161</ele><time>2009-10-20T12:29:00Z</time></trkpt>
<trkpt lat="46.21321494" lon="6.10384832"><ele>425.520752</ele><time>2009-10-20T12:29:01Z</time></trkpt>
<trkpt lat="46.21326464" lon="6.10378110"><ele>425.520752</ele><time>2009-10-20T12:29:02Z</time></trkpt>
<trkpt lat="46.21331267" lon="6.10372058"><ele>425.520752</ele><time>2009-10-20T12:29:03Z</time></trkpt>
<trkpt lat="46.21335508" lon="6.10366593"><ele>425.520752</ele><time>2009-10-20T12:29:04Z</time></trkpt>
<trkpt lat="46.21339255" lon="6.10361648"><ele>425.520752</ele><time>2009-10-20T12:29:05Z</time></trkpt>
<trkpt lat="46.21342633" lon="6.10357390"><ele>426.001343</ele><time>2009-10-20T12:29:06Z</time></trkpt>
<trkpt lat="46.21345634" lon="6.10353978"><ele>426.482056</ele><time>2009-10-20T12:29:07Z</time></trkpt>
<trkpt lat="46.21348307" lon="6.10350952"><ele>426.482056</ele><time>2009-10-20T12:29:08Z</time></trkpt>
<trkpt lat="46.21350487" lon="6.10348513"><ele>426.962769</ele><time>2009-10-20T12:29:09Z</time></trkpt>
<trkpt lat="46.21352037" lon="6.10346368"><ele>426.962769</ele><time>2009-10-20T12:29:10Z</time></trkpt>
<trkpt lat="46.21352976" lon="6.10345135"><ele>426.962769</ele><time>2009-10-20T12:29:11Z</time></trkpt>
<trkpt lat="46.21354024" lon="6.10343442"><ele>426.482056</ele><time>2009-10-20T12:29:12Z</time></trkpt>
<trkpt lat="46.21355223" lon="6.10341649"><ele>425.520752</ele><time>2009-10-20T12:29:13Z</time></trkpt>
<trkpt lat="46.21357293" lon="6.10338505"><ele>425.520752</ele><time>2009-10-20T12:29:14Z</time></trkpt>
<trkpt lat="46.21359196" lon="6.10335714"><ele>425.520752</ele><time>2009-10-20T12:29:15Z</time></trkpt>
<trkpt lat="46.21361157" lon="6.10333736"><ele>425.040161</ele><time>2009-10-20T12:29:16Z</time></trkpt>
<trkpt lat="46.21363688" lon="6.10332873"><ele>425.040161</ele><time>2009-10-20T12:29:17Z</time></trkpt>
<trkpt lat="46.21367586" lon="6.10333778"><ele>425.040161</ele><time>2009-10-20T12:29:18Z</time></trkpt>
<trkpt lat="46.21371098" lon="6.10335798"><ele>424.559448</ele><time>2009-10-20T12:29:19Z</time></trkpt>
<trkpt lat="46.21374643" lon="6.10338287"><ele>424.559448</ele><time>2009-10-20T12:29:20Z</time></trkpt>
<trkpt lat="46.21379178" lon="6.10340777"><ele>425.040161</ele><time>2009-10-20T12:29:21Z</time></trkpt>
<trkpt lat="46.21383335" lon="6.10344239"><ele>425.040161</ele><time>2009-10-20T12:29:22Z</time></trkpt>
<trkpt lat="46.21387158" lon="6.10348195"><ele>424.559448</ele><time>2009-10-20T12:29:23Z</time></trkpt>
<trkpt lat="46.21391659" lon="6.10352746"><ele>425.040161</ele><time>2009-10-20T12:29:24Z</time></trkpt>
<trkpt lat="46.21395648" lon="6.10357306"><ele>424.078735</ele><time>2009-10-20T12:29:25Z</time></trkpt>
<trkpt lat="46.21400082" lon="6.10361514"><ele>423.598022</ele><time>2009-10-20T12:29:26Z</time></trkpt>
<trkpt lat="46.21405145" lon="6.10364984"><ele>423.117432</ele><time>2009-10-20T12:29:27Z</time></trkpt>
<trkpt lat="46.21409269" lon="6.10369074"><ele>422.156006</ele><time>2009-10-20T12:29:28Z</time></trkpt>
<trkpt lat="46.21414005" lon="6.10373240"><ele>422.156006</ele><time>2009-10-20T12:29:29Z</time></trkpt>
<trkpt lat="46.21419528" lon="6.10377816"><ele>422.156006</ele><time>2009-10-20T12:29:30Z</time></trkpt>
<trkpt lat="46.21425035" lon="6.10382888"><ele>422.636719</ele><time>2009-10-20T12:29:31Z</time></trkpt>
<trkpt lat="46.21430442" lon="6.10389870"><ele>424.078735</ele><time>2009-10-20T12:29:32Z</time></trkpt>
<trkpt lat="46.21435714" lon="6.10397262"><ele>425.040161</ele><time>2009-10-20T12:29:33Z</time></trkpt>
<trkpt lat="46.21441908" lon="6.10403976"><ele>426.001343</ele><time>2009-10-20T12:29:34Z</time></trkpt>
<trkpt lat="46.21448203" lon="6.10410397"><ele>426.962769</ele><time>2009-10-20T12:29:35Z</time></trkpt>
<trkpt lat="46.21454523" lon="6.10415937"><ele>428.404663</ele><time>2009-10-20T12:29:36Z</time></trkpt>
<trkpt lat="46.21461689" lon="6.10420179"><ele>428.885376</ele><time>2009-10-20T12:29:37Z</time></trkpt>
<trkpt lat="46.21468412" lon="6.10424856"><ele>428.885376</ele><time>2009-10-20T12:29:38Z</time></trkpt>
<trkpt lat="46.21475117" lon="6.10430622"><ele>429.846558</ele><time>2009-10-20T12:29:39Z</time></trkpt>
<trkpt lat="46.21481705" lon="6.10436808"><ele>431.288574</ele><time>2009-10-20T12:29:40Z</time></trkpt>
<trkpt lat="46.21488134" lon="6.10442927"><ele>433.211304</ele><time>2009-10-20T12:29:41Z</time></trkpt>
<trkpt lat="46.21494639" lon="6.10448937"><ele>434.172607</ele><time>2009-10-20T12:29:42Z</time></trkpt>
<trkpt lat="46.21501202" lon="6.10454989"><ele>434.65332</ele><time>2009-10-20T12:29:43Z</time></trkpt>
<trkpt lat="46.21507882" lon="6.10461543"><ele>435.614502</ele><time>2009-10-20T12:29:44Z</time></trkpt>
<trkpt lat="46.21514194" lon="6.10468123"><ele>435.614502</ele><time>2009-10-20T12:29:45Z</time></trkpt>
<trkpt lat="46.21521427" lon="6.10474057"><ele>438.017822</ele><time>2009-10-20T12:29:46Z</time></trkpt>
<trkpt lat="46.21525920" lon="6.10481375"><ele>435.133911</ele><time>2009-10-20T12:29:47Z</time></trkpt>
<trkpt lat="46.21530094" lon="6.10489069"><ele>434.172607</ele><time>2009-10-20T12:29:48Z</time></trkpt>
<trkpt lat="46.21534344" lon="6.10497812"><ele>434.65332</ele><time>2009-10-20T12:29:49Z</time></trkpt>
<trkpt lat="46.21539515" lon="6.10506772"><ele>435.133911</ele><time>2009-10-20T12:29:50Z</time></trkpt>
<trkpt lat="46.21543522" lon="6.10514676"><ele>435.133911</ele><time>2009-10-20T12:29:51Z</time></trkpt>
<trkpt lat="46.21547629" lon="6.10522404"><ele>434.65332</ele><time>2009-10-20T12:29:52Z</time></trkpt>
<trkpt lat="46.21551619" lon="6.10529965"><ele>432.730713</ele><time>2009-10-20T12:29:53Z</time></trkpt>
<trkpt lat="46.21555927" lon="6.10537777"><ele>432.25</ele><time>2009-10-20T12:29:54Z</time></trkpt>
<trkpt lat="46.21560059" lon="6.10544952"><ele>431.288574</ele><time>2009-10-20T12:29:55Z</time></trkpt>
<trkpt lat="46.21564602" lon="6.10550702"><ele>429.365967</ele><time>2009-10-20T12:29:56Z</time></trkpt>
<trkpt lat="46.21570026" lon="6.10553962"><ele>427.92395</ele><time>2009-10-20T12:29:57Z</time></trkpt>
<trkpt lat="46.21574669" lon="6.10548003"><ele>426.962769</ele><time>2009-10-20T12:29:58Z</time></trkpt>
<trkpt lat="46.21578072" lon="6.10541297"><ele>426.482056</ele><time>2009-10-20T12:29:59Z</time></trkpt>
<trkpt lat="46.21582557" lon="6.10532404"><ele>426.962769</ele><time>2009-10-20T12:30:00Z</time></trkpt>
<trkpt lat="46.21587058" lon="6.10525522"><ele>427.92395</ele><time>2009-10-20T12:30:01Z</time></trkpt>
<trkpt lat="46.21592313" lon="6.10519278"><ele>427.443359</ele><time>2009-10-20T12:30:02Z</time></trkpt>
<trkpt lat="46.21597669" lon="6.10512648"><ele>427.92395</ele><time>2009-10-20T12:30:03Z</time></trkpt>
<trkpt lat="46.21603235" lon="6.10505733"><ele>427.92395</ele><time>2009-10-20T12:30:04Z</time></trkpt>
<trkpt lat="46.21608993" lon="6.10498725"><ele>428.404663</ele><time>2009-10-20T12:30:05Z</time></trkpt>
<trkpt lat="46.21614919" lon="6.10491483"><ele>428.404663</ele><time>2009-10-20T12:30:06Z</time></trkpt>
<trkpt lat="46.21621138" lon="6.10484376"><ele>428.404663</ele><time>2009-10-20T12:30:07Z</time></trkpt>
<trkpt lat="46.21627467" lon="6.10477285"><ele>428.404663</ele><time>2009-10-20T12:30:08Z</time></trkpt>
<trkpt lat="46.21634298" lon="6.10471166"><ele>428.404663</ele><time>2009-10-20T12:30:09Z</time></trkpt>
<trkpt lat="46.21641305" lon="6.10465315"><ele>427.92395</ele><time>2009-10-20T12:30:10Z</time></trkpt>
<trkpt lat="46.21651280" lon="6.10455299"><ele>428.404663</ele><time>2009-10-20T12:30:11Z</time></trkpt>
<trkpt lat="46.21658396" lon="6.10448099"><ele>427.443359</ele><time>2009-10-20T12:30:12Z</time></trkpt>
<trkpt lat="46.21665026" lon="6.10440228"><ele>427.92395</ele><time>2009-10-20T12:30:13Z</time></trkpt>
<trkpt lat="46.21671723" lon="6.10432827"><ele>427.92395</ele><time>2009-10-20T12:30:14Z</time></trkpt>
<trkpt lat="46.21677515" lon="6.10425903"><ele>428.404663</ele><time>2009-10-20T12:30:15Z</time></trkpt>
<trkpt lat="46.21683282" lon="6.10418963"><ele>428.885376</ele><time>2009-10-20T12:30:16Z</time></trkpt>
<trkpt lat="46.21689132" lon="6.10412166"><ele>429.365967</ele><time>2009-10-20T12:30:17Z</time></trkpt>
<trkpt lat="46.21695017" lon="6.10405326"><ele>429.846558</ele><time>2009-10-20T12:30:18Z</time></trkpt>
<trkpt lat="46.21701378" lon="6.10398076"><ele>430.327271</ele><time>2009-10-20T12:30:19Z</time></trkpt>
<trkpt lat="46.21707522" lon="6.10391127"><ele>430.327271</ele><time>2009-10-20T12:30:20Z</time></trkpt>
<trkpt lat="46.21713566" lon="6.10384069"><ele>430.327271</ele><time>2009-10-20T12:30:21Z</time></trkpt>
<trkpt lat="46.21719693" lon="6.10377230"><ele>430.327271</ele><time>2009-10-20T12:30:22Z</time></trkpt>
<trkpt lat="46.21725795" lon="6.10370424"><ele>429.846558</ele><time>2009-10-20T12:30:23Z</time></trkpt>
<trkpt lat="46.21731830" lon="6.10363659"><ele>429.365967</ele><time>2009-10-20T12:30:24Z</time></trkpt>
<trkpt lat="46.21737689" lon="6.10357767"><ele>429.365967</ele><time>2009-10-20T12:30:25Z</time></trkpt>
<trkpt lat="46.21743204" lon="6.10350659"><ele>429.846558</ele><time>2009-10-20T12:30:26Z</time></trkpt>
<trkpt lat="46.21749063" lon="6.10344272"><ele>429.365967</ele><time>2009-10-20T12:30:27Z</time></trkpt>
<trkpt lat="46.21754503" lon="6.10338338"><ele>430.327271</ele><time>2009-10-20T12:30:28Z</time></trkpt>
<trkpt lat="46.21760177" lon="6.10331867"><ele>430.807983</ele><time>2009-10-20T12:30:29Z</time></trkpt>
<trkpt lat="46.21765986" lon="6.10325212"><ele>430.807983</ele><time>2009-10-20T12:30:30Z</time></trkpt>
<trkpt lat="46.21771778" lon="6.10318632"><ele>430.327271</ele><time>2009-10-20T12:30:31Z</time></trkpt>
<trkpt lat="46.21777612" lon="6.10311918"><ele>429.846558</ele><time>2009-10-20T12:30:32Z</time></trkpt>
<trkpt lat="46.21783504" lon="6.10304818"><ele>429.846558</ele><time>2009-10-20T12:30:33Z</time></trkpt>
<trkpt lat="46.21789229" lon="6.10297979"><ele>429.365967</ele><time>2009-10-20T12:30:34Z</time></trkpt>
<trkpt lat="46.21795105" lon="6.10291072"><ele>429.846558</ele><time>2009-10-20T12:30:35Z</time></trkpt>
<trkpt lat="46.21800972" lon="6.10284165"><ele>429.365967</ele><time>2009-10-20T12:30:36Z</time></trkpt>
<trkpt lat="46.21806915" lon="6.10277343"><ele>429.846558</ele><time>2009-10-20T12:30:37Z</time></trkpt>
<trkpt lat="46.21813403" lon="6.10271048"><ele>429.365967</ele><time>2009-10-20T12:30:38Z</time></trkpt>
<trkpt lat="46.21821198" lon="6.10265977"><ele>429.365967</ele><time>2009-10-20T12:30:39Z</time></trkpt>
<trkpt lat="46.21828934" lon="6.10262104"><ele>428.885376</ele><time>2009-10-20T12:30:40Z</time></trkpt>
<trkpt lat="46.21836788" lon="6.10259598"><ele>428.885376</ele><time>2009-10-20T12:30:41Z</time></trkpt>
<trkpt lat="46.21844608" lon="6.10259246"><ele>428.885376</ele><time>2009-10-20T12:30:42Z</time></trkpt>
<trkpt lat="46.21852722" lon="6.10260537"><ele>428.885376</ele><time>2009-10-20T12:30:43Z</time></trkpt>
<trkpt lat="46.21860249" lon="6.10263806"><ele>428.885376</ele><time>2009-10-20T12:30:44Z</time></trkpt>
<trkpt lat="46.21867407" lon="6.10268123"><ele>429.846558</ele><time>2009-10-20T12:30:45Z</time></trkpt>
<trkpt lat="46.21874942" lon="6.10272724"><ele>430.327271</ele><time>2009-10-20T12:30:46Z</time></trkpt>
<trkpt lat="46.21882369" lon="6.10277426"><ele>431.769165</ele><time>2009-10-20T12:30:47Z</time></trkpt>
<trkpt lat="46.21890005" lon="6.10282045"><ele>432.25</ele><time>2009-10-20T12:30:48Z</time></trkpt>
<trkpt lat="46.21897599" lon="6.10287099"><ele>432.730713</ele><time>2009-10-20T12:30:49Z</time></trkpt>
<trkpt lat="46.21904908" lon="6.10292933"><ele>433.211304</ele><time>2009-10-20T12:30:50Z</time></trkpt>
<trkpt lat="46.21912108" lon="6.10298968"><ele>433.691895</ele><time>2009-10-20T12:30:51Z</time></trkpt>
<trkpt lat="46.21919207" lon="6.10304886"><ele>433.691895</ele><time>2009-10-20T12:30:52Z</time></trkpt>
<trkpt lat="46.21927103" lon="6.10310770"><ele>433.211304</ele><time>2009-10-20T12:30:53Z</time></trkpt>
<trkpt lat="46.21934580" lon="6.10316545"><ele>433.691895</ele><time>2009-10-20T12:30:54Z</time></trkpt>
<trkpt lat="46.21943255" lon="6.10323133"><ele>436.095215</ele><time>2009-10-20T12:30:55Z</time></trkpt>
<trkpt lat="46.21952366" lon="6.10329294"><ele>438.498535</ele><time>2009-10-20T12:30:56Z</time></trkpt>
<trkpt lat="46.21960429" lon="6.10336108"><ele>440.901855</ele><time>2009-10-20T12:30:57Z</time></trkpt>
<trkpt lat="46.21968753" lon="6.10343736"><ele>443.305054</ele><time>2009-10-20T12:30:58Z</time></trkpt>
<trkpt lat="46.21978585" lon="6.10355495"><ele>444.266479</ele><time>2009-10-20T12:30:59Z</time></trkpt>
<trkpt lat="46.21988869" lon="6.10365713"><ele>445.708374</ele><time>2009-10-20T12:31:00Z</time></trkpt>
<trkpt lat="46.21998475" lon="6.10371916"><ele>446.189087</ele><time>2009-10-20T12:31:01Z</time></trkpt>
<trkpt lat="46.22009162" lon="6.10378076"><ele>447.630981</ele><time>2009-10-20T12:31:02Z</time></trkpt>
<trkpt lat="46.22018315" lon="6.10383315"><ele>446.669678</ele><time>2009-10-20T12:31:03Z</time></trkpt>
<trkpt lat="46.22025138" lon="6.10390088"><ele>448.111816</ele><time>2009-10-20T12:31:04Z</time></trkpt>
<trkpt lat="46.22031868" lon="6.10397154"><ele>448.111816</ele><time>2009-10-20T12:31:05Z</time></trkpt>
<trkpt lat="46.22039555" lon="6.10405385"><ele>450.034424</ele><time>2009-10-20T12:31:06Z</time></trkpt>
<trkpt lat="46.22040954" lon="6.10420782"><ele>448.111816</ele><time>2009-10-20T12:31:07Z</time></trkpt>
<trkpt lat="46.22047023" lon="6.10421654"><ele>449.072998</ele><time>2009-10-20T12:31:08Z</time></trkpt>
<trkpt lat="46.22053955" lon="6.10427957"><ele>449.072998</ele><time>2009-10-20T12:31:09Z</time></trkpt>
<trkpt lat="46.22061792" lon="6.10428628"><ele>450.995605</ele><time>2009-10-20T12:31:10Z</time></trkpt>
<trkpt lat="46.22066804" lon="6.10427345"><ele>453.879639</ele><time>2009-10-20T12:31:11Z</time></trkpt>
<trkpt lat="46.22072537" lon="6.10425057"><ele>454.84082</ele><time>2009-10-20T12:31:12Z</time></trkpt>
<trkpt lat="46.22075513" lon="6.10425694"><ele>454.84082</ele><time>2009-10-20T12:31:13Z</time></trkpt>
<trkpt lat="46.22076309" lon="6.10430463"><ele>455.321533</ele><time>2009-10-20T12:31:14Z</time></trkpt>
<trkpt lat="46.22076980" lon="6.10436037"><ele>456.76355</ele><time>2009-10-20T12:31:15Z</time></trkpt>
<trkpt lat="46.22078313" lon="6.10440815"><ele>453.879639</ele><time>2009-10-20T12:31:16Z</time></trkpt>
<trkpt lat="46.22079997" lon="6.10445878"><ele>451.957031</ele><time>2009-10-20T12:31:17Z</time></trkpt>
<trkpt lat="46.22081573" lon="6.10449926"><ele>450.034424</ele><time>2009-10-20T12:31:18Z</time></trkpt>
<trkpt lat="46.22083057" lon="6.10454033"><ele>448.592407</ele><time>2009-10-20T12:31:19Z</time></trkpt>
<trkpt lat="46.22084473" lon="6.10458995"><ele>446.189087</ele><time>2009-10-20T12:31:20Z</time></trkpt>
<trkpt lat="46.22086158" lon="6.10463203"><ele>443.785767</ele><time>2009-10-20T12:31:21Z</time></trkpt>
<trkpt lat="46.22087918" lon="6.10467159"><ele>442.343872</ele><time>2009-10-20T12:31:22Z</time></trkpt>
<trkpt lat="46.22088337" lon="6.10470805"><ele>440.421265</ele><time>2009-10-20T12:31:23Z</time></trkpt>
<trkpt lat="46.22088245" lon="6.10475482"><ele>438.498535</ele><time>2009-10-20T12:31:24Z</time></trkpt>
<trkpt lat="46.22087290" lon="6.10479849"><ele>438.017822</ele><time>2009-10-20T12:31:25Z</time></trkpt>
<trkpt lat="46.22085672" lon="6.10485272"><ele>438.979126</ele><time>2009-10-20T12:31:26Z</time></trkpt>
<trkpt lat="46.22083409" lon="6.10490536"><ele>439.459717</ele><time>2009-10-20T12:31:27Z</time></trkpt>
<trkpt lat="46.22080785" lon="6.10495054"><ele>440.421265</ele><time>2009-10-20T12:31:28Z</time></trkpt>
<trkpt lat="46.22077550" lon="6.10499237"><ele>440.901855</ele><time>2009-10-20T12:31:29Z</time></trkpt>
<trkpt lat="46.22074616" lon="6.10504400"><ele>443.305054</ele><time>2009-10-20T12:31:30Z</time></trkpt>
<trkpt lat="46.22071113" lon="6.10509194"><ele>445.227661</ele><time>2009-10-20T12:31:31Z</time></trkpt>
<trkpt lat="46.22067307" lon="6.10514743"><ele>445.227661</ele><time>2009-10-20T12:31:32Z</time></trkpt>
<trkpt lat="46.22063225" lon="6.10519948"><ele>446.189087</ele><time>2009-10-20T12:31:33Z</time></trkpt>
<trkpt lat="46.22059126" lon="6.10524969"><ele>446.669678</ele><time>2009-10-20T12:31:34Z</time></trkpt>
<trkpt lat="46.22054986" lon="6.10530853"><ele>442.343872</ele><time>2009-10-20T12:31:35Z</time></trkpt>
<trkpt lat="46.22050937" lon="6.10536134"><ele>441.863159</ele><time>2009-10-20T12:31:36Z</time></trkpt>
<trkpt lat="46.22047157" lon="6.10541155"><ele>440.901855</ele><time>2009-10-20T12:31:37Z</time></trkpt>
<trkpt lat="46.22043494" lon="6.10546578"><ele>440.901855</ele><time>2009-10-20T12:31:38Z</time></trkpt>
<trkpt lat="46.22040167" lon="6.10551607"><ele>438.979126</ele><time>2009-10-20T12:31:39Z</time></trkpt>
<trkpt lat="46.22037820" lon="6.10556963"><ele>438.017822</ele><time>2009-10-20T12:31:40Z</time></trkpt>
<trkpt lat="46.22035632" lon="6.10562495"><ele>438.017822</ele><time>2009-10-20T12:31:41Z</time></trkpt>
<trkpt lat="46.22032665" lon="6.10567449"><ele>437.056519</ele><time>2009-10-20T12:31:42Z</time></trkpt>
<trkpt lat="46.22029454" lon="6.10571665"><ele>436.095215</ele><time>2009-10-20T12:31:43Z</time></trkpt>
<trkpt lat="46.22026378" lon="6.10575294"><ele>435.133911</ele><time>2009-10-20T12:31:44Z</time></trkpt>
<trkpt lat="46.22023579" lon="6.10578580"><ele>431.769165</ele><time>2009-10-20T12:31:45Z</time></trkpt>
<trkpt lat="46.22023093" lon="6.10580835"><ele>430.327271</ele><time>2009-10-20T12:31:46Z</time></trkpt>
<trkpt lat="46.22024216" lon="6.10581329"><ele>430.327271</ele><time>2009-10-20T12:31:47Z</time></trkpt>
<trkpt lat="46.22024677" lon="6.10580944"><ele>428.404663</ele><time>2009-10-20T12:31:48Z</time></trkpt>
<trkpt lat="46.22026169" lon="6.10580273"><ele>426.482056</ele><time>2009-10-20T12:31:49Z</time></trkpt>
<trkpt lat="46.22025498" lon="6.10579242"><ele>423.598022</ele><time>2009-10-20T12:31:50Z</time></trkpt>
<trkpt lat="46.22023344" lon="6.10578588"><ele>419.272217</ele><time>2009-10-20T12:31:51Z</time></trkpt>
<trkpt lat="46.22020125" lon="6.10578136"><ele>415.42688</ele><time>2009-10-20T12:31:52Z</time></trkpt>
<trkpt lat="46.22016387" lon="6.10577968"><ele>412.062256</ele><time>2009-10-20T12:31:53Z</time></trkpt>
<trkpt lat="46.22013269" lon="6.10581044"><ele>410.620239</ele><time>2009-10-20T12:31:54Z</time></trkpt>
<trkpt lat="46.22010687" lon="6.10584137"><ele>408.217041</ele><time>2009-10-20T12:31:55Z</time></trkpt>
<trkpt lat="46.22007863" lon="6.10588479"><ele>406.774902</ele><time>2009-10-20T12:31:56Z</time></trkpt>
<trkpt lat="46.22006153" lon="6.10592946"><ele>406.294312</ele><time>2009-10-20T12:31:57Z</time></trkpt>
<trkpt lat="46.22005239" lon="6.10597649"><ele>406.294312</ele><time>2009-10-20T12:31:58Z</time></trkpt>
<trkpt lat="46.22004057" lon="6.10602460"><ele>407.255615</ele><time>2009-10-20T12:31:59Z</time></trkpt>
<trkpt lat="46.22003093" lon="6.10607103"><ele>407.736328</ele><time>2009-10-20T12:32:00Z</time></trkpt>
<trkpt lat="46.22002532" lon="6.10611596"><ele>408.217041</ele><time>2009-10-20T12:32:01Z</time></trkpt>
<trkpt lat="46.22001333" lon="6.10615443"><ele>408.217041</ele><time>2009-10-20T12:32:02Z</time></trkpt>
<trkpt lat="46.22001174" lon="6.10619416"><ele>408.217041</ele><time>2009-10-20T12:32:03Z</time></trkpt>
<trkpt lat="46.22003454" lon="6.10623423"><ele>410.620239</ele><time>2009-10-20T12:32:04Z</time></trkpt>
<trkpt lat="46.22005566" lon="6.10627438"><ele>412.062256</ele><time>2009-10-20T12:32:05Z</time></trkpt>
<trkpt lat="46.22007729" lon="6.10633607"><ele>411.581665</ele><time>2009-10-20T12:32:06Z</time></trkpt>
<trkpt lat="46.22009832" lon="6.10639919"><ele>411.100952</ele><time>2009-10-20T12:32:07Z</time></trkpt>
<trkpt lat="46.22013093" lon="6.10648753"><ele>415.42688</ele><time>2009-10-20T12:32:08Z</time></trkpt>
<trkpt lat="46.22015448" lon="6.10655467"><ele>415.907471</ele><time>2009-10-20T12:32:09Z</time></trkpt>
<trkpt lat="46.22018977" lon="6.10661670"><ele>415.907471</ele><time>2009-10-20T12:32:10Z</time></trkpt>
<trkpt lat="46.22017946" lon="6.10676673"><ele>417.8302</ele><time>2009-10-20T12:32:11Z</time></trkpt>
<trkpt lat="46.22020259" lon="6.10687762"><ele>421.675415</ele><time>2009-10-20T12:32:12Z</time></trkpt>
<trkpt lat="46.22020234" lon="6.10697058"><ele>425.040161</ele><time>2009-10-20T12:32:13Z</time></trkpt>
<trkpt lat="46.22023319" lon="6.10699514"><ele>424.559448</ele><time>2009-10-20T12:32:14Z</time></trkpt>
<trkpt lat="46.22024685" lon="6.10703118"><ele>424.559448</ele><time>2009-10-20T12:32:15Z</time></trkpt>
<trkpt lat="46.22031139" lon="6.10709815"><ele>426.962769</ele><time>2009-10-20T12:32:16Z</time></trkpt>
<trkpt lat="46.22033344" lon="6.10709446"><ele>426.001343</ele><time>2009-10-20T12:32:17Z</time></trkpt>
<trkpt lat="46.22039840" lon="6.10713453"><ele>426.962769</ele><time>2009-10-20T12:32:18Z</time></trkpt>
<trkpt lat="46.22044207" lon="6.10716965"><ele>427.92395</ele><time>2009-10-20T12:32:19Z</time></trkpt>
<trkpt lat="46.22049185" lon="6.10718549"><ele>428.885376</ele><time>2009-10-20T12:32:20Z</time></trkpt>
<trkpt lat="46.22053108" lon="6.10718080"><ele>429.846558</ele><time>2009-10-20T12:32:21Z</time></trkpt>
<trkpt lat="46.22058280" lon="6.10713629"><ele>430.807983</ele><time>2009-10-20T12:32:22Z</time></trkpt>
<trkpt lat="46.22062798" lon="6.10712062"><ele>431.288574</ele><time>2009-10-20T12:32:23Z</time></trkpt>
<trkpt lat="46.22067223" lon="6.10712447"><ele>429.846558</ele><time>2009-10-20T12:32:24Z</time></trkpt>
<trkpt lat="46.22071138" lon="6.10714308"><ele>428.885376</ele><time>2009-10-20T12:32:25Z</time></trkpt>
<trkpt lat="46.22073158" lon="6.10715984"><ele>427.92395</ele><time>2009-10-20T12:32:26Z</time></trkpt>
<trkpt lat="46.22074557" lon="6.10717954"><ele>427.92395</ele><time>2009-10-20T12:32:27Z</time></trkpt>
<trkpt lat="46.22076267" lon="6.10719077"><ele>427.92395</ele><time>2009-10-20T12:32:28Z</time></trkpt>
<trkpt lat="46.22081062" lon="6.10720670"><ele>426.482056</ele><time>2009-10-20T12:32:29Z</time></trkpt>
<trkpt lat="46.22083065" lon="6.10721533"><ele>424.078735</ele><time>2009-10-20T12:32:30Z</time></trkpt>
<trkpt lat="46.22084649" lon="6.10723059"><ele>422.636719</ele><time>2009-10-20T12:32:31Z</time></trkpt>
<trkpt lat="46.22084892" lon="6.10722036"><ele>422.636719</ele><time>2009-10-20T12:32:32Z</time></trkpt>
<trkpt lat="46.22081707" lon="6.10723427"><ele>422.636719</ele><time>2009-10-20T12:32:33Z</time></trkpt>
<trkpt lat="46.22080014" lon="6.10725489"><ele>420.233398</ele><time>2009-10-20T12:32:34Z</time></trkpt>
<trkpt lat="46.22079209" lon="6.10727434"><ele>415.907471</ele><time>2009-10-20T12:32:35Z</time></trkpt>
<trkpt lat="46.22078069" lon="6.10729152"><ele>414.465454</ele><time>2009-10-20T12:32:36Z</time></trkpt>
<trkpt lat="46.22078430" lon="6.10729446"><ele>412.542847</ele><time>2009-10-20T12:32:37Z</time></trkpt>
<trkpt lat="46.22078732" lon="6.10729010"><ele>412.542847</ele><time>2009-10-20T12:32:38Z</time></trkpt>
<trkpt lat="46.22078623" lon="6.10726018"><ele>413.504272</ele><time>2009-10-20T12:32:39Z</time></trkpt>
<trkpt lat="46.22078497" lon="6.10723687"><ele>414.465454</ele><time>2009-10-20T12:32:40Z</time></trkpt>
<trkpt lat="46.22078413" lon="6.10722137"><ele>417.349609</ele><time>2009-10-20T12:32:41Z</time></trkpt>
<trkpt lat="46.22078983" lon="6.10720284"><ele>418.310791</ele><time>2009-10-20T12:32:42Z</time></trkpt>
<trkpt lat="46.22077567" lon="6.10718868"><ele>416.868896</ele><time>2009-10-20T12:32:43Z</time></trkpt>
<trkpt lat="46.22079075" lon="6.10719555"><ele>417.349609</ele><time>2009-10-20T12:32:44Z</time></trkpt>
<trkpt lat="46.22082537" lon="6.10720963"><ele>417.349609</ele><time>2009-10-20T12:32:45Z</time></trkpt>
<trkpt lat="46.22087248" lon="6.10722807"><ele>416.388184</ele><time>2009-10-20T12:32:46Z</time></trkpt>
<trkpt lat="46.22092025" lon="6.10725515"><ele>416.868896</ele><time>2009-10-20T12:32:47Z</time></trkpt>
<trkpt lat="46.22097046" lon="6.10729655"><ele>417.349609</ele><time>2009-10-20T12:32:48Z</time></trkpt>
<trkpt lat="46.22103634" lon="6.10734374"><ele>417.8302</ele><time>2009-10-20T12:32:49Z</time></trkpt>
<trkpt lat="46.22108228" lon="6.10739429"><ele>421.675415</ele><time>2009-10-20T12:32:50Z</time></trkpt>
<trkpt lat="46.22111480" lon="6.10741273"><ele>424.559448</ele><time>2009-10-20T12:32:51Z</time></trkpt>
<trkpt lat="46.22112502" lon="6.10740116"><ele>427.92395</ele><time>2009-10-20T12:32:52Z</time></trkpt>
<trkpt lat="46.22115646" lon="6.10740082"><ele>429.846558</ele><time>2009-10-20T12:32:53Z</time></trkpt>
<trkpt lat="46.22118688" lon="6.10738683"><ele>430.807983</ele><time>2009-10-20T12:32:54Z</time></trkpt>
<trkpt lat="46.22120415" lon="6.10736025"><ele>431.288574</ele><time>2009-10-20T12:32:55Z</time></trkpt>
<trkpt lat="46.22122192" lon="6.10732815"><ele>431.288574</ele><time>2009-10-20T12:32:56Z</time></trkpt>
<trkpt lat="46.22122594" lon="6.10729840"><ele>430.807983</ele><time>2009-10-20T12:32:57Z</time></trkpt>
<trkpt lat="46.22123944" lon="6.10728423"><ele>431.769165</ele><time>2009-10-20T12:32:58Z</time></trkpt>
<trkpt lat="46.22125712" lon="6.10726554"><ele>434.172607</ele><time>2009-10-20T12:32:59Z</time></trkpt>
<trkpt lat="46.22126517" lon="6.10726663"><ele>437.537109</ele><time>2009-10-20T12:33:00Z</time></trkpt>
<trkpt lat="46.22127824" lon="6.10726730"><ele>440.421265</ele><time>2009-10-20T12:33:01Z</time></trkpt>
<trkpt lat="46.22129593" lon="6.10726386"><ele>441.863159</ele><time>2009-10-20T12:33:02Z</time></trkpt>
<trkpt lat="46.22131295" lon="6.10725204"><ele>443.305054</ele><time>2009-10-20T12:33:03Z</time></trkpt>
<trkpt lat="46.22132988" lon="6.10723553"><ele>444.74707</ele><time>2009-10-20T12:33:04Z</time></trkpt>
<trkpt lat="46.22134765" lon="6.10721433"><ele>445.227661</ele><time>2009-10-20T12:33:05Z</time></trkpt>
<trkpt lat="46.22136994" lon="6.10718759"><ele>446.189087</ele><time>2009-10-20T12:33:06Z</time></trkpt>
<trkpt lat="46.22138746" lon="6.10715062"><ele>445.708374</ele><time>2009-10-20T12:33:07Z</time></trkpt>
<trkpt lat="46.22140464" lon="6.10711659"><ele>445.708374</ele><time>2009-10-20T12:33:08Z</time></trkpt>
<trkpt lat="46.22142174" lon="6.10708005"><ele>445.227661</ele><time>2009-10-20T12:33:09Z</time></trkpt>
<trkpt lat="46.22143649" lon="6.10704032"><ele>443.785767</ele><time>2009-10-20T12:33:10Z</time></trkpt>
<trkpt lat="46.22145049" lon="6.10699673"><ele>442.343872</ele><time>2009-10-20T12:33:11Z</time></trkpt>
<trkpt lat="46.22145963" lon="6.10695524"><ele>441.863159</ele><time>2009-10-20T12:33:12Z</time></trkpt>
<trkpt lat="46.22147229" lon="6.10690470"><ele>440.901855</ele><time>2009-10-20T12:33:13Z</time></trkpt>
<trkpt lat="46.22148134" lon="6.10686103"><ele>439.459717</ele><time>2009-10-20T12:33:14Z</time></trkpt>
<trkpt lat="46.22148897" lon="6.10683220"><ele>438.498535</ele><time>2009-10-20T12:33:15Z</time></trkpt>
<trkpt lat="46.22150154" lon="6.10680973"><ele>439.94043</ele><time>2009-10-20T12:33:16Z</time></trkpt>
<trkpt lat="46.22151285" lon="6.10678643"><ele>441.863159</ele><time>2009-10-20T12:33:17Z</time></trkpt>
<trkpt lat="46.22152668" lon="6.10676489"><ele>443.305054</ele><time>2009-10-20T12:33:18Z</time></trkpt>
<trkpt lat="46.22153968" lon="6.10676648"><ele>445.227661</ele><time>2009-10-20T12:33:19Z</time></trkpt>
<trkpt lat="46.22155049" lon="6.10678425"><ele>447.150269</ele><time>2009-10-20T12:33:20Z</time></trkpt>
<trkpt lat="46.22157555" lon="6.10680839"><ele>445.708374</ele><time>2009-10-20T12:33:21Z</time></trkpt>
<trkpt lat="46.22161176" lon="6.10684468"><ele>444.74707</ele><time>2009-10-20T12:33:22Z</time></trkpt>
<trkpt lat="46.22165635" lon="6.10689037"><ele>445.227661</ele><time>2009-10-20T12:33:23Z</time></trkpt>
<trkpt lat="46.22171134" lon="6.10694879"><ele>446.189087</ele><time>2009-10-20T12:33:24Z</time></trkpt>
<trkpt lat="46.22175668" lon="6.10700117"><ele>444.74707</ele><time>2009-10-20T12:33:25Z</time></trkpt>
<trkpt lat="46.22178434" lon="6.10706915"><ele>443.785767</ele><time>2009-10-20T12:33:26Z</time></trkpt>
<trkpt lat="46.22182055" lon="6.10712288"><ele>442.824463</ele><time>2009-10-20T12:33:27Z</time></trkpt>
<trkpt lat="46.22185299" lon="6.10716923"><ele>441.863159</ele><time>2009-10-20T12:33:28Z</time></trkpt>
<trkpt lat="46.22188183" lon="6.10722455"><ele>441.863159</ele><time>2009-10-20T12:33:29Z</time></trkpt>
<trkpt lat="46.22191292" lon="6.10728364"><ele>441.863159</ele><time>2009-10-20T12:33:30Z</time></trkpt>
<trkpt lat="46.22195047" lon="6.10732488"><ele>441.863159</ele><time>2009-10-20T12:33:31Z</time></trkpt>
<trkpt lat="46.22197964" lon="6.10732405"><ele>440.421265</ele><time>2009-10-20T12:33:32Z</time></trkpt>
<trkpt lat="46.22202625" lon="6.10731265"><ele>439.459717</ele><time>2009-10-20T12:33:33Z</time></trkpt>
<trkpt lat="46.22204435" lon="6.10730586"><ele>438.979126</ele><time>2009-10-20T12:33:34Z</time></trkpt>
</trkseg></trk></gpx>